<?xml version="1.0" encoding="UTF-8" standalone="no" ?>
<gpx xmlns="http://www.topografix.com/GPX/1/1" xmlns:xsi="http://www.w3.org/2001/XMLSchema-instance" xsi:schemaLocation="http://www.topografix.com/GPX/1/1 http://www.topografix.com/GPX/1/1/gpx.xsd" version="1.1" creator="VisuGPX - https://www.visugpx.com">
  <metadata>
    <name>2021 Raid en Provence</name>
  </metadata>
  <trk>
    <name><![CDATA[J1 Black Laragne]]></name>
    <extensions>
      <line xmlns="http://www.topografix.com/GPX/gpx_style/0/2">
        <color>ff00ff</color>
        <width>4</width>
      </line>
    </extensions>
    <trkseg>
      <trkpt lat="44.31394" lon="5.82625">
        <ele>565.7</ele>
        <time>2021-05-27T08:00:32.000Z</time>
      </trkpt>
      <trkpt lat="44.31402" lon="5.82593">
        <ele>564.9</ele>
        <time>2021-05-27T08:00:35.647Z</time>
      </trkpt>
      <trkpt lat="44.3144" lon="5.82433">
        <ele>567.4</ele>
        <time>2021-05-27T08:01:24.196Z</time>
      </trkpt>
      <trkpt lat="44.31438" lon="5.82367">
        <ele>570.4</ele>
        <time>2021-05-27T08:01:53.754Z</time>
      </trkpt>
      <trkpt lat="44.31405" lon="5.8226">
        <ele>573.4</ele>
        <time>2021-05-27T08:02:34.304Z</time>
      </trkpt>
      <trkpt lat="44.31438" lon="5.82194">
        <ele>574</ele>
        <time>2021-05-27T08:02:55.070Z</time>
      </trkpt>
      <trkpt lat="44.31519" lon="5.82151">
        <ele>574.2</ele>
        <time>2021-05-27T08:03:23.934Z</time>
      </trkpt>
      <trkpt lat="44.31682" lon="5.82059">
        <ele>576.8</ele>
        <time>2021-05-27T08:04:30.236Z</time>
      </trkpt>
      <trkpt lat="44.31771" lon="5.82009">
        <ele>580.6</ele>
        <time>2021-05-27T08:05:19.327Z</time>
      </trkpt>
      <trkpt lat="44.31835" lon="5.81974">
        <ele>583.9</ele>
        <time>2021-05-27T08:05:58.008Z</time>
      </trkpt>
      <trkpt lat="44.31871" lon="5.81941">
        <ele>590</ele>
        <time>2021-05-27T08:06:52.154Z</time>
      </trkpt>
      <trkpt lat="44.31896" lon="5.81898">
        <ele>594</ele>
        <time>2021-05-27T08:07:26.067Z</time>
      </trkpt>
      <trkpt lat="44.31898" lon="5.81896">
        <ele>594.3</ele>
        <time>2021-05-27T08:07:28.721Z</time>
      </trkpt>
      <trkpt lat="44.31933" lon="5.81845">
        <ele>598.4</ele>
        <time>2021-05-27T08:08:04.923Z</time>
      </trkpt>
      <trkpt lat="44.31935" lon="5.81835">
        <ele>598.5</ele>
        <time>2021-05-27T08:08:07.686Z</time>
      </trkpt>
      <trkpt lat="44.31913" lon="5.81751">
        <ele>600.6</ele>
        <time>2021-05-27T08:08:37.522Z</time>
      </trkpt>
      <trkpt lat="44.31919" lon="5.81671">
        <ele>605</ele>
        <time>2021-05-27T08:09:17.215Z</time>
      </trkpt>
      <trkpt lat="44.3193" lon="5.81621">
        <ele>606.1</ele>
        <time>2021-05-27T08:09:33.914Z</time>
      </trkpt>
      <trkpt lat="44.31954" lon="5.81517">
        <ele>611.1</ele>
        <time>2021-05-27T08:10:22.975Z</time>
      </trkpt>
      <trkpt lat="44.31971" lon="5.81455">
        <ele>615.4</ele>
        <time>2021-05-27T08:10:59.849Z</time>
      </trkpt>
      <trkpt lat="44.31971" lon="5.81452">
        <ele>615.6</ele>
        <time>2021-05-27T08:11:01.556Z</time>
      </trkpt>
      <trkpt lat="44.31979" lon="5.81406">
        <ele>618.1</ele>
        <time>2021-05-27T08:11:24.437Z</time>
      </trkpt>
      <trkpt lat="44.31983" lon="5.81388">
        <ele>618.8</ele>
        <time>2021-05-27T08:11:32.223Z</time>
      </trkpt>
      <trkpt lat="44.32002" lon="5.81319">
        <ele>622.2</ele>
        <time>2021-05-27T08:12:05.494Z</time>
      </trkpt>
      <trkpt lat="44.32003" lon="5.81283">
        <ele>622.4</ele>
        <time>2021-05-27T08:12:14.542Z</time>
      </trkpt>
      <trkpt lat="44.32017" lon="5.81149">
        <ele>624.2</ele>
        <time>2021-05-27T08:12:52.612Z</time>
      </trkpt>
      <trkpt lat="44.32058" lon="5.81036">
        <ele>628.7</ele>
        <time>2021-05-27T08:13:44.175Z</time>
      </trkpt>
      <trkpt lat="44.3216" lon="5.8087">
        <ele>635.8</ele>
        <time>2021-05-27T08:15:10.796Z</time>
      </trkpt>
      <trkpt lat="44.32312" lon="5.80758">
        <ele>641.4</ele>
        <time>2021-05-27T08:16:30.667Z</time>
      </trkpt>
      <trkpt lat="44.32435" lon="5.80776">
        <ele>647.2</ele>
        <time>2021-05-27T08:17:39.775Z</time>
      </trkpt>
      <trkpt lat="44.32484" lon="5.80806">
        <ele>652.4</ele>
        <time>2021-05-27T08:18:23.933Z</time>
      </trkpt>
      <trkpt lat="44.32486" lon="5.80808">
        <ele>652.6</ele>
        <time>2021-05-27T08:18:25.697Z</time>
      </trkpt>
      <trkpt lat="44.32542" lon="5.80835">
        <ele>656.6</ele>
        <time>2021-05-27T08:19:03.853Z</time>
      </trkpt>
      <trkpt lat="44.32609" lon="5.80849">
        <ele>661.7</ele>
        <time>2021-05-27T08:19:50.147Z</time>
      </trkpt>
      <trkpt lat="44.32734" lon="5.80825">
        <ele>666.6</ele>
        <time>2021-05-27T08:20:54.004Z</time>
      </trkpt>
      <trkpt lat="44.32779" lon="5.80831">
        <ele>666.7</ele>
        <time>2021-05-27T08:21:09.049Z</time>
      </trkpt>
      <trkpt lat="44.32802" lon="5.80796">
        <ele>662.9</ele>
        <time>2021-05-27T08:21:13.204Z</time>
      </trkpt>
      <trkpt lat="44.32827" lon="5.80748">
        <ele>659</ele>
        <time>2021-05-27T08:21:18.395Z</time>
      </trkpt>
      <trkpt lat="44.32836" lon="5.80734">
        <ele>659.1</ele>
        <time>2021-05-27T08:21:23.106Z</time>
      </trkpt>
      <trkpt lat="44.32908" lon="5.80622">
        <ele>657.1</ele>
        <time>2021-05-27T08:21:42.088Z</time>
      </trkpt>
      <trkpt lat="44.32911" lon="5.8062">
        <ele>657.1</ele>
        <time>2021-05-27T08:21:43.172Z</time>
      </trkpt>
      <trkpt lat="44.32947" lon="5.80598">
        <ele>660</ele>
        <time>2021-05-27T08:22:09.714Z</time>
      </trkpt>
      <trkpt lat="44.32982" lon="5.8051">
        <ele>662.8</ele>
        <time>2021-05-27T08:22:46.187Z</time>
      </trkpt>
      <trkpt lat="44.33034" lon="5.80441">
        <ele>665.7</ele>
        <time>2021-05-27T08:23:23.324Z</time>
      </trkpt>
      <trkpt lat="44.33103" lon="5.80408">
        <ele>664.8</ele>
        <time>2021-05-27T08:23:37.206Z</time>
      </trkpt>
      <trkpt lat="44.33213" lon="5.80318">
        <ele>665.8</ele>
        <time>2021-05-27T08:24:21.983Z</time>
      </trkpt>
      <trkpt lat="44.33263" lon="5.80252">
        <ele>671.4</ele>
        <time>2021-05-27T08:25:11.360Z</time>
      </trkpt>
      <trkpt lat="44.33296" lon="5.80196">
        <ele>677.8</ele>
        <time>2021-05-27T08:26:08.306Z</time>
      </trkpt>
      <trkpt lat="44.33312" lon="5.80172">
        <ele>680.9</ele>
        <time>2021-05-27T08:26:37.263Z</time>
      </trkpt>
      <trkpt lat="44.33313" lon="5.8017">
        <ele>681.2</ele>
        <time>2021-05-27T08:26:39.458Z</time>
      </trkpt>
      <trkpt lat="44.33364" lon="5.8015">
        <ele>684.7</ele>
        <time>2021-05-27T08:27:13.214Z</time>
      </trkpt>
      <trkpt lat="44.33396" lon="5.80171">
        <ele>688.3</ele>
        <time>2021-05-27T08:27:43.736Z</time>
      </trkpt>
      <trkpt lat="44.33403" lon="5.80185">
        <ele>688.3</ele>
        <time>2021-05-27T08:27:47.720Z</time>
      </trkpt>
      <trkpt lat="44.33437" lon="5.80179">
        <ele>689.7</ele>
        <time>2021-05-27T08:28:05.576Z</time>
      </trkpt>
      <trkpt lat="44.33482" lon="5.80116">
        <ele>690.4</ele>
        <time>2021-05-27T08:28:28.666Z</time>
      </trkpt>
      <trkpt lat="44.33498" lon="5.8009">
        <ele>690.9</ele>
        <time>2021-05-27T08:28:38.502Z</time>
      </trkpt>
      <trkpt lat="44.33516" lon="5.80062">
        <ele>691.6</ele>
        <time>2021-05-27T08:28:50.026Z</time>
      </trkpt>
      <trkpt lat="44.33551" lon="5.80045">
        <ele>692.5</ele>
        <time>2021-05-27T08:29:05.565Z</time>
      </trkpt>
      <trkpt lat="44.33627" lon="5.80013">
        <ele>699.2</ele>
        <time>2021-05-27T08:30:03.993Z</time>
      </trkpt>
      <trkpt lat="44.33648" lon="5.79991">
        <ele>703.1</ele>
        <time>2021-05-27T08:30:36.997Z</time>
      </trkpt>
      <trkpt lat="44.33676" lon="5.80072">
        <ele>701.7</ele>
        <time>2021-05-27T08:30:47.921Z</time>
      </trkpt>
      <trkpt lat="44.33677" lon="5.80075">
        <ele>701.6</ele>
        <time>2021-05-27T08:30:48.246Z</time>
      </trkpt>
      <trkpt lat="44.33718" lon="5.80068">
        <ele>703</ele>
        <time>2021-05-27T08:31:07.778Z</time>
      </trkpt>
      <trkpt lat="44.33723" lon="5.80016">
        <ele>705.9</ele>
        <time>2021-05-27T08:31:33.831Z</time>
      </trkpt>
      <trkpt lat="44.33754" lon="5.79937">
        <ele>713.5</ele>
        <time>2021-05-27T08:32:40.044Z</time>
      </trkpt>
      <trkpt lat="44.33768" lon="5.79916">
        <ele>713.5</ele>
        <time>2021-05-27T08:32:46.739Z</time>
      </trkpt>
      <trkpt lat="44.33852" lon="5.79804">
        <ele>720.4</ele>
        <time>2021-05-27T08:33:57.285Z</time>
      </trkpt>
      <trkpt lat="44.3395" lon="5.79717">
        <ele>727.8</ele>
        <time>2021-05-27T08:35:10.022Z</time>
      </trkpt>
      <trkpt lat="44.33997" lon="5.79695">
        <ele>727.9</ele>
        <time>2021-05-27T08:35:26.488Z</time>
      </trkpt>
      <trkpt lat="44.34046" lon="5.79653">
        <ele>733.2</ele>
        <time>2021-05-27T08:36:11.787Z</time>
      </trkpt>
      <trkpt lat="44.3409" lon="5.79587">
        <ele>738.9</ele>
        <time>2021-05-27T08:37:00.918Z</time>
      </trkpt>
      <trkpt lat="44.34115" lon="5.79546">
        <ele>742.3</ele>
        <time>2021-05-27T08:37:30.232Z</time>
      </trkpt>
      <trkpt lat="44.34185" lon="5.79474">
        <ele>744.8</ele>
        <time>2021-05-27T08:38:08.706Z</time>
      </trkpt>
      <trkpt lat="44.34212" lon="5.79484">
        <ele>745.9</ele>
        <time>2021-05-27T08:38:22.953Z</time>
      </trkpt>
      <trkpt lat="44.34247" lon="5.795">
        <ele>747.8</ele>
        <time>2021-05-27T08:38:44.170Z</time>
      </trkpt>
      <trkpt lat="44.34249" lon="5.79447">
        <ele>747.3</ele>
        <time>2021-05-27T08:38:51.319Z</time>
      </trkpt>
      <trkpt lat="44.34283" lon="5.79354">
        <ele>746.6</ele>
        <time>2021-05-27T08:39:06.104Z</time>
      </trkpt>
      <trkpt lat="44.34454" lon="5.79175">
        <ele>749.8</ele>
        <time>2021-05-27T08:40:26.833Z</time>
      </trkpt>
      <trkpt lat="44.34551" lon="5.79087">
        <ele>757.3</ele>
        <time>2021-05-27T08:41:39.871Z</time>
      </trkpt>
      <trkpt lat="44.34607" lon="5.79042">
        <ele>763.4</ele>
        <time>2021-05-27T08:42:31.826Z</time>
      </trkpt>
      <trkpt lat="44.34673" lon="5.78992">
        <ele>769.7</ele>
        <time>2021-05-27T08:43:26.858Z</time>
      </trkpt>
      <trkpt lat="44.34706" lon="5.78973">
        <ele>773.9</ele>
        <time>2021-05-27T08:44:03.421Z</time>
      </trkpt>
      <trkpt lat="44.34766" lon="5.78931">
        <ele>775.3</ele>
        <time>2021-05-27T08:44:30.469Z</time>
      </trkpt>
      <trkpt lat="44.34771" lon="5.7897">
        <ele>778.9</ele>
        <time>2021-05-27T08:45:03.097Z</time>
      </trkpt>
      <trkpt lat="44.3476" lon="5.78997">
        <ele>782.2</ele>
        <time>2021-05-27T08:45:31.045Z</time>
      </trkpt>
      <trkpt lat="44.34756" lon="5.79014">
        <ele>785.6</ele>
        <time>2021-05-27T08:45:47.141Z</time>
      </trkpt>
      <trkpt lat="44.34737" lon="5.79049">
        <ele>790.7</ele>
        <time>2021-05-27T08:46:26.663Z</time>
      </trkpt>
      <trkpt lat="44.34716" lon="5.7909">
        <ele>795.2</ele>
        <time>2021-05-27T08:47:06.977Z</time>
      </trkpt>
      <trkpt lat="44.3471" lon="5.79111">
        <ele>798.3</ele>
        <time>2021-05-27T08:47:27.316Z</time>
      </trkpt>
      <trkpt lat="44.34706" lon="5.7913">
        <ele>801.3</ele>
        <time>2021-05-27T08:47:45.130Z</time>
      </trkpt>
      <trkpt lat="44.34696" lon="5.79167">
        <ele>806.4</ele>
        <time>2021-05-27T08:48:20.706Z</time>
      </trkpt>
      <trkpt lat="44.34682" lon="5.79205">
        <ele>810.8</ele>
        <time>2021-05-27T08:48:59.152Z</time>
      </trkpt>
      <trkpt lat="44.34666" lon="5.79256">
        <ele>816.7</ele>
        <time>2021-05-27T08:49:49.242Z</time>
      </trkpt>
      <trkpt lat="44.34643" lon="5.79324">
        <ele>819.8</ele>
        <time>2021-05-27T08:50:21.526Z</time>
      </trkpt>
      <trkpt lat="44.34634" lon="5.79358">
        <ele>820.6</ele>
        <time>2021-05-27T08:50:33.311Z</time>
      </trkpt>
      <trkpt lat="44.34624" lon="5.7942">
        <ele>822.1</ele>
        <time>2021-05-27T08:50:54.553Z</time>
      </trkpt>
      <trkpt lat="44.34635" lon="5.79503">
        <ele>826</ele>
        <time>2021-05-27T08:51:32.613Z</time>
      </trkpt>
      <trkpt lat="44.34632" lon="5.79569">
        <ele>826.7</ele>
        <time>2021-05-27T08:51:50.453Z</time>
      </trkpt>
      <trkpt lat="44.3464" lon="5.79667">
        <ele>830.6</ele>
        <time>2021-05-27T08:52:32.114Z</time>
      </trkpt>
      <trkpt lat="44.34633" lon="5.79692">
        <ele>829.1</ele>
        <time>2021-05-27T08:52:34.461Z</time>
      </trkpt>
      <trkpt lat="44.34615" lon="5.79729">
        <ele>826.5</ele>
        <time>2021-05-27T08:52:38.372Z</time>
      </trkpt>
      <trkpt lat="44.34621" lon="5.79804">
        <ele>823.6</ele>
        <time>2021-05-27T08:52:45.072Z</time>
      </trkpt>
      <trkpt lat="44.34626" lon="5.79837">
        <ele>821</ele>
        <time>2021-05-27T08:52:48.021Z</time>
      </trkpt>
      <trkpt lat="44.34627" lon="5.79859">
        <ele>817.7</ele>
        <time>2021-05-27T08:52:49.948Z</time>
      </trkpt>
      <trkpt lat="44.34652" lon="5.79878">
        <ele>815.9</ele>
        <time>2021-05-27T08:52:53.218Z</time>
      </trkpt>
      <trkpt lat="44.34695" lon="5.7987">
        <ele>815.9</ele>
        <time>2021-05-27T08:53:07.363Z</time>
      </trkpt>
      <trkpt lat="44.34726" lon="5.79911">
        <ele>805.5</ele>
        <time>2021-05-27T08:53:12.578Z</time>
      </trkpt>
      <trkpt lat="44.34731" lon="5.79929">
        <ele>801.8</ele>
        <time>2021-05-27T08:53:14.266Z</time>
      </trkpt>
      <trkpt lat="44.34736" lon="5.79948">
        <ele>797.9</ele>
        <time>2021-05-27T08:53:16.036Z</time>
      </trkpt>
      <trkpt lat="44.34728" lon="5.7998">
        <ele>793.8</ele>
        <time>2021-05-27T08:53:18.999Z</time>
      </trkpt>
      <trkpt lat="44.34731" lon="5.79996">
        <ele>790.5</ele>
        <time>2021-05-27T08:53:20.444Z</time>
      </trkpt>
      <trkpt lat="44.34722" lon="5.8003">
        <ele>787</ele>
        <time>2021-05-27T08:53:23.613Z</time>
      </trkpt>
      <trkpt lat="44.34722" lon="5.80056">
        <ele>783</ele>
        <time>2021-05-27T08:53:25.886Z</time>
      </trkpt>
      <trkpt lat="44.34722" lon="5.80065">
        <ele>781.6</ele>
        <time>2021-05-27T08:53:26.673Z</time>
      </trkpt>
      <trkpt lat="44.34722" lon="5.80102">
        <ele>776.9</ele>
        <time>2021-05-27T08:53:29.907Z</time>
      </trkpt>
      <trkpt lat="44.34745" lon="5.8011">
        <ele>772.5</ele>
        <time>2021-05-27T08:53:32.804Z</time>
      </trkpt>
      <trkpt lat="44.34765" lon="5.80111">
        <ele>770.5</ele>
        <time>2021-05-27T08:53:35.250Z</time>
      </trkpt>
      <trkpt lat="44.34791" lon="5.80147">
        <ele>770.1</ele>
        <time>2021-05-27T08:53:42.343Z</time>
      </trkpt>
      <trkpt lat="44.348" lon="5.80192">
        <ele>771.4</ele>
        <time>2021-05-27T08:53:59.271Z</time>
      </trkpt>
      <trkpt lat="44.34831" lon="5.80292">
        <ele>774.7</ele>
        <time>2021-05-27T08:54:40.786Z</time>
      </trkpt>
      <trkpt lat="44.3483" lon="5.80411">
        <ele>775.5</ele>
        <time>2021-05-27T08:55:11.150Z</time>
      </trkpt>
      <trkpt lat="44.34855" lon="5.80475">
        <ele>777.4</ele>
        <time>2021-05-27T08:55:36.672Z</time>
      </trkpt>
      <trkpt lat="44.34865" lon="5.8048">
        <ele>778.1</ele>
        <time>2021-05-27T08:55:43.432Z</time>
      </trkpt>
      <trkpt lat="44.34906" lon="5.80438">
        <ele>778.2</ele>
        <time>2021-05-27T08:56:00.308Z</time>
      </trkpt>
      <trkpt lat="44.34938" lon="5.80394">
        <ele>774</ele>
        <time>2021-05-27T08:56:05.793Z</time>
      </trkpt>
      <trkpt lat="44.34966" lon="5.80387">
        <ele>770.8</ele>
        <time>2021-05-27T08:56:09.270Z</time>
      </trkpt>
      <trkpt lat="44.35014" lon="5.80359">
        <ele>759.5</ele>
        <time>2021-05-27T08:56:15.627Z</time>
      </trkpt>
      <trkpt lat="44.35031" lon="5.80335">
        <ele>751.5</ele>
        <time>2021-05-27T08:56:18.579Z</time>
      </trkpt>
      <trkpt lat="44.35033" lon="5.80317">
        <ele>748.5</ele>
        <time>2021-05-27T08:56:20.172Z</time>
      </trkpt>
      <trkpt lat="44.35035" lon="5.80288">
        <ele>744.1</ele>
        <time>2021-05-27T08:56:22.718Z</time>
      </trkpt>
      <trkpt lat="44.35036" lon="5.8027">
        <ele>741.5</ele>
        <time>2021-05-27T08:56:24.296Z</time>
      </trkpt>
      <trkpt lat="44.35037" lon="5.80259">
        <ele>739.9</ele>
        <time>2021-05-27T08:56:25.265Z</time>
      </trkpt>
      <trkpt lat="44.35048" lon="5.80209">
        <ele>731.9</ele>
        <time>2021-05-27T08:56:29.837Z</time>
      </trkpt>
      <trkpt lat="44.35058" lon="5.80172">
        <ele>726.8</ele>
        <time>2021-05-27T08:56:33.295Z</time>
      </trkpt>
      <trkpt lat="44.35038" lon="5.80155">
        <ele>726.1</ele>
        <time>2021-05-27T08:56:36.927Z</time>
      </trkpt>
      <trkpt lat="44.35051" lon="5.80112">
        <ele>721.2</ele>
        <time>2021-05-27T08:56:41.008Z</time>
      </trkpt>
      <trkpt lat="44.35064" lon="5.8009">
        <ele>718.1</ele>
        <time>2021-05-27T08:56:43.502Z</time>
      </trkpt>
      <trkpt lat="44.35074" lon="5.80048">
        <ele>713.1</ele>
        <time>2021-05-27T08:56:47.371Z</time>
      </trkpt>
      <trkpt lat="44.35088" lon="5.80015">
        <ele>708.3</ele>
        <time>2021-05-27T08:56:50.725Z</time>
      </trkpt>
      <trkpt lat="44.3509" lon="5.8001">
        <ele>707.6</ele>
        <time>2021-05-27T08:56:51.226Z</time>
      </trkpt>
      <trkpt lat="44.35097" lon="5.79992">
        <ele>706.5</ele>
        <time>2021-05-27T08:56:53.016Z</time>
      </trkpt>
      <trkpt lat="44.35103" lon="5.79985">
        <ele>706.3</ele>
        <time>2021-05-27T08:56:54.287Z</time>
      </trkpt>
      <trkpt lat="44.35132" lon="5.79959">
        <ele>704.3</ele>
        <time>2021-05-27T08:56:58.413Z</time>
      </trkpt>
      <trkpt lat="44.35144" lon="5.79936">
        <ele>703.1</ele>
        <time>2021-05-27T08:57:00.835Z</time>
      </trkpt>
      <trkpt lat="44.35154" lon="5.7993">
        <ele>701.8</ele>
        <time>2021-05-27T08:57:02.165Z</time>
      </trkpt>
      <trkpt lat="44.35157" lon="5.79928">
        <ele>701.5</ele>
        <time>2021-05-27T08:57:02.571Z</time>
      </trkpt>
      <trkpt lat="44.3519" lon="5.79917">
        <ele>697.5</ele>
        <time>2021-05-27T08:57:06.717Z</time>
      </trkpt>
      <trkpt lat="44.35257" lon="5.79877">
        <ele>690.7</ele>
        <time>2021-05-27T08:57:15.622Z</time>
      </trkpt>
      <trkpt lat="44.35278" lon="5.79877">
        <ele>691.2</ele>
        <time>2021-05-27T08:57:24.379Z</time>
      </trkpt>
      <trkpt lat="44.35296" lon="5.79798">
        <ele>688.2</ele>
        <time>2021-05-27T08:57:31.938Z</time>
      </trkpt>
      <trkpt lat="44.35291" lon="5.79757">
        <ele>686.9</ele>
        <time>2021-05-27T08:57:35.970Z</time>
      </trkpt>
      <trkpt lat="44.35288" lon="5.7974">
        <ele>687.7</ele>
        <time>2021-05-27T08:57:43.823Z</time>
      </trkpt>
      <trkpt lat="44.35315" lon="5.79665">
        <ele>685.6</ele>
        <time>2021-05-27T08:57:52.672Z</time>
      </trkpt>
      <trkpt lat="44.35312" lon="5.79592">
        <ele>685.3</ele>
        <time>2021-05-27T08:58:08.343Z</time>
      </trkpt>
      <trkpt lat="44.35314" lon="5.79562">
        <ele>684.1</ele>
        <time>2021-05-27T08:58:10.974Z</time>
      </trkpt>
      <trkpt lat="44.35315" lon="5.79539">
        <ele>683.3</ele>
        <time>2021-05-27T08:58:13.112Z</time>
      </trkpt>
      <trkpt lat="44.35329" lon="5.79437">
        <ele>678.5</ele>
        <time>2021-05-27T08:58:21.558Z</time>
      </trkpt>
      <trkpt lat="44.35356" lon="5.79344">
        <ele>677.8</ele>
        <time>2021-05-27T08:58:35.691Z</time>
      </trkpt>
      <trkpt lat="44.35367" lon="5.79313">
        <ele>677.7</ele>
        <time>2021-05-27T08:58:43.290Z</time>
      </trkpt>
      <trkpt lat="44.35371" lon="5.79242">
        <ele>676.6</ele>
        <time>2021-05-27T08:58:51.950Z</time>
      </trkpt>
      <trkpt lat="44.35382" lon="5.79211">
        <ele>676</ele>
        <time>2021-05-27T08:58:56.034Z</time>
      </trkpt>
      <trkpt lat="44.3539" lon="5.79188">
        <ele>675.2</ele>
        <time>2021-05-27T08:58:58.513Z</time>
      </trkpt>
      <trkpt lat="44.35376" lon="5.7911">
        <ele>671.4</ele>
        <time>2021-05-27T08:59:04.980Z</time>
      </trkpt>
      <trkpt lat="44.35374" lon="5.7909">
        <ele>670.4</ele>
        <time>2021-05-27T08:59:06.745Z</time>
      </trkpt>
      <trkpt lat="44.35379" lon="5.79031">
        <ele>667</ele>
        <time>2021-05-27T08:59:11.937Z</time>
      </trkpt>
      <trkpt lat="44.35382" lon="5.7897">
        <ele>664</ele>
        <time>2021-05-27T08:59:17.281Z</time>
      </trkpt>
      <trkpt lat="44.35385" lon="5.78905">
        <ele>661.6</ele>
        <time>2021-05-27T08:59:23.172Z</time>
      </trkpt>
      <trkpt lat="44.35417" lon="5.78878">
        <ele>658.6</ele>
        <time>2021-05-27T08:59:27.740Z</time>
      </trkpt>
      <trkpt lat="44.35435" lon="5.78818">
        <ele>658.7</ele>
        <time>2021-05-27T08:59:43.215Z</time>
      </trkpt>
      <trkpt lat="44.3542" lon="5.78734">
        <ele>655.6</ele>
        <time>2021-05-27T08:59:51.144Z</time>
      </trkpt>
      <trkpt lat="44.35431" lon="5.78699">
        <ele>655.1</ele>
        <time>2021-05-27T08:59:55.978Z</time>
      </trkpt>
      <trkpt lat="44.35503" lon="5.78664">
        <ele>659.4</ele>
        <time>2021-05-27T09:00:41.344Z</time>
      </trkpt>
      <trkpt lat="44.35533" lon="5.78636">
        <ele>663</ele>
        <time>2021-05-27T09:01:11.871Z</time>
      </trkpt>
      <trkpt lat="44.35544" lon="5.78619">
        <ele>664.4</ele>
        <time>2021-05-27T09:01:24.041Z</time>
      </trkpt>
      <trkpt lat="44.35614" lon="5.78541">
        <ele>668.5</ele>
        <time>2021-05-27T09:02:13.706Z</time>
      </trkpt>
      <trkpt lat="44.35693" lon="5.78466">
        <ele>670.9</ele>
        <time>2021-05-27T09:02:54.152Z</time>
      </trkpt>
      <trkpt lat="44.3576" lon="5.78457">
        <ele>673.5</ele>
        <time>2021-05-27T09:03:28.117Z</time>
      </trkpt>
      <trkpt lat="44.3582" lon="5.78443">
        <ele>676.6</ele>
        <time>2021-05-27T09:04:03.019Z</time>
      </trkpt>
      <trkpt lat="44.35856" lon="5.78427">
        <ele>679</ele>
        <time>2021-05-27T09:04:26.652Z</time>
      </trkpt>
      <trkpt lat="44.35899" lon="5.78368">
        <ele>683.8</ele>
        <time>2021-05-27T09:05:09.290Z</time>
      </trkpt>
      <trkpt lat="44.35918" lon="5.78335">
        <ele>687</ele>
        <time>2021-05-27T09:05:36.469Z</time>
      </trkpt>
      <trkpt lat="44.35921" lon="5.7832">
        <ele>688</ele>
        <time>2021-05-27T09:05:45.058Z</time>
      </trkpt>
      <trkpt lat="44.3594" lon="5.78293">
        <ele>689.6</ele>
        <time>2021-05-27T09:06:01.477Z</time>
      </trkpt>
      <trkpt lat="44.35981" lon="5.78283">
        <ele>689.7</ele>
        <time>2021-05-27T09:06:15.353Z</time>
      </trkpt>
      <trkpt lat="44.36036" lon="5.78242">
        <ele>686.4</ele>
        <time>2021-05-27T09:06:23.142Z</time>
      </trkpt>
      <trkpt lat="44.36071" lon="5.78207">
        <ele>682.5</ele>
        <time>2021-05-27T09:06:28.400Z</time>
      </trkpt>
      <trkpt lat="44.36088" lon="5.78181">
        <ele>680.2</ele>
        <time>2021-05-27T09:06:31.479Z</time>
      </trkpt>
      <trkpt lat="44.3613" lon="5.78117">
        <ele>675.4</ele>
        <time>2021-05-27T09:06:39.071Z</time>
      </trkpt>
      <trkpt lat="44.3612" lon="5.78091">
        <ele>673.6</ele>
        <time>2021-05-27T09:06:41.651Z</time>
      </trkpt>
      <trkpt lat="44.36124" lon="5.7802">
        <ele>668.1</ele>
        <time>2021-05-27T09:06:47.875Z</time>
      </trkpt>
      <trkpt lat="44.36126" lon="5.7798">
        <ele>664.9</ele>
        <time>2021-05-27T09:06:51.379Z</time>
      </trkpt>
      <trkpt lat="44.36132" lon="5.77929">
        <ele>660.9</ele>
        <time>2021-05-27T09:06:55.895Z</time>
      </trkpt>
      <trkpt lat="44.3614" lon="5.7793">
        <ele>661</ele>
        <time>2021-05-27T09:06:58.851Z</time>
      </trkpt>
      <trkpt lat="44.36161" lon="5.77876">
        <ele>659.9</ele>
        <time>2021-05-27T09:07:06.042Z</time>
      </trkpt>
      <trkpt lat="44.36196" lon="5.77856">
        <ele>663</ele>
        <time>2021-05-27T09:07:33.315Z</time>
      </trkpt>
      <trkpt lat="44.36243" lon="5.77815">
        <ele>666.9</ele>
        <time>2021-05-27T09:08:09.772Z</time>
      </trkpt>
      <trkpt lat="44.36284" lon="5.77773">
        <ele>668.3</ele>
        <time>2021-05-27T09:08:31.935Z</time>
      </trkpt>
      <trkpt lat="44.36385" lon="5.77694">
        <ele>670.1</ele>
        <time>2021-05-27T09:09:15.937Z</time>
      </trkpt>
      <trkpt lat="44.36402" lon="5.77669">
        <ele>670.3</ele>
        <time>2021-05-27T09:09:24.625Z</time>
      </trkpt>
      <trkpt lat="44.36414" lon="5.77647">
        <ele>669.9</ele>
        <time>2021-05-27T09:09:28.044Z</time>
      </trkpt>
      <trkpt lat="44.36465" lon="5.7756">
        <ele>671.8</ele>
        <time>2021-05-27T09:10:01.513Z</time>
      </trkpt>
      <trkpt lat="44.36473" lon="5.77537">
        <ele>671.9</ele>
        <time>2021-05-27T09:10:07.790Z</time>
      </trkpt>
      <trkpt lat="44.36476" lon="5.77524">
        <ele>671.8</ele>
        <time>2021-05-27T09:10:09.700Z</time>
      </trkpt>
      <trkpt lat="44.36485" lon="5.77477">
        <ele>670.4</ele>
        <time>2021-05-27T09:10:14.571Z</time>
      </trkpt>
      <trkpt lat="44.36498" lon="5.7745">
        <ele>670.1</ele>
        <time>2021-05-27T09:10:18.969Z</time>
      </trkpt>
      <trkpt lat="44.36513" lon="5.77433">
        <ele>670</ele>
        <time>2021-05-27T09:10:24.801Z</time>
      </trkpt>
      <trkpt lat="44.36563" lon="5.77383">
        <ele>668.8</ele>
        <time>2021-05-27T09:10:35.510Z</time>
      </trkpt>
      <trkpt lat="44.36636" lon="5.77361">
        <ele>664.1</ele>
        <time>2021-05-27T09:10:44.115Z</time>
      </trkpt>
      <trkpt lat="44.36645" lon="5.77358">
        <ele>663.2</ele>
        <time>2021-05-27T09:10:45.246Z</time>
      </trkpt>
      <trkpt lat="44.36682" lon="5.77345">
        <ele>661.1</ele>
        <time>2021-05-27T09:10:49.930Z</time>
      </trkpt>
      <trkpt lat="44.36732" lon="5.7728">
        <ele>656</ele>
        <time>2021-05-27T09:10:58.273Z</time>
      </trkpt>
      <trkpt lat="44.36737" lon="5.77267">
        <ele>655</ele>
        <time>2021-05-27T09:10:59.563Z</time>
      </trkpt>
      <trkpt lat="44.36742" lon="5.77255">
        <ele>654.1</ele>
        <time>2021-05-27T09:11:00.776Z</time>
      </trkpt>
      <trkpt lat="44.36748" lon="5.77211">
        <ele>651.1</ele>
        <time>2021-05-27T09:11:04.690Z</time>
      </trkpt>
      <trkpt lat="44.36748" lon="5.77166">
        <ele>648</ele>
        <time>2021-05-27T09:11:08.622Z</time>
      </trkpt>
      <trkpt lat="44.36724" lon="5.77099">
        <ele>645</ele>
        <time>2021-05-27T09:11:15.149Z</time>
      </trkpt>
      <trkpt lat="44.36685" lon="5.77056">
        <ele>642.9</ele>
        <time>2021-05-27T09:11:21.969Z</time>
      </trkpt>
      <trkpt lat="44.36689" lon="5.77005">
        <ele>641.9</ele>
        <time>2021-05-27T09:11:27.825Z</time>
      </trkpt>
      <trkpt lat="44.36755" lon="5.7689">
        <ele>639.5</ele>
        <time>2021-05-27T09:11:45.517Z</time>
      </trkpt>
      <trkpt lat="44.36805" lon="5.7687">
        <ele>640.9</ele>
        <time>2021-05-27T09:12:08.024Z</time>
      </trkpt>
      <trkpt lat="44.36866" lon="5.76905">
        <ele>643.9</ele>
        <time>2021-05-27T09:12:44.539Z</time>
      </trkpt>
      <trkpt lat="44.36916" lon="5.76899">
        <ele>643.4</ele>
        <time>2021-05-27T09:12:54.394Z</time>
      </trkpt>
      <trkpt lat="44.36955" lon="5.76918">
        <ele>644.6</ele>
        <time>2021-05-27T09:13:12.743Z</time>
      </trkpt>
      <trkpt lat="44.37024" lon="5.76906">
        <ele>645.3</ele>
        <time>2021-05-27T09:13:37.719Z</time>
      </trkpt>
      <trkpt lat="44.37041" lon="5.76904">
        <ele>645.6</ele>
        <time>2021-05-27T09:13:44.349Z</time>
      </trkpt>
      <trkpt lat="44.37134" lon="5.76895">
        <ele>649.7</ele>
        <time>2021-05-27T09:14:35.254Z</time>
      </trkpt>
      <trkpt lat="44.37227" lon="5.76883">
        <ele>655.4</ele>
        <time>2021-05-27T09:15:32.652Z</time>
      </trkpt>
      <trkpt lat="44.37235" lon="5.76883">
        <ele>655.9</ele>
        <time>2021-05-27T09:15:37.620Z</time>
      </trkpt>
      <trkpt lat="44.37248" lon="5.7687">
        <ele>656.2</ele>
        <time>2021-05-27T09:15:43.912Z</time>
      </trkpt>
      <trkpt lat="44.37302" lon="5.76814">
        <ele>657.8</ele>
        <time>2021-05-27T09:16:11.942Z</time>
      </trkpt>
      <trkpt lat="44.3738" lon="5.7679">
        <ele>661.3</ele>
        <time>2021-05-27T09:16:55.447Z</time>
      </trkpt>
      <trkpt lat="44.37415" lon="5.76735">
        <ele>666</ele>
        <time>2021-05-27T09:17:35.863Z</time>
      </trkpt>
      <trkpt lat="44.37428" lon="5.767">
        <ele>668.5</ele>
        <time>2021-05-27T09:17:57.393Z</time>
      </trkpt>
      <trkpt lat="44.37443" lon="5.76648">
        <ele>672.9</ele>
        <time>2021-05-27T09:18:34.959Z</time>
      </trkpt>
      <trkpt lat="44.37403" lon="5.76678">
        <ele>670</ele>
        <time>2021-05-27T09:18:40.150Z</time>
      </trkpt>
      <trkpt lat="44.3743" lon="5.76674">
        <ele>670.3</ele>
        <time>2021-05-27T09:18:50.000Z</time>
      </trkpt>
      <trkpt lat="44.37447" lon="5.76653">
        <ele>672.2</ele>
        <time>2021-05-27T09:19:06.605Z</time>
      </trkpt>
      <trkpt lat="44.37466" lon="5.76611">
        <ele>675.7</ele>
        <time>2021-05-27T09:19:36.301Z</time>
      </trkpt>
      <trkpt lat="44.37508" lon="5.76535">
        <ele>679.3</ele>
        <time>2021-05-27T09:20:16.084Z</time>
      </trkpt>
      <trkpt lat="44.37547" lon="5.76495">
        <ele>683.9</ele>
        <time>2021-05-27T09:20:55.229Z</time>
      </trkpt>
      <trkpt lat="44.37578" lon="5.76454">
        <ele>686.1</ele>
        <time>2021-05-27T09:21:19.805Z</time>
      </trkpt>
      <trkpt lat="44.37587" lon="5.76485">
        <ele>686</ele>
        <time>2021-05-27T09:21:27.133Z</time>
      </trkpt>
      <trkpt lat="44.37668" lon="5.7663">
        <ele>682.3</ele>
        <time>2021-05-27T09:21:47.940Z</time>
      </trkpt>
      <trkpt lat="44.37709" lon="5.76621">
        <ele>688.9</ele>
        <time>2021-05-27T09:22:40.136Z</time>
      </trkpt>
      <trkpt lat="44.37762" lon="5.76611">
        <ele>697.7</ele>
        <time>2021-05-27T09:23:47.398Z</time>
      </trkpt>
      <trkpt lat="44.37776" lon="5.7665">
        <ele>696.8</ele>
        <time>2021-05-27T09:23:52.294Z</time>
      </trkpt>
      <trkpt lat="44.37784" lon="5.76686">
        <ele>695.2</ele>
        <time>2021-05-27T09:23:55.488Z</time>
      </trkpt>
      <trkpt lat="44.37817" lon="5.76721">
        <ele>700.1</ele>
        <time>2021-05-27T09:24:38.236Z</time>
      </trkpt>
      <trkpt lat="44.37854" lon="5.76742">
        <ele>708.9</ele>
        <time>2021-05-27T09:25:28.455Z</time>
      </trkpt>
      <trkpt lat="44.37882" lon="5.76767">
        <ele>715.7</ele>
        <time>2021-05-27T09:26:10.230Z</time>
      </trkpt>
      <trkpt lat="44.37905" lon="5.76843">
        <ele>715.6</ele>
        <time>2021-05-27T09:26:28.978Z</time>
      </trkpt>
      <trkpt lat="44.37909" lon="5.76875">
        <ele>711.7</ele>
        <time>2021-05-27T09:26:31.816Z</time>
      </trkpt>
      <trkpt lat="44.37949" lon="5.76902">
        <ele>715.3</ele>
        <time>2021-05-27T09:27:03.607Z</time>
      </trkpt>
      <trkpt lat="44.37992" lon="5.76916">
        <ele>718.9</ele>
        <time>2021-05-27T09:27:35.336Z</time>
      </trkpt>
      <trkpt lat="44.38031" lon="5.76912">
        <ele>723.7</ele>
        <time>2021-05-27T09:28:17.938Z</time>
      </trkpt>
      <trkpt lat="44.38071" lon="5.76896">
        <ele>731.8</ele>
        <time>2021-05-27T09:29:10.262Z</time>
      </trkpt>
      <trkpt lat="44.38092" lon="5.76875">
        <ele>741.6</ele>
        <time>2021-05-27T09:29:42.726Z</time>
      </trkpt>
      <trkpt lat="44.38123" lon="5.76923">
        <ele>740.4</ele>
        <time>2021-05-27T09:29:50.214Z</time>
      </trkpt>
      <trkpt lat="44.38124" lon="5.76929">
        <ele>740.9</ele>
        <time>2021-05-27T09:29:54.516Z</time>
      </trkpt>
      <trkpt lat="44.38104" lon="5.76982">
        <ele>734.6</ele>
        <time>2021-05-27T09:29:59.751Z</time>
      </trkpt>
      <trkpt lat="44.38098" lon="5.77024">
        <ele>730.3</ele>
        <time>2021-05-27T09:30:03.493Z</time>
      </trkpt>
      <trkpt lat="44.38109" lon="5.77059">
        <ele>730.2</ele>
        <time>2021-05-27T09:30:11.930Z</time>
      </trkpt>
      <trkpt lat="44.38143" lon="5.77086">
        <ele>735.4</ele>
        <time>2021-05-27T09:31:00.801Z</time>
      </trkpt>
      <trkpt lat="44.38152" lon="5.77091">
        <ele>736.3</ele>
        <time>2021-05-27T09:31:08.483Z</time>
      </trkpt>
      <trkpt lat="44.38163" lon="5.77091">
        <ele>739</ele>
        <time>2021-05-27T09:31:22.318Z</time>
      </trkpt>
      <trkpt lat="44.38213" lon="5.77099">
        <ele>740.8</ele>
        <time>2021-05-27T09:31:46.724Z</time>
      </trkpt>
      <trkpt lat="44.38232" lon="5.77077">
        <ele>745.9</ele>
        <time>2021-05-27T09:32:17.741Z</time>
      </trkpt>
      <trkpt lat="44.38255" lon="5.77054">
        <ele>754.3</ele>
        <time>2021-05-27T09:32:53.297Z</time>
      </trkpt>
      <trkpt lat="44.38255" lon="5.77066">
        <ele>751.3</ele>
        <time>2021-05-27T09:32:54.345Z</time>
      </trkpt>
      <trkpt lat="44.38267" lon="5.77114">
        <ele>747.9</ele>
        <time>2021-05-27T09:32:58.787Z</time>
      </trkpt>
      <trkpt lat="44.3825" lon="5.7718">
        <ele>735.7</ele>
        <time>2021-05-27T09:33:04.916Z</time>
      </trkpt>
      <trkpt lat="44.38263" lon="5.77263">
        <ele>737.9</ele>
        <time>2021-05-27T09:33:34.551Z</time>
      </trkpt>
      <trkpt lat="44.38279" lon="5.77296">
        <ele>741.7</ele>
        <time>2021-05-27T09:34:10.344Z</time>
      </trkpt>
      <trkpt lat="44.38295" lon="5.77345">
        <ele>744.3</ele>
        <time>2021-05-27T09:34:35.144Z</time>
      </trkpt>
      <trkpt lat="44.383" lon="5.77371">
        <ele>742.6</ele>
        <time>2021-05-27T09:34:37.496Z</time>
      </trkpt>
      <trkpt lat="44.38335" lon="5.77461">
        <ele>741.2</ele>
        <time>2021-05-27T09:34:50.316Z</time>
      </trkpt>
      <trkpt lat="44.38348" lon="5.77477">
        <ele>743.8</ele>
        <time>2021-05-27T09:35:12.091Z</time>
      </trkpt>
      <trkpt lat="44.38357" lon="5.77522">
        <ele>740.1</ele>
        <time>2021-05-27T09:35:16.173Z</time>
      </trkpt>
      <trkpt lat="44.3837" lon="5.77562">
        <ele>740</ele>
        <time>2021-05-27T09:35:25.936Z</time>
      </trkpt>
      <trkpt lat="44.38387" lon="5.77608">
        <ele>741.9</ele>
        <time>2021-05-27T09:35:47.224Z</time>
      </trkpt>
      <trkpt lat="44.38396" lon="5.77657">
        <ele>741.5</ele>
        <time>2021-05-27T09:35:54.222Z</time>
      </trkpt>
      <trkpt lat="44.38402" lon="5.7769">
        <ele>742.6</ele>
        <time>2021-05-27T09:36:07.674Z</time>
      </trkpt>
      <trkpt lat="44.38391" lon="5.77792">
        <ele>737.9</ele>
        <time>2021-05-27T09:36:16.115Z</time>
      </trkpt>
      <trkpt lat="44.38397" lon="5.77838">
        <ele>738.7</ele>
        <time>2021-05-27T09:36:30.073Z</time>
      </trkpt>
      <trkpt lat="44.38404" lon="5.7789">
        <ele>739.4</ele>
        <time>2021-05-27T09:36:44.921Z</time>
      </trkpt>
      <trkpt lat="44.38414" lon="5.78002">
        <ele>737.5</ele>
        <time>2021-05-27T09:36:58.337Z</time>
      </trkpt>
      <trkpt lat="44.3843" lon="5.78032">
        <ele>741.7</ele>
        <time>2021-05-27T09:37:31.984Z</time>
      </trkpt>
      <trkpt lat="44.38464" lon="5.78139">
        <ele>747</ele>
        <time>2021-05-27T09:38:24.265Z</time>
      </trkpt>
      <trkpt lat="44.38484" lon="5.782">
        <ele>746.1</ele>
        <time>2021-05-27T09:38:32.697Z</time>
      </trkpt>
      <trkpt lat="44.38497" lon="5.78235">
        <ele>741.9</ele>
        <time>2021-05-27T09:38:36.142Z</time>
      </trkpt>
      <trkpt lat="44.38547" lon="5.78334">
        <ele>747.6</ele>
        <time>2021-05-27T09:39:31.239Z</time>
      </trkpt>
      <trkpt lat="44.38601" lon="5.78399">
        <ele>754.6</ele>
        <time>2021-05-27T09:40:30.639Z</time>
      </trkpt>
      <trkpt lat="44.38619" lon="5.78431">
        <ele>762.1</ele>
        <time>2021-05-27T09:41:07.242Z</time>
      </trkpt>
      <trkpt lat="44.38648" lon="5.78492">
        <ele>762.9</ele>
        <time>2021-05-27T09:41:27.092Z</time>
      </trkpt>
      <trkpt lat="44.38675" lon="5.78598">
        <ele>765.3</ele>
        <time>2021-05-27T09:42:03.180Z</time>
      </trkpt>
      <trkpt lat="44.38686" lon="5.78669">
        <ele>766.6</ele>
        <time>2021-05-27T09:42:25.147Z</time>
      </trkpt>
      <trkpt lat="44.38708" lon="5.78686">
        <ele>772.8</ele>
        <time>2021-05-27T09:42:56.755Z</time>
      </trkpt>
      <trkpt lat="44.38743" lon="5.78706">
        <ele>777.6</ele>
        <time>2021-05-27T09:43:40.238Z</time>
      </trkpt>
      <trkpt lat="44.38748" lon="5.78735">
        <ele>776.8</ele>
        <time>2021-05-27T09:43:43.301Z</time>
      </trkpt>
      <trkpt lat="44.38757" lon="5.78783">
        <ele>781.7</ele>
        <time>2021-05-27T09:44:27.903Z</time>
      </trkpt>
      <trkpt lat="44.38772" lon="5.78831">
        <ele>786.6</ele>
        <time>2021-05-27T09:45:13.315Z</time>
      </trkpt>
      <trkpt lat="44.38806" lon="5.78859">
        <ele>788.2</ele>
        <time>2021-05-27T09:45:33.782Z</time>
      </trkpt>
      <trkpt lat="44.38844" lon="5.78922">
        <ele>785.2</ele>
        <time>2021-05-27T09:45:41.273Z</time>
      </trkpt>
      <trkpt lat="44.38844" lon="5.78951">
        <ele>785.7</ele>
        <time>2021-05-27T09:45:49.947Z</time>
      </trkpt>
      <trkpt lat="44.38802" lon="5.78983">
        <ele>791</ele>
        <time>2021-05-27T09:46:35.281Z</time>
      </trkpt>
      <trkpt lat="44.38802" lon="5.78984">
        <ele>791.1</ele>
        <time>2021-05-27T09:46:36.180Z</time>
      </trkpt>
      <trkpt lat="44.38802" lon="5.78993">
        <ele>791.6</ele>
        <time>2021-05-27T09:46:40.661Z</time>
      </trkpt>
      <trkpt lat="44.38817" lon="5.7901">
        <ele>787.9</ele>
        <time>2021-05-27T09:46:43.021Z</time>
      </trkpt>
      <trkpt lat="44.38841" lon="5.79023">
        <ele>785.6</ele>
        <time>2021-05-27T09:46:46.166Z</time>
      </trkpt>
      <trkpt lat="44.38846" lon="5.7903">
        <ele>786.9</ele>
        <time>2021-05-27T09:46:55.062Z</time>
      </trkpt>
      <trkpt lat="44.38833" lon="5.79052">
        <ele>784.3</ele>
        <time>2021-05-27T09:46:57.555Z</time>
      </trkpt>
      <trkpt lat="44.38814" lon="5.79077">
        <ele>790</ele>
        <time>2021-05-27T09:47:30.356Z</time>
      </trkpt>
      <trkpt lat="44.38796" lon="5.79105">
        <ele>796.7</ele>
        <time>2021-05-27T09:48:04.206Z</time>
      </trkpt>
      <trkpt lat="44.38785" lon="5.79115">
        <ele>799.8</ele>
        <time>2021-05-27T09:48:20.704Z</time>
      </trkpt>
      <trkpt lat="44.38767" lon="5.79121">
        <ele>803.7</ele>
        <time>2021-05-27T09:48:43.976Z</time>
      </trkpt>
      <trkpt lat="44.38766" lon="5.79121">
        <ele>803.9</ele>
        <time>2021-05-27T09:48:45.234Z</time>
      </trkpt>
      <trkpt lat="44.38755" lon="5.79136">
        <ele>806.2</ele>
        <time>2021-05-27T09:49:04.551Z</time>
      </trkpt>
      <trkpt lat="44.38758" lon="5.79139">
        <ele>805.7</ele>
        <time>2021-05-27T09:49:05.002Z</time>
      </trkpt>
      <trkpt lat="44.3878" lon="5.7917">
        <ele>804.5</ele>
        <time>2021-05-27T09:49:09.450Z</time>
      </trkpt>
      <trkpt lat="44.38775" lon="5.79195">
        <ele>810.3</ele>
        <time>2021-05-27T09:49:32.783Z</time>
      </trkpt>
      <trkpt lat="44.38777" lon="5.79213">
        <ele>813.9</ele>
        <time>2021-05-27T09:49:49.155Z</time>
      </trkpt>
      <trkpt lat="44.38787" lon="5.79239">
        <ele>818.5</ele>
        <time>2021-05-27T09:50:15.693Z</time>
      </trkpt>
      <trkpt lat="44.38796" lon="5.79219">
        <ele>813.4</ele>
        <time>2021-05-27T09:50:17.757Z</time>
      </trkpt>
      <trkpt lat="44.38807" lon="5.79197">
        <ele>807.5</ele>
        <time>2021-05-27T09:50:20.103Z</time>
      </trkpt>
      <trkpt lat="44.38818" lon="5.79186">
        <ele>804</ele>
        <time>2021-05-27T09:50:21.755Z</time>
      </trkpt>
      <trkpt lat="44.3883" lon="5.79193">
        <ele>804.3</ele>
        <time>2021-05-27T09:50:27.131Z</time>
      </trkpt>
      <trkpt lat="44.38844" lon="5.79222">
        <ele>809.8</ele>
        <time>2021-05-27T09:50:58.585Z</time>
      </trkpt>
      <trkpt lat="44.38867" lon="5.79245">
        <ele>814.1</ele>
        <time>2021-05-27T09:51:34.140Z</time>
      </trkpt>
      <trkpt lat="44.38885" lon="5.79259">
        <ele>815.4</ele>
        <time>2021-05-27T09:51:46.986Z</time>
      </trkpt>
      <trkpt lat="44.38907" lon="5.79272">
        <ele>814.9</ele>
        <time>2021-05-27T09:51:51.078Z</time>
      </trkpt>
      <trkpt lat="44.38909" lon="5.79287">
        <ele>815.6</ele>
        <time>2021-05-27T09:51:57.933Z</time>
      </trkpt>
      <trkpt lat="44.38886" lon="5.79311">
        <ele>820.6</ele>
        <time>2021-05-27T09:52:34.017Z</time>
      </trkpt>
      <trkpt lat="44.38874" lon="5.79325">
        <ele>824.2</ele>
        <time>2021-05-27T09:52:53.667Z</time>
      </trkpt>
      <trkpt lat="44.38862" lon="5.79343">
        <ele>828.8</ele>
        <time>2021-05-27T09:53:15.792Z</time>
      </trkpt>
      <trkpt lat="44.38851" lon="5.79375">
        <ele>835.8</ele>
        <time>2021-05-27T09:53:47.707Z</time>
      </trkpt>
      <trkpt lat="44.38849" lon="5.79392">
        <ele>839</ele>
        <time>2021-05-27T09:54:03.191Z</time>
      </trkpt>
      <trkpt lat="44.38846" lon="5.794">
        <ele>841.1</ele>
        <time>2021-05-27T09:54:11.312Z</time>
      </trkpt>
      <trkpt lat="44.38832" lon="5.79377">
        <ele>841</ele>
        <time>2021-05-27T09:54:17.885Z</time>
      </trkpt>
      <trkpt lat="44.38812" lon="5.79384">
        <ele>843.7</ele>
        <time>2021-05-27T09:54:42.921Z</time>
      </trkpt>
      <trkpt lat="44.38789" lon="5.79404">
        <ele>848.9</ele>
        <time>2021-05-27T09:55:16.978Z</time>
      </trkpt>
      <trkpt lat="44.38787" lon="5.79405">
        <ele>849.2</ele>
        <time>2021-05-27T09:55:19.649Z</time>
      </trkpt>
      <trkpt lat="44.3876" lon="5.79422">
        <ele>854.4</ele>
        <time>2021-05-27T09:55:56.887Z</time>
      </trkpt>
      <trkpt lat="44.38731" lon="5.79475">
        <ele>868.4</ele>
        <time>2021-05-27T09:56:56.882Z</time>
      </trkpt>
      <trkpt lat="44.38711" lon="5.79499">
        <ele>874.6</ele>
        <time>2021-05-27T09:57:30.019Z</time>
      </trkpt>
      <trkpt lat="44.38695" lon="5.79484">
        <ele>873.3</ele>
        <time>2021-05-27T09:57:32.373Z</time>
      </trkpt>
      <trkpt lat="44.38695" lon="5.79464">
        <ele>869.9</ele>
        <time>2021-05-27T09:57:34.120Z</time>
      </trkpt>
      <trkpt lat="44.38686" lon="5.79433">
        <ele>865.8</ele>
        <time>2021-05-27T09:57:37.043Z</time>
      </trkpt>
      <trkpt lat="44.38683" lon="5.79408">
        <ele>862</ele>
        <time>2021-05-27T09:57:39.257Z</time>
      </trkpt>
      <trkpt lat="44.38664" lon="5.79399">
        <ele>862.7</ele>
        <time>2021-05-27T09:57:48.870Z</time>
      </trkpt>
      <trkpt lat="44.38656" lon="5.79407">
        <ele>864.3</ele>
        <time>2021-05-27T09:58:01.237Z</time>
      </trkpt>
      <trkpt lat="44.38611" lon="5.79445">
        <ele>870.1</ele>
        <time>2021-05-27T09:58:50.805Z</time>
      </trkpt>
      <trkpt lat="44.38547" lon="5.79522">
        <ele>882.5</ele>
        <time>2021-05-27T10:00:36.960Z</time>
      </trkpt>
      <trkpt lat="44.38492" lon="5.79572">
        <ele>885.7</ele>
        <time>2021-05-27T10:01:14.061Z</time>
      </trkpt>
      <trkpt lat="44.38465" lon="5.79586">
        <ele>888.2</ele>
        <time>2021-05-27T10:01:35.699Z</time>
      </trkpt>
      <trkpt lat="44.38456" lon="5.7957">
        <ele>887.8</ele>
        <time>2021-05-27T10:01:38.017Z</time>
      </trkpt>
      <trkpt lat="44.38467" lon="5.79495">
        <ele>885</ele>
        <time>2021-05-27T10:01:44.959Z</time>
      </trkpt>
      <trkpt lat="44.38456" lon="5.79468">
        <ele>887.9</ele>
        <time>2021-05-27T10:02:11.782Z</time>
      </trkpt>
      <trkpt lat="44.38439" lon="5.79437">
        <ele>892.2</ele>
        <time>2021-05-27T10:02:46.903Z</time>
      </trkpt>
      <trkpt lat="44.38436" lon="5.79388">
        <ele>894.3</ele>
        <time>2021-05-27T10:03:08.310Z</time>
      </trkpt>
      <trkpt lat="44.38436" lon="5.79385">
        <ele>894.4</ele>
        <time>2021-05-27T10:03:09.506Z</time>
      </trkpt>
      <trkpt lat="44.38415" lon="5.79289">
        <ele>900.9</ele>
        <time>2021-05-27T10:04:05.237Z</time>
      </trkpt>
      <trkpt lat="44.38432" lon="5.79164">
        <ele>903.9</ele>
        <time>2021-05-27T10:04:47.729Z</time>
      </trkpt>
      <trkpt lat="44.38433" lon="5.79157">
        <ele>903.7</ele>
        <time>2021-05-27T10:04:48.451Z</time>
      </trkpt>
      <trkpt lat="44.3841" lon="5.79111">
        <ele>905.3</ele>
        <time>2021-05-27T10:05:09.062Z</time>
      </trkpt>
      <trkpt lat="44.38347" lon="5.79064">
        <ele>910.1</ele>
        <time>2021-05-27T10:05:54.949Z</time>
      </trkpt>
      <trkpt lat="44.38342" lon="5.79048">
        <ele>910.1</ele>
        <time>2021-05-27T10:05:59.019Z</time>
      </trkpt>
      <trkpt lat="44.3832" lon="5.78928">
        <ele>914.6</ele>
        <time>2021-05-27T10:06:49.774Z</time>
      </trkpt>
      <trkpt lat="44.3832" lon="5.78924">
        <ele>914.7</ele>
        <time>2021-05-27T10:06:51.145Z</time>
      </trkpt>
      <trkpt lat="44.38305" lon="5.78807">
        <ele>919.6</ele>
        <time>2021-05-27T10:07:42.147Z</time>
      </trkpt>
      <trkpt lat="44.38305" lon="5.78802">
        <ele>919.8</ele>
        <time>2021-05-27T10:07:44.268Z</time>
      </trkpt>
      <trkpt lat="44.38295" lon="5.78741">
        <ele>924.3</ele>
        <time>2021-05-27T10:08:22.421Z</time>
      </trkpt>
      <trkpt lat="44.38289" lon="5.78714">
        <ele>926.5</ele>
        <time>2021-05-27T10:08:41.177Z</time>
      </trkpt>
      <trkpt lat="44.38274" lon="5.78658">
        <ele>931.7</ele>
        <time>2021-05-27T10:09:27.117Z</time>
      </trkpt>
      <trkpt lat="44.38273" lon="5.78652">
        <ele>932.2</ele>
        <time>2021-05-27T10:09:31.419Z</time>
      </trkpt>
      <trkpt lat="44.38268" lon="5.78601">
        <ele>935.6</ele>
        <time>2021-05-27T10:10:00.468Z</time>
      </trkpt>
      <trkpt lat="44.38255" lon="5.78559">
        <ele>940</ele>
        <time>2021-05-27T10:10:41.609Z</time>
      </trkpt>
      <trkpt lat="44.38243" lon="5.78541">
        <ele>943.4</ele>
        <time>2021-05-27T10:11:03.735Z</time>
      </trkpt>
      <trkpt lat="44.38226" lon="5.78557">
        <ele>947.7</ele>
        <time>2021-05-27T10:11:29.503Z</time>
      </trkpt>
      <trkpt lat="44.38221" lon="5.78566">
        <ele>948.7</ele>
        <time>2021-05-27T10:11:38.378Z</time>
      </trkpt>
      <trkpt lat="44.382" lon="5.78605">
        <ele>951.2</ele>
        <time>2021-05-27T10:12:01.562Z</time>
      </trkpt>
      <trkpt lat="44.38162" lon="5.78678">
        <ele>954.6</ele>
        <time>2021-05-27T10:12:39.019Z</time>
      </trkpt>
      <trkpt lat="44.38088" lon="5.78842">
        <ele>964.4</ele>
        <time>2021-05-27T10:14:10.452Z</time>
      </trkpt>
      <trkpt lat="44.38072" lon="5.78879">
        <ele>968.7</ele>
        <time>2021-05-27T10:14:49.325Z</time>
      </trkpt>
      <trkpt lat="44.38064" lon="5.78901">
        <ele>971.1</ele>
        <time>2021-05-27T10:15:11.513Z</time>
      </trkpt>
      <trkpt lat="44.38054" lon="5.7898">
        <ele>973.1</ele>
        <time>2021-05-27T10:15:38.988Z</time>
      </trkpt>
      <trkpt lat="44.38045" lon="5.79056">
        <ele>976.9</ele>
        <time>2021-05-27T10:16:14.849Z</time>
      </trkpt>
      <trkpt lat="44.3803" lon="5.79152">
        <ele>985.5</ele>
        <time>2021-05-27T10:17:31.079Z</time>
      </trkpt>
      <trkpt lat="44.38023" lon="5.79205">
        <ele>990.2</ele>
        <time>2021-05-27T10:18:12.662Z</time>
      </trkpt>
      <trkpt lat="44.38026" lon="5.7923">
        <ele>989.8</ele>
        <time>2021-05-27T10:18:15.726Z</time>
      </trkpt>
      <trkpt lat="44.38025" lon="5.79257">
        <ele>991.1</ele>
        <time>2021-05-27T10:18:28.150Z</time>
      </trkpt>
      <trkpt lat="44.38023" lon="5.79313">
        <ele>994.6</ele>
        <time>2021-05-27T10:18:58.398Z</time>
      </trkpt>
      <trkpt lat="44.38022" lon="5.7939">
        <ele>994.3</ele>
        <time>2021-05-27T10:19:14.962Z</time>
      </trkpt>
      <trkpt lat="44.38046" lon="5.7954">
        <ele>992.1</ele>
        <time>2021-05-27T10:19:33.991Z</time>
      </trkpt>
      <trkpt lat="44.38057" lon="5.79584">
        <ele>991.8</ele>
        <time>2021-05-27T10:19:40.617Z</time>
      </trkpt>
      <trkpt lat="44.38071" lon="5.79653">
        <ele>992.6</ele>
        <time>2021-05-27T10:20:00.121Z</time>
      </trkpt>
      <trkpt lat="44.38075" lon="5.79698">
        <ele>992.5</ele>
        <time>2021-05-27T10:20:10.212Z</time>
      </trkpt>
      <trkpt lat="44.38049" lon="5.79826">
        <ele>1004</ele>
        <time>2021-05-27T10:21:51.503Z</time>
      </trkpt>
      <trkpt lat="44.38048" lon="5.79848">
        <ele>1005</ele>
        <time>2021-05-27T10:22:01.356Z</time>
      </trkpt>
      <trkpt lat="44.3805" lon="5.79872">
        <ele>1004.7</ele>
        <time>2021-05-27T10:22:04.443Z</time>
      </trkpt>
      <trkpt lat="44.38071" lon="5.79981">
        <ele>999.2</ele>
        <time>2021-05-27T10:22:14.305Z</time>
      </trkpt>
      <trkpt lat="44.38103" lon="5.8008">
        <ele>998.1</ele>
        <time>2021-05-27T10:22:28.748Z</time>
      </trkpt>
      <trkpt lat="44.3811" lon="5.80104">
        <ele>994.8</ele>
        <time>2021-05-27T10:22:31.012Z</time>
      </trkpt>
      <trkpt lat="44.3805" lon="5.8021">
        <ele>999.4</ele>
        <time>2021-05-27T10:23:25.259Z</time>
      </trkpt>
      <trkpt lat="44.37993" lon="5.80308">
        <ele>1010.1</ele>
        <time>2021-05-27T10:24:58.659Z</time>
      </trkpt>
      <trkpt lat="44.37982" lon="5.80327">
        <ele>1014.1</ele>
        <time>2021-05-27T10:25:20.638Z</time>
      </trkpt>
      <trkpt lat="44.37974" lon="5.80345">
        <ele>1017.8</ele>
        <time>2021-05-27T10:25:39.692Z</time>
      </trkpt>
      <trkpt lat="44.37972" lon="5.80385">
        <ele>1017.6</ele>
        <time>2021-05-27T10:25:48.134Z</time>
      </trkpt>
      <trkpt lat="44.37965" lon="5.80461">
        <ele>1019.1</ele>
        <time>2021-05-27T10:26:11.973Z</time>
      </trkpt>
      <trkpt lat="44.37952" lon="5.80528">
        <ele>1023.4</ele>
        <time>2021-05-27T10:26:49.207Z</time>
      </trkpt>
      <trkpt lat="44.3794" lon="5.80588">
        <ele>1025.6</ele>
        <time>2021-05-27T10:27:14.498Z</time>
      </trkpt>
      <trkpt lat="44.37929" lon="5.80696">
        <ele>1024.9</ele>
        <time>2021-05-27T10:27:30.012Z</time>
      </trkpt>
      <trkpt lat="44.37921" lon="5.80717">
        <ele>1028.9</ele>
        <time>2021-05-27T10:27:51.403Z</time>
      </trkpt>
      <trkpt lat="44.3791" lon="5.80738">
        <ele>1034</ele>
        <time>2021-05-27T10:28:14.807Z</time>
      </trkpt>
      <trkpt lat="44.37911" lon="5.80783">
        <ele>1031</ele>
        <time>2021-05-27T10:28:18.741Z</time>
      </trkpt>
      <trkpt lat="44.37911" lon="5.80806">
        <ele>1029.2</ele>
        <time>2021-05-27T10:28:20.750Z</time>
      </trkpt>
      <trkpt lat="44.37904" lon="5.80826">
        <ele>1030.4</ele>
        <time>2021-05-27T10:28:31.636Z</time>
      </trkpt>
      <trkpt lat="44.37882" lon="5.80848">
        <ele>1037</ele>
        <time>2021-05-27T10:29:05.646Z</time>
      </trkpt>
      <trkpt lat="44.3785" lon="5.80962">
        <ele>1042</ele>
        <time>2021-05-27T10:29:57.998Z</time>
      </trkpt>
      <trkpt lat="44.37838" lon="5.81011">
        <ele>1045.6</ele>
        <time>2021-05-27T10:30:28.568Z</time>
      </trkpt>
      <trkpt lat="44.37825" lon="5.81053">
        <ele>1050.7</ele>
        <time>2021-05-27T10:31:09.712Z</time>
      </trkpt>
      <trkpt lat="44.37808" lon="5.81095">
        <ele>1056.9</ele>
        <time>2021-05-27T10:31:53.101Z</time>
      </trkpt>
      <trkpt lat="44.37795" lon="5.81115">
        <ele>1061.9</ele>
        <time>2021-05-27T10:32:17.402Z</time>
      </trkpt>
      <trkpt lat="44.37795" lon="5.81118">
        <ele>1061.5</ele>
        <time>2021-05-27T10:32:17.664Z</time>
      </trkpt>
      <trkpt lat="44.37762" lon="5.81212">
        <ele>1066.8</ele>
        <time>2021-05-27T10:33:07.078Z</time>
      </trkpt>
      <trkpt lat="44.37721" lon="5.81296">
        <ele>1081.3</ele>
        <time>2021-05-27T10:34:38.516Z</time>
      </trkpt>
      <trkpt lat="44.37708" lon="5.8134">
        <ele>1085.5</ele>
        <time>2021-05-27T10:35:15.905Z</time>
      </trkpt>
      <trkpt lat="44.37701" lon="5.81367">
        <ele>1089.2</ele>
        <time>2021-05-27T10:35:41.724Z</time>
      </trkpt>
      <trkpt lat="44.37693" lon="5.81446">
        <ele>1092.4</ele>
        <time>2021-05-27T10:36:15.596Z</time>
      </trkpt>
      <trkpt lat="44.37682" lon="5.81481">
        <ele>1099.4</ele>
        <time>2021-05-27T10:36:49.966Z</time>
      </trkpt>
      <trkpt lat="44.37667" lon="5.81526">
        <ele>1108.8</ele>
        <time>2021-05-27T10:37:34.602Z</time>
      </trkpt>
      <trkpt lat="44.37656" lon="5.81564">
        <ele>1116.6</ele>
        <time>2021-05-27T10:38:11.457Z</time>
      </trkpt>
      <trkpt lat="44.37645" lon="5.81597">
        <ele>1123.1</ele>
        <time>2021-05-27T10:38:44.190Z</time>
      </trkpt>
      <trkpt lat="44.3763" lon="5.81635">
        <ele>1129.6</ele>
        <time>2021-05-27T10:39:23.214Z</time>
      </trkpt>
      <trkpt lat="44.37615" lon="5.81675">
        <ele>1135</ele>
        <time>2021-05-27T10:40:03.821Z</time>
      </trkpt>
      <trkpt lat="44.376" lon="5.81714">
        <ele>1140.5</ele>
        <time>2021-05-27T10:40:43.634Z</time>
      </trkpt>
      <trkpt lat="44.3759" lon="5.81797">
        <ele>1143.3</ele>
        <time>2021-05-27T10:41:17.176Z</time>
      </trkpt>
      <trkpt lat="44.37577" lon="5.81837">
        <ele>1151.6</ele>
        <time>2021-05-27T10:41:56.677Z</time>
      </trkpt>
      <trkpt lat="44.37565" lon="5.81873">
        <ele>1156.7</ele>
        <time>2021-05-27T10:42:32.386Z</time>
      </trkpt>
      <trkpt lat="44.37553" lon="5.819">
        <ele>1162.6</ele>
        <time>2021-05-27T10:43:00.968Z</time>
      </trkpt>
      <trkpt lat="44.3755" lon="5.81944">
        <ele>1161.3</ele>
        <time>2021-05-27T10:43:05.354Z</time>
      </trkpt>
      <trkpt lat="44.37533" lon="5.82025">
        <ele>1166.8</ele>
        <time>2021-05-27T10:43:52.457Z</time>
      </trkpt>
      <trkpt lat="44.37523" lon="5.82078">
        <ele>1173.7</ele>
        <time>2021-05-27T10:44:41.735Z</time>
      </trkpt>
      <trkpt lat="44.37512" lon="5.82121">
        <ele>1182.8</ele>
        <time>2021-05-27T10:45:22.792Z</time>
      </trkpt>
      <trkpt lat="44.37505" lon="5.82162">
        <ele>1189.9</ele>
        <time>2021-05-27T10:46:00.687Z</time>
      </trkpt>
      <trkpt lat="44.37497" lon="5.82204">
        <ele>1193</ele>
        <time>2021-05-27T10:46:26.975Z</time>
      </trkpt>
      <trkpt lat="44.37472" lon="5.82286">
        <ele>1194.3</ele>
        <time>2021-05-27T10:46:52.527Z</time>
      </trkpt>
      <trkpt lat="44.37447" lon="5.82376">
        <ele>1199.4</ele>
        <time>2021-05-27T10:47:39.182Z</time>
      </trkpt>
      <trkpt lat="44.37436" lon="5.82427">
        <ele>1205.8</ele>
        <time>2021-05-27T10:48:27.072Z</time>
      </trkpt>
      <trkpt lat="44.37421" lon="5.82462">
        <ele>1218.8</ele>
        <time>2021-05-27T10:49:03.759Z</time>
      </trkpt>
      <trkpt lat="44.37409" lon="5.82515">
        <ele>1224.8</ele>
        <time>2021-05-27T10:49:53.739Z</time>
      </trkpt>
      <trkpt lat="44.37397" lon="5.82561">
        <ele>1221.7</ele>
        <time>2021-05-27T10:49:58.017Z</time>
      </trkpt>
      <trkpt lat="44.37378" lon="5.82631">
        <ele>1216.6</ele>
        <time>2021-05-27T10:50:04.559Z</time>
      </trkpt>
      <trkpt lat="44.37372" lon="5.82731">
        <ele>1217.1</ele>
        <time>2021-05-27T10:50:29.544Z</time>
      </trkpt>
      <trkpt lat="44.37372" lon="5.82825">
        <ele>1215.5</ele>
        <time>2021-05-27T10:50:40.687Z</time>
      </trkpt>
      <trkpt lat="44.37367" lon="5.82866">
        <ele>1215.8</ele>
        <time>2021-05-27T10:50:51.368Z</time>
      </trkpt>
      <trkpt lat="44.37366" lon="5.82948">
        <ele>1220</ele>
        <time>2021-05-27T10:51:30.315Z</time>
      </trkpt>
      <trkpt lat="44.3735" lon="5.83012">
        <ele>1227.6</ele>
        <time>2021-05-27T10:52:31.269Z</time>
      </trkpt>
      <trkpt lat="44.37341" lon="5.8306">
        <ele>1231.1</ele>
        <time>2021-05-27T10:53:00.962Z</time>
      </trkpt>
      <trkpt lat="44.37337" lon="5.83115">
        <ele>1232.6</ele>
        <time>2021-05-27T10:53:20.716Z</time>
      </trkpt>
      <trkpt lat="44.37341" lon="5.83196">
        <ele>1229.5</ele>
        <time>2021-05-27T10:53:27.940Z</time>
      </trkpt>
      <trkpt lat="44.37335" lon="5.83231">
        <ele>1230.2</ele>
        <time>2021-05-27T10:53:39.114Z</time>
      </trkpt>
      <trkpt lat="44.37336" lon="5.8327">
        <ele>1227.1</ele>
        <time>2021-05-27T10:53:42.523Z</time>
      </trkpt>
      <trkpt lat="44.37341" lon="5.83311">
        <ele>1221.7</ele>
        <time>2021-05-27T10:53:46.157Z</time>
      </trkpt>
      <trkpt lat="44.37343" lon="5.83376">
        <ele>1213.1</ele>
        <time>2021-05-27T10:53:51.841Z</time>
      </trkpt>
      <trkpt lat="44.37364" lon="5.83414">
        <ele>1206.8</ele>
        <time>2021-05-27T10:53:56.038Z</time>
      </trkpt>
      <trkpt lat="44.3741" lon="5.83436">
        <ele>1202.6</ele>
        <time>2021-05-27T10:54:01.980Z</time>
      </trkpt>
      <trkpt lat="44.37433" lon="5.83463">
        <ele>1197.5</ele>
        <time>2021-05-27T10:54:05.649Z</time>
      </trkpt>
      <trkpt lat="44.37455" lon="5.8352">
        <ele>1195</ele>
        <time>2021-05-27T10:54:11.385Z</time>
      </trkpt>
      <trkpt lat="44.37497" lon="5.83525">
        <ele>1193.7</ele>
        <time>2021-05-27T10:54:17.864Z</time>
      </trkpt>
      <trkpt lat="44.37518" lon="5.83524">
        <ele>1195.1</ele>
        <time>2021-05-27T10:54:31.309Z</time>
      </trkpt>
      <trkpt lat="44.37533" lon="5.83545">
        <ele>1199.7</ele>
        <time>2021-05-27T10:54:57.998Z</time>
      </trkpt>
      <trkpt lat="44.37536" lon="5.83593">
        <ele>1205.3</ele>
        <time>2021-05-27T10:55:41.314Z</time>
      </trkpt>
      <trkpt lat="44.37536" lon="5.83599">
        <ele>1204.9</ele>
        <time>2021-05-27T10:55:41.838Z</time>
      </trkpt>
      <trkpt lat="44.37529" lon="5.83639">
        <ele>1201.2</ele>
        <time>2021-05-27T10:55:45.436Z</time>
      </trkpt>
      <trkpt lat="44.37521" lon="5.8367">
        <ele>1196.8</ele>
        <time>2021-05-27T10:55:48.315Z</time>
      </trkpt>
      <trkpt lat="44.37518" lon="5.83681">
        <ele>1193.5</ele>
        <time>2021-05-27T10:55:49.344Z</time>
      </trkpt>
      <trkpt lat="44.37518" lon="5.8372">
        <ele>1184.4</ele>
        <time>2021-05-27T10:55:52.751Z</time>
      </trkpt>
      <trkpt lat="44.37519" lon="5.83745">
        <ele>1178.9</ele>
        <time>2021-05-27T10:55:54.939Z</time>
      </trkpt>
      <trkpt lat="44.37519" lon="5.83758">
        <ele>1175.5</ele>
        <time>2021-05-27T10:55:56.074Z</time>
      </trkpt>
      <trkpt lat="44.37517" lon="5.83778">
        <ele>1169.4</ele>
        <time>2021-05-27T10:55:57.839Z</time>
      </trkpt>
      <trkpt lat="44.37516" lon="5.83788">
        <ele>1166.4</ele>
        <time>2021-05-27T10:55:58.721Z</time>
      </trkpt>
      <trkpt lat="44.37516" lon="5.83795">
        <ele>1164.5</ele>
        <time>2021-05-27T10:55:59.332Z</time>
      </trkpt>
      <trkpt lat="44.37512" lon="5.83818">
        <ele>1156.7</ele>
        <time>2021-05-27T10:56:01.400Z</time>
      </trkpt>
      <trkpt lat="44.37514" lon="5.83842">
        <ele>1150.2</ele>
        <time>2021-05-27T10:56:03.511Z</time>
      </trkpt>
      <trkpt lat="44.37514" lon="5.83851">
        <ele>1147.1</ele>
        <time>2021-05-27T10:56:04.298Z</time>
      </trkpt>
      <trkpt lat="44.37505" lon="5.83844">
        <ele>1146</ele>
        <time>2021-05-27T10:56:05.556Z</time>
      </trkpt>
      <trkpt lat="44.37497" lon="5.83837">
        <ele>1146</ele>
        <time>2021-05-27T10:56:08.633Z</time>
      </trkpt>
      <trkpt lat="44.37504" lon="5.83873">
        <ele>1135.1</ele>
        <time>2021-05-27T10:56:11.893Z</time>
      </trkpt>
      <trkpt lat="44.37505" lon="5.83885">
        <ele>1131.2</ele>
        <time>2021-05-27T10:56:12.948Z</time>
      </trkpt>
      <trkpt lat="44.37499" lon="5.83901">
        <ele>1122.5</ele>
        <time>2021-05-27T10:56:14.527Z</time>
      </trkpt>
      <trkpt lat="44.37487" lon="5.83903">
        <ele>1118.4</ele>
        <time>2021-05-27T10:56:16.004Z</time>
      </trkpt>
      <trkpt lat="44.37482" lon="5.83898">
        <ele>1119</ele>
        <time>2021-05-27T10:56:21.097Z</time>
      </trkpt>
      <trkpt lat="44.37476" lon="5.83909">
        <ele>1112.9</ele>
        <time>2021-05-27T10:56:22.306Z</time>
      </trkpt>
      <trkpt lat="44.37463" lon="5.83928">
        <ele>1104</ele>
        <time>2021-05-27T10:56:24.604Z</time>
      </trkpt>
      <trkpt lat="44.37447" lon="5.8394">
        <ele>1096.5</ele>
        <time>2021-05-27T10:56:26.823Z</time>
      </trkpt>
      <trkpt lat="44.37426" lon="5.83946">
        <ele>1087.6</ele>
        <time>2021-05-27T10:56:29.443Z</time>
      </trkpt>
      <trkpt lat="44.37411" lon="5.83943">
        <ele>1082.5</ele>
        <time>2021-05-27T10:56:31.295Z</time>
      </trkpt>
      <trkpt lat="44.37374" lon="5.83894">
        <ele>1084.5</ele>
        <time>2021-05-27T10:56:57.235Z</time>
      </trkpt>
      <trkpt lat="44.37328" lon="5.83858">
        <ele>1080.4</ele>
        <time>2021-05-27T10:57:03.677Z</time>
      </trkpt>
      <trkpt lat="44.37318" lon="5.83856">
        <ele>1076.3</ele>
        <time>2021-05-27T10:57:04.912Z</time>
      </trkpt>
      <trkpt lat="44.37312" lon="5.83855">
        <ele>1073.7</ele>
        <time>2021-05-27T10:57:05.651Z</time>
      </trkpt>
      <trkpt lat="44.37297" lon="5.83847">
        <ele>1069.5</ele>
        <time>2021-05-27T10:57:07.613Z</time>
      </trkpt>
      <trkpt lat="44.37282" lon="5.83836">
        <ele>1066.4</ele>
        <time>2021-05-27T10:57:09.683Z</time>
      </trkpt>
      <trkpt lat="44.37256" lon="5.83818">
        <ele>1058.8</ele>
        <time>2021-05-27T10:57:13.228Z</time>
      </trkpt>
      <trkpt lat="44.37239" lon="5.83817">
        <ele>1051.4</ele>
        <time>2021-05-27T10:57:15.308Z</time>
      </trkpt>
      <trkpt lat="44.3723" lon="5.83819">
        <ele>1047.1</ele>
        <time>2021-05-27T10:57:16.422Z</time>
      </trkpt>
      <trkpt lat="44.37219" lon="5.8382">
        <ele>1042.3</ele>
        <time>2021-05-27T10:57:17.769Z</time>
      </trkpt>
      <trkpt lat="44.37212" lon="5.83823">
        <ele>1038.7</ele>
        <time>2021-05-27T10:57:18.664Z</time>
      </trkpt>
      <trkpt lat="44.37203" lon="5.83824">
        <ele>1034.7</ele>
        <time>2021-05-27T10:57:19.768Z</time>
      </trkpt>
      <trkpt lat="44.37193" lon="5.83821">
        <ele>1031.4</ele>
        <time>2021-05-27T10:57:21.018Z</time>
      </trkpt>
      <trkpt lat="44.37185" lon="5.83818">
        <ele>1028.9</ele>
        <time>2021-05-27T10:57:22.030Z</time>
      </trkpt>
      <trkpt lat="44.37179" lon="5.83827">
        <ele>1024.3</ele>
        <time>2021-05-27T10:57:23.105Z</time>
      </trkpt>
      <trkpt lat="44.37156" lon="5.83822">
        <ele>1015.6</ele>
        <time>2021-05-27T10:57:25.950Z</time>
      </trkpt>
      <trkpt lat="44.37147" lon="5.83821">
        <ele>1011.6</ele>
        <time>2021-05-27T10:57:27.054Z</time>
      </trkpt>
      <trkpt lat="44.37134" lon="5.83817">
        <ele>1006.2</ele>
        <time>2021-05-27T10:57:28.681Z</time>
      </trkpt>
      <trkpt lat="44.37116" lon="5.83813">
        <ele>998.1</ele>
        <time>2021-05-27T10:57:30.909Z</time>
      </trkpt>
      <trkpt lat="44.37112" lon="5.83813">
        <ele>996.2</ele>
        <time>2021-05-27T10:57:31.397Z</time>
      </trkpt>
      <trkpt lat="44.37101" lon="5.8381">
        <ele>991.1</ele>
        <time>2021-05-27T10:57:32.767Z</time>
      </trkpt>
      <trkpt lat="44.37091" lon="5.8381">
        <ele>986.3</ele>
        <time>2021-05-27T10:57:33.990Z</time>
      </trkpt>
      <trkpt lat="44.37085" lon="5.83821">
        <ele>983.1</ele>
        <time>2021-05-27T10:57:35.198Z</time>
      </trkpt>
      <trkpt lat="44.3708" lon="5.83834">
        <ele>979.9</ele>
        <time>2021-05-27T10:57:36.488Z</time>
      </trkpt>
      <trkpt lat="44.37073" lon="5.8385">
        <ele>973.5</ele>
        <time>2021-05-27T10:57:38.127Z</time>
      </trkpt>
      <trkpt lat="44.37061" lon="5.83853">
        <ele>966.8</ele>
        <time>2021-05-27T10:57:39.617Z</time>
      </trkpt>
      <trkpt lat="44.37054" lon="5.83862">
        <ele>962.4</ele>
        <time>2021-05-27T10:57:40.779Z</time>
      </trkpt>
      <trkpt lat="44.37046" lon="5.83876">
        <ele>957.6</ele>
        <time>2021-05-27T10:57:42.345Z</time>
      </trkpt>
      <trkpt lat="44.37037" lon="5.83887">
        <ele>953.3</ele>
        <time>2021-05-27T10:57:43.806Z</time>
      </trkpt>
      <trkpt lat="44.37021" lon="5.83895">
        <ele>947</ele>
        <time>2021-05-27T10:57:45.883Z</time>
      </trkpt>
      <trkpt lat="44.37003" lon="5.83906">
        <ele>941</ele>
        <time>2021-05-27T10:57:48.284Z</time>
      </trkpt>
      <trkpt lat="44.36991" lon="5.83915">
        <ele>936.7</ele>
        <time>2021-05-27T10:57:49.948Z</time>
      </trkpt>
      <trkpt lat="44.36983" lon="5.83923">
        <ele>932.1</ele>
        <time>2021-05-27T10:57:51.150Z</time>
      </trkpt>
      <trkpt lat="44.36976" lon="5.8393">
        <ele>928</ele>
        <time>2021-05-27T10:57:52.202Z</time>
      </trkpt>
      <trkpt lat="44.36973" lon="5.83933">
        <ele>926.3</ele>
        <time>2021-05-27T10:57:52.652Z</time>
      </trkpt>
      <trkpt lat="44.36961" lon="5.83942">
        <ele>920.8</ele>
        <time>2021-05-27T10:57:54.317Z</time>
      </trkpt>
      <trkpt lat="44.36954" lon="5.83947">
        <ele>918</ele>
        <time>2021-05-27T10:57:55.277Z</time>
      </trkpt>
      <trkpt lat="44.36942" lon="5.83974">
        <ele>913.5</ele>
        <time>2021-05-27T10:57:58.055Z</time>
      </trkpt>
      <trkpt lat="44.36937" lon="5.83983">
        <ele>912.4</ele>
        <time>2021-05-27T10:57:59.051Z</time>
      </trkpt>
      <trkpt lat="44.36918" lon="5.84008">
        <ele>907.1</ele>
        <time>2021-05-27T10:58:02.239Z</time>
      </trkpt>
      <trkpt lat="44.36909" lon="5.84013">
        <ele>903</ele>
        <time>2021-05-27T10:58:03.423Z</time>
      </trkpt>
      <trkpt lat="44.36904" lon="5.84025">
        <ele>897.5</ele>
        <time>2021-05-27T10:58:04.637Z</time>
      </trkpt>
      <trkpt lat="44.36889" lon="5.84036">
        <ele>890.6</ele>
        <time>2021-05-27T10:58:06.707Z</time>
      </trkpt>
      <trkpt lat="44.36873" lon="5.84035">
        <ele>887.6</ele>
        <time>2021-05-27T10:58:08.664Z</time>
      </trkpt>
      <trkpt lat="44.36842" lon="5.84029">
        <ele>882.4</ele>
        <time>2021-05-27T10:58:12.489Z</time>
      </trkpt>
      <trkpt lat="44.36827" lon="5.84033">
        <ele>878.3</ele>
        <time>2021-05-27T10:58:14.356Z</time>
      </trkpt>
      <trkpt lat="44.36817" lon="5.84036">
        <ele>875.4</ele>
        <time>2021-05-27T10:58:15.606Z</time>
      </trkpt>
      <trkpt lat="44.36807" lon="5.8404">
        <ele>872.5</ele>
        <time>2021-05-27T10:58:16.877Z</time>
      </trkpt>
      <trkpt lat="44.36783" lon="5.84044">
        <ele>866.5</ele>
        <time>2021-05-27T10:58:19.831Z</time>
      </trkpt>
      <trkpt lat="44.36761" lon="5.84048">
        <ele>861.2</ele>
        <time>2021-05-27T10:58:22.543Z</time>
      </trkpt>
      <trkpt lat="44.36746" lon="5.84052">
        <ele>857.4</ele>
        <time>2021-05-27T10:58:24.409Z</time>
      </trkpt>
      <trkpt lat="44.36725" lon="5.84074">
        <ele>852.1</ele>
        <time>2021-05-27T10:58:27.616Z</time>
      </trkpt>
      <trkpt lat="44.36715" lon="5.84088">
        <ele>849.8</ele>
        <time>2021-05-27T10:58:29.345Z</time>
      </trkpt>
      <trkpt lat="44.36689" lon="5.84095">
        <ele>844.8</ele>
        <time>2021-05-27T10:58:32.582Z</time>
      </trkpt>
      <trkpt lat="44.36673" lon="5.84115">
        <ele>841.8</ele>
        <time>2021-05-27T10:58:35.204Z</time>
      </trkpt>
      <trkpt lat="44.36671" lon="5.84122">
        <ele>841.5</ele>
        <time>2021-05-27T10:58:35.863Z</time>
      </trkpt>
      <trkpt lat="44.36679" lon="5.84184">
        <ele>840.3</ele>
        <time>2021-05-27T10:58:43.102Z</time>
      </trkpt>
      <trkpt lat="44.36675" lon="5.84246">
        <ele>837.2</ele>
        <time>2021-05-27T10:58:48.541Z</time>
      </trkpt>
      <trkpt lat="44.36675" lon="5.84276">
        <ele>834.2</ele>
        <time>2021-05-27T10:58:51.163Z</time>
      </trkpt>
      <trkpt lat="44.36642" lon="5.84292">
        <ele>832</ele>
        <time>2021-05-27T10:58:55.186Z</time>
      </trkpt>
      <trkpt lat="44.36596" lon="5.84317">
        <ele>833.7</ele>
        <time>2021-05-27T10:59:18.695Z</time>
      </trkpt>
      <trkpt lat="44.36546" lon="5.84404">
        <ele>834.2</ele>
        <time>2021-05-27T10:59:46.301Z</time>
      </trkpt>
      <trkpt lat="44.36555" lon="5.84448">
        <ele>831.8</ele>
        <time>2021-05-27T10:59:50.300Z</time>
      </trkpt>
      <trkpt lat="44.36559" lon="5.8446">
        <ele>830.4</ele>
        <time>2021-05-27T10:59:51.456Z</time>
      </trkpt>
      <trkpt lat="44.36563" lon="5.84471">
        <ele>829</ele>
        <time>2021-05-27T10:59:52.535Z</time>
      </trkpt>
      <trkpt lat="44.36571" lon="5.8451">
        <ele>823.9</ele>
        <time>2021-05-27T10:59:56.080Z</time>
      </trkpt>
      <trkpt lat="44.36575" lon="5.84518">
        <ele>822.5</ele>
        <time>2021-05-27T10:59:56.933Z</time>
      </trkpt>
      <trkpt lat="44.36577" lon="5.8452">
        <ele>822.2</ele>
        <time>2021-05-27T10:59:57.234Z</time>
      </trkpt>
      <trkpt lat="44.36577" lon="5.84551">
        <ele>818.2</ele>
        <time>2021-05-27T10:59:59.942Z</time>
      </trkpt>
      <trkpt lat="44.36579" lon="5.84603">
        <ele>811</ele>
        <time>2021-05-27T11:00:04.493Z</time>
      </trkpt>
      <trkpt lat="44.36581" lon="5.84609">
        <ele>810.3</ele>
        <time>2021-05-27T11:00:05.071Z</time>
      </trkpt>
      <trkpt lat="44.36584" lon="5.84653">
        <ele>803.1</ele>
        <time>2021-05-27T11:00:08.933Z</time>
      </trkpt>
      <trkpt lat="44.36584" lon="5.84676">
        <ele>800.5</ele>
        <time>2021-05-27T11:00:10.943Z</time>
      </trkpt>
      <trkpt lat="44.36576" lon="5.84755">
        <ele>796.1</ele>
        <time>2021-05-27T11:00:17.915Z</time>
      </trkpt>
      <trkpt lat="44.36556" lon="5.84808">
        <ele>792.8</ele>
        <time>2021-05-27T11:00:23.152Z</time>
      </trkpt>
      <trkpt lat="44.36526" lon="5.84878">
        <ele>788.9</ele>
        <time>2021-05-27T11:00:30.283Z</time>
      </trkpt>
      <trkpt lat="44.36514" lon="5.84915">
        <ele>789.3</ele>
        <time>2021-05-27T11:00:41.121Z</time>
      </trkpt>
      <trkpt lat="44.3651" lon="5.84948">
        <ele>784.7</ele>
        <time>2021-05-27T11:00:44.046Z</time>
      </trkpt>
      <trkpt lat="44.36524" lon="5.84988">
        <ele>779.3</ele>
        <time>2021-05-27T11:00:47.938Z</time>
      </trkpt>
      <trkpt lat="44.3652" lon="5.85023">
        <ele>774.3</ele>
        <time>2021-05-27T11:00:51.035Z</time>
      </trkpt>
      <trkpt lat="44.36519" lon="5.8505">
        <ele>770.6</ele>
        <time>2021-05-27T11:00:53.397Z</time>
      </trkpt>
      <trkpt lat="44.36498" lon="5.85079">
        <ele>766.2</ele>
        <time>2021-05-27T11:00:57.004Z</time>
      </trkpt>
      <trkpt lat="44.36491" lon="5.85094">
        <ele>763</ele>
        <time>2021-05-27T11:00:58.569Z</time>
      </trkpt>
      <trkpt lat="44.36455" lon="5.85153">
        <ele>752.4</ele>
        <time>2021-05-27T11:01:05.347Z</time>
      </trkpt>
      <trkpt lat="44.36453" lon="5.85193">
        <ele>747.7</ele>
        <time>2021-05-27T11:01:08.851Z</time>
      </trkpt>
      <trkpt lat="44.3645" lon="5.85247">
        <ele>740.8</ele>
        <time>2021-05-27T11:01:13.584Z</time>
      </trkpt>
      <trkpt lat="44.36446" lon="5.85279">
        <ele>737.2</ele>
        <time>2021-05-27T11:01:16.423Z</time>
      </trkpt>
      <trkpt lat="44.36428" lon="5.85299">
        <ele>736.4</ele>
        <time>2021-05-27T11:01:19.816Z</time>
      </trkpt>
      <trkpt lat="44.36437" lon="5.85327">
        <ele>732.5</ele>
        <time>2021-05-27T11:01:22.499Z</time>
      </trkpt>
      <trkpt lat="44.36414" lon="5.85332">
        <ele>734.2</ele>
        <time>2021-05-27T11:01:38.129Z</time>
      </trkpt>
      <trkpt lat="44.36361" lon="5.853">
        <ele>734.3</ele>
        <time>2021-05-27T11:01:57.256Z</time>
      </trkpt>
      <trkpt lat="44.36347" lon="5.85279">
        <ele>731.1</ele>
        <time>2021-05-27T11:01:59.765Z</time>
      </trkpt>
      <trkpt lat="44.36315" lon="5.85247">
        <ele>722.8</ele>
        <time>2021-05-27T11:02:04.573Z</time>
      </trkpt>
      <trkpt lat="44.36304" lon="5.85229">
        <ele>722.9</ele>
        <time>2021-05-27T11:02:10.409Z</time>
      </trkpt>
      <trkpt lat="44.36273" lon="5.85223">
        <ele>720.4</ele>
        <time>2021-05-27T11:02:14.234Z</time>
      </trkpt>
      <trkpt lat="44.36258" lon="5.85224">
        <ele>718.8</ele>
        <time>2021-05-27T11:02:16.069Z</time>
      </trkpt>
      <trkpt lat="44.36235" lon="5.85229">
        <ele>715</ele>
        <time>2021-05-27T11:02:18.914Z</time>
      </trkpt>
      <trkpt lat="44.3622" lon="5.85235">
        <ele>711.5</ele>
        <time>2021-05-27T11:02:20.821Z</time>
      </trkpt>
      <trkpt lat="44.36204" lon="5.85237">
        <ele>708.5</ele>
        <time>2021-05-27T11:02:22.785Z</time>
      </trkpt>
      <trkpt lat="44.36187" lon="5.85238">
        <ele>705.5</ele>
        <time>2021-05-27T11:02:24.864Z</time>
      </trkpt>
      <trkpt lat="44.36165" lon="5.85254">
        <ele>699</ele>
        <time>2021-05-27T11:02:27.895Z</time>
      </trkpt>
      <trkpt lat="44.36162" lon="5.85258">
        <ele>698.8</ele>
        <time>2021-05-27T11:02:28.434Z</time>
      </trkpt>
      <trkpt lat="44.36125" lon="5.85285">
        <ele>694.2</ele>
        <time>2021-05-27T11:02:33.535Z</time>
      </trkpt>
      <trkpt lat="44.36088" lon="5.85291">
        <ele>688.3</ele>
        <time>2021-05-27T11:02:38.088Z</time>
      </trkpt>
      <trkpt lat="44.36081" lon="5.85292">
        <ele>687.5</ele>
        <time>2021-05-27T11:02:38.948Z</time>
      </trkpt>
      <trkpt lat="44.36033" lon="5.85307">
        <ele>685.5</ele>
        <time>2021-05-27T11:02:45.807Z</time>
      </trkpt>
      <trkpt lat="44.36013" lon="5.8533">
        <ele>682.2</ele>
        <time>2021-05-27T11:02:48.972Z</time>
      </trkpt>
      <trkpt lat="44.3597" lon="5.85352">
        <ele>679.1</ele>
        <time>2021-05-27T11:02:54.568Z</time>
      </trkpt>
      <trkpt lat="44.35963" lon="5.85353">
        <ele>678.7</ele>
        <time>2021-05-27T11:02:55.420Z</time>
      </trkpt>
      <trkpt lat="44.35931" lon="5.85356">
        <ele>677.4</ele>
        <time>2021-05-27T11:02:59.898Z</time>
      </trkpt>
      <trkpt lat="44.359" lon="5.85387">
        <ele>676.1</ele>
        <time>2021-05-27T11:03:05.563Z</time>
      </trkpt>
      <trkpt lat="44.3587" lon="5.85406">
        <ele>677.1</ele>
        <time>2021-05-27T11:03:20.438Z</time>
      </trkpt>
      <trkpt lat="44.35852" lon="5.85427">
        <ele>676</ele>
        <time>2021-05-27T11:03:23.525Z</time>
      </trkpt>
      <trkpt lat="44.35832" lon="5.85448">
        <ele>674.5</ele>
        <time>2021-05-27T11:03:26.475Z</time>
      </trkpt>
      <trkpt lat="44.35802" lon="5.8547">
        <ele>670.8</ele>
        <time>2021-05-27T11:03:30.615Z</time>
      </trkpt>
      <trkpt lat="44.35776" lon="5.8549">
        <ele>667.2</ele>
        <time>2021-05-27T11:03:34.242Z</time>
      </trkpt>
      <trkpt lat="44.3573" lon="5.85479">
        <ele>666.2</ele>
        <time>2021-05-27T11:03:42.194Z</time>
      </trkpt>
      <trkpt lat="44.35698" lon="5.85432">
        <ele>668.4</ele>
        <time>2021-05-27T11:04:08.210Z</time>
      </trkpt>
      <trkpt lat="44.35695" lon="5.85365">
        <ele>672.7</ele>
        <time>2021-05-27T11:04:45.160Z</time>
      </trkpt>
      <trkpt lat="44.35679" lon="5.85328">
        <ele>671.3</ele>
        <time>2021-05-27T11:04:49.292Z</time>
      </trkpt>
      <trkpt lat="44.35662" lon="5.85325">
        <ele>668.4</ele>
        <time>2021-05-27T11:04:51.386Z</time>
      </trkpt>
      <trkpt lat="44.3564" lon="5.85321">
        <ele>666.2</ele>
        <time>2021-05-27T11:04:54.098Z</time>
      </trkpt>
      <trkpt lat="44.35619" lon="5.85286">
        <ele>666.3</ele>
        <time>2021-05-27T11:05:05.058Z</time>
      </trkpt>
      <trkpt lat="44.3562" lon="5.85284">
        <ele>666.6</ele>
        <time>2021-05-27T11:05:07.252Z</time>
      </trkpt>
      <trkpt lat="44.35585" lon="5.85216">
        <ele>667.3</ele>
        <time>2021-05-27T11:05:29.128Z</time>
      </trkpt>
      <trkpt lat="44.35516" lon="5.85215">
        <ele>659.8</ele>
        <time>2021-05-27T11:05:37.562Z</time>
      </trkpt>
      <trkpt lat="44.35461" lon="5.85228">
        <ele>651.2</ele>
        <time>2021-05-27T11:05:44.380Z</time>
      </trkpt>
      <trkpt lat="44.35443" lon="5.85237">
        <ele>648.1</ele>
        <time>2021-05-27T11:05:46.716Z</time>
      </trkpt>
      <trkpt lat="44.35402" lon="5.8527">
        <ele>643.6</ele>
        <time>2021-05-27T11:05:52.498Z</time>
      </trkpt>
      <trkpt lat="44.35326" lon="5.85293">
        <ele>641.5</ele>
        <time>2021-05-27T11:06:04.948Z</time>
      </trkpt>
      <trkpt lat="44.35313" lon="5.85297">
        <ele>641.6</ele>
        <time>2021-05-27T11:06:09.609Z</time>
      </trkpt>
      <trkpt lat="44.35288" lon="5.85327">
        <ele>642.3</ele>
        <time>2021-05-27T11:06:22.946Z</time>
      </trkpt>
      <trkpt lat="44.35269" lon="5.8529">
        <ele>641.1</ele>
        <time>2021-05-27T11:06:27.659Z</time>
      </trkpt>
      <trkpt lat="44.35257" lon="5.85253">
        <ele>640.1</ele>
        <time>2021-05-27T11:06:31.964Z</time>
      </trkpt>
      <trkpt lat="44.35219" lon="5.85145">
        <ele>638.9</ele>
        <time>2021-05-27T11:06:48.016Z</time>
      </trkpt>
      <trkpt lat="44.35166" lon="5.85045">
        <ele>637.1</ele>
        <time>2021-05-27T11:07:03.397Z</time>
      </trkpt>
      <trkpt lat="44.35165" lon="5.849">
        <ele>635</ele>
        <time>2021-05-27T11:07:21.308Z</time>
      </trkpt>
      <trkpt lat="44.35156" lon="5.84884">
        <ele>634.7</ele>
        <time>2021-05-27T11:07:23.812Z</time>
      </trkpt>
      <trkpt lat="44.35091" lon="5.84707">
        <ele>633.9</ele>
        <time>2021-05-27T11:08:06.527Z</time>
      </trkpt>
      <trkpt lat="44.3508" lon="5.84627">
        <ele>634.8</ele>
        <time>2021-05-27T11:08:28.653Z</time>
      </trkpt>
      <trkpt lat="44.35109" lon="5.84583">
        <ele>635.9</ele>
        <time>2021-05-27T11:08:46.903Z</time>
      </trkpt>
      <trkpt lat="44.35094" lon="5.844">
        <ele>637.4</ele>
        <time>2021-05-27T11:09:34.853Z</time>
      </trkpt>
      <trkpt lat="44.35095" lon="5.84322">
        <ele>637.6</ele>
        <time>2021-05-27T11:09:53.660Z</time>
      </trkpt>
      <trkpt lat="44.35047" lon="5.84247">
        <ele>636.5</ele>
        <time>2021-05-27T11:10:06.860Z</time>
      </trkpt>
      <trkpt lat="44.34972" lon="5.84149">
        <ele>634.5</ele>
        <time>2021-05-27T11:10:24.752Z</time>
      </trkpt>
      <trkpt lat="44.34903" lon="5.83987">
        <ele>636.4</ele>
        <time>2021-05-27T11:11:15.235Z</time>
      </trkpt>
      <trkpt lat="44.34843" lon="5.83916">
        <ele>636.7</ele>
        <time>2021-05-27T11:11:41.792Z</time>
      </trkpt>
      <trkpt lat="44.34855" lon="5.83871">
        <ele>640.3</ele>
        <time>2021-05-27T11:12:12.350Z</time>
      </trkpt>
      <trkpt lat="44.34868" lon="5.83799">
        <ele>646</ele>
        <time>2021-05-27T11:13:00.846Z</time>
      </trkpt>
      <trkpt lat="44.34803" lon="5.83753">
        <ele>644.3</ele>
        <time>2021-05-27T11:13:12.993Z</time>
      </trkpt>
      <trkpt lat="44.34761" lon="5.83729">
        <ele>640.9</ele>
        <time>2021-05-27T11:13:18.538Z</time>
      </trkpt>
      <trkpt lat="44.34737" lon="5.83628">
        <ele>638</ele>
        <time>2021-05-27T11:13:29.415Z</time>
      </trkpt>
      <trkpt lat="44.3476" lon="5.8356">
        <ele>637.1</ele>
        <time>2021-05-27T11:13:39.107Z</time>
      </trkpt>
      <trkpt lat="44.34789" lon="5.83475">
        <ele>636</ele>
        <time>2021-05-27T11:13:51.300Z</time>
      </trkpt>
      <trkpt lat="44.34816" lon="5.83429">
        <ele>637.2</ele>
        <time>2021-05-27T11:14:10.008Z</time>
      </trkpt>
      <trkpt lat="44.34791" lon="5.83421">
        <ele>637.4</ele>
        <time>2021-05-27T11:14:19.014Z</time>
      </trkpt>
      <trkpt lat="44.34729" lon="5.83441">
        <ele>635.8</ele>
        <time>2021-05-27T11:14:29.411Z</time>
      </trkpt>
      <trkpt lat="44.34725" lon="5.83424">
        <ele>636.7</ele>
        <time>2021-05-27T11:14:37.828Z</time>
      </trkpt>
      <trkpt lat="44.34731" lon="5.83364">
        <ele>639.8</ele>
        <time>2021-05-27T11:15:06.592Z</time>
      </trkpt>
      <trkpt lat="44.34742" lon="5.83262">
        <ele>642.7</ele>
        <time>2021-05-27T11:15:44.181Z</time>
      </trkpt>
      <trkpt lat="44.34723" lon="5.83203">
        <ele>644.4</ele>
        <time>2021-05-27T11:16:06.922Z</time>
      </trkpt>
      <trkpt lat="44.3472" lon="5.83194">
        <ele>644.7</ele>
        <time>2021-05-27T11:16:10.699Z</time>
      </trkpt>
      <trkpt lat="44.34668" lon="5.83187">
        <ele>644.3</ele>
        <time>2021-05-27T11:16:21.282Z</time>
      </trkpt>
      <trkpt lat="44.3458" lon="5.83223">
        <ele>641.9</ele>
        <time>2021-05-27T11:16:36.095Z</time>
      </trkpt>
      <trkpt lat="44.34528" lon="5.8324">
        <ele>640.6</ele>
        <time>2021-05-27T11:16:44.898Z</time>
      </trkpt>
      <trkpt lat="44.34506" lon="5.83215">
        <ele>642.9</ele>
        <time>2021-05-27T11:17:05.203Z</time>
      </trkpt>
      <trkpt lat="44.34498" lon="5.83174">
        <ele>646.1</ele>
        <time>2021-05-27T11:17:32.375Z</time>
      </trkpt>
      <trkpt lat="44.34531" lon="5.83096">
        <ele>651</ele>
        <time>2021-05-27T11:18:16.776Z</time>
      </trkpt>
      <trkpt lat="44.34533" lon="5.83093">
        <ele>651.3</ele>
        <time>2021-05-27T11:18:19.320Z</time>
      </trkpt>
      <trkpt lat="44.34558" lon="5.83059">
        <ele>655.4</ele>
        <time>2021-05-27T11:18:54.999Z</time>
      </trkpt>
      <trkpt lat="44.34613" lon="5.83001">
        <ele>663.6</ele>
        <time>2021-05-27T11:20:06.714Z</time>
      </trkpt>
      <trkpt lat="44.34658" lon="5.82947">
        <ele>668.8</ele>
        <time>2021-05-27T11:20:51.611Z</time>
      </trkpt>
      <trkpt lat="44.34694" lon="5.82897">
        <ele>673.3</ele>
        <time>2021-05-27T11:21:30.364Z</time>
      </trkpt>
      <trkpt lat="44.34699" lon="5.82893">
        <ele>673.6</ele>
        <time>2021-05-27T11:21:33.694Z</time>
      </trkpt>
      <trkpt lat="44.34736" lon="5.82847">
        <ele>677.3</ele>
        <time>2021-05-27T11:22:07.381Z</time>
      </trkpt>
      <trkpt lat="44.34808" lon="5.82759">
        <ele>682.9</ele>
        <time>2021-05-27T11:23:05.142Z</time>
      </trkpt>
      <trkpt lat="44.34846" lon="5.82698">
        <ele>684.3</ele>
        <time>2021-05-27T11:23:29.378Z</time>
      </trkpt>
      <trkpt lat="44.34883" lon="5.82657">
        <ele>687.9</ele>
        <time>2021-05-27T11:24:01.887Z</time>
      </trkpt>
      <trkpt lat="44.34909" lon="5.82629">
        <ele>691.5</ele>
        <time>2021-05-27T11:24:32.619Z</time>
      </trkpt>
      <trkpt lat="44.34932" lon="5.82604">
        <ele>694.5</ele>
        <time>2021-05-27T11:24:58.060Z</time>
      </trkpt>
      <trkpt lat="44.34952" lon="5.82589">
        <ele>697.6</ele>
        <time>2021-05-27T11:25:26.603Z</time>
      </trkpt>
      <trkpt lat="44.34984" lon="5.82561">
        <ele>701.4</ele>
        <time>2021-05-27T11:25:58.821Z</time>
      </trkpt>
      <trkpt lat="44.35031" lon="5.82522">
        <ele>705.7</ele>
        <time>2021-05-27T11:26:37.191Z</time>
      </trkpt>
      <trkpt lat="44.35059" lon="5.82505">
        <ele>709.5</ele>
        <time>2021-05-27T11:27:11.187Z</time>
      </trkpt>
      <trkpt lat="44.35091" lon="5.82487">
        <ele>713</ele>
        <time>2021-05-27T11:27:40.861Z</time>
      </trkpt>
      <trkpt lat="44.35126" lon="5.8247">
        <ele>717.3</ele>
        <time>2021-05-27T11:28:18.105Z</time>
      </trkpt>
      <trkpt lat="44.35187" lon="5.82432">
        <ele>723.2</ele>
        <time>2021-05-27T11:29:08.958Z</time>
      </trkpt>
      <trkpt lat="44.35255" lon="5.82399">
        <ele>728.6</ele>
        <time>2021-05-27T11:29:58.044Z</time>
      </trkpt>
      <trkpt lat="44.35259" lon="5.82369">
        <ele>725.5</ele>
        <time>2021-05-27T11:30:00.711Z</time>
      </trkpt>
      <trkpt lat="44.35312" lon="5.82302">
        <ele>726.8</ele>
        <time>2021-05-27T11:30:28.667Z</time>
      </trkpt>
      <trkpt lat="44.35351" lon="5.82275">
        <ele>730</ele>
        <time>2021-05-27T11:30:58.001Z</time>
      </trkpt>
      <trkpt lat="44.35472" lon="5.82136">
        <ele>727.4</ele>
        <time>2021-05-27T11:31:26.256Z</time>
      </trkpt>
      <trkpt lat="44.35571" lon="5.82089">
        <ele>726.2</ele>
        <time>2021-05-27T11:31:46.381Z</time>
      </trkpt>
      <trkpt lat="44.35581" lon="5.82068">
        <ele>724.5</ele>
        <time>2021-05-27T11:31:48.586Z</time>
      </trkpt>
      <trkpt lat="44.35611" lon="5.82011">
        <ele>723.8</ele>
        <time>2021-05-27T11:31:58.038Z</time>
      </trkpt>
      <trkpt lat="44.35623" lon="5.81929">
        <ele>719.7</ele>
        <time>2021-05-27T11:32:05.353Z</time>
      </trkpt>
      <trkpt lat="44.35636" lon="5.81887">
        <ele>718.1</ele>
        <time>2021-05-27T11:32:09.587Z</time>
      </trkpt>
      <trkpt lat="44.35651" lon="5.81841">
        <ele>716.5</ele>
        <time>2021-05-27T11:32:14.463Z</time>
      </trkpt>
      <trkpt lat="44.35632" lon="5.81798">
        <ele>712.7</ele>
        <time>2021-05-27T11:32:18.881Z</time>
      </trkpt>
      <trkpt lat="44.35617" lon="5.81779">
        <ele>710.9</ele>
        <time>2021-05-27T11:32:21.354Z</time>
      </trkpt>
      <trkpt lat="44.3558" lon="5.81737">
        <ele>707.7</ele>
        <time>2021-05-27T11:32:27.179Z</time>
      </trkpt>
      <trkpt lat="44.35563" lon="5.81721">
        <ele>707.1</ele>
        <time>2021-05-27T11:32:30.380Z</time>
      </trkpt>
      <trkpt lat="44.35526" lon="5.81683">
        <ele>706.3</ele>
        <time>2021-05-27T11:32:38.581Z</time>
      </trkpt>
      <trkpt lat="44.35436" lon="5.81556">
        <ele>702.6</ele>
        <time>2021-05-27T11:32:58.630Z</time>
      </trkpt>
      <trkpt lat="44.35389" lon="5.8149">
        <ele>697.5</ele>
        <time>2021-05-27T11:33:06.771Z</time>
      </trkpt>
      <trkpt lat="44.35395" lon="5.81442">
        <ele>694</ele>
        <time>2021-05-27T11:33:11.030Z</time>
      </trkpt>
      <trkpt lat="44.35417" lon="5.8144">
        <ele>695</ele>
        <time>2021-05-27T11:33:23.229Z</time>
      </trkpt>
      <trkpt lat="44.35489" lon="5.81485">
        <ele>698.7</ele>
        <time>2021-05-27T11:34:07.302Z</time>
      </trkpt>
      <trkpt lat="44.35544" lon="5.81511">
        <ele>701.4</ele>
        <time>2021-05-27T11:34:39.663Z</time>
      </trkpt>
      <trkpt lat="44.35563" lon="5.81537">
        <ele>702.2</ele>
        <time>2021-05-27T11:34:51.629Z</time>
      </trkpt>
      <trkpt lat="44.35587" lon="5.81573">
        <ele>702.4</ele>
        <time>2021-05-27T11:35:03.735Z</time>
      </trkpt>
      <trkpt lat="44.35648" lon="5.81577">
        <ele>707</ele>
        <time>2021-05-27T11:35:45.480Z</time>
      </trkpt>
      <trkpt lat="44.35721" lon="5.8156">
        <ele>712.6</ele>
        <time>2021-05-27T11:36:36.206Z</time>
      </trkpt>
      <trkpt lat="44.35751" lon="5.8154">
        <ele>716.2</ele>
        <time>2021-05-27T11:37:06.874Z</time>
      </trkpt>
      <trkpt lat="44.35781" lon="5.81506">
        <ele>720.6</ele>
        <time>2021-05-27T11:37:44.768Z</time>
      </trkpt>
      <trkpt lat="44.35782" lon="5.81466">
        <ele>724.1</ele>
        <time>2021-05-27T11:38:15.772Z</time>
      </trkpt>
      <trkpt lat="44.35818" lon="5.81437">
        <ele>728.8</ele>
        <time>2021-05-27T11:38:56.169Z</time>
      </trkpt>
      <trkpt lat="44.3583" lon="5.81366">
        <ele>738.2</ele>
        <time>2021-05-27T11:40:01.774Z</time>
      </trkpt>
      <trkpt lat="44.35817" lon="5.81309">
        <ele>743.6</ele>
        <time>2021-05-27T11:40:50.505Z</time>
      </trkpt>
      <trkpt lat="44.35805" lon="5.81261">
        <ele>748</ele>
        <time>2021-05-27T11:41:29.277Z</time>
      </trkpt>
      <trkpt lat="44.35824" lon="5.81209">
        <ele>754.8</ele>
        <time>2021-05-27T11:42:21.789Z</time>
      </trkpt>
      <trkpt lat="44.35865" lon="5.81103">
        <ele>756.6</ele>
        <time>2021-05-27T11:42:56.534Z</time>
      </trkpt>
      <trkpt lat="44.359" lon="5.81036">
        <ele>761.6</ele>
        <time>2021-05-27T11:43:40.158Z</time>
      </trkpt>
      <trkpt lat="44.35905" lon="5.80995">
        <ele>766.2</ele>
        <time>2021-05-27T11:44:17.558Z</time>
      </trkpt>
      <trkpt lat="44.35926" lon="5.80943">
        <ele>771.2</ele>
        <time>2021-05-27T11:45:01.003Z</time>
      </trkpt>
      <trkpt lat="44.35942" lon="5.80906">
        <ele>771.5</ele>
        <time>2021-05-27T11:45:12.068Z</time>
      </trkpt>
      <trkpt lat="44.35964" lon="5.80819">
        <ele>774.9</ele>
        <time>2021-05-27T11:45:50.067Z</time>
      </trkpt>
      <trkpt lat="44.35975" lon="5.80781">
        <ele>779</ele>
        <time>2021-05-27T11:46:26.932Z</time>
      </trkpt>
      <trkpt lat="44.35988" lon="5.80737">
        <ele>784.4</ele>
        <time>2021-05-27T11:47:09.742Z</time>
      </trkpt>
      <trkpt lat="44.36004" lon="5.80675">
        <ele>789.1</ele>
        <time>2021-05-27T11:47:49.599Z</time>
      </trkpt>
      <trkpt lat="44.36007" lon="5.80634">
        <ele>792.1</ele>
        <time>2021-05-27T11:48:15.034Z</time>
      </trkpt>
      <trkpt lat="44.36028" lon="5.806">
        <ele>795.3</ele>
        <time>2021-05-27T11:48:42.171Z</time>
      </trkpt>
      <trkpt lat="44.36041" lon="5.80575">
        <ele>797.6</ele>
        <time>2021-05-27T11:49:01.685Z</time>
      </trkpt>
      <trkpt lat="44.36055" lon="5.80548">
        <ele>797.5</ele>
        <time>2021-05-27T11:49:08.991Z</time>
      </trkpt>
      <trkpt lat="44.36064" lon="5.80514">
        <ele>797.5</ele>
        <time>2021-05-27T11:49:17.443Z</time>
      </trkpt>
      <trkpt lat="44.36019" lon="5.80507">
        <ele>791.3</ele>
        <time>2021-05-27T11:49:22.977Z</time>
      </trkpt>
      <trkpt lat="44.35986" lon="5.80494">
        <ele>785.2</ele>
        <time>2021-05-27T11:49:27.168Z</time>
      </trkpt>
      <trkpt lat="44.35969" lon="5.80506">
        <ele>785</ele>
        <time>2021-05-27T11:49:30.880Z</time>
      </trkpt>
      <trkpt lat="44.3592" lon="5.80539">
        <ele>784.4</ele>
        <time>2021-05-27T11:49:41.410Z</time>
      </trkpt>
      <trkpt lat="44.35883" lon="5.80568">
        <ele>785.4</ele>
        <time>2021-05-27T11:49:59.050Z</time>
      </trkpt>
      <trkpt lat="44.35835" lon="5.80612">
        <ele>783.4</ele>
        <time>2021-05-27T11:50:07.518Z</time>
      </trkpt>
      <trkpt lat="44.35799" lon="5.80645">
        <ele>783.4</ele>
        <time>2021-05-27T11:50:21.553Z</time>
      </trkpt>
      <trkpt lat="44.35734" lon="5.80674">
        <ele>782.5</ele>
        <time>2021-05-27T11:50:34.400Z</time>
      </trkpt>
      <trkpt lat="44.35685" lon="5.80658">
        <ele>780.4</ele>
        <time>2021-05-27T11:50:41.347Z</time>
      </trkpt>
      <trkpt lat="44.35628" lon="5.80663">
        <ele>777.2</ele>
        <time>2021-05-27T11:50:48.302Z</time>
      </trkpt>
      <trkpt lat="44.35573" lon="5.80687">
        <ele>773.9</ele>
        <time>2021-05-27T11:50:55.248Z</time>
      </trkpt>
      <trkpt lat="44.35507" lon="5.80687">
        <ele>769.5</ele>
        <time>2021-05-27T11:51:02.638Z</time>
      </trkpt>
      <trkpt lat="44.35469" lon="5.80639">
        <ele>768.7</ele>
        <time>2021-05-27T11:51:11.990Z</time>
      </trkpt>
      <trkpt lat="44.35429" lon="5.80576">
        <ele>771.7</ele>
        <time>2021-05-27T11:51:46.292Z</time>
      </trkpt>
      <trkpt lat="44.35413" lon="5.80547">
        <ele>770.3</ele>
        <time>2021-05-27T11:51:49.551Z</time>
      </trkpt>
      <trkpt lat="44.35365" lon="5.80556">
        <ele>767.6</ele>
        <time>2021-05-27T11:51:55.463Z</time>
      </trkpt>
      <trkpt lat="44.35341" lon="5.80571">
        <ele>768.3</ele>
        <time>2021-05-27T11:52:06.800Z</time>
      </trkpt>
      <trkpt lat="44.35314" lon="5.80587">
        <ele>771.6</ele>
        <time>2021-05-27T11:52:35.125Z</time>
      </trkpt>
      <trkpt lat="44.35289" lon="5.80592">
        <ele>773.7</ele>
        <time>2021-05-27T11:52:53.520Z</time>
      </trkpt>
      <trkpt lat="44.35263" lon="5.80583">
        <ele>776.7</ele>
        <time>2021-05-27T11:53:19.241Z</time>
      </trkpt>
      <trkpt lat="44.35187" lon="5.80608">
        <ele>777.8</ele>
        <time>2021-05-27T11:53:48.471Z</time>
      </trkpt>
      <trkpt lat="44.35124" lon="5.80621">
        <ele>770.9</ele>
        <time>2021-05-27T11:53:56.255Z</time>
      </trkpt>
      <trkpt lat="44.35098" lon="5.80635">
        <ele>766.8</ele>
        <time>2021-05-27T11:53:59.660Z</time>
      </trkpt>
      <trkpt lat="44.35055" lon="5.80647">
        <ele>764.7</ele>
        <time>2021-05-27T11:54:05.384Z</time>
      </trkpt>
      <trkpt lat="44.35021" lon="5.80618">
        <ele>769.2</ele>
        <time>2021-05-27T11:54:44.050Z</time>
      </trkpt>
      <trkpt lat="44.34959" lon="5.80628">
        <ele>774.8</ele>
        <time>2021-05-27T11:55:32.156Z</time>
      </trkpt>
      <trkpt lat="44.34893" lon="5.80694">
        <ele>773</ele>
        <time>2021-05-27T11:55:45.862Z</time>
      </trkpt>
      <trkpt lat="44.34882" lon="5.80731">
        <ele>769.1</ele>
        <time>2021-05-27T11:55:49.365Z</time>
      </trkpt>
      <trkpt lat="44.3487" lon="5.80753">
        <ele>769.2</ele>
        <time>2021-05-27T11:55:56.130Z</time>
      </trkpt>
      <trkpt lat="44.34827" lon="5.80807">
        <ele>773.8</ele>
        <time>2021-05-27T11:56:37.007Z</time>
      </trkpt>
      <trkpt lat="44.34813" lon="5.80823">
        <ele>770.6</ele>
        <time>2021-05-27T11:56:39.217Z</time>
      </trkpt>
      <trkpt lat="44.34791" lon="5.80872">
        <ele>768</ele>
        <time>2021-05-27T11:56:43.988Z</time>
      </trkpt>
      <trkpt lat="44.3476" lon="5.80878">
        <ele>769</ele>
        <time>2021-05-27T11:56:58.416Z</time>
      </trkpt>
      <trkpt lat="44.34723" lon="5.80922">
        <ele>763.8</ele>
        <time>2021-05-27T11:57:04.352Z</time>
      </trkpt>
      <trkpt lat="44.34718" lon="5.80962">
        <ele>759.2</ele>
        <time>2021-05-27T11:57:07.902Z</time>
      </trkpt>
      <trkpt lat="44.34706" lon="5.80995">
        <ele>754.4</ele>
        <time>2021-05-27T11:57:11.137Z</time>
      </trkpt>
      <trkpt lat="44.34686" lon="5.81029">
        <ele>744.4</ele>
        <time>2021-05-27T11:57:14.986Z</time>
      </trkpt>
      <trkpt lat="44.34654" lon="5.81059">
        <ele>736.2</ele>
        <time>2021-05-27T11:57:19.695Z</time>
      </trkpt>
      <trkpt lat="44.34611" lon="5.81063">
        <ele>733</ele>
        <time>2021-05-27T11:57:24.962Z</time>
      </trkpt>
      <trkpt lat="44.34531" lon="5.81098">
        <ele>728</ele>
        <time>2021-05-27T11:57:34.875Z</time>
      </trkpt>
      <trkpt lat="44.34489" lon="5.8111">
        <ele>725.8</ele>
        <time>2021-05-27T11:57:40.307Z</time>
      </trkpt>
      <trkpt lat="44.34463" lon="5.81107">
        <ele>721.4</ele>
        <time>2021-05-27T11:57:43.496Z</time>
      </trkpt>
      <trkpt lat="44.34399" lon="5.81124">
        <ele>712.8</ele>
        <time>2021-05-27T11:57:51.458Z</time>
      </trkpt>
      <trkpt lat="44.34373" lon="5.81135">
        <ele>708.5</ele>
        <time>2021-05-27T11:57:54.779Z</time>
      </trkpt>
      <trkpt lat="44.34349" lon="5.81153">
        <ele>704.8</ele>
        <time>2021-05-27T11:57:58.107Z</time>
      </trkpt>
      <trkpt lat="44.34319" lon="5.81141">
        <ele>698.7</ele>
        <time>2021-05-27T11:58:01.921Z</time>
      </trkpt>
      <trkpt lat="44.34293" lon="5.81136">
        <ele>695.2</ele>
        <time>2021-05-27T11:58:05.129Z</time>
      </trkpt>
      <trkpt lat="44.34276" lon="5.81183">
        <ele>693.3</ele>
        <time>2021-05-27T11:58:09.938Z</time>
      </trkpt>
      <trkpt lat="44.34267" lon="5.81215">
        <ele>690.1</ele>
        <time>2021-05-27T11:58:12.944Z</time>
      </trkpt>
      <trkpt lat="44.34236" lon="5.8119">
        <ele>688.7</ele>
        <time>2021-05-27T11:58:18.008Z</time>
      </trkpt>
      <trkpt lat="44.34213" lon="5.81079">
        <ele>683.8</ele>
        <time>2021-05-27T11:58:27.811Z</time>
      </trkpt>
      <trkpt lat="44.34228" lon="5.81013">
        <ele>682.9</ele>
        <time>2021-05-27T11:58:36.580Z</time>
      </trkpt>
      <trkpt lat="44.34244" lon="5.80992">
        <ele>684.8</ele>
        <time>2021-05-27T11:58:53.037Z</time>
      </trkpt>
      <trkpt lat="44.34211" lon="5.80946">
        <ele>683.3</ele>
        <time>2021-05-27T11:59:00.100Z</time>
      </trkpt>
      <trkpt lat="44.34183" lon="5.80938">
        <ele>680.1</ele>
        <time>2021-05-27T11:59:03.593Z</time>
      </trkpt>
      <trkpt lat="44.34153" lon="5.80886">
        <ele>676.3</ele>
        <time>2021-05-27T11:59:09.433Z</time>
      </trkpt>
      <trkpt lat="44.34166" lon="5.80842">
        <ele>677.1</ele>
        <time>2021-05-27T11:59:23.580Z</time>
      </trkpt>
      <trkpt lat="44.34196" lon="5.80825">
        <ele>681.2</ele>
        <time>2021-05-27T12:00:00.661Z</time>
      </trkpt>
      <trkpt lat="44.34204" lon="5.80803">
        <ele>682.9</ele>
        <time>2021-05-27T12:00:15.109Z</time>
      </trkpt>
      <trkpt lat="44.34116" lon="5.80803">
        <ele>672.5</ele>
        <time>2021-05-27T12:00:25.865Z</time>
      </trkpt>
      <trkpt lat="44.34065" lon="5.8079">
        <ele>667.8</ele>
        <time>2021-05-27T12:00:32.202Z</time>
      </trkpt>
      <trkpt lat="44.33989" lon="5.80742">
        <ele>663.8</ele>
        <time>2021-05-27T12:00:43.082Z</time>
      </trkpt>
      <trkpt lat="44.33871" lon="5.80693">
        <ele>661.3</ele>
        <time>2021-05-27T12:01:04.331Z</time>
      </trkpt>
      <trkpt lat="44.33817" lon="5.80686">
        <ele>660.2</ele>
        <time>2021-05-27T12:01:13.696Z</time>
      </trkpt>
      <trkpt lat="44.33665" lon="5.80663">
        <ele>655.2</ele>
        <time>2021-05-27T12:01:36.750Z</time>
      </trkpt>
      <trkpt lat="44.33605" lon="5.80655">
        <ele>656.1</ele>
        <time>2021-05-27T12:01:59.517Z</time>
      </trkpt>
      <trkpt lat="44.33515" lon="5.80642">
        <ele>656.4</ele>
        <time>2021-05-27T12:02:29.944Z</time>
      </trkpt>
      <trkpt lat="44.33404" lon="5.80613">
        <ele>658.3</ele>
        <time>2021-05-27T12:03:13.473Z</time>
      </trkpt>
      <trkpt lat="44.33397" lon="5.80548">
        <ele>660.6</ele>
        <time>2021-05-27T12:03:40.092Z</time>
      </trkpt>
      <trkpt lat="44.33377" lon="5.8047">
        <ele>663.8</ele>
        <time>2021-05-27T12:04:14.791Z</time>
      </trkpt>
      <trkpt lat="44.33342" lon="5.80418">
        <ele>666.1</ele>
        <time>2021-05-27T12:04:42.993Z</time>
      </trkpt>
      <trkpt lat="44.33256" lon="5.80272">
        <ele>669.6</ele>
        <time>2021-05-27T12:05:40.806Z</time>
      </trkpt>
      <trkpt lat="44.33269" lon="5.80241">
        <ele>672.6</ele>
        <time>2021-05-27T12:06:06.842Z</time>
      </trkpt>
      <trkpt lat="44.33287" lon="5.8021">
        <ele>676.1</ele>
        <time>2021-05-27T12:06:37.879Z</time>
      </trkpt>
      <trkpt lat="44.33306" lon="5.80183">
        <ele>679.7</ele>
        <time>2021-05-27T12:07:11.682Z</time>
      </trkpt>
      <trkpt lat="44.33316" lon="5.80166">
        <ele>681.6</ele>
        <time>2021-05-27T12:07:28.402Z</time>
      </trkpt>
      <trkpt lat="44.33375" lon="5.80155">
        <ele>686.1</ele>
        <time>2021-05-27T12:08:09.179Z</time>
      </trkpt>
      <trkpt lat="44.33412" lon="5.80196">
        <ele>688.6</ele>
        <time>2021-05-27T12:08:36.628Z</time>
      </trkpt>
      <trkpt lat="44.33449" lon="5.80163">
        <ele>690.3</ele>
        <time>2021-05-27T12:08:58.808Z</time>
      </trkpt>
      <trkpt lat="44.33463" lon="5.80043">
        <ele>689.1</ele>
        <time>2021-05-27T12:09:15.058Z</time>
      </trkpt>
      <trkpt lat="44.33468" lon="5.7999">
        <ele>689.6</ele>
        <time>2021-05-27T12:09:29.223Z</time>
      </trkpt>
      <trkpt lat="44.33496" lon="5.79865">
        <ele>695.6</ele>
        <time>2021-05-27T12:10:28.053Z</time>
      </trkpt>
      <trkpt lat="44.33545" lon="5.79857">
        <ele>701.3</ele>
        <time>2021-05-27T12:11:17.350Z</time>
      </trkpt>
      <trkpt lat="44.33552" lon="5.79839">
        <ele>703</ele>
        <time>2021-05-27T12:11:32.073Z</time>
      </trkpt>
      <trkpt lat="44.33548" lon="5.7978">
        <ele>706.4</ele>
        <time>2021-05-27T12:12:02.205Z</time>
      </trkpt>
      <trkpt lat="44.33539" lon="5.79728">
        <ele>709.1</ele>
        <time>2021-05-27T12:12:27.420Z</time>
      </trkpt>
      <trkpt lat="44.3354" lon="5.7968">
        <ele>713.9</ele>
        <time>2021-05-27T12:13:10.618Z</time>
      </trkpt>
      <trkpt lat="44.33533" lon="5.79653">
        <ele>713.7</ele>
        <time>2021-05-27T12:13:14.664Z</time>
      </trkpt>
      <trkpt lat="44.33542" lon="5.79619">
        <ele>716.4</ele>
        <time>2021-05-27T12:13:37.573Z</time>
      </trkpt>
      <trkpt lat="44.33512" lon="5.7955">
        <ele>710.4</ele>
        <time>2021-05-27T12:13:44.632Z</time>
      </trkpt>
      <trkpt lat="44.33512" lon="5.79547">
        <ele>710.5</ele>
        <time>2021-05-27T12:13:45.829Z</time>
      </trkpt>
      <trkpt lat="44.33519" lon="5.79521">
        <ele>713.9</ele>
        <time>2021-05-27T12:14:10.820Z</time>
      </trkpt>
      <trkpt lat="44.33519" lon="5.79519">
        <ele>714</ele>
        <time>2021-05-27T12:14:11.758Z</time>
      </trkpt>
      <trkpt lat="44.33508" lon="5.79492">
        <ele>710.6</ele>
        <time>2021-05-27T12:14:14.475Z</time>
      </trkpt>
      <trkpt lat="44.33511" lon="5.79442">
        <ele>710.4</ele>
        <time>2021-05-27T12:14:25.256Z</time>
      </trkpt>
      <trkpt lat="44.33499" lon="5.79411">
        <ele>704.1</ele>
        <time>2021-05-27T12:14:28.338Z</time>
      </trkpt>
      <trkpt lat="44.33498" lon="5.794">
        <ele>702.8</ele>
        <time>2021-05-27T12:14:29.307Z</time>
      </trkpt>
      <trkpt lat="44.33491" lon="5.7939">
        <ele>698.8</ele>
        <time>2021-05-27T12:14:30.531Z</time>
      </trkpt>
      <trkpt lat="44.33484" lon="5.79386">
        <ele>695.3</ele>
        <time>2021-05-27T12:14:31.455Z</time>
      </trkpt>
      <trkpt lat="44.33475" lon="5.79374">
        <ele>690.4</ele>
        <time>2021-05-27T12:14:32.975Z</time>
      </trkpt>
      <trkpt lat="44.33467" lon="5.79368">
        <ele>686.4</ele>
        <time>2021-05-27T12:14:34.085Z</time>
      </trkpt>
      <trkpt lat="44.33458" lon="5.79364">
        <ele>682.1</ele>
        <time>2021-05-27T12:14:35.239Z</time>
      </trkpt>
      <trkpt lat="44.3345" lon="5.79358">
        <ele>678.3</ele>
        <time>2021-05-27T12:14:36.349Z</time>
      </trkpt>
      <trkpt lat="44.33435" lon="5.79344">
        <ele>671.2</ele>
        <time>2021-05-27T12:14:38.553Z</time>
      </trkpt>
      <trkpt lat="44.33432" lon="5.79341">
        <ele>669.8</ele>
        <time>2021-05-27T12:14:39.004Z</time>
      </trkpt>
      <trkpt lat="44.33424" lon="5.79319">
        <ele>664.4</ele>
        <time>2021-05-27T12:14:41.162Z</time>
      </trkpt>
      <trkpt lat="44.33418" lon="5.79306">
        <ele>660</ele>
        <time>2021-05-27T12:14:42.514Z</time>
      </trkpt>
      <trkpt lat="44.3341" lon="5.79298">
        <ele>655.9</ele>
        <time>2021-05-27T12:14:43.716Z</time>
      </trkpt>
      <trkpt lat="44.33393" lon="5.79299">
        <ele>649.8</ele>
        <time>2021-05-27T12:14:45.796Z</time>
      </trkpt>
      <trkpt lat="44.33385" lon="5.79296">
        <ele>646.6</ele>
        <time>2021-05-27T12:14:46.809Z</time>
      </trkpt>
      <trkpt lat="44.3338" lon="5.79264">
        <ele>641.2</ele>
        <time>2021-05-27T12:14:49.672Z</time>
      </trkpt>
      <trkpt lat="44.33379" lon="5.79211">
        <ele>636.9</ele>
        <time>2021-05-27T12:14:54.307Z</time>
      </trkpt>
      <trkpt lat="44.33374" lon="5.7916">
        <ele>632.1</ele>
        <time>2021-05-27T12:14:58.808Z</time>
      </trkpt>
      <trkpt lat="44.33363" lon="5.79119">
        <ele>626.6</ele>
        <time>2021-05-27T12:15:02.636Z</time>
      </trkpt>
      <trkpt lat="44.33362" lon="5.79117">
        <ele>626.3</ele>
        <time>2021-05-27T12:15:02.850Z</time>
      </trkpt>
      <trkpt lat="44.33344" lon="5.7911">
        <ele>623</ele>
        <time>2021-05-27T12:15:05.133Z</time>
      </trkpt>
      <trkpt lat="44.33327" lon="5.791">
        <ele>619.9</ele>
        <time>2021-05-27T12:15:07.388Z</time>
      </trkpt>
      <trkpt lat="44.33306" lon="5.79106">
        <ele>615.5</ele>
        <time>2021-05-27T12:15:10.007Z</time>
      </trkpt>
      <trkpt lat="44.33284" lon="5.79091">
        <ele>610.9</ele>
        <time>2021-05-27T12:15:12.999Z</time>
      </trkpt>
      <trkpt lat="44.3327" lon="5.79077">
        <ele>607.8</ele>
        <time>2021-05-27T12:15:15.103Z</time>
      </trkpt>
      <trkpt lat="44.33253" lon="5.79069">
        <ele>604.2</ele>
        <time>2021-05-27T12:15:17.295Z</time>
      </trkpt>
      <trkpt lat="44.33236" lon="5.79065">
        <ele>603.3</ele>
        <time>2021-05-27T12:15:19.463Z</time>
      </trkpt>
      <trkpt lat="44.33218" lon="5.79019">
        <ele>601.2</ele>
        <time>2021-05-27T12:15:24.033Z</time>
      </trkpt>
      <trkpt lat="44.33211" lon="5.78999">
        <ele>600.1</ele>
        <time>2021-05-27T12:15:25.979Z</time>
      </trkpt>
      <trkpt lat="44.3318" lon="5.79003">
        <ele>598.8</ele>
        <time>2021-05-27T12:15:30.277Z</time>
      </trkpt>
      <trkpt lat="44.33105" lon="5.79062">
        <ele>603.2</ele>
        <time>2021-05-27T12:16:19.709Z</time>
      </trkpt>
      <trkpt lat="44.33072" lon="5.79107">
        <ele>607.4</ele>
        <time>2021-05-27T12:16:55.681Z</time>
      </trkpt>
      <trkpt lat="44.33066" lon="5.79113">
        <ele>607.4</ele>
        <time>2021-05-27T12:16:58.087Z</time>
      </trkpt>
      <trkpt lat="44.33029" lon="5.79121">
        <ele>604</ele>
        <time>2021-05-27T12:17:02.663Z</time>
      </trkpt>
      <trkpt lat="44.32993" lon="5.79146">
        <ele>601.8</ele>
        <time>2021-05-27T12:17:07.612Z</time>
      </trkpt>
      <trkpt lat="44.32988" lon="5.79161">
        <ele>602.4</ele>
        <time>2021-05-27T12:17:14.392Z</time>
      </trkpt>
      <trkpt lat="44.32975" lon="5.79202">
        <ele>604.6</ele>
        <time>2021-05-27T12:17:35.217Z</time>
      </trkpt>
      <trkpt lat="44.3295" lon="5.79168">
        <ele>602</ele>
        <time>2021-05-27T12:17:39.480Z</time>
      </trkpt>
      <trkpt lat="44.32949" lon="5.79168">
        <ele>601.9</ele>
        <time>2021-05-27T12:17:39.603Z</time>
      </trkpt>
      <trkpt lat="44.3294" lon="5.79164">
        <ele>601.3</ele>
        <time>2021-05-27T12:17:40.686Z</time>
      </trkpt>
      <trkpt lat="44.32928" lon="5.79176">
        <ele>602.9</ele>
        <time>2021-05-27T12:17:54.318Z</time>
      </trkpt>
      <trkpt lat="44.32904" lon="5.79192">
        <ele>606.1</ele>
        <time>2021-05-27T12:18:22.441Z</time>
      </trkpt>
      <trkpt lat="44.32902" lon="5.79193">
        <ele>606.3</ele>
        <time>2021-05-27T12:18:24.145Z</time>
      </trkpt>
      <trkpt lat="44.32884" lon="5.79212">
        <ele>610</ele>
        <time>2021-05-27T12:18:52.513Z</time>
      </trkpt>
      <trkpt lat="44.3287" lon="5.79229">
        <ele>613.3</ele>
        <time>2021-05-27T12:19:15.836Z</time>
      </trkpt>
      <trkpt lat="44.32856" lon="5.79255">
        <ele>618.7</ele>
        <time>2021-05-27T12:19:45.114Z</time>
      </trkpt>
      <trkpt lat="44.3284" lon="5.79283">
        <ele>626.2</ele>
        <time>2021-05-27T12:20:17.356Z</time>
      </trkpt>
      <trkpt lat="44.32843" lon="5.79291">
        <ele>628.4</ele>
        <time>2021-05-27T12:20:25.483Z</time>
      </trkpt>
      <trkpt lat="44.32848" lon="5.79285">
        <ele>626.8</ele>
        <time>2021-05-27T12:20:26.288Z</time>
      </trkpt>
      <trkpt lat="44.32864" lon="5.79272">
        <ele>623.4</ele>
        <time>2021-05-27T12:20:28.550Z</time>
      </trkpt>
      <trkpt lat="44.32889" lon="5.79266">
        <ele>622.1</ele>
        <time>2021-05-27T12:20:31.766Z</time>
      </trkpt>
      <trkpt lat="44.329" lon="5.79278">
        <ele>625.5</ele>
        <time>2021-05-27T12:20:49.315Z</time>
      </trkpt>
      <trkpt lat="44.32905" lon="5.79287">
        <ele>628.1</ele>
        <time>2021-05-27T12:20:59.567Z</time>
      </trkpt>
      <trkpt lat="44.32906" lon="5.79305">
        <ele>633.1</ele>
        <time>2021-05-27T12:21:15.811Z</time>
      </trkpt>
      <trkpt lat="44.3291" lon="5.79316">
        <ele>636.1</ele>
        <time>2021-05-27T12:21:26.912Z</time>
      </trkpt>
      <trkpt lat="44.32919" lon="5.79331">
        <ele>639.6</ele>
        <time>2021-05-27T12:21:44.526Z</time>
      </trkpt>
      <trkpt lat="44.32933" lon="5.79354">
        <ele>639.6</ele>
        <time>2021-05-27T12:21:51.570Z</time>
      </trkpt>
      <trkpt lat="44.32935" lon="5.79375">
        <ele>642.7</ele>
        <time>2021-05-27T12:22:10.630Z</time>
      </trkpt>
      <trkpt lat="44.32935" lon="5.79404">
        <ele>647.9</ele>
        <time>2021-05-27T12:22:36.721Z</time>
      </trkpt>
      <trkpt lat="44.32937" lon="5.79414">
        <ele>649</ele>
        <time>2021-05-27T12:22:46.063Z</time>
      </trkpt>
      <trkpt lat="44.32937" lon="5.7945">
        <ele>650</ele>
        <time>2021-05-27T12:22:59.096Z</time>
      </trkpt>
      <trkpt lat="44.32931" lon="5.79476">
        <ele>652.6</ele>
        <time>2021-05-27T12:23:23.536Z</time>
      </trkpt>
      <trkpt lat="44.3295" lon="5.79544">
        <ele>648.2</ele>
        <time>2021-05-27T12:23:29.919Z</time>
      </trkpt>
      <trkpt lat="44.32957" lon="5.79603">
        <ele>649.9</ele>
        <time>2021-05-27T12:23:51.852Z</time>
      </trkpt>
      <trkpt lat="44.32963" lon="5.79663">
        <ele>655.5</ele>
        <time>2021-05-27T12:24:43.228Z</time>
      </trkpt>
      <trkpt lat="44.32978" lon="5.7972">
        <ele>663.2</ele>
        <time>2021-05-27T12:25:37.869Z</time>
      </trkpt>
      <trkpt lat="44.32984" lon="5.79758">
        <ele>669.4</ele>
        <time>2021-05-27T12:26:12.880Z</time>
      </trkpt>
      <trkpt lat="44.32999" lon="5.79807">
        <ele>674.3</ele>
        <time>2021-05-27T12:26:57.652Z</time>
      </trkpt>
      <trkpt lat="44.33008" lon="5.79826">
        <ele>675.6</ele>
        <time>2021-05-27T12:27:09.197Z</time>
      </trkpt>
      <trkpt lat="44.33007" lon="5.79839">
        <ele>675.8</ele>
        <time>2021-05-27T12:27:12.989Z</time>
      </trkpt>
      <trkpt lat="44.32985" lon="5.79851">
        <ele>672.3</ele>
        <time>2021-05-27T12:27:15.876Z</time>
      </trkpt>
      <trkpt lat="44.32965" lon="5.79855">
        <ele>668.2</ele>
        <time>2021-05-27T12:27:18.345Z</time>
      </trkpt>
      <trkpt lat="44.32935" lon="5.79861">
        <ele>662.2</ele>
        <time>2021-05-27T12:27:22.049Z</time>
      </trkpt>
      <trkpt lat="44.32917" lon="5.79876">
        <ele>658</ele>
        <time>2021-05-27T12:27:24.610Z</time>
      </trkpt>
      <trkpt lat="44.32902" lon="5.79882">
        <ele>654.1</ele>
        <time>2021-05-27T12:27:26.517Z</time>
      </trkpt>
      <trkpt lat="44.32887" lon="5.7989">
        <ele>650</ele>
        <time>2021-05-27T12:27:28.480Z</time>
      </trkpt>
      <trkpt lat="44.32874" lon="5.79896">
        <ele>646.6</ele>
        <time>2021-05-27T12:27:30.153Z</time>
      </trkpt>
      <trkpt lat="44.32861" lon="5.79895">
        <ele>643.5</ele>
        <time>2021-05-27T12:27:31.744Z</time>
      </trkpt>
      <trkpt lat="44.32848" lon="5.79905">
        <ele>640</ele>
        <time>2021-05-27T12:27:33.558Z</time>
      </trkpt>
      <trkpt lat="44.32834" lon="5.79919">
        <ele>636</ele>
        <time>2021-05-27T12:27:35.662Z</time>
      </trkpt>
      <trkpt lat="44.32802" lon="5.79915">
        <ele>632.4</ele>
        <time>2021-05-27T12:27:39.589Z</time>
      </trkpt>
      <trkpt lat="44.32766" lon="5.79931">
        <ele>627.2</ele>
        <time>2021-05-27T12:27:44.206Z</time>
      </trkpt>
      <trkpt lat="44.32751" lon="5.79971">
        <ele>623.5</ele>
        <time>2021-05-27T12:27:48.155Z</time>
      </trkpt>
      <trkpt lat="44.32742" lon="5.80007">
        <ele>621.9</ele>
        <time>2021-05-27T12:27:51.407Z</time>
      </trkpt>
      <trkpt lat="44.3273" lon="5.80031">
        <ele>621.2</ele>
        <time>2021-05-27T12:27:54.543Z</time>
      </trkpt>
      <trkpt lat="44.32727" lon="5.80037">
        <ele>620.9</ele>
        <time>2021-05-27T12:27:55.174Z</time>
      </trkpt>
      <trkpt lat="44.32703" lon="5.80059">
        <ele>618.2</ele>
        <time>2021-05-27T12:27:58.682Z</time>
      </trkpt>
      <trkpt lat="44.32685" lon="5.80076">
        <ele>615</ele>
        <time>2021-05-27T12:28:01.337Z</time>
      </trkpt>
      <trkpt lat="44.32676" lon="5.80087">
        <ele>613.4</ele>
        <time>2021-05-27T12:28:02.799Z</time>
      </trkpt>
      <trkpt lat="44.32662" lon="5.80111">
        <ele>613.1</ele>
        <time>2021-05-27T12:28:06.951Z</time>
      </trkpt>
      <trkpt lat="44.3261" lon="5.80106">
        <ele>610.1</ele>
        <time>2021-05-27T12:28:13.221Z</time>
      </trkpt>
      <trkpt lat="44.32562" lon="5.80124">
        <ele>608.7</ele>
        <time>2021-05-27T12:28:21.078Z</time>
      </trkpt>
      <trkpt lat="44.32557" lon="5.80123">
        <ele>608.8</ele>
        <time>2021-05-27T12:28:23.090Z</time>
      </trkpt>
      <trkpt lat="44.32482" lon="5.80187">
        <ele>606.9</ele>
        <time>2021-05-27T12:28:38.029Z</time>
      </trkpt>
      <trkpt lat="44.32477" lon="5.80203">
        <ele>606.8</ele>
        <time>2021-05-27T12:28:40.548Z</time>
      </trkpt>
      <trkpt lat="44.32455" lon="5.8026">
        <ele>604.1</ele>
        <time>2021-05-27T12:28:46.088Z</time>
      </trkpt>
      <trkpt lat="44.32392" lon="5.80288">
        <ele>602.1</ele>
        <time>2021-05-27T12:28:56.312Z</time>
      </trkpt>
      <trkpt lat="44.32377" lon="5.80336">
        <ele>596.8</ele>
        <time>2021-05-27T12:29:00.893Z</time>
      </trkpt>
      <trkpt lat="44.3237" lon="5.80351">
        <ele>597.4</ele>
        <time>2021-05-27T12:29:08.049Z</time>
      </trkpt>
      <trkpt lat="44.32351" lon="5.80361">
        <ele>597</ele>
        <time>2021-05-27T12:29:11.579Z</time>
      </trkpt>
      <trkpt lat="44.32333" lon="5.80361">
        <ele>596</ele>
        <time>2021-05-27T12:29:13.780Z</time>
      </trkpt>
      <trkpt lat="44.32269" lon="5.80356">
        <ele>590.1</ele>
        <time>2021-05-27T12:29:21.614Z</time>
      </trkpt>
      <trkpt lat="44.32246" lon="5.80387">
        <ele>589.9</ele>
        <time>2021-05-27T12:29:31.121Z</time>
      </trkpt>
      <trkpt lat="44.32258" lon="5.80408">
        <ele>592.1</ele>
        <time>2021-05-27T12:29:50.090Z</time>
      </trkpt>
      <trkpt lat="44.32248" lon="5.80418">
        <ele>592.2</ele>
        <time>2021-05-27T12:29:54.422Z</time>
      </trkpt>
      <trkpt lat="44.32231" lon="5.80434">
        <ele>594.8</ele>
        <time>2021-05-27T12:30:17.963Z</time>
      </trkpt>
      <trkpt lat="44.32213" lon="5.80469">
        <ele>600.9</ele>
        <time>2021-05-27T12:30:56.748Z</time>
      </trkpt>
      <trkpt lat="44.32198" lon="5.80473">
        <ele>599.8</ele>
        <time>2021-05-27T12:30:58.614Z</time>
      </trkpt>
      <trkpt lat="44.32176" lon="5.80507">
        <ele>602.5</ele>
        <time>2021-05-27T12:31:22.338Z</time>
      </trkpt>
      <trkpt lat="44.32149" lon="5.80588">
        <ele>606.6</ele>
        <time>2021-05-27T12:32:02.508Z</time>
      </trkpt>
      <trkpt lat="44.32167" lon="5.80574">
        <ele>609.8</ele>
        <time>2021-05-27T12:32:28.416Z</time>
      </trkpt>
      <trkpt lat="44.32227" lon="5.80539">
        <ele>615.6</ele>
        <time>2021-05-27T12:33:18.300Z</time>
      </trkpt>
      <trkpt lat="44.32253" lon="5.80555">
        <ele>622.1</ele>
        <time>2021-05-27T12:33:54.030Z</time>
      </trkpt>
      <trkpt lat="44.32255" lon="5.80555">
        <ele>622.3</ele>
        <time>2021-05-27T12:33:55.725Z</time>
      </trkpt>
      <trkpt lat="44.32288" lon="5.80569">
        <ele>627.1</ele>
        <time>2021-05-27T12:34:39.099Z</time>
      </trkpt>
      <trkpt lat="44.32291" lon="5.80579">
        <ele>629.2</ele>
        <time>2021-05-27T12:34:48.856Z</time>
      </trkpt>
      <trkpt lat="44.32263" lon="5.8063">
        <ele>630.6</ele>
        <time>2021-05-27T12:35:09.651Z</time>
      </trkpt>
      <trkpt lat="44.32282" lon="5.80633">
        <ele>632.6</ele>
        <time>2021-05-27T12:35:26.625Z</time>
      </trkpt>
      <trkpt lat="44.32284" lon="5.80634">
        <ele>632.9</ele>
        <time>2021-05-27T12:35:29.296Z</time>
      </trkpt>
      <trkpt lat="44.32307" lon="5.80648">
        <ele>636.1</ele>
        <time>2021-05-27T12:35:58.378Z</time>
      </trkpt>
      <trkpt lat="44.32341" lon="5.80657">
        <ele>639.6</ele>
        <time>2021-05-27T12:36:28.052Z</time>
      </trkpt>
      <trkpt lat="44.32336" lon="5.80739">
        <ele>642.7</ele>
        <time>2021-05-27T12:37:02.214Z</time>
      </trkpt>
      <trkpt lat="44.32422" lon="5.80776">
        <ele>645.9</ele>
        <time>2021-05-27T12:37:45.729Z</time>
      </trkpt>
      <trkpt lat="44.32487" lon="5.80808">
        <ele>652.7</ele>
        <time>2021-05-27T12:38:43.419Z</time>
      </trkpt>
      <trkpt lat="44.32549" lon="5.80841">
        <ele>657.1</ele>
        <time>2021-05-27T12:39:25.775Z</time>
      </trkpt>
      <trkpt lat="44.32592" lon="5.80851">
        <ele>660.5</ele>
        <time>2021-05-27T12:39:56.212Z</time>
      </trkpt>
      <trkpt lat="44.32633" lon="5.80848">
        <ele>663.5</ele>
        <time>2021-05-27T12:40:23.789Z</time>
      </trkpt>
      <trkpt lat="44.32698" lon="5.80819">
        <ele>664.9</ele>
        <time>2021-05-27T12:40:51.186Z</time>
      </trkpt>
      <trkpt lat="44.32779" lon="5.80842">
        <ele>668.6</ele>
        <time>2021-05-27T12:41:36.749Z</time>
      </trkpt>
      <trkpt lat="44.32837" lon="5.80865">
        <ele>671.7</ele>
        <time>2021-05-27T12:42:11.445Z</time>
      </trkpt>
      <trkpt lat="44.32935" lon="5.80893">
        <ele>671</ele>
        <time>2021-05-27T12:42:40.902Z</time>
      </trkpt>
      <trkpt lat="44.32961" lon="5.80952">
        <ele>676.3</ele>
        <time>2021-05-27T12:43:25.974Z</time>
      </trkpt>
      <trkpt lat="44.32971" lon="5.80989">
        <ele>679.1</ele>
        <time>2021-05-27T12:43:49.725Z</time>
      </trkpt>
      <trkpt lat="44.32995" lon="5.81062">
        <ele>682.3</ele>
        <time>2021-05-27T12:44:23.759Z</time>
      </trkpt>
      <trkpt lat="44.33014" lon="5.81125">
        <ele>685.4</ele>
        <time>2021-05-27T12:44:54.324Z</time>
      </trkpt>
      <trkpt lat="44.33026" lon="5.81175">
        <ele>688.5</ele>
        <time>2021-05-27T12:45:21.579Z</time>
      </trkpt>
      <trkpt lat="44.33031" lon="5.81238">
        <ele>693.2</ele>
        <time>2021-05-27T12:46:01.447Z</time>
      </trkpt>
      <trkpt lat="44.33029" lon="5.8128">
        <ele>696.4</ele>
        <time>2021-05-27T12:46:28.642Z</time>
      </trkpt>
      <trkpt lat="44.33031" lon="5.81339">
        <ele>699.7</ele>
        <time>2021-05-27T12:46:58.169Z</time>
      </trkpt>
      <trkpt lat="44.33024" lon="5.81416">
        <ele>705.5</ele>
        <time>2021-05-27T12:47:47.390Z</time>
      </trkpt>
      <trkpt lat="44.33024" lon="5.81418">
        <ele>705.6</ele>
        <time>2021-05-27T12:47:48.328Z</time>
      </trkpt>
      <trkpt lat="44.3302" lon="5.81438">
        <ele>707.5</ele>
        <time>2021-05-27T12:48:05.628Z</time>
      </trkpt>
      <trkpt lat="44.33025" lon="5.81518">
        <ele>710.7</ele>
        <time>2021-05-27T12:48:39.652Z</time>
      </trkpt>
      <trkpt lat="44.33026" lon="5.81526">
        <ele>711</ele>
        <time>2021-05-27T12:48:43.000Z</time>
      </trkpt>
      <trkpt lat="44.33005" lon="5.81523">
        <ele>716.3</ele>
        <time>2021-05-27T12:49:09.549Z</time>
      </trkpt>
      <trkpt lat="44.32974" lon="5.81478">
        <ele>719.1</ele>
        <time>2021-05-27T12:49:37.333Z</time>
      </trkpt>
      <trkpt lat="44.32934" lon="5.81412">
        <ele>722.7</ele>
        <time>2021-05-27T12:50:14.611Z</time>
      </trkpt>
      <trkpt lat="44.32924" lon="5.81397">
        <ele>724.1</ele>
        <time>2021-05-27T12:50:26.520Z</time>
      </trkpt>
      <trkpt lat="44.3289" lon="5.81374">
        <ele>727.8</ele>
        <time>2021-05-27T12:50:57.923Z</time>
      </trkpt>
      <trkpt lat="44.32853" lon="5.81373">
        <ele>731.8</ele>
        <time>2021-05-27T12:51:31.988Z</time>
      </trkpt>
      <trkpt lat="44.32808" lon="5.81385">
        <ele>733.8</ele>
        <time>2021-05-27T12:51:56.880Z</time>
      </trkpt>
      <trkpt lat="44.32805" lon="5.81386">
        <ele>733.7</ele>
        <time>2021-05-27T12:51:57.346Z</time>
      </trkpt>
      <trkpt lat="44.32789" lon="5.81393">
        <ele>733.4</ele>
        <time>2021-05-27T12:52:00.324Z</time>
      </trkpt>
      <trkpt lat="44.32761" lon="5.81452">
        <ele>733.2</ele>
        <time>2021-05-27T12:52:15.897Z</time>
      </trkpt>
      <trkpt lat="44.32725" lon="5.81451">
        <ele>728.6</ele>
        <time>2021-05-27T12:52:20.298Z</time>
      </trkpt>
      <trkpt lat="44.3272" lon="5.81444">
        <ele>727.5</ele>
        <time>2021-05-27T12:52:21.163Z</time>
      </trkpt>
      <trkpt lat="44.32701" lon="5.81455">
        <ele>725.2</ele>
        <time>2021-05-27T12:52:23.677Z</time>
      </trkpt>
      <trkpt lat="44.32706" lon="5.81467">
        <ele>726.7</ele>
        <time>2021-05-27T12:52:36.171Z</time>
      </trkpt>
      <trkpt lat="44.32717" lon="5.81512">
        <ele>730.6</ele>
        <time>2021-05-27T12:53:09.819Z</time>
      </trkpt>
      <trkpt lat="44.32718" lon="5.81533">
        <ele>732</ele>
        <time>2021-05-27T12:53:21.769Z</time>
      </trkpt>
      <trkpt lat="44.3272" lon="5.81567">
        <ele>734.3</ele>
        <time>2021-05-27T12:53:41.363Z</time>
      </trkpt>
      <trkpt lat="44.32713" lon="5.81589">
        <ele>735.4</ele>
        <time>2021-05-27T12:53:52.165Z</time>
      </trkpt>
      <trkpt lat="44.32691" lon="5.81589">
        <ele>734.9</ele>
        <time>2021-05-27T12:53:55.859Z</time>
      </trkpt>
      <trkpt lat="44.32682" lon="5.81635">
        <ele>736.8</ele>
        <time>2021-05-27T12:54:16.063Z</time>
      </trkpt>
      <trkpt lat="44.32677" lon="5.81698">
        <ele>739.7</ele>
        <time>2021-05-27T12:54:44.518Z</time>
      </trkpt>
      <trkpt lat="44.32655" lon="5.81724">
        <ele>739.9</ele>
        <time>2021-05-27T12:54:54.550Z</time>
      </trkpt>
      <trkpt lat="44.32621" lon="5.81759">
        <ele>739</ele>
        <time>2021-05-27T12:55:01.755Z</time>
      </trkpt>
      <trkpt lat="44.32587" lon="5.81797">
        <ele>735.6</ele>
        <time>2021-05-27T12:55:07.075Z</time>
      </trkpt>
      <trkpt lat="44.32589" lon="5.81804">
        <ele>735.4</ele>
        <time>2021-05-27T12:55:07.854Z</time>
      </trkpt>
      <trkpt lat="44.32568" lon="5.81881">
        <ele>726.5</ele>
        <time>2021-05-27T12:55:15.059Z</time>
      </trkpt>
      <trkpt lat="44.32554" lon="5.81898">
        <ele>722.5</ele>
        <time>2021-05-27T12:55:17.326Z</time>
      </trkpt>
      <trkpt lat="44.32539" lon="5.81909">
        <ele>719</ele>
        <time>2021-05-27T12:55:19.396Z</time>
      </trkpt>
      <trkpt lat="44.32519" lon="5.81952">
        <ele>710.4</ele>
        <time>2021-05-27T12:55:23.881Z</time>
      </trkpt>
      <trkpt lat="44.32514" lon="5.81979">
        <ele>706.4</ele>
        <time>2021-05-27T12:55:26.320Z</time>
      </trkpt>
      <trkpt lat="44.32496" lon="5.81995">
        <ele>703</ele>
        <time>2021-05-27T12:55:28.927Z</time>
      </trkpt>
      <trkpt lat="44.32488" lon="5.81999">
        <ele>701.4</ele>
        <time>2021-05-27T12:55:29.965Z</time>
      </trkpt>
      <trkpt lat="44.32465" lon="5.8201">
        <ele>696.6</ele>
        <time>2021-05-27T12:55:32.937Z</time>
      </trkpt>
      <trkpt lat="44.3245" lon="5.82022">
        <ele>693.3</ele>
        <time>2021-05-27T12:55:35.049Z</time>
      </trkpt>
      <trkpt lat="44.32418" lon="5.82019">
        <ele>690</ele>
        <time>2021-05-27T12:55:38.969Z</time>
      </trkpt>
      <trkpt lat="44.32391" lon="5.8199">
        <ele>685.6</ele>
        <time>2021-05-27T12:55:43.131Z</time>
      </trkpt>
      <trkpt lat="44.32375" lon="5.81978">
        <ele>682.2</ele>
        <time>2021-05-27T12:55:45.350Z</time>
      </trkpt>
      <trkpt lat="44.32357" lon="5.81975">
        <ele>677.8</ele>
        <time>2021-05-27T12:55:47.566Z</time>
      </trkpt>
      <trkpt lat="44.32336" lon="5.81979">
        <ele>672.6</ele>
        <time>2021-05-27T12:55:50.157Z</time>
      </trkpt>
      <trkpt lat="44.3231" lon="5.82001">
        <ele>666.7</ele>
        <time>2021-05-27T12:55:53.871Z</time>
      </trkpt>
      <trkpt lat="44.32292" lon="5.8203">
        <ele>662.8</ele>
        <time>2021-05-27T12:55:57.229Z</time>
      </trkpt>
      <trkpt lat="44.32257" lon="5.82091">
        <ele>656.2</ele>
        <time>2021-05-27T12:56:04.066Z</time>
      </trkpt>
      <trkpt lat="44.32238" lon="5.82133">
        <ele>651.8</ele>
        <time>2021-05-27T12:56:08.412Z</time>
      </trkpt>
      <trkpt lat="44.32198" lon="5.82133">
        <ele>642.9</ele>
        <time>2021-05-27T12:56:13.301Z</time>
      </trkpt>
      <trkpt lat="44.32175" lon="5.82108">
        <ele>637.9</ele>
        <time>2021-05-27T12:56:16.862Z</time>
      </trkpt>
      <trkpt lat="44.32155" lon="5.82125">
        <ele>633.7</ele>
        <time>2021-05-27T12:56:19.723Z</time>
      </trkpt>
      <trkpt lat="44.3214" lon="5.8214">
        <ele>630.7</ele>
        <time>2021-05-27T12:56:21.977Z</time>
      </trkpt>
      <trkpt lat="44.32125" lon="5.82184">
        <ele>626.1</ele>
        <time>2021-05-27T12:56:26.239Z</time>
      </trkpt>
      <trkpt lat="44.32124" lon="5.82231">
        <ele>622.3</ele>
        <time>2021-05-27T12:56:30.351Z</time>
      </trkpt>
      <trkpt lat="44.3212" lon="5.82243">
        <ele>620.8</ele>
        <time>2021-05-27T12:56:31.509Z</time>
      </trkpt>
      <trkpt lat="44.32098" lon="5.82247">
        <ele>617.3</ele>
        <time>2021-05-27T12:56:34.220Z</time>
      </trkpt>
      <trkpt lat="44.32065" lon="5.82236">
        <ele>613.4</ele>
        <time>2021-05-27T12:56:38.367Z</time>
      </trkpt>
      <trkpt lat="44.32035" lon="5.82242">
        <ele>609.4</ele>
        <time>2021-05-27T12:56:42.071Z</time>
      </trkpt>
      <trkpt lat="44.32028" lon="5.82243">
        <ele>608.5</ele>
        <time>2021-05-27T12:56:42.931Z</time>
      </trkpt>
      <trkpt lat="44.3197" lon="5.82237">
        <ele>599.8</ele>
        <time>2021-05-27T12:56:50.040Z</time>
      </trkpt>
      <trkpt lat="44.31953" lon="5.82236">
        <ele>596.7</ele>
        <time>2021-05-27T12:56:52.120Z</time>
      </trkpt>
      <trkpt lat="44.31932" lon="5.82255">
        <ele>592.9</ele>
        <time>2021-05-27T12:56:55.177Z</time>
      </trkpt>
      <trkpt lat="44.3192" lon="5.8229">
        <ele>590.9</ele>
        <time>2021-05-27T12:56:58.571Z</time>
      </trkpt>
      <trkpt lat="44.31903" lon="5.82341">
        <ele>588.5</ele>
        <time>2021-05-27T12:57:03.333Z</time>
      </trkpt>
      <trkpt lat="44.31869" lon="5.82391">
        <ele>583.3</ele>
        <time>2021-05-27T12:57:09.365Z</time>
      </trkpt>
      <trkpt lat="44.31844" lon="5.82403">
        <ele>579.2</ele>
        <time>2021-05-27T12:57:12.596Z</time>
      </trkpt>
      <trkpt lat="44.31785" lon="5.82429">
        <ele>573.6</ele>
        <time>2021-05-27T12:57:20.157Z</time>
      </trkpt>
      <trkpt lat="44.3171" lon="5.82409">
        <ele>571.7</ele>
        <time>2021-05-27T12:57:32.669Z</time>
      </trkpt>
      <trkpt lat="44.316" lon="5.824">
        <ele>570.7</ele>
        <time>2021-05-27T12:57:54.566Z</time>
      </trkpt>
      <trkpt lat="44.31549" lon="5.82396">
        <ele>571</ele>
        <time>2021-05-27T12:58:12.168Z</time>
      </trkpt>
      <trkpt lat="44.31493" lon="5.82319">
        <ele>572.3</ele>
        <time>2021-05-27T12:58:42.360Z</time>
      </trkpt>
      <trkpt lat="44.31459" lon="5.82338">
        <ele>571.8</ele>
        <time>2021-05-27T12:58:49.214Z</time>
      </trkpt>
      <trkpt lat="44.31437" lon="5.82352">
        <ele>571.1</ele>
        <time>2021-05-27T12:58:53.004Z</time>
      </trkpt>
      <trkpt lat="44.31423" lon="5.82325">
        <ele>572.2</ele>
        <time>2021-05-27T12:59:06.269Z</time>
      </trkpt>
      <trkpt lat="44.31349" lon="5.82279">
        <ele>570.5</ele>
        <time>2021-05-27T12:59:20.140Z</time>
      </trkpt>
      <trkpt lat="44.31301" lon="5.82272">
        <ele>567.3</ele>
        <time>2021-05-27T12:59:25.558Z</time>
      </trkpt>
      <trkpt lat="44.31241" lon="5.82277">
        <ele>561.9</ele>
        <time>2021-05-27T12:59:32.905Z</time>
      </trkpt>
      <trkpt lat="44.31211" lon="5.8228">
        <ele>560.3</ele>
        <time>2021-05-27T12:59:36.656Z</time>
      </trkpt>
      <trkpt lat="44.31184" lon="5.82283">
        <ele>558.9</ele>
        <time>2021-05-27T12:59:40.077Z</time>
      </trkpt>
      <trkpt lat="44.31161" lon="5.82282">
        <ele>557.9</ele>
        <time>2021-05-27T12:59:43.204Z</time>
      </trkpt>
      <trkpt lat="44.31138" lon="5.8226">
        <ele>557.4</ele>
        <time>2021-05-27T12:59:48.152Z</time>
      </trkpt>
      <trkpt lat="44.3112" lon="5.82235">
        <ele>556.6</ele>
        <time>2021-05-27T12:59:52.025Z</time>
      </trkpt>
      <trkpt lat="44.31101" lon="5.8221">
        <ele>556.1</ele>
        <time>2021-05-27T12:59:56.592Z</time>
      </trkpt>
      <trkpt lat="44.31083" lon="5.82187">
        <ele>556</ele>
        <time>2021-05-27T13:00:04.075Z</time>
      </trkpt>
      <trkpt lat="44.31063" lon="5.82161">
        <ele>555.5</ele>
        <time>2021-05-27T13:00:08.903Z</time>
      </trkpt>
      <trkpt lat="44.31042" lon="5.82133">
        <ele>555</ele>
        <time>2021-05-27T13:00:14.101Z</time>
      </trkpt>
      <trkpt lat="44.31022" lon="5.82108">
        <ele>554.5</ele>
        <time>2021-05-27T13:00:18.826Z</time>
      </trkpt>
      <trkpt lat="44.31002" lon="5.82082">
        <ele>554.1</ele>
        <time>2021-05-27T13:00:23.875Z</time>
      </trkpt>
      <trkpt lat="44.30983" lon="5.82063">
        <ele>554</ele>
        <time>2021-05-27T13:00:31.025Z</time>
      </trkpt>
      <trkpt lat="44.30957" lon="5.82047">
        <ele>553.9</ele>
        <time>2021-05-27T13:00:39.814Z</time>
      </trkpt>
      <trkpt lat="44.30932" lon="5.82039">
        <ele>553.7</ele>
        <time>2021-05-27T13:00:45.000Z</time>
      </trkpt>
      <trkpt lat="44.30906" lon="5.8204">
        <ele>553.6</ele>
        <time>2021-05-27T13:00:53.009Z</time>
      </trkpt>
      <trkpt lat="44.30876" lon="5.8205">
        <ele>553.9</ele>
        <time>2021-05-27T13:01:04.049Z</time>
      </trkpt>
      <trkpt lat="44.30847" lon="5.82059">
        <ele>554.1</ele>
        <time>2021-05-27T13:01:14.372Z</time>
      </trkpt>
      <trkpt lat="44.30815" lon="5.82067">
        <ele>556.1</ele>
        <time>2021-05-27T13:01:34.420Z</time>
      </trkpt>
      <trkpt lat="44.30786" lon="5.82075">
        <ele>558.8</ele>
        <time>2021-05-27T13:01:57.535Z</time>
      </trkpt>
      <trkpt lat="44.3076" lon="5.82092">
        <ele>560.8</ele>
        <time>2021-05-27T13:02:16.323Z</time>
      </trkpt>
      <trkpt lat="44.30742" lon="5.82121">
        <ele>562.6</ele>
        <time>2021-05-27T13:02:33.760Z</time>
      </trkpt>
      <trkpt lat="44.30724" lon="5.82163">
        <ele>564.8</ele>
        <time>2021-05-27T13:02:55.562Z</time>
      </trkpt>
      <trkpt lat="44.3071" lon="5.82198">
        <ele>564.3</ele>
        <time>2021-05-27T13:03:00.688Z</time>
      </trkpt>
      <trkpt lat="44.30697" lon="5.82225">
        <ele>563.4</ele>
        <time>2021-05-27T13:03:03.999Z</time>
      </trkpt>
      <trkpt lat="44.30681" lon="5.82249">
        <ele>562.4</ele>
        <time>2021-05-27T13:03:07.214Z</time>
      </trkpt>
      <trkpt lat="44.30638" lon="5.82285">
        <ele>561.5</ele>
        <time>2021-05-27T13:03:16.112Z</time>
      </trkpt>
      <trkpt lat="44.30593" lon="5.82306">
        <ele>561.5</ele>
        <time>2021-05-27T13:03:31.582Z</time>
      </trkpt>
      <trkpt lat="44.30563" lon="5.82312">
        <ele>561.8</ele>
        <time>2021-05-27T13:03:42.449Z</time>
      </trkpt>
      <trkpt lat="44.30537" lon="5.82317">
        <ele>561.7</ele>
        <time>2021-05-27T13:03:50.535Z</time>
      </trkpt>
      <trkpt lat="44.30505" lon="5.8232">
        <ele>562</ele>
        <time>2021-05-27T13:04:01.972Z</time>
      </trkpt>
      <trkpt lat="44.30479" lon="5.82316">
        <ele>563.7</ele>
        <time>2021-05-27T13:04:18.510Z</time>
      </trkpt>
      <trkpt lat="44.30454" lon="5.82314">
        <ele>565</ele>
        <time>2021-05-27T13:04:32.969Z</time>
      </trkpt>
      <trkpt lat="44.30422" lon="5.82318">
        <ele>564.7</ele>
        <time>2021-05-27T13:04:39.331Z</time>
      </trkpt>
      <trkpt lat="44.30399" lon="5.82318">
        <ele>565.8</ele>
        <time>2021-05-27T13:04:52.260Z</time>
      </trkpt>
      <trkpt lat="44.30362" lon="5.82325">
        <ele>565.9</ele>
        <time>2021-05-27T13:05:04.741Z</time>
      </trkpt>
      <trkpt lat="44.30339" lon="5.82329">
        <ele>566</ele>
        <time>2021-05-27T13:05:12.610Z</time>
      </trkpt>
      <trkpt lat="44.30307" lon="5.82336">
        <ele>565.2</ele>
        <time>2021-05-27T13:05:17.928Z</time>
      </trkpt>
      <trkpt lat="44.3027" lon="5.82343">
        <ele>564.9</ele>
        <time>2021-05-27T13:05:25.453Z</time>
      </trkpt>
      <trkpt lat="44.30231" lon="5.82349">
        <ele>564.4</ele>
        <time>2021-05-27T13:05:32.883Z</time>
      </trkpt>
      <trkpt lat="44.30203" lon="5.82349">
        <ele>564.5</ele>
        <time>2021-05-27T13:05:42.322Z</time>
      </trkpt>
      <trkpt lat="44.3014" lon="5.82346">
        <ele>564.6</ele>
        <time>2021-05-27T13:06:03.180Z</time>
      </trkpt>
      <trkpt lat="44.30096" lon="5.82347">
        <ele>563.7</ele>
        <time>2021-05-27T13:06:10.764Z</time>
      </trkpt>
      <trkpt lat="44.30065" lon="5.82346">
        <ele>562.5</ele>
        <time>2021-05-27T13:06:15.170Z</time>
      </trkpt>
      <trkpt lat="44.30029" lon="5.82342">
        <ele>560.8</ele>
        <time>2021-05-27T13:06:19.919Z</time>
      </trkpt>
      <trkpt lat="44.30003" lon="5.82333">
        <ele>560.3</ele>
        <time>2021-05-27T13:06:24.633Z</time>
      </trkpt>
      <trkpt lat="44.29977" lon="5.82323">
        <ele>561.4</ele>
        <time>2021-05-27T13:06:38.672Z</time>
      </trkpt>
      <trkpt lat="44.29946" lon="5.82309">
        <ele>562.8</ele>
        <time>2021-05-27T13:06:56.190Z</time>
      </trkpt>
      <trkpt lat="44.29918" lon="5.82295">
        <ele>563.9</ele>
        <time>2021-05-27T13:07:10.856Z</time>
      </trkpt>
      <trkpt lat="44.29892" lon="5.8228">
        <ele>564.9</ele>
        <time>2021-05-27T13:07:24.457Z</time>
      </trkpt>
      <trkpt lat="44.29866" lon="5.82266">
        <ele>565</ele>
        <time>2021-05-27T13:07:33.852Z</time>
      </trkpt>
      <trkpt lat="44.29844" lon="5.82258">
        <ele>564</ele>
        <time>2021-05-27T13:07:36.926Z</time>
      </trkpt>
      <trkpt lat="44.29807" lon="5.8225">
        <ele>562.4</ele>
        <time>2021-05-27T13:07:42.047Z</time>
      </trkpt>
      <trkpt lat="44.29784" lon="5.82247">
        <ele>561.5</ele>
        <time>2021-05-27T13:07:45.321Z</time>
      </trkpt>
      <trkpt lat="44.29757" lon="5.82239">
        <ele>561.5</ele>
        <time>2021-05-27T13:07:54.321Z</time>
      </trkpt>
      <trkpt lat="44.29726" lon="5.82225">
        <ele>561.1</ele>
        <time>2021-05-27T13:08:00.527Z</time>
      </trkpt>
      <trkpt lat="44.297" lon="5.82207">
        <ele>561.5</ele>
        <time>2021-05-27T13:08:11.356Z</time>
      </trkpt>
      <trkpt lat="44.29677" lon="5.82184">
        <ele>563.1</ele>
        <time>2021-05-27T13:08:28.208Z</time>
      </trkpt>
      <trkpt lat="44.29652" lon="5.82157">
        <ele>565.6</ele>
        <time>2021-05-27T13:08:50.471Z</time>
      </trkpt>
      <trkpt lat="44.2963" lon="5.82137">
        <ele>568</ele>
        <time>2021-05-27T13:09:11.014Z</time>
      </trkpt>
      <trkpt lat="44.29605" lon="5.82122">
        <ele>568.9</ele>
        <time>2021-05-27T13:09:23.742Z</time>
      </trkpt>
      <trkpt lat="44.29577" lon="5.82108">
        <ele>569.7</ele>
        <time>2021-05-27T13:09:36.610Z</time>
      </trkpt>
      <trkpt lat="44.29555" lon="5.82101">
        <ele>570.1</ele>
        <time>2021-05-27T13:09:45.393Z</time>
      </trkpt>
      <trkpt lat="44.29527" lon="5.82097">
        <ele>569.2</ele>
        <time>2021-05-27T13:09:49.669Z</time>
      </trkpt>
      <trkpt lat="44.29498" lon="5.82094">
        <ele>568.2</ele>
        <time>2021-05-27T13:09:53.980Z</time>
      </trkpt>
      <trkpt lat="44.29469" lon="5.821">
        <ele>568.9</ele>
        <time>2021-05-27T13:10:06.215Z</time>
      </trkpt>
      <trkpt lat="44.29436" lon="5.82126">
        <ele>566.6</ele>
        <time>2021-05-27T13:10:10.658Z</time>
      </trkpt>
      <trkpt lat="44.29415" lon="5.82149">
        <ele>564.1</ele>
        <time>2021-05-27T13:10:13.919Z</time>
      </trkpt>
      <trkpt lat="44.29389" lon="5.82183">
        <ele>563.2</ele>
        <time>2021-05-27T13:10:19.730Z</time>
      </trkpt>
      <trkpt lat="44.29366" lon="5.82205">
        <ele>563.9</ele>
        <time>2021-05-27T13:10:31.535Z</time>
      </trkpt>
      <trkpt lat="44.29345" lon="5.82217">
        <ele>564.4</ele>
        <time>2021-05-27T13:10:40.804Z</time>
      </trkpt>
      <trkpt lat="44.29322" lon="5.82228">
        <ele>564.8</ele>
        <time>2021-05-27T13:10:50.137Z</time>
      </trkpt>
      <trkpt lat="44.29299" lon="5.82238">
        <ele>565</ele>
        <time>2021-05-27T13:10:58.638Z</time>
      </trkpt>
      <trkpt lat="44.29275" lon="5.82249">
        <ele>564.9</ele>
        <time>2021-05-27T13:11:06.403Z</time>
      </trkpt>
      <trkpt lat="44.29249" lon="5.82256">
        <ele>565.1</ele>
        <time>2021-05-27T13:11:15.679Z</time>
      </trkpt>
      <trkpt lat="44.292" lon="5.82265">
        <ele>563.6</ele>
        <time>2021-05-27T13:11:23.315Z</time>
      </trkpt>
      <trkpt lat="44.29167" lon="5.8227">
        <ele>562.4</ele>
        <time>2021-05-27T13:11:28.150Z</time>
      </trkpt>
      <trkpt lat="44.29144" lon="5.82272">
        <ele>563.3</ele>
        <time>2021-05-27T13:11:39.849Z</time>
      </trkpt>
      <trkpt lat="44.2912" lon="5.82273">
        <ele>564.4</ele>
        <time>2021-05-27T13:11:53.173Z</time>
      </trkpt>
      <trkpt lat="44.29095" lon="5.82274">
        <ele>565.6</ele>
        <time>2021-05-27T13:12:07.247Z</time>
      </trkpt>
      <trkpt lat="44.29069" lon="5.82277">
        <ele>565.6</ele>
        <time>2021-05-27T13:12:15.754Z</time>
      </trkpt>
      <trkpt lat="44.29043" lon="5.82279">
        <ele>565.2</ele>
        <time>2021-05-27T13:12:20.525Z</time>
      </trkpt>
      <trkpt lat="44.29017" lon="5.82282">
        <ele>564.7</ele>
        <time>2021-05-27T13:12:25.089Z</time>
      </trkpt>
      <trkpt lat="44.28992" lon="5.82284">
        <ele>564.7</ele>
        <time>2021-05-27T13:12:33.254Z</time>
      </trkpt>
      <trkpt lat="44.28968" lon="5.82286">
        <ele>565</ele>
        <time>2021-05-27T13:12:42.106Z</time>
      </trkpt>
      <trkpt lat="44.28945" lon="5.82287">
        <ele>565.4</ele>
        <time>2021-05-27T13:12:51.030Z</time>
      </trkpt>
      <trkpt lat="44.28922" lon="5.82286">
        <ele>566.2</ele>
        <time>2021-05-27T13:13:02.039Z</time>
      </trkpt>
      <trkpt lat="44.28892" lon="5.82274">
        <ele>566.9</ele>
        <time>2021-05-27T13:13:14.846Z</time>
      </trkpt>
      <trkpt lat="44.28868" lon="5.82256">
        <ele>567.3</ele>
        <time>2021-05-27T13:13:25.108Z</time>
      </trkpt>
      <trkpt lat="44.2884" lon="5.82229">
        <ele>568.4</ele>
        <time>2021-05-27T13:13:40.870Z</time>
      </trkpt>
      <trkpt lat="44.28818" lon="5.82209">
        <ele>569.8</ele>
        <time>2021-05-27T13:13:56.170Z</time>
      </trkpt>
      <trkpt lat="44.28781" lon="5.82184">
        <ele>570</ele>
        <time>2021-05-27T13:14:10.197Z</time>
      </trkpt>
      <trkpt lat="44.28737" lon="5.82156">
        <ele>569.5</ele>
        <time>2021-05-27T13:14:19.644Z</time>
      </trkpt>
      <trkpt lat="44.28714" lon="5.82145">
        <ele>568.7</ele>
        <time>2021-05-27T13:14:23.302Z</time>
      </trkpt>
      <trkpt lat="44.28659" lon="5.82131">
        <ele>564.1</ele>
        <time>2021-05-27T13:14:30.135Z</time>
      </trkpt>
      <trkpt lat="44.28635" lon="5.82126">
        <ele>562.6</ele>
        <time>2021-05-27T13:14:32.956Z</time>
      </trkpt>
      <trkpt lat="44.286" lon="5.82114">
        <ele>560.8</ele>
        <time>2021-05-27T13:14:37.577Z</time>
      </trkpt>
      <trkpt lat="44.28578" lon="5.82103">
        <ele>559.8</ele>
        <time>2021-05-27T13:14:40.771Z</time>
      </trkpt>
      <trkpt lat="44.28537" lon="5.82082">
        <ele>557.1</ele>
        <time>2021-05-27T13:14:45.847Z</time>
      </trkpt>
      <trkpt lat="44.28494" lon="5.82058">
        <ele>554.8</ele>
        <time>2021-05-27T13:14:51.799Z</time>
      </trkpt>
      <trkpt lat="44.2846" lon="5.82044">
        <ele>553.6</ele>
        <time>2021-05-27T13:14:57.082Z</time>
      </trkpt>
      <trkpt lat="44.28437" lon="5.82036">
        <ele>552.4</ele>
        <time>2021-05-27T13:15:00.103Z</time>
      </trkpt>
      <trkpt lat="44.28413" lon="5.82029">
        <ele>551.3</ele>
        <time>2021-05-27T13:15:03.392Z</time>
      </trkpt>
      <trkpt lat="44.28358" lon="5.82024">
        <ele>552.8</ele>
        <time>2021-05-27T13:15:27.332Z</time>
      </trkpt>
      <trkpt lat="44.2832" lon="5.82023">
        <ele>553.1</ele>
        <time>2021-05-27T13:15:40.690Z</time>
      </trkpt>
      <trkpt lat="44.28292" lon="5.82023">
        <ele>552.7</ele>
        <time>2021-05-27T13:15:45.890Z</time>
      </trkpt>
      <trkpt lat="44.28252" lon="5.82021">
        <ele>552.3</ele>
        <time>2021-05-27T13:15:53.747Z</time>
      </trkpt>
      <trkpt lat="44.28226" lon="5.82013">
        <ele>551.4</ele>
        <time>2021-05-27T13:15:57.717Z</time>
      </trkpt>
      <trkpt lat="44.28204" lon="5.82001">
        <ele>550.6</ele>
        <time>2021-05-27T13:16:01.236Z</time>
      </trkpt>
      <trkpt lat="44.28156" lon="5.81971">
        <ele>549.8</ele>
        <time>2021-05-27T13:16:10.889Z</time>
      </trkpt>
      <trkpt lat="44.28114" lon="5.81944">
        <ele>548.9</ele>
        <time>2021-05-27T13:16:18.950Z</time>
      </trkpt>
      <trkpt lat="44.28073" lon="5.81918">
        <ele>547.6</ele>
        <time>2021-05-27T13:16:26.016Z</time>
      </trkpt>
      <trkpt lat="44.28017" lon="5.81882">
        <ele>547.4</ele>
        <time>2021-05-27T13:16:45.165Z</time>
      </trkpt>
      <trkpt lat="44.27969" lon="5.81852">
        <ele>547.8</ele>
        <time>2021-05-27T13:17:03.596Z</time>
      </trkpt>
      <trkpt lat="44.27914" lon="5.81816">
        <ele>549.1</ele>
        <time>2021-05-27T13:17:28.231Z</time>
      </trkpt>
      <trkpt lat="44.27868" lon="5.81786">
        <ele>548.4</ele>
        <time>2021-05-27T13:17:37.718Z</time>
      </trkpt>
      <trkpt lat="44.27841" lon="5.81768">
        <ele>547.6</ele>
        <time>2021-05-27T13:17:42.522Z</time>
      </trkpt>
      <trkpt lat="44.27816" lon="5.81751">
        <ele>546.9</ele>
        <time>2021-05-27T13:17:47.064Z</time>
      </trkpt>
      <trkpt lat="44.27774" lon="5.81724">
        <ele>545.2</ele>
        <time>2021-05-27T13:17:53.758Z</time>
      </trkpt>
      <trkpt lat="44.2774" lon="5.81701">
        <ele>543.8</ele>
        <time>2021-05-27T13:17:59.212Z</time>
      </trkpt>
      <trkpt lat="44.27715" lon="5.81689">
        <ele>543.2</ele>
        <time>2021-05-27T13:18:03.651Z</time>
      </trkpt>
      <trkpt lat="44.27687" lon="5.81641">
        <ele>543.4</ele>
        <time>2021-05-27T13:18:18.729Z</time>
      </trkpt>
      <trkpt lat="44.27654" lon="5.816">
        <ele>543.3</ele>
        <time>2021-05-27T13:18:32.648Z</time>
      </trkpt>
      <trkpt lat="44.27633" lon="5.81575">
        <ele>543.3</ele>
        <time>2021-05-27T13:18:41.645Z</time>
      </trkpt>
      <trkpt lat="44.27606" lon="5.81542">
        <ele>543.4</ele>
        <time>2021-05-27T13:18:53.650Z</time>
      </trkpt>
      <trkpt lat="44.27566" lon="5.81492">
        <ele>543</ele>
        <time>2021-05-27T13:19:04.556Z</time>
      </trkpt>
      <trkpt lat="44.2753" lon="5.81448">
        <ele>541.6</ele>
        <time>2021-05-27T13:19:12.032Z</time>
      </trkpt>
      <trkpt lat="44.27504" lon="5.81419">
        <ele>540.3</ele>
        <time>2021-05-27T13:19:16.743Z</time>
      </trkpt>
      <trkpt lat="44.27483" lon="5.81395">
        <ele>540.6</ele>
        <time>2021-05-27T13:19:26.588Z</time>
      </trkpt>
      <trkpt lat="44.27462" lon="5.81377">
        <ele>541</ele>
        <time>2021-05-27T13:19:36.025Z</time>
      </trkpt>
      <trkpt lat="44.27438" lon="5.81361">
        <ele>541.2</ele>
        <time>2021-05-27T13:19:45.338Z</time>
      </trkpt>
      <trkpt lat="44.27407" lon="5.81343">
        <ele>541.2</ele>
        <time>2021-05-27T13:19:56.285Z</time>
      </trkpt>
      <trkpt lat="44.2737" lon="5.81319">
        <ele>540.7</ele>
        <time>2021-05-27T13:20:04.059Z</time>
      </trkpt>
      <trkpt lat="44.27345" lon="5.813">
        <ele>540.2</ele>
        <time>2021-05-27T13:20:09.135Z</time>
      </trkpt>
      <trkpt lat="44.27318" lon="5.81266">
        <ele>540.7</ele>
        <time>2021-05-27T13:20:22.698Z</time>
      </trkpt>
      <trkpt lat="44.27296" lon="5.8123">
        <ele>542.1</ele>
        <time>2021-05-27T13:20:40.475Z</time>
      </trkpt>
      <trkpt lat="44.27277" lon="5.81205">
        <ele>542.9</ele>
        <time>2021-05-27T13:20:52.309Z</time>
      </trkpt>
      <trkpt lat="44.27246" lon="5.81177">
        <ele>543.7</ele>
        <time>2021-05-27T13:21:07.328Z</time>
      </trkpt>
      <trkpt lat="44.27224" lon="5.81156">
        <ele>543.3</ele>
        <time>2021-05-27T13:21:12.232Z</time>
      </trkpt>
      <trkpt lat="44.27222" lon="5.81124">
        <ele>543</ele>
        <time>2021-05-27T13:21:16.571Z</time>
      </trkpt>
      <trkpt lat="44.27221" lon="5.81089">
        <ele>542.7</ele>
        <time>2021-05-27T13:21:21.369Z</time>
      </trkpt>
      <trkpt lat="44.27222" lon="5.8105">
        <ele>541.9</ele>
        <time>2021-05-27T13:21:25.765Z</time>
      </trkpt>
      <trkpt lat="44.27229" lon="5.81001">
        <ele>540.8</ele>
        <time>2021-05-27T13:21:31.270Z</time>
      </trkpt>
      <trkpt lat="44.27239" lon="5.80956">
        <ele>541.3</ele>
        <time>2021-05-27T13:21:43.999Z</time>
      </trkpt>
      <trkpt lat="44.27256" lon="5.80882">
        <ele>541.5</ele>
        <time>2021-05-27T13:22:02.761Z</time>
      </trkpt>
      <trkpt lat="44.27269" lon="5.80834">
        <ele>541.8</ele>
        <time>2021-05-27T13:22:15.711Z</time>
      </trkpt>
      <trkpt lat="44.27283" lon="5.80788">
        <ele>543.7</ele>
        <time>2021-05-27T13:22:36.538Z</time>
      </trkpt>
      <trkpt lat="44.27298" lon="5.80741">
        <ele>545.6</ele>
        <time>2021-05-27T13:22:57.763Z</time>
      </trkpt>
      <trkpt lat="44.27314" lon="5.80708">
        <ele>547.6</ele>
        <time>2021-05-27T13:23:16.499Z</time>
      </trkpt>
      <trkpt lat="44.27332" lon="5.80645">
        <ele>550.8</ele>
        <time>2021-05-27T13:23:47.408Z</time>
      </trkpt>
      <trkpt lat="44.27332" lon="5.80604">
        <ele>550.8</ele>
        <time>2021-05-27T13:23:56.980Z</time>
      </trkpt>
      <trkpt lat="44.27346" lon="5.80561">
        <ele>552.8</ele>
        <time>2021-05-27T13:24:17.491Z</time>
      </trkpt>
      <trkpt lat="44.27366" lon="5.80527">
        <ele>555.5</ele>
        <time>2021-05-27T13:24:40.939Z</time>
      </trkpt>
      <trkpt lat="44.27381" lon="5.80501">
        <ele>557.4</ele>
        <time>2021-05-27T13:24:57.832Z</time>
      </trkpt>
      <trkpt lat="44.27399" lon="5.80468">
        <ele>557.3</ele>
        <time>2021-05-27T13:25:07.043Z</time>
      </trkpt>
      <trkpt lat="44.27418" lon="5.80416">
        <ele>552.6</ele>
        <time>2021-05-27T13:25:12.152Z</time>
      </trkpt>
      <trkpt lat="44.2743" lon="5.80375">
        <ele>554.6</ele>
        <time>2021-05-27T13:25:31.926Z</time>
      </trkpt>
      <trkpt lat="44.27439" lon="5.80346">
        <ele>556.1</ele>
        <time>2021-05-27T13:25:46.370Z</time>
      </trkpt>
      <trkpt lat="44.27456" lon="5.80296">
        <ele>560.9</ele>
        <time>2021-05-27T13:26:28.682Z</time>
      </trkpt>
      <trkpt lat="44.27472" lon="5.80258">
        <ele>562.7</ele>
        <time>2021-05-27T13:26:47.547Z</time>
      </trkpt>
      <trkpt lat="44.27492" lon="5.80215">
        <ele>560</ele>
        <time>2021-05-27T13:26:52.034Z</time>
      </trkpt>
      <trkpt lat="44.27515" lon="5.80177">
        <ele>564.1</ele>
        <time>2021-05-27T13:27:27.449Z</time>
      </trkpt>
      <trkpt lat="44.27536" lon="5.80145">
        <ele>573.7</ele>
        <time>2021-05-27T13:28:06.538Z</time>
      </trkpt>
      <trkpt lat="44.2755" lon="5.8012">
        <ele>576</ele>
        <time>2021-05-27T13:28:26.037Z</time>
      </trkpt>
      <trkpt lat="44.27569" lon="5.80085">
        <ele>571.3</ele>
        <time>2021-05-27T13:28:29.881Z</time>
      </trkpt>
      <trkpt lat="44.27582" lon="5.80058">
        <ele>568.4</ele>
        <time>2021-05-27T13:28:32.729Z</time>
      </trkpt>
      <trkpt lat="44.27597" lon="5.80024">
        <ele>574</ele>
        <time>2021-05-27T13:29:08.691Z</time>
      </trkpt>
      <trkpt lat="44.2761" lon="5.79994">
        <ele>577.7</ele>
        <time>2021-05-27T13:29:40.269Z</time>
      </trkpt>
      <trkpt lat="44.27621" lon="5.79961">
        <ele>585.3</ele>
        <time>2021-05-27T13:30:13.048Z</time>
      </trkpt>
      <trkpt lat="44.2763" lon="5.79926">
        <ele>589.8</ele>
        <time>2021-05-27T13:30:46.536Z</time>
      </trkpt>
      <trkpt lat="44.27639" lon="5.79889">
        <ele>588.7</ele>
        <time>2021-05-27T13:30:50.488Z</time>
      </trkpt>
      <trkpt lat="44.27646" lon="5.79858">
        <ele>584.3</ele>
        <time>2021-05-27T13:30:53.333Z</time>
      </trkpt>
      <trkpt lat="44.27668" lon="5.7978">
        <ele>574.3</ele>
        <time>2021-05-27T13:31:00.669Z</time>
      </trkpt>
      <trkpt lat="44.27676" lon="5.79745">
        <ele>575.3</ele>
        <time>2021-05-27T13:31:13.829Z</time>
      </trkpt>
      <trkpt lat="44.27677" lon="5.79701">
        <ele>574.9</ele>
        <time>2021-05-27T13:31:19.802Z</time>
      </trkpt>
      <trkpt lat="44.27676" lon="5.79663">
        <ele>573.2</ele>
        <time>2021-05-27T13:31:22.951Z</time>
      </trkpt>
      <trkpt lat="44.27677" lon="5.79611">
        <ele>571.1</ele>
        <time>2021-05-27T13:31:27.474Z</time>
      </trkpt>
      <trkpt lat="44.27684" lon="5.79537">
        <ele>574.5</ele>
        <time>2021-05-27T13:32:00.930Z</time>
      </trkpt>
      <trkpt lat="44.27692" lon="5.79488">
        <ele>577.9</ele>
        <time>2021-05-27T13:32:29.887Z</time>
      </trkpt>
      <trkpt lat="44.27698" lon="5.79449">
        <ele>576.9</ele>
        <time>2021-05-27T13:32:34.094Z</time>
      </trkpt>
      <trkpt lat="44.27709" lon="5.79413">
        <ele>575.4</ele>
        <time>2021-05-27T13:32:37.579Z</time>
      </trkpt>
      <trkpt lat="44.27727" lon="5.79379">
        <ele>573.7</ele>
        <time>2021-05-27T13:32:41.263Z</time>
      </trkpt>
      <trkpt lat="44.27741" lon="5.79354">
        <ele>568.5</ele>
        <time>2021-05-27T13:32:44.040Z</time>
      </trkpt>
      <trkpt lat="44.27761" lon="5.79338">
        <ele>566.8</ele>
        <time>2021-05-27T13:32:46.857Z</time>
      </trkpt>
      <trkpt lat="44.27792" lon="5.79331">
        <ele>575</ele>
        <time>2021-05-27T13:33:26.352Z</time>
      </trkpt>
      <trkpt lat="44.27813" lon="5.79319">
        <ele>580.3</ele>
        <time>2021-05-27T13:33:54.889Z</time>
      </trkpt>
      <trkpt lat="44.27836" lon="5.79281">
        <ele>580.8</ele>
        <time>2021-05-27T13:34:08.219Z</time>
      </trkpt>
      <trkpt lat="44.27855" lon="5.79241">
        <ele>588.3</ele>
        <time>2021-05-27T13:34:51.444Z</time>
      </trkpt>
      <trkpt lat="44.27866" lon="5.79205">
        <ele>595.1</ele>
        <time>2021-05-27T13:35:26.689Z</time>
      </trkpt>
      <trkpt lat="44.27867" lon="5.79167">
        <ele>595.2</ele>
        <time>2021-05-27T13:35:35.875Z</time>
      </trkpt>
      <trkpt lat="44.27858" lon="5.79138">
        <ele>590.2</ele>
        <time>2021-05-27T13:35:38.641Z</time>
      </trkpt>
      <trkpt lat="44.27846" lon="5.79108">
        <ele>585</ele>
        <time>2021-05-27T13:35:41.649Z</time>
      </trkpt>
      <trkpt lat="44.27834" lon="5.7908">
        <ele>581.3</ele>
        <time>2021-05-27T13:35:44.504Z</time>
      </trkpt>
      <trkpt lat="44.2781" lon="5.79053">
        <ele>580.7</ele>
        <time>2021-05-27T13:35:49.877Z</time>
      </trkpt>
      <trkpt lat="44.27825" lon="5.78998">
        <ele>581.6</ele>
        <time>2021-05-27T13:36:06.959Z</time>
      </trkpt>
      <trkpt lat="44.27874" lon="5.79019">
        <ele>586.6</ele>
        <time>2021-05-27T13:36:49.408Z</time>
      </trkpt>
      <trkpt lat="44.27898" lon="5.79017">
        <ele>589</ele>
        <time>2021-05-27T13:37:09.759Z</time>
      </trkpt>
      <trkpt lat="44.27925" lon="5.79002">
        <ele>590.3</ele>
        <time>2021-05-27T13:37:25.774Z</time>
      </trkpt>
      <trkpt lat="44.27947" lon="5.78981">
        <ele>596.6</ele>
        <time>2021-05-27T13:37:59.288Z</time>
      </trkpt>
      <trkpt lat="44.27959" lon="5.78954">
        <ele>597.6</ele>
        <time>2021-05-27T13:38:11.706Z</time>
      </trkpt>
      <trkpt lat="44.27966" lon="5.78915">
        <ele>594.8</ele>
        <time>2021-05-27T13:38:15.225Z</time>
      </trkpt>
      <trkpt lat="44.27967" lon="5.7888">
        <ele>597</ele>
        <time>2021-05-27T13:38:34.218Z</time>
      </trkpt>
      <trkpt lat="44.27961" lon="5.78841">
        <ele>596.3</ele>
        <time>2021-05-27T13:38:38.917Z</time>
      </trkpt>
      <trkpt lat="44.2795" lon="5.78795">
        <ele>594.2</ele>
        <time>2021-05-27T13:38:42.997Z</time>
      </trkpt>
      <trkpt lat="44.27936" lon="5.78752">
        <ele>590.2</ele>
        <time>2021-05-27T13:38:47.130Z</time>
      </trkpt>
      <trkpt lat="44.27931" lon="5.78716">
        <ele>585.1</ele>
        <time>2021-05-27T13:38:50.339Z</time>
      </trkpt>
      <trkpt lat="44.2793" lon="5.78673">
        <ele>581.2</ele>
        <time>2021-05-27T13:38:54.104Z</time>
      </trkpt>
      <trkpt lat="44.27945" lon="5.78637">
        <ele>583.7</ele>
        <time>2021-05-27T13:39:15.949Z</time>
      </trkpt>
      <trkpt lat="44.27956" lon="5.78607">
        <ele>583.6</ele>
        <time>2021-05-27T13:39:23.348Z</time>
      </trkpt>
      <trkpt lat="44.27963" lon="5.78574">
        <ele>583.2</ele>
        <time>2021-05-27T13:39:27.815Z</time>
      </trkpt>
      <trkpt lat="44.27965" lon="5.78533">
        <ele>588.5</ele>
        <time>2021-05-27T13:40:04.819Z</time>
      </trkpt>
      <trkpt lat="44.27962" lon="5.78489">
        <ele>592.8</ele>
        <time>2021-05-27T13:40:44.617Z</time>
      </trkpt>
      <trkpt lat="44.27957" lon="5.78449">
        <ele>594.9</ele>
        <time>2021-05-27T13:41:04.019Z</time>
      </trkpt>
      <trkpt lat="44.2795" lon="5.78408">
        <ele>595.7</ele>
        <time>2021-05-27T13:41:17.014Z</time>
      </trkpt>
      <trkpt lat="44.27941" lon="5.78361">
        <ele>595</ele>
        <time>2021-05-27T13:41:23.043Z</time>
      </trkpt>
      <trkpt lat="44.27929" lon="5.783">
        <ele>594.1</ele>
        <time>2021-05-27T13:41:30.901Z</time>
      </trkpt>
      <trkpt lat="44.2791" lon="5.78252">
        <ele>591.7</ele>
        <time>2021-05-27T13:41:35.491Z</time>
      </trkpt>
      <trkpt lat="44.27896" lon="5.78227">
        <ele>597.1</ele>
        <time>2021-05-27T13:42:04.071Z</time>
      </trkpt>
      <trkpt lat="44.27878" lon="5.78199">
        <ele>602.4</ele>
        <time>2021-05-27T13:42:37.956Z</time>
      </trkpt>
      <trkpt lat="44.2785" lon="5.78187">
        <ele>600.1</ele>
        <time>2021-05-27T13:42:41.536Z</time>
      </trkpt>
      <trkpt lat="44.27818" lon="5.78196">
        <ele>597.1</ele>
        <time>2021-05-27T13:42:45.526Z</time>
      </trkpt>
      <trkpt lat="44.27791" lon="5.78213">
        <ele>597</ele>
        <time>2021-05-27T13:42:54.708Z</time>
      </trkpt>
      <trkpt lat="44.27771" lon="5.78232">
        <ele>594.5</ele>
        <time>2021-05-27T13:42:57.664Z</time>
      </trkpt>
      <trkpt lat="44.27743" lon="5.78263">
        <ele>593.1</ele>
        <time>2021-05-27T13:43:02.718Z</time>
      </trkpt>
      <trkpt lat="44.27715" lon="5.78293">
        <ele>595.7</ele>
        <time>2021-05-27T13:43:26.532Z</time>
      </trkpt>
      <trkpt lat="44.27694" lon="5.78318">
        <ele>593.7</ele>
        <time>2021-05-27T13:43:29.905Z</time>
      </trkpt>
      <trkpt lat="44.27672" lon="5.78341">
        <ele>591.3</ele>
        <time>2021-05-27T13:43:33.264Z</time>
      </trkpt>
      <trkpt lat="44.27649" lon="5.78355">
        <ele>593.4</ele>
        <time>2021-05-27T13:43:51.623Z</time>
      </trkpt>
      <trkpt lat="44.27623" lon="5.78374">
        <ele>593.9</ele>
        <time>2021-05-27T13:44:02.960Z</time>
      </trkpt>
      <trkpt lat="44.27602" lon="5.7839">
        <ele>592</ele>
        <time>2021-05-27T13:44:05.884Z</time>
      </trkpt>
      <trkpt lat="44.27577" lon="5.78407">
        <ele>587.6</ele>
        <time>2021-05-27T13:44:09.283Z</time>
      </trkpt>
      <trkpt lat="44.27552" lon="5.78419">
        <ele>584.6</ele>
        <time>2021-05-27T13:44:12.514Z</time>
      </trkpt>
      <trkpt lat="44.27526" lon="5.78416">
        <ele>583.8</ele>
        <time>2021-05-27T13:44:16.531Z</time>
      </trkpt>
      <trkpt lat="44.27499" lon="5.78402">
        <ele>585.2</ele>
        <time>2021-05-27T13:44:32.804Z</time>
      </trkpt>
      <trkpt lat="44.27477" lon="5.78378">
        <ele>589.1</ele>
        <time>2021-05-27T13:45:07.914Z</time>
      </trkpt>
      <trkpt lat="44.27469" lon="5.78343">
        <ele>592.6</ele>
        <time>2021-05-27T13:45:40.816Z</time>
      </trkpt>
      <trkpt lat="44.27486" lon="5.78316">
        <ele>592.6</ele>
        <time>2021-05-27T13:45:49.210Z</time>
      </trkpt>
      <trkpt lat="44.27511" lon="5.78293">
        <ele>592.8</ele>
        <time>2021-05-27T13:45:59.608Z</time>
      </trkpt>
      <trkpt lat="44.27533" lon="5.7828">
        <ele>598.5</ele>
        <time>2021-05-27T13:46:29.652Z</time>
      </trkpt>
      <trkpt lat="44.27549" lon="5.78253">
        <ele>603.4</ele>
        <time>2021-05-27T13:47:01.213Z</time>
      </trkpt>
      <trkpt lat="44.27549" lon="5.78214">
        <ele>607.2</ele>
        <time>2021-05-27T13:47:36.333Z</time>
      </trkpt>
      <trkpt lat="44.27535" lon="5.78179">
        <ele>604.9</ele>
        <time>2021-05-27T13:47:39.842Z</time>
      </trkpt>
      <trkpt lat="44.27518" lon="5.78154">
        <ele>602.1</ele>
        <time>2021-05-27T13:47:42.859Z</time>
      </trkpt>
      <trkpt lat="44.27488" lon="5.7812">
        <ele>600.3</ele>
        <time>2021-05-27T13:47:47.961Z</time>
      </trkpt>
      <trkpt lat="44.27463" lon="5.78091">
        <ele>598.7</ele>
        <time>2021-05-27T13:47:52.154Z</time>
      </trkpt>
      <trkpt lat="44.27434" lon="5.78058">
        <ele>594.4</ele>
        <time>2021-05-27T13:47:56.727Z</time>
      </trkpt>
      <trkpt lat="44.27414" lon="5.78024">
        <ele>592.8</ele>
        <time>2021-05-27T13:48:00.737Z</time>
      </trkpt>
      <trkpt lat="44.27408" lon="5.7798">
        <ele>600.5</ele>
        <time>2021-05-27T13:48:41.073Z</time>
      </trkpt>
      <trkpt lat="44.27406" lon="5.77935">
        <ele>609.9</ele>
        <time>2021-05-27T13:49:21.674Z</time>
      </trkpt>
      <trkpt lat="44.27385" lon="5.77895">
        <ele>613.2</ele>
        <time>2021-05-27T13:49:49.845Z</time>
      </trkpt>
      <trkpt lat="44.27364" lon="5.77866">
        <ele>611.4</ele>
        <time>2021-05-27T13:49:53.302Z</time>
      </trkpt>
      <trkpt lat="44.2733" lon="5.77829">
        <ele>601.3</ele>
        <time>2021-05-27T13:49:58.570Z</time>
      </trkpt>
      <trkpt lat="44.2731" lon="5.77811">
        <ele>601.3</ele>
        <time>2021-05-27T13:50:06.328Z</time>
      </trkpt>
      <trkpt lat="44.27298" lon="5.77755">
        <ele>607.5</ele>
        <time>2021-05-27T13:50:58.969Z</time>
      </trkpt>
      <trkpt lat="44.2728" lon="5.77736">
        <ele>609.7</ele>
        <time>2021-05-27T13:51:17.647Z</time>
      </trkpt>
      <trkpt lat="44.27257" lon="5.7774">
        <ele>604.6</ele>
        <time>2021-05-27T13:51:20.480Z</time>
      </trkpt>
      <trkpt lat="44.27229" lon="5.7775">
        <ele>597.5</ele>
        <time>2021-05-27T13:51:24.012Z</time>
      </trkpt>
      <trkpt lat="44.27189" lon="5.77729">
        <ele>600.8</ele>
        <time>2021-05-27T13:51:53.666Z</time>
      </trkpt>
      <trkpt lat="44.27158" lon="5.77707">
        <ele>603.4</ele>
        <time>2021-05-27T13:52:17.333Z</time>
      </trkpt>
      <trkpt lat="44.27136" lon="5.77689">
        <ele>605.7</ele>
        <time>2021-05-27T13:52:37.070Z</time>
      </trkpt>
      <trkpt lat="44.27124" lon="5.77652">
        <ele>608</ele>
        <time>2021-05-27T13:52:57.556Z</time>
      </trkpt>
      <trkpt lat="44.27119" lon="5.77621">
        <ele>609.9</ele>
        <time>2021-05-27T13:53:14.178Z</time>
      </trkpt>
      <trkpt lat="44.27116" lon="5.77579">
        <ele>613</ele>
        <time>2021-05-27T13:53:40.464Z</time>
      </trkpt>
      <trkpt lat="44.27107" lon="5.77549">
        <ele>615.2</ele>
        <time>2021-05-27T13:53:59.201Z</time>
      </trkpt>
      <trkpt lat="44.27092" lon="5.77518">
        <ele>614.1</ele>
        <time>2021-05-27T13:54:02.924Z</time>
      </trkpt>
      <trkpt lat="44.27073" lon="5.77493">
        <ele>614.1</ele>
        <time>2021-05-27T13:54:11.436Z</time>
      </trkpt>
      <trkpt lat="44.27047" lon="5.77485">
        <ele>611.5</ele>
        <time>2021-05-27T13:54:14.690Z</time>
      </trkpt>
      <trkpt lat="44.2703" lon="5.77458">
        <ele>617.8</ele>
        <time>2021-05-27T13:54:47.069Z</time>
      </trkpt>
      <trkpt lat="44.27003" lon="5.77439">
        <ele>615.8</ele>
        <time>2021-05-27T13:54:50.467Z</time>
      </trkpt>
      <trkpt lat="44.2696" lon="5.77454">
        <ele>612.6</ele>
        <time>2021-05-27T13:54:55.885Z</time>
      </trkpt>
      <trkpt lat="44.26933" lon="5.7746">
        <ele>612.3</ele>
        <time>2021-05-27T13:55:01.182Z</time>
      </trkpt>
      <trkpt lat="44.26899" lon="5.77486">
        <ele>608.2</ele>
        <time>2021-05-27T13:55:05.920Z</time>
      </trkpt>
      <trkpt lat="44.2687" lon="5.77509">
        <ele>607.8</ele>
        <time>2021-05-27T13:55:12.297Z</time>
      </trkpt>
      <trkpt lat="44.26839" lon="5.77531">
        <ele>608.5</ele>
        <time>2021-05-27T13:55:26.199Z</time>
      </trkpt>
      <trkpt lat="44.26814" lon="5.77544">
        <ele>605.1</ele>
        <time>2021-05-27T13:55:29.460Z</time>
      </trkpt>
      <trkpt lat="44.26771" lon="5.77545">
        <ele>603.3</ele>
        <time>2021-05-27T13:55:35.391Z</time>
      </trkpt>
      <trkpt lat="44.26747" lon="5.77507">
        <ele>608.9</ele>
        <time>2021-05-27T13:56:21.024Z</time>
      </trkpt>
      <trkpt lat="44.26714" lon="5.77448">
        <ele>622</ele>
        <time>2021-05-27T13:57:28.449Z</time>
      </trkpt>
      <trkpt lat="44.26699" lon="5.77418">
        <ele>621</ele>
        <time>2021-05-27T13:57:32.192Z</time>
      </trkpt>
      <trkpt lat="44.26683" lon="5.77387">
        <ele>622</ele>
        <time>2021-05-27T13:57:45.604Z</time>
      </trkpt>
      <trkpt lat="44.2667" lon="5.77349">
        <ele>623</ele>
        <time>2021-05-27T13:57:59.727Z</time>
      </trkpt>
      <trkpt lat="44.26656" lon="5.77321">
        <ele>622</ele>
        <time>2021-05-27T13:58:03.130Z</time>
      </trkpt>
      <trkpt lat="44.26628" lon="5.77291">
        <ele>616</ele>
        <time>2021-05-27T13:58:07.444Z</time>
      </trkpt>
      <trkpt lat="44.26606" lon="5.77268">
        <ele>610.6</ele>
        <time>2021-05-27T13:58:10.803Z</time>
      </trkpt>
      <trkpt lat="44.26593" lon="5.77239">
        <ele>607.8</ele>
        <time>2021-05-27T13:58:13.797Z</time>
      </trkpt>
      <trkpt lat="44.26607" lon="5.77209">
        <ele>611.6</ele>
        <time>2021-05-27T13:58:46.048Z</time>
      </trkpt>
      <trkpt lat="44.26627" lon="5.77192">
        <ele>615.4</ele>
        <time>2021-05-27T13:59:15.495Z</time>
      </trkpt>
      <trkpt lat="44.26652" lon="5.77164">
        <ele>616.5</ele>
        <time>2021-05-27T13:59:30.737Z</time>
      </trkpt>
      <trkpt lat="44.26672" lon="5.77138">
        <ele>620</ele>
        <time>2021-05-27T14:00:02.639Z</time>
      </trkpt>
      <trkpt lat="44.26695" lon="5.77104">
        <ele>633.1</ele>
        <time>2021-05-27T14:00:44.764Z</time>
      </trkpt>
      <trkpt lat="44.26708" lon="5.77077">
        <ele>640.4</ele>
        <time>2021-05-27T14:01:14.066Z</time>
      </trkpt>
      <trkpt lat="44.26712" lon="5.77046">
        <ele>646.6</ele>
        <time>2021-05-27T14:01:42.436Z</time>
      </trkpt>
      <trkpt lat="44.26712" lon="5.77012">
        <ele>650.2</ele>
        <time>2021-05-27T14:02:13.057Z</time>
      </trkpt>
      <trkpt lat="44.26708" lon="5.76981">
        <ele>655</ele>
        <time>2021-05-27T14:02:41.426Z</time>
      </trkpt>
      <trkpt lat="44.26694" lon="5.76955">
        <ele>654.3</ele>
        <time>2021-05-27T14:02:45.037Z</time>
      </trkpt>
      <trkpt lat="44.26675" lon="5.76938">
        <ele>648.1</ele>
        <time>2021-05-27T14:02:47.795Z</time>
      </trkpt>
      <trkpt lat="44.2665" lon="5.76925">
        <ele>642.9</ele>
        <time>2021-05-27T14:02:51.056Z</time>
      </trkpt>
      <trkpt lat="44.26624" lon="5.76918">
        <ele>636.3</ele>
        <time>2021-05-27T14:02:54.292Z</time>
      </trkpt>
      <trkpt lat="44.26597" lon="5.76915">
        <ele>627.4</ele>
        <time>2021-05-27T14:02:57.603Z</time>
      </trkpt>
      <trkpt lat="44.26571" lon="5.7691">
        <ele>622.9</ele>
        <time>2021-05-27T14:03:00.811Z</time>
      </trkpt>
      <trkpt lat="44.26544" lon="5.76903">
        <ele>621.6</ele>
        <time>2021-05-27T14:03:04.413Z</time>
      </trkpt>
      <trkpt lat="44.26518" lon="5.76899">
        <ele>619.1</ele>
        <time>2021-05-27T14:03:07.610Z</time>
      </trkpt>
      <trkpt lat="44.26494" lon="5.769">
        <ele>618</ele>
        <time>2021-05-27T14:03:10.804Z</time>
      </trkpt>
      <trkpt lat="44.2647" lon="5.76891">
        <ele>623.5</ele>
        <time>2021-05-27T14:03:42.058Z</time>
      </trkpt>
      <trkpt lat="44.26458" lon="5.76864">
        <ele>627.4</ele>
        <time>2021-05-27T14:04:10.679Z</time>
      </trkpt>
      <trkpt lat="44.26504" lon="5.76831">
        <ele>621.6</ele>
        <time>2021-05-27T14:04:17.000Z</time>
      </trkpt>
      <trkpt lat="44.26526" lon="5.76818">
        <ele>629.3</ele>
        <time>2021-05-27T14:04:47.045Z</time>
      </trkpt>
      <trkpt lat="44.26553" lon="5.76768">
        <ele>633.9</ele>
        <time>2021-05-27T14:05:26.050Z</time>
      </trkpt>
      <trkpt lat="44.26568" lon="5.76736">
        <ele>632.4</ele>
        <time>2021-05-27T14:05:29.421Z</time>
      </trkpt>
      <trkpt lat="44.26589" lon="5.7671">
        <ele>631.2</ele>
        <time>2021-05-27T14:05:33.259Z</time>
      </trkpt>
      <trkpt lat="44.2661" lon="5.76692">
        <ele>638.5</ele>
        <time>2021-05-27T14:06:04.249Z</time>
      </trkpt>
      <trkpt lat="44.26624" lon="5.76662">
        <ele>641.5</ele>
        <time>2021-05-27T14:06:30.308Z</time>
      </trkpt>
      <trkpt lat="44.26631" lon="5.76627">
        <ele>643.9</ele>
        <time>2021-05-27T14:06:50.820Z</time>
      </trkpt>
      <trkpt lat="44.26633" lon="5.76595">
        <ele>644.2</ele>
        <time>2021-05-27T14:06:59.338Z</time>
      </trkpt>
      <trkpt lat="44.26616" lon="5.76552">
        <ele>636.4</ele>
        <time>2021-05-27T14:07:03.637Z</time>
      </trkpt>
      <trkpt lat="44.26602" lon="5.76522">
        <ele>630.1</ele>
        <time>2021-05-27T14:07:06.772Z</time>
      </trkpt>
      <trkpt lat="44.26581" lon="5.76496">
        <ele>622.3</ele>
        <time>2021-05-27T14:07:10.202Z</time>
      </trkpt>
      <trkpt lat="44.2656" lon="5.76483">
        <ele>622.2</ele>
        <time>2021-05-27T14:07:17.224Z</time>
      </trkpt>
      <trkpt lat="44.26542" lon="5.76463">
        <ele>622.5</ele>
        <time>2021-05-27T14:07:25.742Z</time>
      </trkpt>
      <trkpt lat="44.26549" lon="5.76429">
        <ele>625.4</ele>
        <time>2021-05-27T14:07:50.750Z</time>
      </trkpt>
      <trkpt lat="44.26563" lon="5.76397">
        <ele>626.2</ele>
        <time>2021-05-27T14:08:02.793Z</time>
      </trkpt>
      <trkpt lat="44.26585" lon="5.76378">
        <ele>626.5</ele>
        <time>2021-05-27T14:08:12.230Z</time>
      </trkpt>
      <trkpt lat="44.26607" lon="5.76369">
        <ele>628.3</ele>
        <time>2021-05-27T14:08:28.304Z</time>
      </trkpt>
      <trkpt lat="44.26636" lon="5.7636">
        <ele>630.4</ele>
        <time>2021-05-27T14:08:47.898Z</time>
      </trkpt>
      <trkpt lat="44.2666" lon="5.76351">
        <ele>631.2</ele>
        <time>2021-05-27T14:08:59.389Z</time>
      </trkpt>
      <trkpt lat="44.26696" lon="5.76333">
        <ele>630.8</ele>
        <time>2021-05-27T14:09:06.849Z</time>
      </trkpt>
      <trkpt lat="44.26745" lon="5.76311">
        <ele>632.2</ele>
        <time>2021-05-27T14:09:29.201Z</time>
      </trkpt>
      <trkpt lat="44.26769" lon="5.76301">
        <ele>633.3</ele>
        <time>2021-05-27T14:09:42.864Z</time>
      </trkpt>
      <trkpt lat="44.26798" lon="5.76293">
        <ele>635.7</ele>
        <time>2021-05-27T14:10:04.047Z</time>
      </trkpt>
      <trkpt lat="44.26825" lon="5.76281">
        <ele>636</ele>
        <time>2021-05-27T14:10:14.278Z</time>
      </trkpt>
      <trkpt lat="44.26846" lon="5.76262">
        <ele>637.9</ele>
        <time>2021-05-27T14:10:31.465Z</time>
      </trkpt>
      <trkpt lat="44.26861" lon="5.76235">
        <ele>641.6</ele>
        <time>2021-05-27T14:11:02.242Z</time>
      </trkpt>
      <trkpt lat="44.26868" lon="5.76202">
        <ele>643.7</ele>
        <time>2021-05-27T14:11:20.507Z</time>
      </trkpt>
      <trkpt lat="44.26867" lon="5.7617">
        <ele>641.7</ele>
        <time>2021-05-27T14:11:23.311Z</time>
      </trkpt>
      <trkpt lat="44.26861" lon="5.76138">
        <ele>641.1</ele>
        <time>2021-05-27T14:11:27.173Z</time>
      </trkpt>
      <trkpt lat="44.26847" lon="5.76102">
        <ele>638.1</ele>
        <time>2021-05-27T14:11:30.759Z</time>
      </trkpt>
      <trkpt lat="44.26827" lon="5.7607">
        <ele>634.4</ele>
        <time>2021-05-27T14:11:34.476Z</time>
      </trkpt>
      <trkpt lat="44.26805" lon="5.76041">
        <ele>633.1</ele>
        <time>2021-05-27T14:11:38.605Z</time>
      </trkpt>
      <trkpt lat="44.26783" lon="5.76014">
        <ele>630.6</ele>
        <time>2021-05-27T14:11:42.185Z</time>
      </trkpt>
      <trkpt lat="44.26763" lon="5.75991">
        <ele>627.7</ele>
        <time>2021-05-27T14:11:45.352Z</time>
      </trkpt>
      <trkpt lat="44.26743" lon="5.75962">
        <ele>626.8</ele>
        <time>2021-05-27T14:11:49.766Z</time>
      </trkpt>
      <trkpt lat="44.26728" lon="5.75933">
        <ele>627.7</ele>
        <time>2021-05-27T14:12:02.083Z</time>
      </trkpt>
      <trkpt lat="44.26708" lon="5.7588">
        <ele>628.2</ele>
        <time>2021-05-27T14:12:17.744Z</time>
      </trkpt>
      <trkpt lat="44.26695" lon="5.75829">
        <ele>627.6</ele>
        <time>2021-05-27T14:12:24.836Z</time>
      </trkpt>
      <trkpt lat="44.2669" lon="5.75779">
        <ele>627.6</ele>
        <time>2021-05-27T14:12:36.624Z</time>
      </trkpt>
      <trkpt lat="44.2669" lon="5.75743">
        <ele>628.1</ele>
        <time>2021-05-27T14:12:46.846Z</time>
      </trkpt>
      <trkpt lat="44.267" lon="5.75707">
        <ele>628.9</ele>
        <time>2021-05-27T14:12:59.113Z</time>
      </trkpt>
      <trkpt lat="44.26716" lon="5.7568">
        <ele>630.3</ele>
        <time>2021-05-27T14:13:13.986Z</time>
      </trkpt>
      <trkpt lat="44.26717" lon="5.75647">
        <ele>629.4</ele>
        <time>2021-05-27T14:13:17.368Z</time>
      </trkpt>
      <trkpt lat="44.26699" lon="5.75628">
        <ele>627.3</ele>
        <time>2021-05-27T14:13:20.126Z</time>
      </trkpt>
      <trkpt lat="44.26684" lon="5.75597">
        <ele>626.1</ele>
        <time>2021-05-27T14:13:23.722Z</time>
      </trkpt>
      <trkpt lat="44.26678" lon="5.75552">
        <ele>627.9</ele>
        <time>2021-05-27T14:13:43.032Z</time>
      </trkpt>
      <trkpt lat="44.26673" lon="5.75507">
        <ele>630.3</ele>
        <time>2021-05-27T14:14:05.025Z</time>
      </trkpt>
      <trkpt lat="44.26668" lon="5.75476">
        <ele>630.8</ele>
        <time>2021-05-27T14:14:14.315Z</time>
      </trkpt>
      <trkpt lat="44.26659" lon="5.75438">
        <ele>630.7</ele>
        <time>2021-05-27T14:14:23.186Z</time>
      </trkpt>
      <trkpt lat="44.26646" lon="5.75405">
        <ele>631</ele>
        <time>2021-05-27T14:14:32.979Z</time>
      </trkpt>
      <trkpt lat="44.2663" lon="5.75375">
        <ele>631.6</ele>
        <time>2021-05-27T14:14:43.968Z</time>
      </trkpt>
      <trkpt lat="44.2661" lon="5.75336">
        <ele>631.7</ele>
        <time>2021-05-27T14:14:55.475Z</time>
      </trkpt>
      <trkpt lat="44.26598" lon="5.75306">
        <ele>632.4</ele>
        <time>2021-05-27T14:15:06.326Z</time>
      </trkpt>
      <trkpt lat="44.26587" lon="5.75274">
        <ele>633</ele>
        <time>2021-05-27T14:15:16.901Z</time>
      </trkpt>
      <trkpt lat="44.26575" lon="5.75243">
        <ele>633.9</ele>
        <time>2021-05-27T14:15:29.122Z</time>
      </trkpt>
      <trkpt lat="44.26561" lon="5.75215">
        <ele>635.6</ele>
        <time>2021-05-27T14:15:45.109Z</time>
      </trkpt>
      <trkpt lat="44.26546" lon="5.75189">
        <ele>636</ele>
        <time>2021-05-27T14:15:54.316Z</time>
      </trkpt>
      <trkpt lat="44.2653" lon="5.75162">
        <ele>635.5</ele>
        <time>2021-05-27T14:15:58.669Z</time>
      </trkpt>
      <trkpt lat="44.26507" lon="5.75124">
        <ele>634.1</ele>
        <time>2021-05-27T14:16:03.703Z</time>
      </trkpt>
      <trkpt lat="44.26492" lon="5.75099">
        <ele>633.6</ele>
        <time>2021-05-27T14:16:07.684Z</time>
      </trkpt>
      <trkpt lat="44.26465" lon="5.75053">
        <ele>630.8</ele>
        <time>2021-05-27T14:16:12.487Z</time>
      </trkpt>
      <trkpt lat="44.26442" lon="5.75017">
        <ele>628.6</ele>
        <time>2021-05-27T14:16:16.445Z</time>
      </trkpt>
      <trkpt lat="44.26424" lon="5.74984">
        <ele>629.3</ele>
        <time>2021-05-27T14:16:28.797Z</time>
      </trkpt>
      <trkpt lat="44.2641" lon="5.74957">
        <ele>631.1</ele>
        <time>2021-05-27T14:16:45.126Z</time>
      </trkpt>
      <trkpt lat="44.26398" lon="5.74927">
        <ele>632.8</ele>
        <time>2021-05-27T14:17:01.161Z</time>
      </trkpt>
      <trkpt lat="44.2639" lon="5.74896">
        <ele>634.5</ele>
        <time>2021-05-27T14:17:16.886Z</time>
      </trkpt>
      <trkpt lat="44.2638" lon="5.74857">
        <ele>636.4</ele>
        <time>2021-05-27T14:17:35.515Z</time>
      </trkpt>
      <trkpt lat="44.26366" lon="5.74828">
        <ele>636.5</ele>
        <time>2021-05-27T14:17:43.992Z</time>
      </trkpt>
      <trkpt lat="44.26339" lon="5.74779">
        <ele>637</ele>
        <time>2021-05-27T14:18:00.095Z</time>
      </trkpt>
      <trkpt lat="44.26324" lon="5.74748">
        <ele>638</ele>
        <time>2021-05-27T14:18:13.369Z</time>
      </trkpt>
      <trkpt lat="44.2631" lon="5.74715">
        <ele>638.1</ele>
        <time>2021-05-27T14:18:22.635Z</time>
      </trkpt>
      <trkpt lat="44.26291" lon="5.74668">
        <ele>637.8</ele>
        <time>2021-05-27T14:18:30.454Z</time>
      </trkpt>
      <trkpt lat="44.26281" lon="5.74638">
        <ele>637.2</ele>
        <time>2021-05-27T14:18:34.318Z</time>
      </trkpt>
      <trkpt lat="44.26282" lon="5.74606">
        <ele>638.1</ele>
        <time>2021-05-27T14:18:45.994Z</time>
      </trkpt>
      <trkpt lat="44.26296" lon="5.74567">
        <ele>640.7</ele>
        <time>2021-05-27T14:19:08.763Z</time>
      </trkpt>
      <trkpt lat="44.26315" lon="5.74529">
        <ele>642.4</ele>
        <time>2021-05-27T14:19:27.839Z</time>
      </trkpt>
      <trkpt lat="44.26334" lon="5.74496">
        <ele>643</ele>
        <time>2021-05-27T14:19:39.915Z</time>
      </trkpt>
      <trkpt lat="44.26358" lon="5.74459">
        <ele>644.3</ele>
        <time>2021-05-27T14:19:57.394Z</time>
      </trkpt>
      <trkpt lat="44.26365" lon="5.74419">
        <ele>644.9</ele>
        <time>2021-05-27T14:20:09.212Z</time>
      </trkpt>
      <trkpt lat="44.26361" lon="5.74388">
        <ele>646</ele>
        <time>2021-05-27T14:20:21.970Z</time>
      </trkpt>
      <trkpt lat="44.26352" lon="5.74349">
        <ele>647.1</ele>
        <time>2021-05-27T14:20:36.542Z</time>
      </trkpt>
      <trkpt lat="44.26346" lon="5.74309">
        <ele>647.3</ele>
        <time>2021-05-27T14:20:46.722Z</time>
      </trkpt>
      <trkpt lat="44.26341" lon="5.74253">
        <ele>647</ele>
        <time>2021-05-27T14:20:54.935Z</time>
      </trkpt>
      <trkpt lat="44.26337" lon="5.74179">
        <ele>647.3</ele>
        <time>2021-05-27T14:21:13.209Z</time>
      </trkpt>
      <trkpt lat="44.26333" lon="5.74108">
        <ele>647.7</ele>
        <time>2021-05-27T14:21:31.127Z</time>
      </trkpt>
      <trkpt lat="44.26327" lon="5.74008">
        <ele>648.6</ele>
        <time>2021-05-27T14:21:57.597Z</time>
      </trkpt>
      <trkpt lat="44.26324" lon="5.73958">
        <ele>648</ele>
        <time>2021-05-27T14:22:04.073Z</time>
      </trkpt>
      <trkpt lat="44.26321" lon="5.73908">
        <ele>647.4</ele>
        <time>2021-05-27T14:22:10.549Z</time>
      </trkpt>
      <trkpt lat="44.26319" lon="5.73861">
        <ele>647.1</ele>
        <time>2021-05-27T14:22:17.266Z</time>
      </trkpt>
      <trkpt lat="44.26316" lon="5.73817">
        <ele>646.6</ele>
        <time>2021-05-27T14:22:23.034Z</time>
      </trkpt>
      <trkpt lat="44.26309" lon="5.73758">
        <ele>645.6</ele>
        <time>2021-05-27T14:22:30.174Z</time>
      </trkpt>
      <trkpt lat="44.26298" lon="5.73681">
        <ele>644.8</ele>
        <time>2021-05-27T14:22:40.623Z</time>
      </trkpt>
      <trkpt lat="44.26291" lon="5.73636">
        <ele>645</ele>
        <time>2021-05-27T14:22:52.009Z</time>
      </trkpt>
      <trkpt lat="44.26284" lon="5.73587">
        <ele>645.9</ele>
        <time>2021-05-27T14:23:07.169Z</time>
      </trkpt>
      <trkpt lat="44.26277" lon="5.73532">
        <ele>648</ele>
        <time>2021-05-27T14:23:30.357Z</time>
      </trkpt>
      <trkpt lat="44.26268" lon="5.73475">
        <ele>649.6</ele>
        <time>2021-05-27T14:23:51.346Z</time>
      </trkpt>
      <trkpt lat="44.26261" lon="5.73438">
        <ele>650.1</ele>
        <time>2021-05-27T14:24:02.076Z</time>
      </trkpt>
    </trkseg>
  </trk>
  <trk>
    <name><![CDATA[J1 Saint Ange]]></name>
    <extensions>
      <line xmlns="http://www.topografix.com/GPX/gpx_style/0/2">
        <color>00ffff</color>
        <width>4</width>
      </line>
    </extensions>
    <trkseg>
      <trkpt lat="44.31359" lon="5.82287">
        <ele>570.5</ele>
      </trkpt>
      <trkpt lat="44.31336" lon="5.82276">
        <ele>570.2</ele>
      </trkpt>
      <trkpt lat="44.31308" lon="5.82274">
        <ele>567.9</ele>
      </trkpt>
      <trkpt lat="44.31284" lon="5.82273">
        <ele>565.7</ele>
      </trkpt>
      <trkpt lat="44.3126" lon="5.82275">
        <ele>563.3</ele>
      </trkpt>
      <trkpt lat="44.31211" lon="5.8228">
        <ele>560.3</ele>
      </trkpt>
      <trkpt lat="44.31184" lon="5.82283">
        <ele>558.9</ele>
      </trkpt>
      <trkpt lat="44.31161" lon="5.82282">
        <ele>557.9</ele>
      </trkpt>
      <trkpt lat="44.31138" lon="5.8226">
        <ele>557.4</ele>
      </trkpt>
      <trkpt lat="44.3112" lon="5.82235">
        <ele>556.6</ele>
      </trkpt>
      <trkpt lat="44.31101" lon="5.8221">
        <ele>556.1</ele>
      </trkpt>
      <trkpt lat="44.31083" lon="5.82187">
        <ele>556</ele>
      </trkpt>
      <trkpt lat="44.31063" lon="5.82161">
        <ele>555.5</ele>
      </trkpt>
      <trkpt lat="44.31042" lon="5.82133">
        <ele>555</ele>
      </trkpt>
      <trkpt lat="44.31022" lon="5.82108">
        <ele>554.5</ele>
      </trkpt>
      <trkpt lat="44.31002" lon="5.82082">
        <ele>554.1</ele>
      </trkpt>
      <trkpt lat="44.30983" lon="5.82063">
        <ele>554</ele>
      </trkpt>
      <trkpt lat="44.30957" lon="5.82047">
        <ele>553.9</ele>
      </trkpt>
      <trkpt lat="44.30932" lon="5.82039">
        <ele>553.7</ele>
      </trkpt>
      <trkpt lat="44.30906" lon="5.8204">
        <ele>553.6</ele>
      </trkpt>
      <trkpt lat="44.30876" lon="5.8205">
        <ele>553.9</ele>
      </trkpt>
      <trkpt lat="44.30847" lon="5.82059">
        <ele>554.1</ele>
      </trkpt>
      <trkpt lat="44.30815" lon="5.82067">
        <ele>556.1</ele>
      </trkpt>
      <trkpt lat="44.30786" lon="5.82075">
        <ele>558.8</ele>
      </trkpt>
      <trkpt lat="44.3076" lon="5.82092">
        <ele>560.8</ele>
      </trkpt>
      <trkpt lat="44.30742" lon="5.82121">
        <ele>562.6</ele>
      </trkpt>
      <trkpt lat="44.30724" lon="5.82163">
        <ele>564.8</ele>
      </trkpt>
      <trkpt lat="44.3071" lon="5.82198">
        <ele>564.3</ele>
      </trkpt>
      <trkpt lat="44.30697" lon="5.82225">
        <ele>563.4</ele>
      </trkpt>
      <trkpt lat="44.30681" lon="5.82249">
        <ele>562.4</ele>
      </trkpt>
      <trkpt lat="44.30663" lon="5.82267">
        <ele>561.9</ele>
      </trkpt>
      <trkpt lat="44.30638" lon="5.82285">
        <ele>561.5</ele>
      </trkpt>
      <trkpt lat="44.30617" lon="5.82296">
        <ele>561.4</ele>
      </trkpt>
      <trkpt lat="44.30593" lon="5.82306">
        <ele>561.5</ele>
      </trkpt>
      <trkpt lat="44.30563" lon="5.82312">
        <ele>561.8</ele>
      </trkpt>
      <trkpt lat="44.30537" lon="5.82317">
        <ele>561.7</ele>
      </trkpt>
      <trkpt lat="44.30505" lon="5.8232">
        <ele>562</ele>
      </trkpt>
      <trkpt lat="44.30479" lon="5.82316">
        <ele>563.7</ele>
      </trkpt>
      <trkpt lat="44.30454" lon="5.82314">
        <ele>565</ele>
      </trkpt>
      <trkpt lat="44.30422" lon="5.82318">
        <ele>564.7</ele>
      </trkpt>
      <trkpt lat="44.30399" lon="5.82318">
        <ele>565.8</ele>
      </trkpt>
      <trkpt lat="44.30362" lon="5.82325">
        <ele>565.9</ele>
      </trkpt>
      <trkpt lat="44.30339" lon="5.82329">
        <ele>566</ele>
      </trkpt>
      <trkpt lat="44.30307" lon="5.82336">
        <ele>565.2</ele>
      </trkpt>
      <trkpt lat="44.3027" lon="5.82343">
        <ele>564.9</ele>
      </trkpt>
      <trkpt lat="44.30231" lon="5.82349">
        <ele>564.4</ele>
      </trkpt>
      <trkpt lat="44.30203" lon="5.82349">
        <ele>564.5</ele>
      </trkpt>
      <trkpt lat="44.3014" lon="5.82346">
        <ele>564.6</ele>
      </trkpt>
      <trkpt lat="44.30096" lon="5.82347">
        <ele>563.7</ele>
      </trkpt>
      <trkpt lat="44.30065" lon="5.82346">
        <ele>562.5</ele>
      </trkpt>
      <trkpt lat="44.30029" lon="5.82342">
        <ele>560.8</ele>
      </trkpt>
      <trkpt lat="44.30003" lon="5.82333">
        <ele>560.3</ele>
      </trkpt>
      <trkpt lat="44.29977" lon="5.82323">
        <ele>561.4</ele>
      </trkpt>
      <trkpt lat="44.29946" lon="5.82309">
        <ele>562.8</ele>
      </trkpt>
      <trkpt lat="44.29918" lon="5.82295">
        <ele>563.9</ele>
      </trkpt>
      <trkpt lat="44.29892" lon="5.8228">
        <ele>564.9</ele>
      </trkpt>
      <trkpt lat="44.29866" lon="5.82266">
        <ele>565</ele>
      </trkpt>
      <trkpt lat="44.29844" lon="5.82258">
        <ele>564</ele>
      </trkpt>
      <trkpt lat="44.29807" lon="5.8225">
        <ele>562.4</ele>
      </trkpt>
      <trkpt lat="44.29784" lon="5.82247">
        <ele>561.5</ele>
      </trkpt>
      <trkpt lat="44.29757" lon="5.82239">
        <ele>561.5</ele>
      </trkpt>
      <trkpt lat="44.29726" lon="5.82225">
        <ele>561.1</ele>
      </trkpt>
      <trkpt lat="44.297" lon="5.82207">
        <ele>561.5</ele>
      </trkpt>
      <trkpt lat="44.29677" lon="5.82184">
        <ele>563.1</ele>
      </trkpt>
      <trkpt lat="44.29652" lon="5.82157">
        <ele>565.6</ele>
      </trkpt>
      <trkpt lat="44.2963" lon="5.82137">
        <ele>568</ele>
      </trkpt>
      <trkpt lat="44.29605" lon="5.82122">
        <ele>568.9</ele>
      </trkpt>
      <trkpt lat="44.29577" lon="5.82108">
        <ele>569.7</ele>
      </trkpt>
      <trkpt lat="44.29555" lon="5.82101">
        <ele>570.1</ele>
      </trkpt>
      <trkpt lat="44.29527" lon="5.82097">
        <ele>569.2</ele>
      </trkpt>
      <trkpt lat="44.29498" lon="5.82094">
        <ele>568.2</ele>
      </trkpt>
      <trkpt lat="44.29469" lon="5.821">
        <ele>568.9</ele>
      </trkpt>
      <trkpt lat="44.29436" lon="5.82126">
        <ele>566.6</ele>
      </trkpt>
      <trkpt lat="44.29415" lon="5.82149">
        <ele>564.1</ele>
      </trkpt>
      <trkpt lat="44.29389" lon="5.82183">
        <ele>563.2</ele>
      </trkpt>
      <trkpt lat="44.29366" lon="5.82205">
        <ele>563.9</ele>
      </trkpt>
      <trkpt lat="44.29345" lon="5.82217">
        <ele>564.4</ele>
      </trkpt>
      <trkpt lat="44.29322" lon="5.82228">
        <ele>564.8</ele>
      </trkpt>
      <trkpt lat="44.29299" lon="5.82238">
        <ele>565</ele>
      </trkpt>
      <trkpt lat="44.29275" lon="5.82249">
        <ele>564.9</ele>
      </trkpt>
      <trkpt lat="44.29249" lon="5.82256">
        <ele>565.1</ele>
      </trkpt>
      <trkpt lat="44.292" lon="5.82265">
        <ele>563.6</ele>
      </trkpt>
      <trkpt lat="44.29167" lon="5.8227">
        <ele>562.4</ele>
      </trkpt>
      <trkpt lat="44.29144" lon="5.82272">
        <ele>563.3</ele>
      </trkpt>
      <trkpt lat="44.2912" lon="5.82273">
        <ele>564.4</ele>
      </trkpt>
      <trkpt lat="44.29095" lon="5.82274">
        <ele>565.6</ele>
      </trkpt>
      <trkpt lat="44.29069" lon="5.82277">
        <ele>565.6</ele>
      </trkpt>
      <trkpt lat="44.29043" lon="5.82279">
        <ele>565.2</ele>
      </trkpt>
      <trkpt lat="44.29017" lon="5.82282">
        <ele>564.7</ele>
      </trkpt>
      <trkpt lat="44.28992" lon="5.82284">
        <ele>564.7</ele>
      </trkpt>
      <trkpt lat="44.28968" lon="5.82286">
        <ele>565</ele>
      </trkpt>
      <trkpt lat="44.28945" lon="5.82287">
        <ele>565.4</ele>
      </trkpt>
      <trkpt lat="44.28922" lon="5.82286">
        <ele>566.2</ele>
      </trkpt>
      <trkpt lat="44.28892" lon="5.82274">
        <ele>566.9</ele>
      </trkpt>
      <trkpt lat="44.28868" lon="5.82256">
        <ele>567.3</ele>
      </trkpt>
      <trkpt lat="44.2884" lon="5.82229">
        <ele>568.4</ele>
      </trkpt>
      <trkpt lat="44.28818" lon="5.82209">
        <ele>569.8</ele>
      </trkpt>
      <trkpt lat="44.28781" lon="5.82184">
        <ele>570</ele>
      </trkpt>
      <trkpt lat="44.28737" lon="5.82156">
        <ele>569.5</ele>
      </trkpt>
      <trkpt lat="44.28714" lon="5.82145">
        <ele>568.7</ele>
      </trkpt>
      <trkpt lat="44.28659" lon="5.82131">
        <ele>564.1</ele>
      </trkpt>
      <trkpt lat="44.28635" lon="5.82126">
        <ele>562.6</ele>
      </trkpt>
      <trkpt lat="44.286" lon="5.82114">
        <ele>560.8</ele>
      </trkpt>
      <trkpt lat="44.28578" lon="5.82103">
        <ele>559.8</ele>
      </trkpt>
      <trkpt lat="44.28537" lon="5.82082">
        <ele>557.1</ele>
      </trkpt>
      <trkpt lat="44.28494" lon="5.82058">
        <ele>554.8</ele>
      </trkpt>
      <trkpt lat="44.2846" lon="5.82044">
        <ele>553.6</ele>
      </trkpt>
      <trkpt lat="44.28437" lon="5.82036">
        <ele>552.4</ele>
      </trkpt>
      <trkpt lat="44.28413" lon="5.82029">
        <ele>551.3</ele>
      </trkpt>
      <trkpt lat="44.28358" lon="5.82024">
        <ele>552.8</ele>
      </trkpt>
      <trkpt lat="44.2832" lon="5.82023">
        <ele>553.1</ele>
      </trkpt>
      <trkpt lat="44.28292" lon="5.82023">
        <ele>552.7</ele>
      </trkpt>
      <trkpt lat="44.28252" lon="5.82021">
        <ele>552.3</ele>
      </trkpt>
      <trkpt lat="44.28226" lon="5.82013">
        <ele>551.4</ele>
      </trkpt>
      <trkpt lat="44.28204" lon="5.82001">
        <ele>550.6</ele>
      </trkpt>
      <trkpt lat="44.28156" lon="5.81971">
        <ele>549.8</ele>
      </trkpt>
      <trkpt lat="44.28114" lon="5.81944">
        <ele>548.9</ele>
      </trkpt>
      <trkpt lat="44.28073" lon="5.81918">
        <ele>547.6</ele>
      </trkpt>
      <trkpt lat="44.28017" lon="5.81882">
        <ele>547.4</ele>
      </trkpt>
      <trkpt lat="44.27969" lon="5.81852">
        <ele>547.8</ele>
      </trkpt>
      <trkpt lat="44.27914" lon="5.81816">
        <ele>549.1</ele>
      </trkpt>
      <trkpt lat="44.27868" lon="5.81786">
        <ele>548.4</ele>
      </trkpt>
      <trkpt lat="44.27841" lon="5.81768">
        <ele>547.6</ele>
      </trkpt>
      <trkpt lat="44.27816" lon="5.81751">
        <ele>546.9</ele>
      </trkpt>
      <trkpt lat="44.27774" lon="5.81724">
        <ele>545.2</ele>
      </trkpt>
      <trkpt lat="44.2774" lon="5.81701">
        <ele>543.8</ele>
      </trkpt>
      <trkpt lat="44.27715" lon="5.81689">
        <ele>543.2</ele>
      </trkpt>
      <trkpt lat="44.27706" lon="5.81662">
        <ele>543.6</ele>
      </trkpt>
      <trkpt lat="44.27687" lon="5.81641">
        <ele>543.4</ele>
      </trkpt>
      <trkpt lat="44.27654" lon="5.816">
        <ele>543.3</ele>
      </trkpt>
      <trkpt lat="44.27633" lon="5.81575">
        <ele>543.3</ele>
      </trkpt>
      <trkpt lat="44.27606" lon="5.81542">
        <ele>543.4</ele>
      </trkpt>
      <trkpt lat="44.27566" lon="5.81492">
        <ele>543</ele>
      </trkpt>
      <trkpt lat="44.2753" lon="5.81448">
        <ele>541.6</ele>
      </trkpt>
      <trkpt lat="44.27504" lon="5.81419">
        <ele>540.3</ele>
      </trkpt>
      <trkpt lat="44.27483" lon="5.81395">
        <ele>540.6</ele>
      </trkpt>
      <trkpt lat="44.27462" lon="5.81377">
        <ele>541</ele>
      </trkpt>
      <trkpt lat="44.27438" lon="5.81361">
        <ele>541.2</ele>
      </trkpt>
      <trkpt lat="44.27407" lon="5.81343">
        <ele>541.2</ele>
      </trkpt>
      <trkpt lat="44.2737" lon="5.81319">
        <ele>540.7</ele>
      </trkpt>
      <trkpt lat="44.27345" lon="5.813">
        <ele>540.2</ele>
      </trkpt>
      <trkpt lat="44.27318" lon="5.81266">
        <ele>540.7</ele>
      </trkpt>
      <trkpt lat="44.27296" lon="5.8123">
        <ele>542.1</ele>
      </trkpt>
      <trkpt lat="44.27277" lon="5.81205">
        <ele>542.9</ele>
      </trkpt>
      <trkpt lat="44.27246" lon="5.81177">
        <ele>543.7</ele>
      </trkpt>
      <trkpt lat="44.27224" lon="5.81156">
        <ele>543.3</ele>
      </trkpt>
      <trkpt lat="44.27222" lon="5.81124">
        <ele>543</ele>
      </trkpt>
      <trkpt lat="44.27221" lon="5.81089">
        <ele>542.7</ele>
      </trkpt>
      <trkpt lat="44.27222" lon="5.8105">
        <ele>541.9</ele>
      </trkpt>
      <trkpt lat="44.27229" lon="5.81001">
        <ele>540.8</ele>
      </trkpt>
      <trkpt lat="44.27239" lon="5.80956">
        <ele>541.3</ele>
      </trkpt>
      <trkpt lat="44.27256" lon="5.80882">
        <ele>541.5</ele>
      </trkpt>
      <trkpt lat="44.27269" lon="5.80834">
        <ele>541.8</ele>
      </trkpt>
      <trkpt lat="44.27283" lon="5.80788">
        <ele>543.7</ele>
      </trkpt>
      <trkpt lat="44.27298" lon="5.80741">
        <ele>545.6</ele>
      </trkpt>
      <trkpt lat="44.27314" lon="5.80708">
        <ele>547.6</ele>
      </trkpt>
      <trkpt lat="44.27328" lon="5.80684">
        <ele>549.8</ele>
      </trkpt>
      <trkpt lat="44.27332" lon="5.80645">
        <ele>550.8</ele>
      </trkpt>
      <trkpt lat="44.27332" lon="5.80604">
        <ele>550.8</ele>
      </trkpt>
      <trkpt lat="44.27346" lon="5.80561">
        <ele>552.8</ele>
      </trkpt>
      <trkpt lat="44.27366" lon="5.80527">
        <ele>555.5</ele>
      </trkpt>
      <trkpt lat="44.27381" lon="5.80501">
        <ele>557.4</ele>
      </trkpt>
      <trkpt lat="44.27399" lon="5.80468">
        <ele>557.3</ele>
      </trkpt>
      <trkpt lat="44.27418" lon="5.80416">
        <ele>552.6</ele>
      </trkpt>
      <trkpt lat="44.2743" lon="5.80375">
        <ele>554.6</ele>
      </trkpt>
      <trkpt lat="44.27439" lon="5.80346">
        <ele>556.1</ele>
      </trkpt>
      <trkpt lat="44.27456" lon="5.80296">
        <ele>560.9</ele>
      </trkpt>
      <trkpt lat="44.27472" lon="5.80258">
        <ele>562.7</ele>
      </trkpt>
      <trkpt lat="44.27492" lon="5.80215">
        <ele>560</ele>
      </trkpt>
      <trkpt lat="44.27515" lon="5.80177">
        <ele>564.1</ele>
      </trkpt>
      <trkpt lat="44.27536" lon="5.80145">
        <ele>573.7</ele>
      </trkpt>
      <trkpt lat="44.2755" lon="5.8012">
        <ele>576</ele>
      </trkpt>
      <trkpt lat="44.27569" lon="5.80085">
        <ele>571.3</ele>
      </trkpt>
      <trkpt lat="44.27582" lon="5.80058">
        <ele>568.4</ele>
      </trkpt>
      <trkpt lat="44.27597" lon="5.80024">
        <ele>574</ele>
      </trkpt>
      <trkpt lat="44.2761" lon="5.79994">
        <ele>577.7</ele>
      </trkpt>
      <trkpt lat="44.27621" lon="5.79961">
        <ele>585.3</ele>
      </trkpt>
      <trkpt lat="44.2763" lon="5.79926">
        <ele>589.8</ele>
      </trkpt>
      <trkpt lat="44.27639" lon="5.79889">
        <ele>588.7</ele>
      </trkpt>
      <trkpt lat="44.27646" lon="5.79858">
        <ele>584.3</ele>
      </trkpt>
      <trkpt lat="44.27668" lon="5.7978">
        <ele>574.3</ele>
      </trkpt>
      <trkpt lat="44.27676" lon="5.79745">
        <ele>575.3</ele>
      </trkpt>
      <trkpt lat="44.27677" lon="5.79701">
        <ele>574.9</ele>
      </trkpt>
      <trkpt lat="44.27676" lon="5.79663">
        <ele>573.2</ele>
      </trkpt>
      <trkpt lat="44.27677" lon="5.79611">
        <ele>571.1</ele>
      </trkpt>
      <trkpt lat="44.27689" lon="5.79605">
        <ele>579.8</ele>
      </trkpt>
      <trkpt lat="44.27696" lon="5.79568">
        <ele>583.7</ele>
      </trkpt>
      <trkpt lat="44.27697" lon="5.79521">
        <ele>582.7</ele>
      </trkpt>
      <trkpt lat="44.27712" lon="5.79456">
        <ele>582.9</ele>
      </trkpt>
      <trkpt lat="44.27729" lon="5.79401">
        <ele>577.1</ele>
      </trkpt>
      <trkpt lat="44.27756" lon="5.79362">
        <ele>572</ele>
      </trkpt>
      <trkpt lat="44.27798" lon="5.79353">
        <ele>584.4</ele>
      </trkpt>
      <trkpt lat="44.2783" lon="5.79357">
        <ele>597.9</ele>
      </trkpt>
      <trkpt lat="44.27851" lon="5.79305">
        <ele>593</ele>
      </trkpt>
      <trkpt lat="44.27886" lon="5.79237">
        <ele>608</ele>
      </trkpt>
      <trkpt lat="44.27892" lon="5.79165">
        <ele>608.4</ele>
      </trkpt>
      <trkpt lat="44.27867" lon="5.79115">
        <ele>594.1</ele>
      </trkpt>
      <trkpt lat="44.27859" lon="5.7905">
        <ele>587.5</ele>
      </trkpt>
      <trkpt lat="44.279" lon="5.79069">
        <ele>601.6</ele>
      </trkpt>
      <trkpt lat="44.2796" lon="5.79046">
        <ele>620.7</ele>
      </trkpt>
      <trkpt lat="44.27998" lon="5.79012">
        <ele>626.4</ele>
      </trkpt>
      <trkpt lat="44.28027" lon="5.78933">
        <ele>626.7</ele>
      </trkpt>
      <trkpt lat="44.28029" lon="5.78861">
        <ele>627.1</ele>
      </trkpt>
      <trkpt lat="44.28012" lon="5.7876">
        <ele>624.4</ele>
      </trkpt>
      <trkpt lat="44.28005" lon="5.78716">
        <ele>616</ele>
      </trkpt>
      <trkpt lat="44.28043" lon="5.787">
        <ele>622.2</ele>
      </trkpt>
      <trkpt lat="44.28074" lon="5.78695">
        <ele>628.2</ele>
      </trkpt>
      <trkpt lat="44.28095" lon="5.78722">
        <ele>641.6</ele>
      </trkpt>
      <trkpt lat="44.28111" lon="5.78779">
        <ele>653.7</ele>
      </trkpt>
      <trkpt lat="44.28108" lon="5.78857">
        <ele>657.9</ele>
      </trkpt>
      <trkpt lat="44.28112" lon="5.78901">
        <ele>658.9</ele>
      </trkpt>
      <trkpt lat="44.28127" lon="5.7893">
        <ele>662.5</ele>
      </trkpt>
      <trkpt lat="44.28137" lon="5.78954">
        <ele>665.7</ele>
      </trkpt>
      <trkpt lat="44.28151" lon="5.78967">
        <ele>667.7</ele>
      </trkpt>
      <trkpt lat="44.28161" lon="5.78947">
        <ele>667.5</ele>
      </trkpt>
      <trkpt lat="44.28166" lon="5.78886">
        <ele>665.8</ele>
      </trkpt>
      <trkpt lat="44.28172" lon="5.78855">
        <ele>666.7</ele>
      </trkpt>
      <trkpt lat="44.28197" lon="5.78796">
        <ele>672.6</ele>
      </trkpt>
      <trkpt lat="44.28203" lon="5.78754">
        <ele>672.6</ele>
      </trkpt>
      <trkpt lat="44.28205" lon="5.78719">
        <ele>671.7</ele>
      </trkpt>
      <trkpt lat="44.28206" lon="5.78658">
        <ele>669.1</ele>
      </trkpt>
      <trkpt lat="44.28202" lon="5.78629">
        <ele>665.1</ele>
      </trkpt>
      <trkpt lat="44.28203" lon="5.78602">
        <ele>664.3</ele>
      </trkpt>
      <trkpt lat="44.28209" lon="5.78567">
        <ele>665.6</ele>
      </trkpt>
      <trkpt lat="44.28216" lon="5.78542">
        <ele>667.5</ele>
      </trkpt>
      <trkpt lat="44.28228" lon="5.78519">
        <ele>671.5</ele>
      </trkpt>
      <trkpt lat="44.28268" lon="5.7849">
        <ele>686.4</ele>
      </trkpt>
      <trkpt lat="44.28229" lon="5.78434">
        <ele>677.3</ele>
      </trkpt>
      <trkpt lat="44.28214" lon="5.78411">
        <ele>674.3</ele>
      </trkpt>
      <trkpt lat="44.28212" lon="5.78289">
        <ele>683.5</ele>
      </trkpt>
      <trkpt lat="44.28227" lon="5.78233">
        <ele>685.4</ele>
      </trkpt>
      <trkpt lat="44.28267" lon="5.78203">
        <ele>689.3</ele>
      </trkpt>
      <trkpt lat="44.28284" lon="5.78187">
        <ele>691.7</ele>
      </trkpt>
      <trkpt lat="44.28265" lon="5.7817">
        <ele>686.2</ele>
      </trkpt>
      <trkpt lat="44.28227" lon="5.78145">
        <ele>686.2</ele>
      </trkpt>
      <trkpt lat="44.28197" lon="5.78072">
        <ele>689.9</ele>
      </trkpt>
      <trkpt lat="44.28187" lon="5.78043">
        <ele>692.2</ele>
      </trkpt>
      <trkpt lat="44.28182" lon="5.78011">
        <ele>695.5</ele>
      </trkpt>
      <trkpt lat="44.28164" lon="5.7792">
        <ele>699</ele>
      </trkpt>
      <trkpt lat="44.28166" lon="5.7788">
        <ele>697.8</ele>
      </trkpt>
      <trkpt lat="44.28172" lon="5.77849">
        <ele>697.8</ele>
      </trkpt>
      <trkpt lat="44.28188" lon="5.77827">
        <ele>701.1</ele>
      </trkpt>
      <trkpt lat="44.28207" lon="5.77809">
        <ele>705.4</ele>
      </trkpt>
      <trkpt lat="44.28226" lon="5.77794">
        <ele>708.5</ele>
      </trkpt>
      <trkpt lat="44.2825" lon="5.77789">
        <ele>711.8</ele>
      </trkpt>
      <trkpt lat="44.28247" lon="5.7773">
        <ele>710.5</ele>
      </trkpt>
      <trkpt lat="44.28246" lon="5.77697">
        <ele>713.2</ele>
      </trkpt>
      <trkpt lat="44.28251" lon="5.77632">
        <ele>718.8</ele>
      </trkpt>
      <trkpt lat="44.28256" lon="5.77598">
        <ele>722.4</ele>
      </trkpt>
      <trkpt lat="44.28236" lon="5.77598">
        <ele>720.8</ele>
      </trkpt>
      <trkpt lat="44.28216" lon="5.77614">
        <ele>718.9</ele>
      </trkpt>
      <trkpt lat="44.28143" lon="5.77545">
        <ele>726.9</ele>
      </trkpt>
      <trkpt lat="44.28126" lon="5.77518">
        <ele>728.5</ele>
      </trkpt>
      <trkpt lat="44.28121" lon="5.77486">
        <ele>731.5</ele>
      </trkpt>
      <trkpt lat="44.28118" lon="5.77451">
        <ele>735.2</ele>
      </trkpt>
      <trkpt lat="44.28109" lon="5.77421">
        <ele>736.7</ele>
      </trkpt>
      <trkpt lat="44.28086" lon="5.77367">
        <ele>737</ele>
      </trkpt>
      <trkpt lat="44.28077" lon="5.77338">
        <ele>739.2</ele>
      </trkpt>
      <trkpt lat="44.28074" lon="5.77303">
        <ele>740.7</ele>
      </trkpt>
      <trkpt lat="44.28087" lon="5.77236">
        <ele>745.6</ele>
      </trkpt>
      <trkpt lat="44.2807" lon="5.77216">
        <ele>746.9</ele>
      </trkpt>
      <trkpt lat="44.28019" lon="5.7723">
        <ele>744.2</ele>
      </trkpt>
      <trkpt lat="44.27987" lon="5.77221">
        <ele>743.5</ele>
      </trkpt>
      <trkpt lat="44.27967" lon="5.77203">
        <ele>743.4</ele>
      </trkpt>
      <trkpt lat="44.27949" lon="5.77183">
        <ele>743.9</ele>
      </trkpt>
      <trkpt lat="44.27935" lon="5.77157">
        <ele>746.1</ele>
      </trkpt>
      <trkpt lat="44.27925" lon="5.77127">
        <ele>750.2</ele>
      </trkpt>
      <trkpt lat="44.27913" lon="5.771">
        <ele>753.3</ele>
      </trkpt>
      <trkpt lat="44.27875" lon="5.77072">
        <ele>750.6</ele>
      </trkpt>
      <trkpt lat="44.2786" lon="5.7705">
        <ele>750.5</ele>
      </trkpt>
      <trkpt lat="44.27843" lon="5.76998">
        <ele>753.3</ele>
      </trkpt>
      <trkpt lat="44.27839" lon="5.7694">
        <ele>754.4</ele>
      </trkpt>
      <trkpt lat="44.27844" lon="5.76914">
        <ele>755.9</ele>
      </trkpt>
      <trkpt lat="44.27873" lon="5.7687">
        <ele>757.6</ele>
      </trkpt>
      <trkpt lat="44.27892" lon="5.76865">
        <ele>761</ele>
      </trkpt>
      <trkpt lat="44.27903" lon="5.76842">
        <ele>761</ele>
      </trkpt>
      <trkpt lat="44.27906" lon="5.76808">
        <ele>760.5</ele>
      </trkpt>
      <trkpt lat="44.27911" lon="5.76713">
        <ele>765.2</ele>
      </trkpt>
      <trkpt lat="44.27902" lon="5.76684">
        <ele>765.6</ele>
      </trkpt>
      <trkpt lat="44.2789" lon="5.76662">
        <ele>764.1</ele>
      </trkpt>
      <trkpt lat="44.27877" lon="5.76605">
        <ele>765.1</ele>
      </trkpt>
      <trkpt lat="44.27875" lon="5.76576">
        <ele>766.2</ele>
      </trkpt>
      <trkpt lat="44.27896" lon="5.76525">
        <ele>770.4</ele>
      </trkpt>
      <trkpt lat="44.27909" lon="5.765">
        <ele>773.6</ele>
      </trkpt>
      <trkpt lat="44.27979" lon="5.76435">
        <ele>779.1</ele>
      </trkpt>
      <trkpt lat="44.27998" lon="5.76416">
        <ele>780.5</ele>
      </trkpt>
      <trkpt lat="44.28021" lon="5.76406">
        <ele>781.4</ele>
      </trkpt>
      <trkpt lat="44.28061" lon="5.76398">
        <ele>784.3</ele>
      </trkpt>
      <trkpt lat="44.28082" lon="5.7639">
        <ele>785.6</ele>
      </trkpt>
      <trkpt lat="44.2809" lon="5.76359">
        <ele>785.2</ele>
      </trkpt>
      <trkpt lat="44.28079" lon="5.76278">
        <ele>783.7</ele>
      </trkpt>
      <trkpt lat="44.28071" lon="5.76221">
        <ele>787.6</ele>
      </trkpt>
      <trkpt lat="44.28035" lon="5.76244">
        <ele>779.9</ele>
      </trkpt>
      <trkpt lat="44.28014" lon="5.7625">
        <ele>776</ele>
      </trkpt>
      <trkpt lat="44.27972" lon="5.76225">
        <ele>775.3</ele>
      </trkpt>
      <trkpt lat="44.27954" lon="5.76208">
        <ele>776.1</ele>
      </trkpt>
      <trkpt lat="44.27948" lon="5.76176">
        <ele>780.1</ele>
      </trkpt>
      <trkpt lat="44.27949" lon="5.7614">
        <ele>780.8</ele>
      </trkpt>
      <trkpt lat="44.27954" lon="5.76114">
        <ele>781.1</ele>
      </trkpt>
      <trkpt lat="44.27957" lon="5.76088">
        <ele>781.3</ele>
      </trkpt>
      <trkpt lat="44.27969" lon="5.76067">
        <ele>782.3</ele>
      </trkpt>
      <trkpt lat="44.27998" lon="5.76027">
        <ele>785.7</ele>
      </trkpt>
      <trkpt lat="44.28023" lon="5.75975">
        <ele>785.9</ele>
      </trkpt>
      <trkpt lat="44.28043" lon="5.75958">
        <ele>788</ele>
      </trkpt>
      <trkpt lat="44.28065" lon="5.75954">
        <ele>792.3</ele>
      </trkpt>
      <trkpt lat="44.28089" lon="5.75939">
        <ele>795.3</ele>
      </trkpt>
      <trkpt lat="44.28086" lon="5.7588">
        <ele>792.1</ele>
      </trkpt>
      <trkpt lat="44.2808" lon="5.75817">
        <ele>792.4</ele>
      </trkpt>
      <trkpt lat="44.28071" lon="5.7579">
        <ele>793.1</ele>
      </trkpt>
      <trkpt lat="44.28075" lon="5.75758">
        <ele>795.2</ele>
      </trkpt>
      <trkpt lat="44.28112" lon="5.7572">
        <ele>797.4</ele>
      </trkpt>
      <trkpt lat="44.28133" lon="5.7571">
        <ele>799.5</ele>
      </trkpt>
      <trkpt lat="44.28172" lon="5.75699">
        <ele>803.7</ele>
      </trkpt>
      <trkpt lat="44.28213" lon="5.7569">
        <ele>807.2</ele>
      </trkpt>
      <trkpt lat="44.28234" lon="5.75673">
        <ele>807.1</ele>
      </trkpt>
      <trkpt lat="44.28245" lon="5.75637">
        <ele>807.8</ele>
      </trkpt>
      <trkpt lat="44.28248" lon="5.75603">
        <ele>808.5</ele>
      </trkpt>
      <trkpt lat="44.28248" lon="5.75569">
        <ele>810</ele>
      </trkpt>
      <trkpt lat="44.28243" lon="5.75534">
        <ele>812.3</ele>
      </trkpt>
      <trkpt lat="44.28229" lon="5.75467">
        <ele>814.6</ele>
      </trkpt>
      <trkpt lat="44.28231" lon="5.75404">
        <ele>816.4</ele>
      </trkpt>
      <trkpt lat="44.2823" lon="5.7537">
        <ele>815.9</ele>
      </trkpt>
      <trkpt lat="44.28224" lon="5.75313">
        <ele>814.1</ele>
      </trkpt>
      <trkpt lat="44.28233" lon="5.75257">
        <ele>816.8</ele>
      </trkpt>
      <trkpt lat="44.28249" lon="5.75202">
        <ele>816.5</ele>
      </trkpt>
      <trkpt lat="44.28264" lon="5.75152">
        <ele>814.1</ele>
      </trkpt>
      <trkpt lat="44.28285" lon="5.75103">
        <ele>811.8</ele>
      </trkpt>
      <trkpt lat="44.28325" lon="5.75044">
        <ele>809.8</ele>
      </trkpt>
      <trkpt lat="44.28341" lon="5.75031">
        <ele>809.7</ele>
      </trkpt>
      <trkpt lat="44.28365" lon="5.75033">
        <ele>813.3</ele>
      </trkpt>
      <trkpt lat="44.28388" lon="5.75027">
        <ele>815.5</ele>
      </trkpt>
      <trkpt lat="44.28385" lon="5.74993">
        <ele>810.7</ele>
      </trkpt>
      <trkpt lat="44.28391" lon="5.74937">
        <ele>807.2</ele>
      </trkpt>
      <trkpt lat="44.28382" lon="5.74909">
        <ele>803.2</ele>
      </trkpt>
      <trkpt lat="44.28398" lon="5.74861">
        <ele>806.8</ele>
      </trkpt>
      <trkpt lat="44.28394" lon="5.74808">
        <ele>807.6</ele>
      </trkpt>
      <trkpt lat="44.28391" lon="5.74781">
        <ele>809.2</ele>
      </trkpt>
      <trkpt lat="44.28396" lon="5.74756">
        <ele>812.3</ele>
      </trkpt>
      <trkpt lat="44.28351" lon="5.74735">
        <ele>806.7</ele>
      </trkpt>
      <trkpt lat="44.28332" lon="5.74725">
        <ele>805.1</ele>
      </trkpt>
      <trkpt lat="44.28297" lon="5.74696">
        <ele>801.5</ele>
      </trkpt>
      <trkpt lat="44.28287" lon="5.74674">
        <ele>802.8</ele>
      </trkpt>
      <trkpt lat="44.28263" lon="5.7459">
        <ele>807.8</ele>
      </trkpt>
      <trkpt lat="44.28235" lon="5.74513">
        <ele>808.7</ele>
      </trkpt>
      <trkpt lat="44.28227" lon="5.74482">
        <ele>809</ele>
      </trkpt>
      <trkpt lat="44.28216" lon="5.74425">
        <ele>809.5</ele>
      </trkpt>
      <trkpt lat="44.28201" lon="5.74299">
        <ele>810.8</ele>
      </trkpt>
      <trkpt lat="44.282" lon="5.74233">
        <ele>813.2</ele>
      </trkpt>
      <trkpt lat="44.28195" lon="5.742">
        <ele>812.1</ele>
      </trkpt>
      <trkpt lat="44.28199" lon="5.74171">
        <ele>813.6</ele>
      </trkpt>
      <trkpt lat="44.28159" lon="5.74108">
        <ele>808.7</ele>
      </trkpt>
      <trkpt lat="44.28153" lon="5.74084">
        <ele>810.3</ele>
      </trkpt>
      <trkpt lat="44.28117" lon="5.74057">
        <ele>808.1</ele>
      </trkpt>
      <trkpt lat="44.281" lon="5.74039">
        <ele>808.4</ele>
      </trkpt>
      <trkpt lat="44.28078" lon="5.73993">
        <ele>814</ele>
      </trkpt>
      <trkpt lat="44.2806" lon="5.73937">
        <ele>820.7</ele>
      </trkpt>
      <trkpt lat="44.2805" lon="5.73906">
        <ele>823.1</ele>
      </trkpt>
      <trkpt lat="44.28038" lon="5.73881">
        <ele>823.7</ele>
      </trkpt>
      <trkpt lat="44.2804" lon="5.73847">
        <ele>825</ele>
      </trkpt>
      <trkpt lat="44.28061" lon="5.73796">
        <ele>822.5</ele>
      </trkpt>
      <trkpt lat="44.2808" lon="5.73779">
        <ele>820.6</ele>
      </trkpt>
      <trkpt lat="44.28095" lon="5.73754">
        <ele>820.2</ele>
      </trkpt>
      <trkpt lat="44.28103" lon="5.73718">
        <ele>817</ele>
      </trkpt>
      <trkpt lat="44.28116" lon="5.73694">
        <ele>815.6</ele>
      </trkpt>
      <trkpt lat="44.28136" lon="5.73686">
        <ele>817.1</ele>
      </trkpt>
      <trkpt lat="44.28131" lon="5.73651">
        <ele>813.9</ele>
      </trkpt>
      <trkpt lat="44.28113" lon="5.73634">
        <ele>810.8</ele>
      </trkpt>
      <trkpt lat="44.28102" lon="5.73612">
        <ele>807.7</ele>
      </trkpt>
      <trkpt lat="44.28094" lon="5.73585">
        <ele>804.2</ele>
      </trkpt>
      <trkpt lat="44.28079" lon="5.73475">
        <ele>796.1</ele>
      </trkpt>
      <trkpt lat="44.2808" lon="5.73418">
        <ele>795.2</ele>
      </trkpt>
      <trkpt lat="44.28077" lon="5.7339">
        <ele>794.8</ele>
      </trkpt>
      <trkpt lat="44.28082" lon="5.73339">
        <ele>796.7</ele>
      </trkpt>
      <trkpt lat="44.28049" lon="5.73284">
        <ele>795.8</ele>
      </trkpt>
      <trkpt lat="44.28037" lon="5.7326">
        <ele>795.9</ele>
      </trkpt>
      <trkpt lat="44.28031" lon="5.7323">
        <ele>796.5</ele>
      </trkpt>
      <trkpt lat="44.28025" lon="5.73148">
        <ele>798.4</ele>
      </trkpt>
      <trkpt lat="44.28021" lon="5.73121">
        <ele>798.8</ele>
      </trkpt>
      <trkpt lat="44.27985" lon="5.72981">
        <ele>801.1</ele>
      </trkpt>
      <trkpt lat="44.27976" lon="5.72921">
        <ele>806.8</ele>
      </trkpt>
      <trkpt lat="44.27956" lon="5.72911">
        <ele>804.9</ele>
      </trkpt>
      <trkpt lat="44.27938" lon="5.72895">
        <ele>804</ele>
      </trkpt>
      <trkpt lat="44.27925" lon="5.72871">
        <ele>804.5</ele>
      </trkpt>
      <trkpt lat="44.27915" lon="5.7284">
        <ele>805.9</ele>
      </trkpt>
      <trkpt lat="44.27896" lon="5.7276">
        <ele>808.7</ele>
      </trkpt>
      <trkpt lat="44.27869" lon="5.72665">
        <ele>808.1</ele>
      </trkpt>
      <trkpt lat="44.27856" lon="5.72578">
        <ele>810.4</ele>
      </trkpt>
      <trkpt lat="44.27851" lon="5.72519">
        <ele>812</ele>
      </trkpt>
      <trkpt lat="44.27851" lon="5.72491">
        <ele>812.8</ele>
      </trkpt>
      <trkpt lat="44.27866" lon="5.72439">
        <ele>817</ele>
      </trkpt>
      <trkpt lat="44.27872" lon="5.72408">
        <ele>819.7</ele>
      </trkpt>
      <trkpt lat="44.27878" lon="5.72349">
        <ele>826.2</ele>
      </trkpt>
      <trkpt lat="44.27845" lon="5.72301">
        <ele>821.3</ele>
      </trkpt>
      <trkpt lat="44.27841" lon="5.72276">
        <ele>823.1</ele>
      </trkpt>
      <trkpt lat="44.27851" lon="5.72246">
        <ele>828.9</ele>
      </trkpt>
      <trkpt lat="44.27857" lon="5.72214">
        <ele>830.7</ele>
      </trkpt>
      <trkpt lat="44.27841" lon="5.72149">
        <ele>826.7</ele>
      </trkpt>
      <trkpt lat="44.27858" lon="5.72106">
        <ele>829.8</ele>
      </trkpt>
      <trkpt lat="44.27886" lon="5.72161">
        <ele>838.1</ele>
      </trkpt>
      <trkpt lat="44.27905" lon="5.72184">
        <ele>843.2</ele>
      </trkpt>
      <trkpt lat="44.2794" lon="5.72152">
        <ele>851.3</ele>
      </trkpt>
      <trkpt lat="44.27949" lon="5.72123">
        <ele>852.7</ele>
      </trkpt>
      <trkpt lat="44.27953" lon="5.72091">
        <ele>852.7</ele>
      </trkpt>
      <trkpt lat="44.2796" lon="5.72059">
        <ele>854.6</ele>
      </trkpt>
      <trkpt lat="44.27972" lon="5.71991">
        <ele>858.1</ele>
      </trkpt>
      <trkpt lat="44.27975" lon="5.71956">
        <ele>859.4</ele>
      </trkpt>
      <trkpt lat="44.27983" lon="5.71924">
        <ele>861.8</ele>
      </trkpt>
      <trkpt lat="44.27987" lon="5.71892">
        <ele>864</ele>
      </trkpt>
      <trkpt lat="44.27985" lon="5.71857">
        <ele>865</ele>
      </trkpt>
      <trkpt lat="44.2798" lon="5.71824">
        <ele>865.4</ele>
      </trkpt>
      <trkpt lat="44.27964" lon="5.71702">
        <ele>872.4</ele>
      </trkpt>
      <trkpt lat="44.27947" lon="5.71677">
        <ele>872.2</ele>
      </trkpt>
      <trkpt lat="44.27908" lon="5.71656">
        <ele>868.1</ele>
      </trkpt>
      <trkpt lat="44.27876" lon="5.71622">
        <ele>868.6</ele>
      </trkpt>
      <trkpt lat="44.27878" lon="5.71595">
        <ele>872.6</ele>
      </trkpt>
      <trkpt lat="44.27887" lon="5.71565">
        <ele>876.9</ele>
      </trkpt>
      <trkpt lat="44.27898" lon="5.71536">
        <ele>880.6</ele>
      </trkpt>
      <trkpt lat="44.27877" lon="5.71519">
        <ele>880.7</ele>
      </trkpt>
      <trkpt lat="44.27859" lon="5.715">
        <ele>881.5</ele>
      </trkpt>
      <trkpt lat="44.27851" lon="5.71467">
        <ele>883.9</ele>
      </trkpt>
      <trkpt lat="44.27844" lon="5.71404">
        <ele>887.6</ele>
      </trkpt>
      <trkpt lat="44.27844" lon="5.71373">
        <ele>889.4</ele>
      </trkpt>
      <trkpt lat="44.27838" lon="5.7134">
        <ele>889.8</ele>
      </trkpt>
      <trkpt lat="44.27839" lon="5.71283">
        <ele>891.7</ele>
      </trkpt>
      <trkpt lat="44.27847" lon="5.71253">
        <ele>894.7</ele>
      </trkpt>
      <trkpt lat="44.27854" lon="5.71219">
        <ele>897.4</ele>
      </trkpt>
      <trkpt lat="44.27867" lon="5.7112">
        <ele>905.5</ele>
      </trkpt>
      <trkpt lat="44.27867" lon="5.71056">
        <ele>909.7</ele>
      </trkpt>
      <trkpt lat="44.27856" lon="5.71032">
        <ele>908.1</ele>
      </trkpt>
      <trkpt lat="44.27835" lon="5.71023">
        <ele>901.4</ele>
      </trkpt>
      <trkpt lat="44.27821" lon="5.70996">
        <ele>901.1</ele>
      </trkpt>
      <trkpt lat="44.27815" lon="5.70938">
        <ele>908.5</ele>
      </trkpt>
      <trkpt lat="44.27812" lon="5.70875">
        <ele>918.1</ele>
      </trkpt>
      <trkpt lat="44.27767" lon="5.70861">
        <ele>914.8</ele>
      </trkpt>
      <trkpt lat="44.27743" lon="5.70848">
        <ele>915.8</ele>
      </trkpt>
      <trkpt lat="44.27731" lon="5.70817">
        <ele>922.8</ele>
      </trkpt>
      <trkpt lat="44.27714" lon="5.70791">
        <ele>927.5</ele>
      </trkpt>
      <trkpt lat="44.27705" lon="5.70761">
        <ele>932.1</ele>
      </trkpt>
      <trkpt lat="44.27688" lon="5.70738">
        <ele>931.4</ele>
      </trkpt>
      <trkpt lat="44.2766" lon="5.70738">
        <ele>930</ele>
      </trkpt>
      <trkpt lat="44.27643" lon="5.70786">
        <ele>933.6</ele>
      </trkpt>
      <trkpt lat="44.27635" lon="5.70816">
        <ele>935.2</ele>
      </trkpt>
      <trkpt lat="44.27625" lon="5.70844">
        <ele>937.3</ele>
      </trkpt>
      <trkpt lat="44.2761" lon="5.709">
        <ele>935.2</ele>
      </trkpt>
      <trkpt lat="44.27571" lon="5.70934">
        <ele>948</ele>
      </trkpt>
      <trkpt lat="44.27568" lon="5.70964">
        <ele>943.3</ele>
      </trkpt>
      <trkpt lat="44.27567" lon="5.70995">
        <ele>937.2</ele>
      </trkpt>
      <trkpt lat="44.27553" lon="5.71048">
        <ele>936.7</ele>
      </trkpt>
      <trkpt lat="44.27526" lon="5.71108">
        <ele>946.7</ele>
      </trkpt>
      <trkpt lat="44.27529" lon="5.71136">
        <ele>942.2</ele>
      </trkpt>
      <trkpt lat="44.27529" lon="5.71201">
        <ele>936.4</ele>
      </trkpt>
      <trkpt lat="44.27526" lon="5.71235">
        <ele>935.2</ele>
      </trkpt>
      <trkpt lat="44.27518" lon="5.71259">
        <ele>937.4</ele>
      </trkpt>
      <trkpt lat="44.27492" lon="5.71312">
        <ele>941.5</ele>
      </trkpt>
      <trkpt lat="44.27477" lon="5.71332">
        <ele>940.3</ele>
      </trkpt>
      <trkpt lat="44.27456" lon="5.71381">
        <ele>932.5</ele>
      </trkpt>
      <trkpt lat="44.27441" lon="5.71403">
        <ele>929.7</ele>
      </trkpt>
      <trkpt lat="44.2741" lon="5.71439">
        <ele>925.9</ele>
      </trkpt>
      <trkpt lat="44.27404" lon="5.71464">
        <ele>920.7</ele>
      </trkpt>
      <trkpt lat="44.27389" lon="5.71512">
        <ele>910.9</ele>
      </trkpt>
      <trkpt lat="44.27343" lon="5.71619">
        <ele>895.4</ele>
      </trkpt>
      <trkpt lat="44.27332" lon="5.7164">
        <ele>892.7</ele>
      </trkpt>
      <trkpt lat="44.27279" lon="5.71704">
        <ele>877.6</ele>
      </trkpt>
      <trkpt lat="44.27234" lon="5.71765">
        <ele>870.9</ele>
      </trkpt>
      <trkpt lat="44.27196" lon="5.71801">
        <ele>864.8</ele>
      </trkpt>
      <trkpt lat="44.27179" lon="5.71823">
        <ele>862.9</ele>
      </trkpt>
      <trkpt lat="44.27139" lon="5.71833">
        <ele>859.4</ele>
      </trkpt>
      <trkpt lat="44.27118" lon="5.71821">
        <ele>858.6</ele>
      </trkpt>
      <trkpt lat="44.27074" lon="5.71835">
        <ele>851.2</ele>
      </trkpt>
      <trkpt lat="44.27054" lon="5.71851">
        <ele>845.9</ele>
      </trkpt>
      <trkpt lat="44.27012" lon="5.71853">
        <ele>842.3</ele>
      </trkpt>
      <trkpt lat="44.26994" lon="5.7187">
        <ele>836.3</ele>
      </trkpt>
      <trkpt lat="44.26976" lon="5.71884">
        <ele>833.1</ele>
      </trkpt>
      <trkpt lat="44.26915" lon="5.71921">
        <ele>824.6</ele>
      </trkpt>
      <trkpt lat="44.26896" lon="5.71939">
        <ele>827.6</ele>
      </trkpt>
      <trkpt lat="44.26894" lon="5.71974">
        <ele>822.8</ele>
      </trkpt>
      <trkpt lat="44.26899" lon="5.72062">
        <ele>815.8</ele>
      </trkpt>
      <trkpt lat="44.26904" lon="5.72243">
        <ele>810.1</ele>
      </trkpt>
      <trkpt lat="44.26899" lon="5.72275">
        <ele>810.6</ele>
      </trkpt>
      <trkpt lat="44.26888" lon="5.72306">
        <ele>813.7</ele>
      </trkpt>
      <trkpt lat="44.26889" lon="5.72342">
        <ele>807.9</ele>
      </trkpt>
      <trkpt lat="44.26876" lon="5.72396">
        <ele>801.6</ele>
      </trkpt>
      <trkpt lat="44.26853" lon="5.72451">
        <ele>795.7</ele>
      </trkpt>
      <trkpt lat="44.26846" lon="5.72483">
        <ele>791</ele>
      </trkpt>
      <trkpt lat="44.26822" lon="5.72531">
        <ele>784.8</ele>
      </trkpt>
      <trkpt lat="44.26805" lon="5.72554">
        <ele>780.1</ele>
      </trkpt>
      <trkpt lat="44.26784" lon="5.72567">
        <ele>777.4</ele>
      </trkpt>
      <trkpt lat="44.26761" lon="5.72572">
        <ele>776.4</ele>
      </trkpt>
      <trkpt lat="44.2672" lon="5.72599">
        <ele>764.8</ele>
      </trkpt>
      <trkpt lat="44.26675" lon="5.72611">
        <ele>755.4</ele>
      </trkpt>
      <trkpt lat="44.26654" lon="5.72621">
        <ele>750.8</ele>
      </trkpt>
      <trkpt lat="44.26632" lon="5.72611">
        <ele>752.4</ele>
      </trkpt>
      <trkpt lat="44.26614" lon="5.72593">
        <ele>755.2</ele>
      </trkpt>
      <trkpt lat="44.26598" lon="5.72609">
        <ele>750.9</ele>
      </trkpt>
      <trkpt lat="44.26587" lon="5.72632">
        <ele>746.5</ele>
      </trkpt>
      <trkpt lat="44.26582" lon="5.72659">
        <ele>742.8</ele>
      </trkpt>
      <trkpt lat="44.26564" lon="5.72719">
        <ele>743.4</ele>
      </trkpt>
      <trkpt lat="44.26549" lon="5.72777">
        <ele>744.3</ele>
      </trkpt>
      <trkpt lat="44.26539" lon="5.72807">
        <ele>745.1</ele>
      </trkpt>
      <trkpt lat="44.26555" lon="5.7283">
        <ele>741.5</ele>
      </trkpt>
      <trkpt lat="44.26525" lon="5.72899">
        <ele>737.3</ele>
      </trkpt>
      <trkpt lat="44.2651" lon="5.72924">
        <ele>735.5</ele>
      </trkpt>
      <trkpt lat="44.26476" lon="5.73002">
        <ele>726.3</ele>
      </trkpt>
      <trkpt lat="44.26471" lon="5.73027">
        <ele>724.3</ele>
      </trkpt>
      <trkpt lat="44.26461" lon="5.73061">
        <ele>721.7</ele>
      </trkpt>
      <trkpt lat="44.26443" lon="5.7305">
        <ele>721.1</ele>
      </trkpt>
      <trkpt lat="44.26429" lon="5.73066">
        <ele>719.8</ele>
      </trkpt>
      <trkpt lat="44.26451" lon="5.73111">
        <ele>713.9</ele>
      </trkpt>
      <trkpt lat="44.26474" lon="5.73111">
        <ele>714.9</ele>
      </trkpt>
      <trkpt lat="44.26492" lon="5.73084">
        <ele>721.6</ele>
      </trkpt>
      <trkpt lat="44.26508" lon="5.73035">
        <ele>724.6</ele>
      </trkpt>
      <trkpt lat="44.2652" lon="5.73013">
        <ele>724.6</ele>
      </trkpt>
      <trkpt lat="44.26559" lon="5.73">
        <ele>719.8</ele>
      </trkpt>
      <trkpt lat="44.2658" lon="5.73013">
        <ele>714.5</ele>
      </trkpt>
      <trkpt lat="44.26559" lon="5.73025">
        <ele>716.4</ele>
      </trkpt>
      <trkpt lat="44.26541" lon="5.73041">
        <ele>717.7</ele>
      </trkpt>
      <trkpt lat="44.26535" lon="5.7307">
        <ele>715.5</ele>
      </trkpt>
      <trkpt lat="44.26534" lon="5.73127">
        <ele>706.1</ele>
      </trkpt>
      <trkpt lat="44.26541" lon="5.73156">
        <ele>699.5</ele>
      </trkpt>
      <trkpt lat="44.26542" lon="5.73184">
        <ele>694.4</ele>
      </trkpt>
      <trkpt lat="44.26529" lon="5.73207">
        <ele>692.1</ele>
      </trkpt>
      <trkpt lat="44.26509" lon="5.73221">
        <ele>691.9</ele>
      </trkpt>
      <trkpt lat="44.26491" lon="5.73223">
        <ele>691.7</ele>
      </trkpt>
      <trkpt lat="44.26489" lon="5.73251">
        <ele>685.7</ele>
      </trkpt>
      <trkpt lat="44.26563" lon="5.73255">
        <ele>680.3</ele>
      </trkpt>
      <trkpt lat="44.26562" lon="5.73281">
        <ele>677.1</ele>
      </trkpt>
      <trkpt lat="44.26543" lon="5.73306">
        <ele>674.2</ele>
      </trkpt>
      <trkpt lat="44.26521" lon="5.73329">
        <ele>670.3</ele>
      </trkpt>
      <trkpt lat="44.26465" lon="5.73375">
        <ele>662.9</ele>
      </trkpt>
      <trkpt lat="44.26445" lon="5.73379">
        <ele>661.3</ele>
      </trkpt>
      <trkpt lat="44.26405" lon="5.73373">
        <ele>659.6</ele>
      </trkpt>
      <trkpt lat="44.26367" lon="5.73347">
        <ele>659.9</ele>
      </trkpt>
      <trkpt lat="44.26349" lon="5.73335">
        <ele>659.8</ele>
      </trkpt>
      <trkpt lat="44.26307" lon="5.73366">
        <ele>655.1</ele>
      </trkpt>
      <trkpt lat="44.26283" lon="5.73361">
        <ele>654</ele>
      </trkpt>
    </trkseg>
  </trk>
  <trk>
    <name><![CDATA[J2 Méouge -> Jabron]]></name>
    <extensions>
      <line xmlns="http://www.topografix.com/GPX/gpx_style/0/2">
        <color>0000FF</color>
        <width>4</width>
      </line>
    </extensions>
    <trkseg>
      <trkpt lat="44.26255" lon="5.73378">
        <ele>651.7</ele>
        <time>2021-05-28T06:30:18.000Z</time>
      </trkpt>
      <trkpt lat="44.26243" lon="5.73392">
        <ele>650.5</ele>
        <time>2021-05-28T06:30:19.633Z</time>
      </trkpt>
      <trkpt lat="44.26209" lon="5.73426">
        <ele>648.2</ele>
        <time>2021-05-28T06:30:24.023Z</time>
      </trkpt>
      <trkpt lat="44.26195" lon="5.7345">
        <ele>648.3</ele>
        <time>2021-05-28T06:30:29.705Z</time>
      </trkpt>
      <trkpt lat="44.26168" lon="5.73504">
        <ele>649.9</ele>
        <time>2021-05-28T06:30:46.521Z</time>
      </trkpt>
      <trkpt lat="44.26156" lon="5.73561">
        <ele>647.5</ele>
        <time>2021-05-28T06:30:50.936Z</time>
      </trkpt>
      <trkpt lat="44.26151" lon="5.73591">
        <ele>646.3</ele>
        <time>2021-05-28T06:30:53.263Z</time>
      </trkpt>
      <trkpt lat="44.26139" lon="5.73647">
        <ele>642.9</ele>
        <time>2021-05-28T06:30:57.635Z</time>
      </trkpt>
      <trkpt lat="44.26125" lon="5.73669">
        <ele>641.5</ele>
        <time>2021-05-28T06:30:59.656Z</time>
      </trkpt>
      <trkpt lat="44.26107" lon="5.73678">
        <ele>640.7</ele>
        <time>2021-05-28T06:31:01.909Z</time>
      </trkpt>
      <trkpt lat="44.26068" lon="5.73746">
        <ele>638.1</ele>
        <time>2021-05-28T06:31:09.274Z</time>
      </trkpt>
      <trkpt lat="44.26017" lon="5.73793">
        <ele>635.8</ele>
        <time>2021-05-28T06:31:16.770Z</time>
      </trkpt>
      <trkpt lat="44.25998" lon="5.73794">
        <ele>635</ele>
        <time>2021-05-28T06:31:19.006Z</time>
      </trkpt>
      <trkpt lat="44.25979" lon="5.73776">
        <ele>634.5</ele>
        <time>2021-05-28T06:31:22.336Z</time>
      </trkpt>
      <trkpt lat="44.25966" lon="5.73751">
        <ele>634</ele>
        <time>2021-05-28T06:31:25.515Z</time>
      </trkpt>
      <trkpt lat="44.25907" lon="5.73624">
        <ele>635.1</ele>
        <time>2021-05-28T06:31:54.888Z</time>
      </trkpt>
      <trkpt lat="44.25879" lon="5.73588">
        <ele>637.8</ele>
        <time>2021-05-28T06:32:13.844Z</time>
      </trkpt>
      <trkpt lat="44.25856" lon="5.73592">
        <ele>640.6</ele>
        <time>2021-05-28T06:32:32.422Z</time>
      </trkpt>
      <trkpt lat="44.25837" lon="5.73584">
        <ele>641.7</ele>
        <time>2021-05-28T06:32:41.265Z</time>
      </trkpt>
      <trkpt lat="44.25812" lon="5.73588">
        <ele>646.1</ele>
        <time>2021-05-28T06:33:05.117Z</time>
      </trkpt>
      <trkpt lat="44.25776" lon="5.73601">
        <ele>653.6</ele>
        <time>2021-05-28T06:33:40.363Z</time>
      </trkpt>
      <trkpt lat="44.25745" lon="5.73621">
        <ele>661</ele>
        <time>2021-05-28T06:34:12.733Z</time>
      </trkpt>
      <trkpt lat="44.25749" lon="5.73577">
        <ele>656.9</ele>
        <time>2021-05-28T06:34:16.051Z</time>
      </trkpt>
      <trkpt lat="44.25777" lon="5.73558">
        <ele>652.7</ele>
        <time>2021-05-28T06:34:19.302Z</time>
      </trkpt>
      <trkpt lat="44.25795" lon="5.73522">
        <ele>649.6</ele>
        <time>2021-05-28T06:34:22.587Z</time>
      </trkpt>
      <trkpt lat="44.25785" lon="5.73487">
        <ele>652.9</ele>
        <time>2021-05-28T06:34:44.616Z</time>
      </trkpt>
      <trkpt lat="44.25772" lon="5.73506">
        <ele>656.8</ele>
        <time>2021-05-28T06:35:02.454Z</time>
      </trkpt>
      <trkpt lat="44.25738" lon="5.73496">
        <ele>666.6</ele>
        <time>2021-05-28T06:35:35.390Z</time>
      </trkpt>
      <trkpt lat="44.25709" lon="5.73443">
        <ele>671.6</ele>
        <time>2021-05-28T06:36:07.373Z</time>
      </trkpt>
      <trkpt lat="44.25688" lon="5.73394">
        <ele>673.2</ele>
        <time>2021-05-28T06:36:23.036Z</time>
      </trkpt>
      <trkpt lat="44.25661" lon="5.73379">
        <ele>677.4</ele>
        <time>2021-05-28T06:36:50.581Z</time>
      </trkpt>
      <trkpt lat="44.25634" lon="5.73396">
        <ele>683.5</ele>
        <time>2021-05-28T06:37:18.655Z</time>
      </trkpt>
      <trkpt lat="44.25628" lon="5.73455">
        <ele>687.6</ele>
        <time>2021-05-28T06:37:44.923Z</time>
      </trkpt>
      <trkpt lat="44.25588" lon="5.73575">
        <ele>697.7</ele>
        <time>2021-05-28T06:38:49.630Z</time>
      </trkpt>
      <trkpt lat="44.25437" lon="5.73723">
        <ele>712.3</ele>
        <time>2021-05-28T06:40:27.612Z</time>
      </trkpt>
      <trkpt lat="44.25431" lon="5.73645">
        <ele>719.9</ele>
        <time>2021-05-28T06:41:20.873Z</time>
      </trkpt>
      <trkpt lat="44.25409" lon="5.73551">
        <ele>728.5</ele>
        <time>2021-05-28T06:42:18.076Z</time>
      </trkpt>
      <trkpt lat="44.25363" lon="5.7347">
        <ele>743.2</ele>
        <time>2021-05-28T06:43:28.257Z</time>
      </trkpt>
      <trkpt lat="44.25318" lon="5.73387">
        <ele>756</ele>
        <time>2021-05-28T06:44:38.932Z</time>
      </trkpt>
      <trkpt lat="44.25314" lon="5.73264">
        <ele>757.9</ele>
        <time>2021-05-28T06:45:05.933Z</time>
      </trkpt>
      <trkpt lat="44.25256" lon="5.73193">
        <ele>764.3</ele>
        <time>2021-05-28T06:45:48.212Z</time>
      </trkpt>
      <trkpt lat="44.25214" lon="5.7314">
        <ele>770.8</ele>
        <time>2021-05-28T06:46:30.495Z</time>
      </trkpt>
      <trkpt lat="44.25172" lon="5.73092">
        <ele>775.2</ele>
        <time>2021-05-28T06:46:59.779Z</time>
      </trkpt>
      <trkpt lat="44.25134" lon="5.73072">
        <ele>776.4</ele>
        <time>2021-05-28T06:47:13.463Z</time>
      </trkpt>
      <trkpt lat="44.25103" lon="5.73128">
        <ele>786.4</ele>
        <time>2021-05-28T06:48:01.516Z</time>
      </trkpt>
      <trkpt lat="44.25061" lon="5.73154">
        <ele>793.7</ele>
        <time>2021-05-28T06:48:45.065Z</time>
      </trkpt>
      <trkpt lat="44.25054" lon="5.73099">
        <ele>787</ele>
        <time>2021-05-28T06:48:49.244Z</time>
      </trkpt>
      <trkpt lat="44.25036" lon="5.73113">
        <ele>790.7</ele>
        <time>2021-05-28T06:49:08.775Z</time>
      </trkpt>
      <trkpt lat="44.25035" lon="5.73172">
        <ele>798.9</ele>
        <time>2021-05-28T06:49:48.845Z</time>
      </trkpt>
      <trkpt lat="44.2501" lon="5.73226">
        <ele>807.7</ele>
        <time>2021-05-28T06:50:32.501Z</time>
      </trkpt>
      <trkpt lat="44.24986" lon="5.73361">
        <ele>819.3</ele>
        <time>2021-05-28T06:51:48.307Z</time>
      </trkpt>
      <trkpt lat="44.24904" lon="5.734">
        <ele>828.6</ele>
        <time>2021-05-28T06:52:47.943Z</time>
      </trkpt>
      <trkpt lat="44.24913" lon="5.73484">
        <ele>839.1</ele>
        <time>2021-05-28T06:53:45.612Z</time>
      </trkpt>
      <trkpt lat="44.24889" lon="5.73603">
        <ele>851.9</ele>
        <time>2021-05-28T06:55:09.552Z</time>
      </trkpt>
      <trkpt lat="44.24878" lon="5.73707">
        <ele>860.2</ele>
        <time>2021-05-28T06:56:02.999Z</time>
      </trkpt>
      <trkpt lat="44.24885" lon="5.73767">
        <ele>863.7</ele>
        <time>2021-05-28T06:56:26.360Z</time>
      </trkpt>
      <trkpt lat="44.24891" lon="5.73826">
        <ele>868.9</ele>
        <time>2021-05-28T06:57:01.005Z</time>
      </trkpt>
      <trkpt lat="44.24854" lon="5.73814">
        <ele>874.1</ele>
        <time>2021-05-28T06:57:37.011Z</time>
      </trkpt>
      <trkpt lat="44.24802" lon="5.7379">
        <ele>878.5</ele>
        <time>2021-05-28T06:58:06.384Z</time>
      </trkpt>
      <trkpt lat="44.24752" lon="5.7383">
        <ele>890.3</ele>
        <time>2021-05-28T06:59:01.009Z</time>
      </trkpt>
      <trkpt lat="44.24704" lon="5.73855">
        <ele>896.2</ele>
        <time>2021-05-28T06:59:39.425Z</time>
      </trkpt>
      <trkpt lat="44.24634" lon="5.73853">
        <ele>897.9</ele>
        <time>2021-05-28T07:00:01.552Z</time>
      </trkpt>
      <trkpt lat="44.24565" lon="5.73917">
        <ele>909.2</ele>
        <time>2021-05-28T07:01:20.077Z</time>
      </trkpt>
      <trkpt lat="44.24511" lon="5.74004">
        <ele>921.9</ele>
        <time>2021-05-28T07:02:38.243Z</time>
      </trkpt>
      <trkpt lat="44.24471" lon="5.7402">
        <ele>923.1</ele>
        <time>2021-05-28T07:02:52.139Z</time>
      </trkpt>
      <trkpt lat="44.24412" lon="5.74077">
        <ele>928.8</ele>
        <time>2021-05-28T07:03:30.340Z</time>
      </trkpt>
      <trkpt lat="44.24368" lon="5.74115">
        <ele>930.2</ele>
        <time>2021-05-28T07:03:47.245Z</time>
      </trkpt>
      <trkpt lat="44.24343" lon="5.74176">
        <ele>939.7</ele>
        <time>2021-05-28T07:04:34.966Z</time>
      </trkpt>
      <trkpt lat="44.24281" lon="5.74297">
        <ele>957.8</ele>
        <time>2021-05-28T07:06:15.985Z</time>
      </trkpt>
      <trkpt lat="44.24223" lon="5.74387">
        <ele>972</ele>
        <time>2021-05-28T07:07:38.189Z</time>
      </trkpt>
      <trkpt lat="44.24195" lon="5.7438">
        <ele>972.8</ele>
        <time>2021-05-28T07:07:47.605Z</time>
      </trkpt>
      <trkpt lat="44.24156" lon="5.74387">
        <ele>978.4</ele>
        <time>2021-05-28T07:08:24.877Z</time>
      </trkpt>
      <trkpt lat="44.24121" lon="5.74367">
        <ele>982</ele>
        <time>2021-05-28T07:08:47.964Z</time>
      </trkpt>
      <trkpt lat="44.24065" lon="5.74397">
        <ele>997.8</ele>
        <time>2021-05-28T07:09:44.821Z</time>
      </trkpt>
      <trkpt lat="44.24017" lon="5.74374">
        <ele>1001.5</ele>
        <time>2021-05-28T07:10:10.479Z</time>
      </trkpt>
      <trkpt lat="44.23979" lon="5.74308">
        <ele>999.3</ele>
        <time>2021-05-28T07:10:18.021Z</time>
      </trkpt>
      <trkpt lat="44.24006" lon="5.74262">
        <ele>996.5</ele>
        <time>2021-05-28T07:10:22.127Z</time>
      </trkpt>
      <trkpt lat="44.23994" lon="5.74192">
        <ele>997.7</ele>
        <time>2021-05-28T07:10:38.232Z</time>
      </trkpt>
      <trkpt lat="44.23938" lon="5.74219">
        <ele>1008.9</ele>
        <time>2021-05-28T07:11:34.391Z</time>
      </trkpt>
      <trkpt lat="44.23813" lon="5.74192">
        <ele>1033.7</ele>
        <time>2021-05-28T07:13:34.286Z</time>
      </trkpt>
      <trkpt lat="44.23825" lon="5.74074">
        <ele>1038.5</ele>
        <time>2021-05-28T07:14:12.535Z</time>
      </trkpt>
      <trkpt lat="44.23784" lon="5.73983">
        <ele>1052.1</ele>
        <time>2021-05-28T07:15:25.538Z</time>
      </trkpt>
      <trkpt lat="44.23767" lon="5.74082">
        <ele>1052</ele>
        <time>2021-05-28T07:15:43.094Z</time>
      </trkpt>
      <trkpt lat="44.23682" lon="5.74126">
        <ele>1070.3</ele>
        <time>2021-05-28T07:17:09.026Z</time>
      </trkpt>
      <trkpt lat="44.23642" lon="5.74199">
        <ele>1078.1</ele>
        <time>2021-05-28T07:18:00.335Z</time>
      </trkpt>
      <trkpt lat="44.23614" lon="5.7438">
        <ele>1085.4</ele>
        <time>2021-05-28T07:18:59.284Z</time>
      </trkpt>
      <trkpt lat="44.23547" lon="5.74558">
        <ele>1106.5</ele>
        <time>2021-05-28T07:21:15.837Z</time>
      </trkpt>
      <trkpt lat="44.23441" lon="5.74654">
        <ele>1138.2</ele>
        <time>2021-05-28T07:23:15.612Z</time>
      </trkpt>
      <trkpt lat="44.23364" lon="5.74761">
        <ele>1166.4</ele>
        <time>2021-05-28T07:24:58.607Z</time>
      </trkpt>
      <trkpt lat="44.23332" lon="5.74936">
        <ele>1192.6</ele>
        <time>2021-05-28T07:27:01.270Z</time>
      </trkpt>
      <trkpt lat="44.23288" lon="5.74907">
        <ele>1191.6</ele>
        <time>2021-05-28T07:27:08.427Z</time>
      </trkpt>
      <trkpt lat="44.23221" lon="5.74907">
        <ele>1201.8</ele>
        <time>2021-05-28T07:28:11.936Z</time>
      </trkpt>
      <trkpt lat="44.23175" lon="5.74889">
        <ele>1211.2</ele>
        <time>2021-05-28T07:28:57.220Z</time>
      </trkpt>
      <trkpt lat="44.23129" lon="5.74901">
        <ele>1218.7</ele>
        <time>2021-05-28T07:29:41.577Z</time>
      </trkpt>
      <trkpt lat="44.23145" lon="5.74944">
        <ele>1214</ele>
        <time>2021-05-28T07:29:45.204Z</time>
      </trkpt>
      <trkpt lat="44.231" lon="5.74986">
        <ele>1221.2</ele>
        <time>2021-05-28T07:30:36.197Z</time>
      </trkpt>
      <trkpt lat="44.23029" lon="5.75072">
        <ele>1232.8</ele>
        <time>2021-05-28T07:31:54.012Z</time>
      </trkpt>
      <trkpt lat="44.23004" lon="5.7514">
        <ele>1229.5</ele>
        <time>2021-05-28T07:31:59.519Z</time>
      </trkpt>
      <trkpt lat="44.22952" lon="5.75137">
        <ele>1237.7</ele>
        <time>2021-05-28T07:32:48.851Z</time>
      </trkpt>
      <trkpt lat="44.22886" lon="5.75125">
        <ele>1254.6</ele>
        <time>2021-05-28T07:33:51.940Z</time>
      </trkpt>
      <trkpt lat="44.22893" lon="5.75201">
        <ele>1256.3</ele>
        <time>2021-05-28T07:34:10.775Z</time>
      </trkpt>
      <trkpt lat="44.22931" lon="5.75381">
        <ele>1267.1</ele>
        <time>2021-05-28T07:35:22.878Z</time>
      </trkpt>
      <trkpt lat="44.22967" lon="5.75488">
        <ele>1279</ele>
        <time>2021-05-28T07:36:43.165Z</time>
      </trkpt>
      <trkpt lat="44.22991" lon="5.7553">
        <ele>1280.6</ele>
        <time>2021-05-28T07:36:58.441Z</time>
      </trkpt>
      <trkpt lat="44.23053" lon="5.75547">
        <ele>1285.8</ele>
        <time>2021-05-28T07:37:32.879Z</time>
      </trkpt>
      <trkpt lat="44.23117" lon="5.75602">
        <ele>1302.9</ele>
        <time>2021-05-28T07:38:44.123Z</time>
      </trkpt>
      <trkpt lat="44.23138" lon="5.75514">
        <ele>1301.1</ele>
        <time>2021-05-28T07:38:53.207Z</time>
      </trkpt>
      <trkpt lat="44.23151" lon="5.75408">
        <ele>1301.2</ele>
        <time>2021-05-28T07:39:12.372Z</time>
      </trkpt>
      <trkpt lat="44.23182" lon="5.75345">
        <ele>1305.5</ele>
        <time>2021-05-28T07:39:41.311Z</time>
      </trkpt>
      <trkpt lat="44.23189" lon="5.75399">
        <ele>1313.3</ele>
        <time>2021-05-28T07:40:18.582Z</time>
      </trkpt>
      <trkpt lat="44.23214" lon="5.75424">
        <ele>1324.6</ele>
        <time>2021-05-28T07:40:47.734Z</time>
      </trkpt>
      <trkpt lat="44.23249" lon="5.75358">
        <ele>1330.3</ele>
        <time>2021-05-28T07:41:24.225Z</time>
      </trkpt>
      <trkpt lat="44.23244" lon="5.75465">
        <ele>1339.8</ele>
        <time>2021-05-28T07:42:28.028Z</time>
      </trkpt>
      <trkpt lat="44.23221" lon="5.75509">
        <ele>1334</ele>
        <time>2021-05-28T07:42:32.104Z</time>
      </trkpt>
      <trkpt lat="44.23233" lon="5.75671">
        <ele>1350.6</ele>
        <time>2021-05-28T07:44:22.716Z</time>
      </trkpt>
      <trkpt lat="44.23228" lon="5.75804">
        <ele>1360.6</ele>
        <time>2021-05-28T07:45:26.688Z</time>
      </trkpt>
      <trkpt lat="44.23205" lon="5.75882">
        <ele>1359.3</ele>
        <time>2021-05-28T07:45:35.479Z</time>
      </trkpt>
      <trkpt lat="44.23115" lon="5.75978">
        <ele>1358.5</ele>
        <time>2021-05-28T07:46:00.599Z</time>
      </trkpt>
      <trkpt lat="44.22974" lon="5.75786">
        <ele>1352.4</ele>
        <time>2021-05-28T07:46:26.441Z</time>
      </trkpt>
      <trkpt lat="44.22923" lon="5.75755">
        <ele>1356</ele>
        <time>2021-05-28T07:46:52.895Z</time>
      </trkpt>
      <trkpt lat="44.22977" lon="5.75859">
        <ele>1370.3</ele>
        <time>2021-05-28T07:48:20.129Z</time>
      </trkpt>
      <trkpt lat="44.23003" lon="5.75975">
        <ele>1388.4</ele>
        <time>2021-05-28T07:49:42.681Z</time>
      </trkpt>
      <trkpt lat="44.23" lon="5.76099">
        <ele>1404.1</ele>
        <time>2021-05-28T07:51:06.949Z</time>
      </trkpt>
      <trkpt lat="44.22997" lon="5.76175">
        <ele>1408.7</ele>
        <time>2021-05-28T07:51:37.190Z</time>
      </trkpt>
      <trkpt lat="44.22957" lon="5.7618">
        <ele>1405.1</ele>
        <time>2021-05-28T07:51:41.384Z</time>
      </trkpt>
      <trkpt lat="44.22874" lon="5.75984">
        <ele>1418.6</ele>
        <time>2021-05-28T07:53:10.639Z</time>
      </trkpt>
      <trkpt lat="44.22786" lon="5.75801">
        <ele>1391.5</ele>
        <time>2021-05-28T07:53:27.133Z</time>
      </trkpt>
      <trkpt lat="44.22728" lon="5.75671">
        <ele>1398.9</ele>
        <time>2021-05-28T07:54:20.368Z</time>
      </trkpt>
      <trkpt lat="44.22625" lon="5.75536">
        <ele>1422.6</ele>
        <time>2021-05-28T07:56:34.310Z</time>
      </trkpt>
      <trkpt lat="44.22537" lon="5.75378">
        <ele>1454.9</ele>
        <time>2021-05-28T07:58:50.235Z</time>
      </trkpt>
      <trkpt lat="44.22435" lon="5.75344">
        <ele>1477.7</ele>
        <time>2021-05-28T08:00:29.639Z</time>
      </trkpt>
      <trkpt lat="44.2239" lon="5.75188">
        <ele>1471.6</ele>
        <time>2021-05-28T08:00:42.767Z</time>
      </trkpt>
      <trkpt lat="44.22353" lon="5.74948">
        <ele>1471</ele>
        <time>2021-05-28T08:01:23.853Z</time>
      </trkpt>
      <trkpt lat="44.22339" lon="5.74713">
        <ele>1465.4</ele>
        <time>2021-05-28T08:01:45.531Z</time>
      </trkpt>
      <trkpt lat="44.22289" lon="5.74726">
        <ele>1454.8</ele>
        <time>2021-05-28T08:01:50.843Z</time>
      </trkpt>
      <trkpt lat="44.22255" lon="5.74754">
        <ele>1449.7</ele>
        <time>2021-05-28T08:01:54.967Z</time>
      </trkpt>
      <trkpt lat="44.22228" lon="5.74812">
        <ele>1448.1</ele>
        <time>2021-05-28T08:02:01.381Z</time>
      </trkpt>
      <trkpt lat="44.22226" lon="5.7489">
        <ele>1448.9</ele>
        <time>2021-05-28T08:02:17.199Z</time>
      </trkpt>
      <trkpt lat="44.22237" lon="5.74976">
        <ele>1447.5</ele>
        <time>2021-05-28T08:02:26.218Z</time>
      </trkpt>
      <trkpt lat="44.22255" lon="5.7506">
        <ele>1445</ele>
        <time>2021-05-28T08:02:33.768Z</time>
      </trkpt>
      <trkpt lat="44.22268" lon="5.75125">
        <ele>1447.4</ele>
        <time>2021-05-28T08:02:54.498Z</time>
      </trkpt>
      <trkpt lat="44.22257" lon="5.75209">
        <ele>1447.3</ele>
        <time>2021-05-28T08:03:09.169Z</time>
      </trkpt>
      <trkpt lat="44.22246" lon="5.75253">
        <ele>1448.1</ele>
        <time>2021-05-28T08:03:19.683Z</time>
      </trkpt>
      <trkpt lat="44.2219" lon="5.75245">
        <ele>1443.7</ele>
        <time>2021-05-28T08:03:25.562Z</time>
      </trkpt>
      <trkpt lat="44.22147" lon="5.7523">
        <ele>1439</ele>
        <time>2021-05-28T08:03:30.192Z</time>
      </trkpt>
      <trkpt lat="44.22117" lon="5.75206">
        <ele>1433.5</ele>
        <time>2021-05-28T08:03:33.804Z</time>
      </trkpt>
      <trkpt lat="44.22072" lon="5.7519">
        <ele>1428.4</ele>
        <time>2021-05-28T08:03:38.654Z</time>
      </trkpt>
      <trkpt lat="44.2203" lon="5.75209">
        <ele>1429.7</ele>
        <time>2021-05-28T08:03:53.511Z</time>
      </trkpt>
      <trkpt lat="44.22011" lon="5.75232">
        <ele>1431.7</ele>
        <time>2021-05-28T08:04:06.911Z</time>
      </trkpt>
      <trkpt lat="44.21962" lon="5.75227">
        <ele>1424.8</ele>
        <time>2021-05-28T08:04:12.042Z</time>
      </trkpt>
      <trkpt lat="44.21926" lon="5.75219">
        <ele>1419.1</ele>
        <time>2021-05-28T08:04:15.850Z</time>
      </trkpt>
      <trkpt lat="44.21897" lon="5.7523">
        <ele>1415.8</ele>
        <time>2021-05-28T08:04:18.989Z</time>
      </trkpt>
      <trkpt lat="44.21864" lon="5.7523">
        <ele>1411.1</ele>
        <time>2021-05-28T08:04:22.435Z</time>
      </trkpt>
      <trkpt lat="44.21805" lon="5.75214">
        <ele>1401.6</ele>
        <time>2021-05-28T08:04:28.713Z</time>
      </trkpt>
      <trkpt lat="44.21762" lon="5.75206">
        <ele>1395.2</ele>
        <time>2021-05-28T08:04:33.244Z</time>
      </trkpt>
      <trkpt lat="44.21746" lon="5.75196">
        <ele>1393.1</ele>
        <time>2021-05-28T08:04:35.075Z</time>
      </trkpt>
      <trkpt lat="44.21708" lon="5.75209">
        <ele>1387.2</ele>
        <time>2021-05-28T08:04:39.162Z</time>
      </trkpt>
      <trkpt lat="44.21683" lon="5.75224">
        <ele>1382.2</ele>
        <time>2021-05-28T08:04:42.004Z</time>
      </trkpt>
      <trkpt lat="44.2167" lon="5.75274">
        <ele>1375.1</ele>
        <time>2021-05-28T08:04:45.985Z</time>
      </trkpt>
      <trkpt lat="44.21699" lon="5.75318">
        <ele>1377.1</ele>
        <time>2021-05-28T08:05:04.003Z</time>
      </trkpt>
      <trkpt lat="44.21704" lon="5.75347">
        <ele>1377.6</ele>
        <time>2021-05-28T08:05:10.689Z</time>
      </trkpt>
      <trkpt lat="44.21681" lon="5.75339">
        <ele>1371.9</ele>
        <time>2021-05-28T08:05:13.165Z</time>
      </trkpt>
      <trkpt lat="44.21658" lon="5.75342">
        <ele>1366.6</ele>
        <time>2021-05-28T08:05:15.578Z</time>
      </trkpt>
      <trkpt lat="44.21614" lon="5.75378">
        <ele>1357.2</ele>
        <time>2021-05-28T08:05:20.905Z</time>
      </trkpt>
      <trkpt lat="44.21595" lon="5.75389">
        <ele>1352.2</ele>
        <time>2021-05-28T08:05:23.054Z</time>
      </trkpt>
      <trkpt lat="44.21593" lon="5.75334">
        <ele>1348.6</ele>
        <time>2021-05-28T08:05:27.176Z</time>
      </trkpt>
      <trkpt lat="44.21571" lon="5.75313">
        <ele>1345.9</ele>
        <time>2021-05-28T08:05:29.960Z</time>
      </trkpt>
      <trkpt lat="44.21537" lon="5.7529">
        <ele>1341.5</ele>
        <time>2021-05-28T08:05:33.907Z</time>
      </trkpt>
      <trkpt lat="44.21503" lon="5.75284">
        <ele>1334.7</ele>
        <time>2021-05-28T08:05:37.486Z</time>
      </trkpt>
      <trkpt lat="44.21467" lon="5.75292">
        <ele>1325.1</ele>
        <time>2021-05-28T08:05:41.294Z</time>
      </trkpt>
      <trkpt lat="44.21445" lon="5.75292">
        <ele>1320.3</ele>
        <time>2021-05-28T08:05:43.592Z</time>
      </trkpt>
      <trkpt lat="44.21431" lon="5.75261">
        <ele>1320.1</ele>
        <time>2021-05-28T08:05:48.140Z</time>
      </trkpt>
      <trkpt lat="44.21395" lon="5.75214">
        <ele>1313.5</ele>
        <time>2021-05-28T08:05:53.290Z</time>
      </trkpt>
      <trkpt lat="44.21386" lon="5.75175">
        <ele>1314.6</ele>
        <time>2021-05-28T08:06:04.276Z</time>
      </trkpt>
      <trkpt lat="44.21361" lon="5.75164">
        <ele>1307.6</ele>
        <time>2021-05-28T08:06:07.014Z</time>
      </trkpt>
      <trkpt lat="44.21334" lon="5.75183">
        <ele>1297.4</ele>
        <time>2021-05-28T08:06:10.172Z</time>
      </trkpt>
      <trkpt lat="44.21298" lon="5.75164">
        <ele>1293.9</ele>
        <time>2021-05-28T08:06:14.192Z</time>
      </trkpt>
      <trkpt lat="44.21264" lon="5.75164">
        <ele>1289</ele>
        <time>2021-05-28T08:06:17.743Z</time>
      </trkpt>
      <trkpt lat="44.21262" lon="5.75162">
        <ele>1288.8</ele>
        <time>2021-05-28T08:06:18.000Z</time>
      </trkpt>
      <trkpt lat="44.21236" lon="5.75181">
        <ele>1289.2</ele>
        <time>2021-05-28T08:06:26.242Z</time>
      </trkpt>
      <trkpt lat="44.21212" lon="5.75233">
        <ele>1287.5</ele>
        <time>2021-05-28T08:06:31.643Z</time>
      </trkpt>
      <trkpt lat="44.2119" lon="5.75272">
        <ele>1287.8</ele>
        <time>2021-05-28T08:06:41.117Z</time>
      </trkpt>
      <trkpt lat="44.21158" lon="5.75321">
        <ele>1290.7</ele>
        <time>2021-05-28T08:07:03.125Z</time>
      </trkpt>
      <trkpt lat="44.21136" lon="5.75366">
        <ele>1289.5</ele>
        <time>2021-05-28T08:07:08.259Z</time>
      </trkpt>
      <trkpt lat="44.2111" lon="5.75432">
        <ele>1284.4</ele>
        <time>2021-05-28T08:07:13.897Z</time>
      </trkpt>
      <trkpt lat="44.21091" lon="5.75443">
        <ele>1287</ele>
        <time>2021-05-28T08:07:31.594Z</time>
      </trkpt>
      <trkpt lat="44.21054" lon="5.75439">
        <ele>1291.3</ele>
        <time>2021-05-28T08:07:59.649Z</time>
      </trkpt>
      <trkpt lat="44.21009" lon="5.7545">
        <ele>1294</ele>
        <time>2021-05-28T08:08:20.525Z</time>
      </trkpt>
      <trkpt lat="44.20973" lon="5.75486">
        <ele>1289.9</ele>
        <time>2021-05-28T08:08:25.151Z</time>
      </trkpt>
      <trkpt lat="44.20992" lon="5.75504">
        <ele>1289.9</ele>
        <time>2021-05-28T08:08:30.795Z</time>
      </trkpt>
      <trkpt lat="44.21009" lon="5.75592">
        <ele>1298.6</ele>
        <time>2021-05-28T08:09:32.487Z</time>
      </trkpt>
      <trkpt lat="44.21016" lon="5.75625">
        <ele>1301</ele>
        <time>2021-05-28T08:09:47.846Z</time>
      </trkpt>
      <trkpt lat="44.20994" lon="5.75888">
        <ele>1338</ele>
        <time>2021-05-28T08:12:47.749Z</time>
      </trkpt>
      <trkpt lat="44.20982" lon="5.75908">
        <ele>1340.7</ele>
        <time>2021-05-28T08:13:05.470Z</time>
      </trkpt>
      <trkpt lat="44.2098" lon="5.75941">
        <ele>1344.9</ele>
        <time>2021-05-28T08:13:27.971Z</time>
      </trkpt>
      <trkpt lat="44.20968" lon="5.76006">
        <ele>1353</ele>
        <time>2021-05-28T08:14:13.576Z</time>
      </trkpt>
      <trkpt lat="44.20933" lon="5.76074">
        <ele>1359.7</ele>
        <time>2021-05-28T08:14:56.837Z</time>
      </trkpt>
      <trkpt lat="44.20907" lon="5.76149">
        <ele>1367.4</ele>
        <time>2021-05-28T08:15:49.990Z</time>
      </trkpt>
      <trkpt lat="44.20883" lon="5.76257">
        <ele>1380.6</ele>
        <time>2021-05-28T08:17:06.816Z</time>
      </trkpt>
      <trkpt lat="44.20868" lon="5.76398">
        <ele>1412.6</ele>
        <time>2021-05-28T08:18:43.667Z</time>
      </trkpt>
      <trkpt lat="44.20854" lon="5.76465">
        <ele>1429.6</ele>
        <time>2021-05-28T08:19:31.085Z</time>
      </trkpt>
      <trkpt lat="44.20843" lon="5.7649">
        <ele>1437.9</ele>
        <time>2021-05-28T08:19:51.016Z</time>
      </trkpt>
      <trkpt lat="44.20837" lon="5.76525">
        <ele>1446.1</ele>
        <time>2021-05-28T08:20:15.467Z</time>
      </trkpt>
      <trkpt lat="44.20821" lon="5.76559">
        <ele>1452.9</ele>
        <time>2021-05-28T08:20:43.102Z</time>
      </trkpt>
      <trkpt lat="44.20805" lon="5.76565">
        <ele>1454.1</ele>
        <time>2021-05-28T08:20:51.448Z</time>
      </trkpt>
      <trkpt lat="44.20803" lon="5.76595">
        <ele>1460.7</ele>
        <time>2021-05-28T08:21:11.919Z</time>
      </trkpt>
      <trkpt lat="44.20773" lon="5.76624">
        <ele>1470</ele>
        <time>2021-05-28T08:21:46.515Z</time>
      </trkpt>
      <trkpt lat="44.20776" lon="5.76652">
        <ele>1477.1</ele>
        <time>2021-05-28T08:22:05.752Z</time>
      </trkpt>
      <trkpt lat="44.20769" lon="5.76649">
        <ele>1477.2</ele>
        <time>2021-05-28T08:22:07.808Z</time>
      </trkpt>
      <trkpt lat="44.20757" lon="5.76674">
        <ele>1485.4</ele>
        <time>2021-05-28T08:22:28.252Z</time>
      </trkpt>
      <trkpt lat="44.20752" lon="5.76704">
        <ele>1492.6</ele>
        <time>2021-05-28T08:22:49.179Z</time>
      </trkpt>
      <trkpt lat="44.20751" lon="5.76716">
        <ele>1495.4</ele>
        <time>2021-05-28T08:22:57.387Z</time>
      </trkpt>
      <trkpt lat="44.20744" lon="5.76719">
        <ele>1494.5</ele>
        <time>2021-05-28T08:22:58.152Z</time>
      </trkpt>
      <trkpt lat="44.20724" lon="5.76775">
        <ele>1500.3</ele>
        <time>2021-05-28T08:23:38.280Z</time>
      </trkpt>
      <trkpt lat="44.20724" lon="5.76795">
        <ele>1504</ele>
        <time>2021-05-28T08:23:51.869Z</time>
      </trkpt>
      <trkpt lat="44.20717" lon="5.76819">
        <ele>1507.2</ele>
        <time>2021-05-28T08:24:09.475Z</time>
      </trkpt>
      <trkpt lat="44.207" lon="5.76838">
        <ele>1508</ele>
        <time>2021-05-28T08:24:17.541Z</time>
      </trkpt>
      <trkpt lat="44.20692" lon="5.76856">
        <ele>1510.9</ele>
        <time>2021-05-28T08:24:31.932Z</time>
      </trkpt>
      <trkpt lat="44.20682" lon="5.76933">
        <ele>1528.4</ele>
        <time>2021-05-28T08:25:25.103Z</time>
      </trkpt>
      <trkpt lat="44.20685" lon="5.76963">
        <ele>1535.3</ele>
        <time>2021-05-28T08:25:45.684Z</time>
      </trkpt>
      <trkpt lat="44.2068" lon="5.76969">
        <ele>1536.6</ele>
        <time>2021-05-28T08:25:51.936Z</time>
      </trkpt>
      <trkpt lat="44.20662" lon="5.77061">
        <ele>1557.2</ele>
        <time>2021-05-28T08:26:56.733Z</time>
      </trkpt>
      <trkpt lat="44.20663" lon="5.77072">
        <ele>1560.5</ele>
        <time>2021-05-28T08:27:04.268Z</time>
      </trkpt>
      <trkpt lat="44.2067" lon="5.771">
        <ele>1567</ele>
        <time>2021-05-28T08:27:24.417Z</time>
      </trkpt>
      <trkpt lat="44.2066" lon="5.7713">
        <ele>1570.7</ele>
        <time>2021-05-28T08:27:46.897Z</time>
      </trkpt>
      <trkpt lat="44.20633" lon="5.7719">
        <ele>1574</ele>
        <time>2021-05-28T08:28:11.094Z</time>
      </trkpt>
      <trkpt lat="44.20616" lon="5.77261">
        <ele>1581.7</ele>
        <time>2021-05-28T08:29:01.956Z</time>
      </trkpt>
      <trkpt lat="44.20569" lon="5.77376">
        <ele>1594.3</ele>
        <time>2021-05-28T08:30:31.063Z</time>
      </trkpt>
      <trkpt lat="44.20565" lon="5.77413">
        <ele>1594.5</ele>
        <time>2021-05-28T08:30:38.138Z</time>
      </trkpt>
      <trkpt lat="44.20556" lon="5.77505">
        <ele>1579.3</ele>
        <time>2021-05-28T08:30:45.090Z</time>
      </trkpt>
      <trkpt lat="44.20561" lon="5.77525">
        <ele>1577.5</ele>
        <time>2021-05-28T08:30:46.675Z</time>
      </trkpt>
      <trkpt lat="44.20576" lon="5.77604">
        <ele>1567.2</ele>
        <time>2021-05-28T08:30:52.794Z</time>
      </trkpt>
      <trkpt lat="44.20571" lon="5.77646">
        <ele>1550.7</ele>
        <time>2021-05-28T08:30:55.982Z</time>
      </trkpt>
      <trkpt lat="44.20589" lon="5.77681">
        <ele>1544.8</ele>
        <time>2021-05-28T08:30:59.207Z</time>
      </trkpt>
      <trkpt lat="44.20628" lon="5.7774">
        <ele>1524.3</ele>
        <time>2021-05-28T08:31:05.216Z</time>
      </trkpt>
      <trkpt lat="44.20635" lon="5.77741">
        <ele>1524.8</ele>
        <time>2021-05-28T08:31:08.723Z</time>
      </trkpt>
      <trkpt lat="44.20638" lon="5.77794">
        <ele>1503.5</ele>
        <time>2021-05-28T08:31:12.704Z</time>
      </trkpt>
      <trkpt lat="44.2065" lon="5.77808">
        <ele>1501</ele>
        <time>2021-05-28T08:31:14.338Z</time>
      </trkpt>
      <trkpt lat="44.20669" lon="5.77772">
        <ele>1518</ele>
        <time>2021-05-28T08:31:44.714Z</time>
      </trkpt>
      <trkpt lat="44.20694" lon="5.77752">
        <ele>1521.1</ele>
        <time>2021-05-28T08:32:04.597Z</time>
      </trkpt>
      <trkpt lat="44.2071" lon="5.77748">
        <ele>1519.7</ele>
        <time>2021-05-28T08:32:06.295Z</time>
      </trkpt>
      <trkpt lat="44.20727" lon="5.77753">
        <ele>1515.6</ele>
        <time>2021-05-28T08:32:08.110Z</time>
      </trkpt>
      <trkpt lat="44.20752" lon="5.7777">
        <ele>1506.4</ele>
        <time>2021-05-28T08:32:11.014Z</time>
      </trkpt>
      <trkpt lat="44.20762" lon="5.77795">
        <ele>1495.7</ele>
        <time>2021-05-28T08:32:13.158Z</time>
      </trkpt>
      <trkpt lat="44.20787" lon="5.7782">
        <ele>1480.4</ele>
        <time>2021-05-28T08:32:16.371Z</time>
      </trkpt>
      <trkpt lat="44.20812" lon="5.77861">
        <ele>1458</ele>
        <time>2021-05-28T08:32:20.401Z</time>
      </trkpt>
      <trkpt lat="44.20813" lon="5.77916">
        <ele>1436.7</ele>
        <time>2021-05-28T08:32:24.520Z</time>
      </trkpt>
      <trkpt lat="44.20822" lon="5.7794">
        <ele>1426.6</ele>
        <time>2021-05-28T08:32:26.547Z</time>
      </trkpt>
      <trkpt lat="44.20825" lon="5.77963">
        <ele>1417.8</ele>
        <time>2021-05-28T08:32:28.298Z</time>
      </trkpt>
      <trkpt lat="44.20821" lon="5.77974">
        <ele>1414.6</ele>
        <time>2021-05-28T08:32:29.221Z</time>
      </trkpt>
      <trkpt lat="44.20819" lon="5.78014">
        <ele>1401.8</ele>
        <time>2021-05-28T08:32:32.223Z</time>
      </trkpt>
      <trkpt lat="44.20829" lon="5.78056">
        <ele>1389.3</ele>
        <time>2021-05-28T08:32:35.537Z</time>
      </trkpt>
      <trkpt lat="44.20829" lon="5.7807">
        <ele>1385.6</ele>
        <time>2021-05-28T08:32:36.585Z</time>
      </trkpt>
      <trkpt lat="44.20852" lon="5.78144">
        <ele>1371.3</ele>
        <time>2021-05-28T08:32:42.623Z</time>
      </trkpt>
      <trkpt lat="44.20839" lon="5.78168">
        <ele>1370.6</ele>
        <time>2021-05-28T08:32:45.409Z</time>
      </trkpt>
      <trkpt lat="44.2082" lon="5.7819">
        <ele>1371.7</ele>
        <time>2021-05-28T08:32:55.653Z</time>
      </trkpt>
      <trkpt lat="44.20802" lon="5.78178">
        <ele>1368.4</ele>
        <time>2021-05-28T08:32:57.737Z</time>
      </trkpt>
      <trkpt lat="44.20791" lon="5.78162">
        <ele>1367.9</ele>
        <time>2021-05-28T08:32:59.811Z</time>
      </trkpt>
      <trkpt lat="44.20782" lon="5.78164">
        <ele>1366.6</ele>
        <time>2021-05-28T08:33:00.762Z</time>
      </trkpt>
      <trkpt lat="44.20773" lon="5.78216">
        <ele>1363</ele>
        <time>2021-05-28T08:33:04.767Z</time>
      </trkpt>
      <trkpt lat="44.20766" lon="5.78226">
        <ele>1360.7</ele>
        <time>2021-05-28T08:33:05.814Z</time>
      </trkpt>
      <trkpt lat="44.20746" lon="5.78262">
        <ele>1350.5</ele>
        <time>2021-05-28T08:33:09.224Z</time>
      </trkpt>
      <trkpt lat="44.20724" lon="5.78274">
        <ele>1340.2</ele>
        <time>2021-05-28T08:33:11.691Z</time>
      </trkpt>
      <trkpt lat="44.20709" lon="5.78292">
        <ele>1331.4</ele>
        <time>2021-05-28T08:33:13.758Z</time>
      </trkpt>
      <trkpt lat="44.20709" lon="5.783">
        <ele>1330.1</ele>
        <time>2021-05-28T08:33:14.357Z</time>
      </trkpt>
      <trkpt lat="44.20685" lon="5.78296">
        <ele>1321.7</ele>
        <time>2021-05-28T08:33:16.881Z</time>
      </trkpt>
      <trkpt lat="44.20673" lon="5.78315">
        <ele>1313.7</ele>
        <time>2021-05-28T08:33:18.777Z</time>
      </trkpt>
      <trkpt lat="44.20644" lon="5.78305">
        <ele>1309.3</ele>
        <time>2021-05-28T08:33:21.897Z</time>
      </trkpt>
      <trkpt lat="44.20663" lon="5.78393">
        <ele>1295.2</ele>
        <time>2021-05-28T08:33:28.778Z</time>
      </trkpt>
      <trkpt lat="44.20659" lon="5.78411">
        <ele>1290.9</ele>
        <time>2021-05-28T08:33:30.189Z</time>
      </trkpt>
      <trkpt lat="44.20665" lon="5.78457">
        <ele>1283.9</ele>
        <time>2021-05-28T08:33:33.690Z</time>
      </trkpt>
      <trkpt lat="44.2066" lon="5.78481">
        <ele>1278.9</ele>
        <time>2021-05-28T08:33:35.561Z</time>
      </trkpt>
      <trkpt lat="44.20641" lon="5.78492">
        <ele>1273.5</ele>
        <time>2021-05-28T08:33:37.710Z</time>
      </trkpt>
      <trkpt lat="44.20616" lon="5.78483">
        <ele>1270.4</ele>
        <time>2021-05-28T08:33:40.406Z</time>
      </trkpt>
      <trkpt lat="44.20608" lon="5.78491">
        <ele>1267.4</ele>
        <time>2021-05-28T08:33:41.434Z</time>
      </trkpt>
      <trkpt lat="44.20626" lon="5.78544">
        <ele>1257.8</ele>
        <time>2021-05-28T08:33:45.825Z</time>
      </trkpt>
      <trkpt lat="44.20634" lon="5.78557">
        <ele>1255.9</ele>
        <time>2021-05-28T08:33:47.108Z</time>
      </trkpt>
      <trkpt lat="44.20669" lon="5.78577">
        <ele>1257.4</ele>
        <time>2021-05-28T08:34:01.706Z</time>
      </trkpt>
      <trkpt lat="44.20659" lon="5.78614">
        <ele>1246.3</ele>
        <time>2021-05-28T08:34:04.666Z</time>
      </trkpt>
      <trkpt lat="44.20652" lon="5.78625">
        <ele>1242.4</ele>
        <time>2021-05-28T08:34:05.767Z</time>
      </trkpt>
      <trkpt lat="44.20657" lon="5.78652">
        <ele>1236.9</ele>
        <time>2021-05-28T08:34:07.855Z</time>
      </trkpt>
      <trkpt lat="44.20671" lon="5.78688">
        <ele>1231.8</ele>
        <time>2021-05-28T08:34:10.922Z</time>
      </trkpt>
      <trkpt lat="44.2069" lon="5.78718">
        <ele>1230.9</ele>
        <time>2021-05-28T08:34:14.671Z</time>
      </trkpt>
      <trkpt lat="44.20691" lon="5.7873">
        <ele>1228.4</ele>
        <time>2021-05-28T08:34:15.575Z</time>
      </trkpt>
      <trkpt lat="44.20679" lon="5.78759">
        <ele>1218.8</ele>
        <time>2021-05-28T08:34:18.082Z</time>
      </trkpt>
      <trkpt lat="44.2065" lon="5.78803">
        <ele>1206.6</ele>
        <time>2021-05-28T08:34:22.557Z</time>
      </trkpt>
      <trkpt lat="44.20645" lon="5.78876">
        <ele>1194.1</ele>
        <time>2021-05-28T08:34:28.048Z</time>
      </trkpt>
      <trkpt lat="44.20652" lon="5.78912">
        <ele>1189.1</ele>
        <time>2021-05-28T08:34:30.840Z</time>
      </trkpt>
      <trkpt lat="44.20574" lon="5.7893">
        <ele>1170.9</ele>
        <time>2021-05-28T08:34:39.098Z</time>
      </trkpt>
      <trkpt lat="44.20524" lon="5.78941">
        <ele>1158.2</ele>
        <time>2021-05-28T08:34:44.385Z</time>
      </trkpt>
      <trkpt lat="44.20502" lon="5.78936">
        <ele>1154.7</ele>
        <time>2021-05-28T08:34:46.713Z</time>
      </trkpt>
      <trkpt lat="44.2052" lon="5.78977">
        <ele>1150</ele>
        <time>2021-05-28T08:34:50.313Z</time>
      </trkpt>
      <trkpt lat="44.20527" lon="5.79035">
        <ele>1138.9</ele>
        <time>2021-05-28T08:34:54.716Z</time>
      </trkpt>
      <trkpt lat="44.20505" lon="5.78995">
        <ele>1143.8</ele>
        <time>2021-05-28T08:35:28.974Z</time>
      </trkpt>
      <trkpt lat="44.20461" lon="5.78976">
        <ele>1139.4</ele>
        <time>2021-05-28T08:35:33.785Z</time>
      </trkpt>
      <trkpt lat="44.20454" lon="5.78964">
        <ele>1140</ele>
        <time>2021-05-28T08:35:38.682Z</time>
      </trkpt>
      <trkpt lat="44.20439" lon="5.78905">
        <ele>1145.7</ele>
        <time>2021-05-28T08:36:17.609Z</time>
      </trkpt>
      <trkpt lat="44.20411" lon="5.7885">
        <ele>1145.7</ele>
        <time>2021-05-28T08:36:29.493Z</time>
      </trkpt>
      <trkpt lat="44.20408" lon="5.78824">
        <ele>1149.2</ele>
        <time>2021-05-28T08:36:47.387Z</time>
      </trkpt>
      <trkpt lat="44.20395" lon="5.78791">
        <ele>1153.8</ele>
        <time>2021-05-28T08:37:12.973Z</time>
      </trkpt>
      <trkpt lat="44.2035" lon="5.78737">
        <ele>1154.3</ele>
        <time>2021-05-28T08:37:28.780Z</time>
      </trkpt>
      <trkpt lat="44.20332" lon="5.78722">
        <ele>1153.1</ele>
        <time>2021-05-28T08:37:30.941Z</time>
      </trkpt>
      <trkpt lat="44.20323" lon="5.78703">
        <ele>1155.5</ele>
        <time>2021-05-28T08:37:46.416Z</time>
      </trkpt>
      <trkpt lat="44.20291" lon="5.7866">
        <ele>1157.5</ele>
        <time>2021-05-28T08:38:04.904Z</time>
      </trkpt>
      <trkpt lat="44.20282" lon="5.78625">
        <ele>1161.5</ele>
        <time>2021-05-28T08:38:30.171Z</time>
      </trkpt>
      <trkpt lat="44.20268" lon="5.78599">
        <ele>1162.6</ele>
        <time>2021-05-28T08:38:40.006Z</time>
      </trkpt>
      <trkpt lat="44.20259" lon="5.78592">
        <ele>1161.7</ele>
        <time>2021-05-28T08:38:41.083Z</time>
      </trkpt>
      <trkpt lat="44.20229" lon="5.78544">
        <ele>1166.6</ele>
        <time>2021-05-28T08:39:12.503Z</time>
      </trkpt>
      <trkpt lat="44.20203" lon="5.78525">
        <ele>1167.5</ele>
        <time>2021-05-28T08:39:22.533Z</time>
      </trkpt>
      <trkpt lat="44.20182" lon="5.78523">
        <ele>1165.2</ele>
        <time>2021-05-28T08:39:24.731Z</time>
      </trkpt>
      <trkpt lat="44.20156" lon="5.78497">
        <ele>1168.3</ele>
        <time>2021-05-28T08:39:44.577Z</time>
      </trkpt>
      <trkpt lat="44.2014" lon="5.78469">
        <ele>1172.8</ele>
        <time>2021-05-28T08:40:08.908Z</time>
      </trkpt>
      <trkpt lat="44.20135" lon="5.78447">
        <ele>1177.4</ele>
        <time>2021-05-28T08:40:24.591Z</time>
      </trkpt>
      <trkpt lat="44.20134" lon="5.78411">
        <ele>1185.5</ele>
        <time>2021-05-28T08:40:49.073Z</time>
      </trkpt>
      <trkpt lat="44.20114" lon="5.78351">
        <ele>1193.7</ele>
        <time>2021-05-28T08:41:34.037Z</time>
      </trkpt>
      <trkpt lat="44.20114" lon="5.78335">
        <ele>1196.5</ele>
        <time>2021-05-28T08:41:44.909Z</time>
      </trkpt>
      <trkpt lat="44.20143" lon="5.78332">
        <ele>1201.6</ele>
        <time>2021-05-28T08:42:12.473Z</time>
      </trkpt>
      <trkpt lat="44.20159" lon="5.7831">
        <ele>1208.3</ele>
        <time>2021-05-28T08:42:33.769Z</time>
      </trkpt>
      <trkpt lat="44.20231" lon="5.78258">
        <ele>1228.4</ele>
        <time>2021-05-28T08:43:50.622Z</time>
      </trkpt>
      <trkpt lat="44.20275" lon="5.7825">
        <ele>1239</ele>
        <time>2021-05-28T08:44:32.681Z</time>
      </trkpt>
      <trkpt lat="44.20294" lon="5.78254">
        <ele>1242.7</ele>
        <time>2021-05-28T08:44:50.895Z</time>
      </trkpt>
      <trkpt lat="44.20318" lon="5.78273">
        <ele>1244.5</ele>
        <time>2021-05-28T08:45:04.067Z</time>
      </trkpt>
      <trkpt lat="44.20331" lon="5.78292">
        <ele>1243.8</ele>
        <time>2021-05-28T08:45:06.387Z</time>
      </trkpt>
      <trkpt lat="44.2035" lon="5.78306">
        <ele>1245.6</ele>
        <time>2021-05-28T08:45:18.244Z</time>
      </trkpt>
      <trkpt lat="44.20384" lon="5.78295">
        <ele>1256.3</ele>
        <time>2021-05-28T08:45:51.327Z</time>
      </trkpt>
      <trkpt lat="44.20465" lon="5.78327">
        <ele>1270</ele>
        <time>2021-05-28T08:47:11.125Z</time>
      </trkpt>
      <trkpt lat="44.2047" lon="5.78316">
        <ele>1273.6</ele>
        <time>2021-05-28T08:47:19.976Z</time>
      </trkpt>
      <trkpt lat="44.20454" lon="5.78275">
        <ele>1277.8</ele>
        <time>2021-05-28T08:47:48.436Z</time>
      </trkpt>
      <trkpt lat="44.20431" lon="5.78243">
        <ele>1279.2</ele>
        <time>2021-05-28T08:48:01.625Z</time>
      </trkpt>
      <trkpt lat="44.20418" lon="5.78211">
        <ele>1284.1</ele>
        <time>2021-05-28T08:48:26.618Z</time>
      </trkpt>
      <trkpt lat="44.20404" lon="5.78206">
        <ele>1282.1</ele>
        <time>2021-05-28T08:48:28.128Z</time>
      </trkpt>
      <trkpt lat="44.20389" lon="5.7819">
        <ele>1282.6</ele>
        <time>2021-05-28T08:48:34.254Z</time>
      </trkpt>
      <trkpt lat="44.20357" lon="5.7817">
        <ele>1280.5</ele>
        <time>2021-05-28T08:48:37.791Z</time>
      </trkpt>
      <trkpt lat="44.20349" lon="5.78159">
        <ele>1281.8</ele>
        <time>2021-05-28T08:48:46.269Z</time>
      </trkpt>
      <trkpt lat="44.20342" lon="5.78081">
        <ele>1302.2</ele>
        <time>2021-05-28T08:49:39.684Z</time>
      </trkpt>
      <trkpt lat="44.20321" lon="5.78059">
        <ele>1301.3</ele>
        <time>2021-05-28T08:49:43.015Z</time>
      </trkpt>
      <trkpt lat="44.20312" lon="5.77996">
        <ele>1312.1</ele>
        <time>2021-05-28T08:50:26.666Z</time>
      </trkpt>
      <trkpt lat="44.20315" lon="5.77938">
        <ele>1323</ele>
        <time>2021-05-28T08:51:06.180Z</time>
      </trkpt>
      <trkpt lat="44.20311" lon="5.77912">
        <ele>1327.2</ele>
        <time>2021-05-28T08:51:24.250Z</time>
      </trkpt>
      <trkpt lat="44.20282" lon="5.77858">
        <ele>1337.3</ele>
        <time>2021-05-28T08:52:10.098Z</time>
      </trkpt>
      <trkpt lat="44.20265" lon="5.77882">
        <ele>1327.8</ele>
        <time>2021-05-28T08:52:12.624Z</time>
      </trkpt>
      <trkpt lat="44.20259" lon="5.77907">
        <ele>1319.5</ele>
        <time>2021-05-28T08:52:14.598Z</time>
      </trkpt>
      <trkpt lat="44.20227" lon="5.77937">
        <ele>1307.8</ele>
        <time>2021-05-28T08:52:18.625Z</time>
      </trkpt>
      <trkpt lat="44.20198" lon="5.77938">
        <ele>1304.6</ele>
        <time>2021-05-28T08:52:21.655Z</time>
      </trkpt>
      <trkpt lat="44.20167" lon="5.77927">
        <ele>1304.8</ele>
        <time>2021-05-28T08:52:29.993Z</time>
      </trkpt>
      <trkpt lat="44.20129" lon="5.7794">
        <ele>1298.5</ele>
        <time>2021-05-28T08:52:34.080Z</time>
      </trkpt>
      <trkpt lat="44.20114" lon="5.7796">
        <ele>1291.3</ele>
        <time>2021-05-28T08:52:36.247Z</time>
      </trkpt>
      <trkpt lat="44.20063" lon="5.78005">
        <ele>1273.2</ele>
        <time>2021-05-28T08:52:42.550Z</time>
      </trkpt>
      <trkpt lat="44.20037" lon="5.78007">
        <ele>1269.8</ele>
        <time>2021-05-28T08:52:45.270Z</time>
      </trkpt>
      <trkpt lat="44.1998" lon="5.78129">
        <ele>1238.3</ele>
        <time>2021-05-28T08:52:56.174Z</time>
      </trkpt>
      <trkpt lat="44.19966" lon="5.78145">
        <ele>1233.8</ele>
        <time>2021-05-28T08:52:58.064Z</time>
      </trkpt>
      <trkpt lat="44.19934" lon="5.78144">
        <ele>1233.4</ele>
        <time>2021-05-28T08:53:03.260Z</time>
      </trkpt>
      <trkpt lat="44.19912" lon="5.78117">
        <ele>1235.9</ele>
        <time>2021-05-28T08:53:19.642Z</time>
      </trkpt>
      <trkpt lat="44.19909" lon="5.78104">
        <ele>1237.2</ele>
        <time>2021-05-28T08:53:28.836Z</time>
      </trkpt>
      <trkpt lat="44.19897" lon="5.78077">
        <ele>1238.7</ele>
        <time>2021-05-28T08:53:39.757Z</time>
      </trkpt>
      <trkpt lat="44.19874" lon="5.78039">
        <ele>1238</ele>
        <time>2021-05-28T08:53:45.059Z</time>
      </trkpt>
      <trkpt lat="44.19862" lon="5.78027">
        <ele>1237.4</ele>
        <time>2021-05-28T08:53:46.819Z</time>
      </trkpt>
      <trkpt lat="44.19841" lon="5.7804">
        <ele>1234</ele>
        <time>2021-05-28T08:53:49.218Z</time>
      </trkpt>
      <trkpt lat="44.19814" lon="5.78078">
        <ele>1235.3</ele>
        <time>2021-05-28T08:54:02.888Z</time>
      </trkpt>
      <trkpt lat="44.19815" lon="5.78103">
        <ele>1231.5</ele>
        <time>2021-05-28T08:54:04.763Z</time>
      </trkpt>
      <trkpt lat="44.19804" lon="5.78161">
        <ele>1224.9</ele>
        <time>2021-05-28T08:54:09.255Z</time>
      </trkpt>
      <trkpt lat="44.19813" lon="5.78168">
        <ele>1221.7</ele>
        <time>2021-05-28T08:54:10.332Z</time>
      </trkpt>
      <trkpt lat="44.19818" lon="5.78199">
        <ele>1215.8</ele>
        <time>2021-05-28T08:54:12.711Z</time>
      </trkpt>
      <trkpt lat="44.19816" lon="5.7822">
        <ele>1213.1</ele>
        <time>2021-05-28T08:54:14.297Z</time>
      </trkpt>
      <trkpt lat="44.19823" lon="5.78227">
        <ele>1210.2</ele>
        <time>2021-05-28T08:54:15.197Z</time>
      </trkpt>
      <trkpt lat="44.19838" lon="5.78287">
        <ele>1197.8</ele>
        <time>2021-05-28T08:54:19.955Z</time>
      </trkpt>
      <trkpt lat="44.19843" lon="5.78311">
        <ele>1193.3</ele>
        <time>2021-05-28T08:54:21.827Z</time>
      </trkpt>
      <trkpt lat="44.19839" lon="5.78334">
        <ele>1189.4</ele>
        <time>2021-05-28T08:54:23.599Z</time>
      </trkpt>
      <trkpt lat="44.19838" lon="5.78386">
        <ele>1183.7</ele>
        <time>2021-05-28T08:54:27.494Z</time>
      </trkpt>
      <trkpt lat="44.19829" lon="5.78391">
        <ele>1184.2</ele>
        <time>2021-05-28T08:54:31.701Z</time>
      </trkpt>
      <trkpt lat="44.19785" lon="5.78423">
        <ele>1183.3</ele>
        <time>2021-05-28T08:54:39.212Z</time>
      </trkpt>
      <trkpt lat="44.19777" lon="5.7843">
        <ele>1184.1</ele>
        <time>2021-05-28T08:54:44.465Z</time>
      </trkpt>
      <trkpt lat="44.19742" lon="5.78461">
        <ele>1185.8</ele>
        <time>2021-05-28T08:55:00.782Z</time>
      </trkpt>
      <trkpt lat="44.19681" lon="5.78467">
        <ele>1174.3</ele>
        <time>2021-05-28T08:55:07.169Z</time>
      </trkpt>
      <trkpt lat="44.19652" lon="5.7848">
        <ele>1161.9</ele>
        <time>2021-05-28T08:55:10.350Z</time>
      </trkpt>
      <trkpt lat="44.19632" lon="5.78568">
        <ele>1150.6</ele>
        <time>2021-05-28T08:55:17.263Z</time>
      </trkpt>
      <trkpt lat="44.19624" lon="5.7857">
        <ele>1145.7</ele>
        <time>2021-05-28T08:55:18.112Z</time>
      </trkpt>
      <trkpt lat="44.19552" lon="5.78673">
        <ele>1123.2</ele>
        <time>2021-05-28T08:55:28.884Z</time>
      </trkpt>
      <trkpt lat="44.19512" lon="5.78715">
        <ele>1104.5</ele>
        <time>2021-05-28T08:55:34.114Z</time>
      </trkpt>
      <trkpt lat="44.19513" lon="5.78695">
        <ele>1102.5</ele>
        <time>2021-05-28T08:55:35.615Z</time>
      </trkpt>
      <trkpt lat="44.19502" lon="5.78701">
        <ele>1096.4</ele>
        <time>2021-05-28T08:55:36.849Z</time>
      </trkpt>
      <trkpt lat="44.19475" lon="5.78706">
        <ele>1081.6</ele>
        <time>2021-05-28T08:55:39.693Z</time>
      </trkpt>
      <trkpt lat="44.19457" lon="5.78744">
        <ele>1076</ele>
        <time>2021-05-28T08:55:43.104Z</time>
      </trkpt>
      <trkpt lat="44.19455" lon="5.78731">
        <ele>1073.3</ele>
        <time>2021-05-28T08:55:44.100Z</time>
      </trkpt>
      <trkpt lat="44.19436" lon="5.78753">
        <ele>1065.4</ele>
        <time>2021-05-28T08:55:46.679Z</time>
      </trkpt>
      <trkpt lat="44.19429" lon="5.78721">
        <ele>1057.5</ele>
        <time>2021-05-28T08:55:49.184Z</time>
      </trkpt>
      <trkpt lat="44.19412" lon="5.78737">
        <ele>1050.3</ele>
        <time>2021-05-28T08:55:51.326Z</time>
      </trkpt>
      <trkpt lat="44.19402" lon="5.78707">
        <ele>1042.2</ele>
        <time>2021-05-28T08:55:53.804Z</time>
      </trkpt>
      <trkpt lat="44.19404" lon="5.78683">
        <ele>1040.2</ele>
        <time>2021-05-28T08:55:55.613Z</time>
      </trkpt>
      <trkpt lat="44.19398" lon="5.78617">
        <ele>1034.4</ele>
        <time>2021-05-28T08:56:00.595Z</time>
      </trkpt>
      <trkpt lat="44.19395" lon="5.78614">
        <ele>1033.5</ele>
        <time>2021-05-28T08:56:00.981Z</time>
      </trkpt>
      <trkpt lat="44.19345" lon="5.78692">
        <ele>1014.4</ele>
        <time>2021-05-28T08:56:08.816Z</time>
      </trkpt>
      <trkpt lat="44.19342" lon="5.78705">
        <ele>1014.6</ele>
        <time>2021-05-28T08:56:11.776Z</time>
      </trkpt>
      <trkpt lat="44.19323" lon="5.78687">
        <ele>1006.2</ele>
        <time>2021-05-28T08:56:14.175Z</time>
      </trkpt>
      <trkpt lat="44.1927" lon="5.7869">
        <ele>994.7</ele>
        <time>2021-05-28T08:56:19.716Z</time>
      </trkpt>
      <trkpt lat="44.19241" lon="5.78712">
        <ele>986.2</ele>
        <time>2021-05-28T08:56:23.164Z</time>
      </trkpt>
      <trkpt lat="44.19235" lon="5.7873">
        <ele>982.5</ele>
        <time>2021-05-28T08:56:24.650Z</time>
      </trkpt>
      <trkpt lat="44.19186" lon="5.78755">
        <ele>968</ele>
        <time>2021-05-28T08:56:30.100Z</time>
      </trkpt>
      <trkpt lat="44.19143" lon="5.78777">
        <ele>961.1</ele>
        <time>2021-05-28T08:56:34.884Z</time>
      </trkpt>
      <trkpt lat="44.19078" lon="5.78843">
        <ele>942.7</ele>
        <time>2021-05-28T08:56:43.281Z</time>
      </trkpt>
      <trkpt lat="44.19075" lon="5.78853">
        <ele>942.3</ele>
        <time>2021-05-28T08:56:44.122Z</time>
      </trkpt>
      <trkpt lat="44.19058" lon="5.78874">
        <ele>939.4</ele>
        <time>2021-05-28T08:56:46.494Z</time>
      </trkpt>
      <trkpt lat="44.1904" lon="5.78886">
        <ele>935.4</ele>
        <time>2021-05-28T08:56:48.577Z</time>
      </trkpt>
      <trkpt lat="44.1903" lon="5.78884">
        <ele>933.8</ele>
        <time>2021-05-28T08:56:49.633Z</time>
      </trkpt>
      <trkpt lat="44.18988" lon="5.7892">
        <ele>921.7</ele>
        <time>2021-05-28T08:56:54.782Z</time>
      </trkpt>
      <trkpt lat="44.18964" lon="5.78942">
        <ele>920</ele>
        <time>2021-05-28T08:56:57.695Z</time>
      </trkpt>
      <trkpt lat="44.18944" lon="5.79006">
        <ele>913.3</ele>
        <time>2021-05-28T08:57:02.923Z</time>
      </trkpt>
      <trkpt lat="44.18936" lon="5.79013">
        <ele>910.9</ele>
        <time>2021-05-28T08:57:03.910Z</time>
      </trkpt>
      <trkpt lat="44.18931" lon="5.79051">
        <ele>905</ele>
        <time>2021-05-28T08:57:06.803Z</time>
      </trkpt>
      <trkpt lat="44.18921" lon="5.79072">
        <ele>899.1</ele>
        <time>2021-05-28T08:57:08.691Z</time>
      </trkpt>
      <trkpt lat="44.18893" lon="5.79084">
        <ele>893.7</ele>
        <time>2021-05-28T08:57:11.750Z</time>
      </trkpt>
      <trkpt lat="44.18862" lon="5.79128">
        <ele>888.7</ele>
        <time>2021-05-28T08:57:16.370Z</time>
      </trkpt>
      <trkpt lat="44.18818" lon="5.79131">
        <ele>882.6</ele>
        <time>2021-05-28T08:57:20.971Z</time>
      </trkpt>
      <trkpt lat="44.18782" lon="5.79168">
        <ele>874.8</ele>
        <time>2021-05-28T08:57:25.642Z</time>
      </trkpt>
      <trkpt lat="44.18782" lon="5.79168">
        <ele>874.8</ele>
        <time>2021-05-28T08:57:25.642Z</time>
      </trkpt>
      <trkpt lat="44.18766" lon="5.79157">
        <ele>874.3</ele>
        <time>2021-05-28T08:57:28.056Z</time>
      </trkpt>
      <trkpt lat="44.18735" lon="5.79155">
        <ele>871.6</ele>
        <time>2021-05-28T08:57:31.297Z</time>
      </trkpt>
      <trkpt lat="44.18723" lon="5.79142">
        <ele>872.5</ele>
        <time>2021-05-28T08:57:38.247Z</time>
      </trkpt>
      <trkpt lat="44.187" lon="5.79084">
        <ele>877.9</ele>
        <time>2021-05-28T08:58:13.268Z</time>
      </trkpt>
      <trkpt lat="44.1865" lon="5.79045">
        <ele>873.8</ele>
        <time>2021-05-28T08:58:19.252Z</time>
      </trkpt>
      <trkpt lat="44.18645" lon="5.79025">
        <ele>874.3</ele>
        <time>2021-05-28T08:58:24.595Z</time>
      </trkpt>
      <trkpt lat="44.18652" lon="5.78962">
        <ele>881.9</ele>
        <time>2021-05-28T08:59:07.928Z</time>
      </trkpt>
      <trkpt lat="44.18647" lon="5.78932">
        <ele>884.6</ele>
        <time>2021-05-28T08:59:25.949Z</time>
      </trkpt>
      <trkpt lat="44.18625" lon="5.78879">
        <ele>888.4</ele>
        <time>2021-05-28T08:59:50.758Z</time>
      </trkpt>
      <trkpt lat="44.18585" lon="5.78811">
        <ele>892.6</ele>
        <time>2021-05-28T09:00:21.165Z</time>
      </trkpt>
      <trkpt lat="44.18561" lon="5.78781">
        <ele>896.5</ele>
        <time>2021-05-28T09:00:47.063Z</time>
      </trkpt>
      <trkpt lat="44.18484" lon="5.78738">
        <ele>902.2</ele>
        <time>2021-05-28T09:01:27.687Z</time>
      </trkpt>
      <trkpt lat="44.18408" lon="5.78715">
        <ele>912.4</ele>
        <time>2021-05-28T09:02:39.055Z</time>
      </trkpt>
      <trkpt lat="44.18341" lon="5.78733">
        <ele>916.6</ele>
        <time>2021-05-28T09:03:10.776Z</time>
      </trkpt>
      <trkpt lat="44.1832" lon="5.78752">
        <ele>915.5</ele>
        <time>2021-05-28T09:03:13.670Z</time>
      </trkpt>
      <trkpt lat="44.18308" lon="5.78752">
        <ele>916.3</ele>
        <time>2021-05-28T09:03:19.458Z</time>
      </trkpt>
      <trkpt lat="44.18305" lon="5.78739">
        <ele>918</ele>
        <time>2021-05-28T09:03:28.741Z</time>
      </trkpt>
      <trkpt lat="44.18321" lon="5.78714">
        <ele>920.5</ele>
        <time>2021-05-28T09:03:44.727Z</time>
      </trkpt>
      <trkpt lat="44.1833" lon="5.78675">
        <ele>925.7</ele>
        <time>2021-05-28T09:04:12.575Z</time>
      </trkpt>
      <trkpt lat="44.18323" lon="5.78629">
        <ele>931.6</ele>
        <time>2021-05-28T09:04:44.540Z</time>
      </trkpt>
      <trkpt lat="44.18329" lon="5.78623">
        <ele>932.6</ele>
        <time>2021-05-28T09:04:51.538Z</time>
      </trkpt>
      <trkpt lat="44.18349" lon="5.78567">
        <ele>940.8</ele>
        <time>2021-05-28T09:05:34.063Z</time>
      </trkpt>
      <trkpt lat="44.18349" lon="5.78535">
        <ele>946.3</ele>
        <time>2021-05-28T09:05:55.815Z</time>
      </trkpt>
      <trkpt lat="44.18324" lon="5.78497">
        <ele>949.7</ele>
        <time>2021-05-28T09:06:17.727Z</time>
      </trkpt>
      <trkpt lat="44.18306" lon="5.78432">
        <ele>957</ele>
        <time>2021-05-28T09:07:05.090Z</time>
      </trkpt>
      <trkpt lat="44.18308" lon="5.78413">
        <ele>959.9</ele>
        <time>2021-05-28T09:07:18.143Z</time>
      </trkpt>
      <trkpt lat="44.18324" lon="5.78393">
        <ele>965.5</ele>
        <time>2021-05-28T09:07:38.511Z</time>
      </trkpt>
      <trkpt lat="44.18299" lon="5.78275">
        <ele>979.3</ele>
        <time>2021-05-28T09:09:02.147Z</time>
      </trkpt>
      <trkpt lat="44.18297" lon="5.78241">
        <ele>983.3</ele>
        <time>2021-05-28T09:09:25.336Z</time>
      </trkpt>
      <trkpt lat="44.18303" lon="5.78234">
        <ele>985.1</ele>
        <time>2021-05-28T09:09:32.752Z</time>
      </trkpt>
      <trkpt lat="44.18313" lon="5.78182">
        <ele>991.8</ele>
        <time>2021-05-28T09:10:09.347Z</time>
      </trkpt>
      <trkpt lat="44.18327" lon="5.78145">
        <ele>996.9</ele>
        <time>2021-05-28T09:10:37.784Z</time>
      </trkpt>
      <trkpt lat="44.18338" lon="5.78134">
        <ele>999.6</ele>
        <time>2021-05-28T09:10:50.614Z</time>
      </trkpt>
      <trkpt lat="44.18357" lon="5.78091">
        <ele>1004.4</ele>
        <time>2021-05-28T09:11:24.501Z</time>
      </trkpt>
      <trkpt lat="44.18397" lon="5.7804">
        <ele>1009.3</ele>
        <time>2021-05-28T09:11:56.177Z</time>
      </trkpt>
      <trkpt lat="44.18439" lon="5.78002">
        <ele>1015.1</ele>
        <time>2021-05-28T09:12:34.016Z</time>
      </trkpt>
      <trkpt lat="44.18457" lon="5.78005">
        <ele>1020.1</ele>
        <time>2021-05-28T09:12:51.199Z</time>
      </trkpt>
      <trkpt lat="44.18457" lon="5.7803">
        <ele>1022.4</ele>
        <time>2021-05-28T09:13:07.017Z</time>
      </trkpt>
      <trkpt lat="44.18437" lon="5.78111">
        <ele>1024</ele>
        <time>2021-05-28T09:13:26.844Z</time>
      </trkpt>
      <trkpt lat="44.1844" lon="5.78127">
        <ele>1025.4</ele>
        <time>2021-05-28T09:13:36.040Z</time>
      </trkpt>
      <trkpt lat="44.18466" lon="5.78102">
        <ele>1030.1</ele>
        <time>2021-05-28T09:14:05.976Z</time>
      </trkpt>
      <trkpt lat="44.18499" lon="5.78049">
        <ele>1034.3</ele>
        <time>2021-05-28T09:14:33.674Z</time>
      </trkpt>
      <trkpt lat="44.18524" lon="5.78007">
        <ele>1040.2</ele>
        <time>2021-05-28T09:15:10.776Z</time>
      </trkpt>
      <trkpt lat="44.18551" lon="5.77957">
        <ele>1045.7</ele>
        <time>2021-05-28T09:15:47.532Z</time>
      </trkpt>
      <trkpt lat="44.18556" lon="5.77926">
        <ele>1044.8</ele>
        <time>2021-05-28T09:15:50.278Z</time>
      </trkpt>
      <trkpt lat="44.18569" lon="5.77905">
        <ele>1048</ele>
        <time>2021-05-28T09:16:09.135Z</time>
      </trkpt>
      <trkpt lat="44.18595" lon="5.77879">
        <ele>1056.9</ele>
        <time>2021-05-28T09:16:39.461Z</time>
      </trkpt>
      <trkpt lat="44.18617" lon="5.77839">
        <ele>1063.8</ele>
        <time>2021-05-28T09:17:13.726Z</time>
      </trkpt>
      <trkpt lat="44.18621" lon="5.77783">
        <ele>1057.8</ele>
        <time>2021-05-28T09:17:17.941Z</time>
      </trkpt>
      <trkpt lat="44.18629" lon="5.77749">
        <ele>1057.1</ele>
        <time>2021-05-28T09:17:21.441Z</time>
      </trkpt>
      <trkpt lat="44.18656" lon="5.77695">
        <ele>1062.6</ele>
        <time>2021-05-28T09:17:57.393Z</time>
      </trkpt>
      <trkpt lat="44.18677" lon="5.77669">
        <ele>1069.9</ele>
        <time>2021-05-28T09:18:24.011Z</time>
      </trkpt>
      <trkpt lat="44.18697" lon="5.77591">
        <ele>1074</ele>
        <time>2021-05-28T09:18:53.170Z</time>
      </trkpt>
      <trkpt lat="44.18696" lon="5.77543">
        <ele>1070.2</ele>
        <time>2021-05-28T09:18:56.766Z</time>
      </trkpt>
      <trkpt lat="44.18714" lon="5.77481">
        <ele>1073.7</ele>
        <time>2021-05-28T09:19:21.028Z</time>
      </trkpt>
      <trkpt lat="44.18756" lon="5.77414">
        <ele>1078.6</ele>
        <time>2021-05-28T09:19:54.286Z</time>
      </trkpt>
      <trkpt lat="44.18711" lon="5.77419">
        <ele>1064.7</ele>
        <time>2021-05-28T09:19:59.001Z</time>
      </trkpt>
      <trkpt lat="44.18691" lon="5.77414">
        <ele>1057.5</ele>
        <time>2021-05-28T09:20:01.123Z</time>
      </trkpt>
      <trkpt lat="44.18685" lon="5.77399">
        <ele>1053.3</ele>
        <time>2021-05-28T09:20:02.410Z</time>
      </trkpt>
      <trkpt lat="44.18687" lon="5.77374">
        <ele>1050.2</ele>
        <time>2021-05-28T09:20:04.294Z</time>
      </trkpt>
      <trkpt lat="44.18679" lon="5.77365">
        <ele>1046.1</ele>
        <time>2021-05-28T09:20:05.367Z</time>
      </trkpt>
      <trkpt lat="44.18675" lon="5.77336">
        <ele>1040.3</ele>
        <time>2021-05-28T09:20:07.579Z</time>
      </trkpt>
      <trkpt lat="44.18657" lon="5.77327">
        <ele>1033</ele>
        <time>2021-05-28T09:20:09.576Z</time>
      </trkpt>
      <trkpt lat="44.18643" lon="5.77328">
        <ele>1029.5</ele>
        <time>2021-05-28T09:20:11.041Z</time>
      </trkpt>
      <trkpt lat="44.1861" lon="5.77355">
        <ele>1022.3</ele>
        <time>2021-05-28T09:20:15.037Z</time>
      </trkpt>
      <trkpt lat="44.18596" lon="5.77355">
        <ele>1017.8</ele>
        <time>2021-05-28T09:20:16.499Z</time>
      </trkpt>
      <trkpt lat="44.18587" lon="5.77344">
        <ele>1015</ele>
        <time>2021-05-28T09:20:17.749Z</time>
      </trkpt>
      <trkpt lat="44.18603" lon="5.77271">
        <ele>1013.8</ele>
        <time>2021-05-28T09:20:25.674Z</time>
      </trkpt>
      <trkpt lat="44.18601" lon="5.77241">
        <ele>1010.5</ele>
        <time>2021-05-28T09:20:27.931Z</time>
      </trkpt>
      <trkpt lat="44.18578" lon="5.77194">
        <ele>1001.2</ele>
        <time>2021-05-28T09:20:32.192Z</time>
      </trkpt>
      <trkpt lat="44.18575" lon="5.77168">
        <ele>997.1</ele>
        <time>2021-05-28T09:20:34.165Z</time>
      </trkpt>
      <trkpt lat="44.18584" lon="5.77121">
        <ele>994.1</ele>
        <time>2021-05-28T09:20:37.808Z</time>
      </trkpt>
      <trkpt lat="44.18586" lon="5.7706">
        <ele>987.6</ele>
        <time>2021-05-28T09:20:42.382Z</time>
      </trkpt>
      <trkpt lat="44.18581" lon="5.77015">
        <ele>982.3</ele>
        <time>2021-05-28T09:20:45.792Z</time>
      </trkpt>
      <trkpt lat="44.18584" lon="5.76981">
        <ele>979.4</ele>
        <time>2021-05-28T09:20:48.358Z</time>
      </trkpt>
      <trkpt lat="44.18579" lon="5.76962">
        <ele>977.1</ele>
        <time>2021-05-28T09:20:49.874Z</time>
      </trkpt>
      <trkpt lat="44.18592" lon="5.76911">
        <ele>973.4</ele>
        <time>2021-05-28T09:20:53.928Z</time>
      </trkpt>
      <trkpt lat="44.18591" lon="5.76896">
        <ele>972.4</ele>
        <time>2021-05-28T09:20:55.056Z</time>
      </trkpt>
      <trkpt lat="44.18598" lon="5.76886">
        <ele>971.6</ele>
        <time>2021-05-28T09:20:56.103Z</time>
      </trkpt>
      <trkpt lat="44.18623" lon="5.76803">
        <ele>964.2</ele>
        <time>2021-05-28T09:21:02.845Z</time>
      </trkpt>
      <trkpt lat="44.18629" lon="5.7676">
        <ele>958.7</ele>
        <time>2021-05-28T09:21:06.126Z</time>
      </trkpt>
      <trkpt lat="44.18642" lon="5.76768">
        <ele>959.6</ele>
        <time>2021-05-28T09:21:12.817Z</time>
      </trkpt>
      <trkpt lat="44.18649" lon="5.76784">
        <ele>961.6</ele>
        <time>2021-05-28T09:21:25.556Z</time>
      </trkpt>
      <trkpt lat="44.18659" lon="5.76793">
        <ele>962.7</ele>
        <time>2021-05-28T09:21:32.639Z</time>
      </trkpt>
      <trkpt lat="44.18685" lon="5.768">
        <ele>966.5</ele>
        <time>2021-05-28T09:21:57.739Z</time>
      </trkpt>
      <trkpt lat="44.18695" lon="5.76792">
        <ele>967.1</ele>
        <time>2021-05-28T09:22:02.761Z</time>
      </trkpt>
      <trkpt lat="44.18688" lon="5.76746">
        <ele>959.8</ele>
        <time>2021-05-28T09:22:06.282Z</time>
      </trkpt>
      <trkpt lat="44.18689" lon="5.76725">
        <ele>955.6</ele>
        <time>2021-05-28T09:22:07.859Z</time>
      </trkpt>
      <trkpt lat="44.18708" lon="5.767">
        <ele>954.6</ele>
        <time>2021-05-28T09:22:11.043Z</time>
      </trkpt>
      <trkpt lat="44.18728" lon="5.76648">
        <ele>949.8</ele>
        <time>2021-05-28T09:22:15.463Z</time>
      </trkpt>
      <trkpt lat="44.1872" lon="5.76638">
        <ele>945.8</ele>
        <time>2021-05-28T09:22:16.585Z</time>
      </trkpt>
      <trkpt lat="44.18711" lon="5.7664">
        <ele>944</ele>
        <time>2021-05-28T09:22:17.537Z</time>
      </trkpt>
      <trkpt lat="44.18701" lon="5.76663">
        <ele>946</ele>
        <time>2021-05-28T09:22:30.323Z</time>
      </trkpt>
      <trkpt lat="44.18649" lon="5.76693">
        <ele>943.6</ele>
        <time>2021-05-28T09:22:36.906Z</time>
      </trkpt>
      <trkpt lat="44.18619" lon="5.76672">
        <ele>937.6</ele>
        <time>2021-05-28T09:22:40.412Z</time>
      </trkpt>
      <trkpt lat="44.18582" lon="5.76674">
        <ele>937</ele>
        <time>2021-05-28T09:22:46.149Z</time>
      </trkpt>
      <trkpt lat="44.18542" lon="5.76635">
        <ele>925.5</ele>
        <time>2021-05-28T09:22:51.247Z</time>
      </trkpt>
      <trkpt lat="44.1855" lon="5.76626">
        <ele>923.4</ele>
        <time>2021-05-28T09:22:52.320Z</time>
      </trkpt>
      <trkpt lat="44.18581" lon="5.76655">
        <ele>932</ele>
        <time>2021-05-28T09:23:27.704Z</time>
      </trkpt>
      <trkpt lat="44.18594" lon="5.76648">
        <ele>930.9</ele>
        <time>2021-05-28T09:23:29.159Z</time>
      </trkpt>
      <trkpt lat="44.18598" lon="5.76634">
        <ele>927.7</ele>
        <time>2021-05-28T09:23:30.288Z</time>
      </trkpt>
      <trkpt lat="44.18587" lon="5.76614">
        <ele>922</ele>
        <time>2021-05-28T09:23:32.176Z</time>
      </trkpt>
      <trkpt lat="44.18527" lon="5.76594">
        <ele>913.6</ele>
        <time>2021-05-28T09:23:38.619Z</time>
      </trkpt>
      <trkpt lat="44.18469" lon="5.76604">
        <ele>909.6</ele>
        <time>2021-05-28T09:23:44.723Z</time>
      </trkpt>
      <trkpt lat="44.1844" lon="5.76627">
        <ele>909.2</ele>
        <time>2021-05-28T09:23:50.175Z</time>
      </trkpt>
      <trkpt lat="44.18412" lon="5.76625">
        <ele>903.4</ele>
        <time>2021-05-28T09:23:53.103Z</time>
      </trkpt>
      <trkpt lat="44.18365" lon="5.76636">
        <ele>898.8</ele>
        <time>2021-05-28T09:23:58.081Z</time>
      </trkpt>
      <trkpt lat="44.18243" lon="5.76611">
        <ele>891.6</ele>
        <time>2021-05-28T09:24:10.669Z</time>
      </trkpt>
      <trkpt lat="44.18222" lon="5.76617">
        <ele>893.4</ele>
        <time>2021-05-28T09:24:22.518Z</time>
      </trkpt>
      <trkpt lat="44.18194" lon="5.76643">
        <ele>890</ele>
        <time>2021-05-28T09:24:26.031Z</time>
      </trkpt>
      <trkpt lat="44.18178" lon="5.7668">
        <ele>880.5</ele>
        <time>2021-05-28T09:24:29.267Z</time>
      </trkpt>
      <trkpt lat="44.18166" lon="5.76693">
        <ele>876.5</ele>
        <time>2021-05-28T09:24:30.854Z</time>
      </trkpt>
      <trkpt lat="44.18153" lon="5.76697">
        <ele>872.5</ele>
        <time>2021-05-28T09:24:32.245Z</time>
      </trkpt>
      <trkpt lat="44.18136" lon="5.76686">
        <ele>871.2</ele>
        <time>2021-05-28T09:24:34.202Z</time>
      </trkpt>
      <trkpt lat="44.18125" lon="5.76668">
        <ele>873.2</ele>
        <time>2021-05-28T09:24:47.335Z</time>
      </trkpt>
      <trkpt lat="44.18114" lon="5.76677">
        <ele>868.4</ele>
        <time>2021-05-28T09:24:48.667Z</time>
      </trkpt>
      <trkpt lat="44.18115" lon="5.76687">
        <ele>866</ele>
        <time>2021-05-28T09:24:49.423Z</time>
      </trkpt>
      <trkpt lat="44.18156" lon="5.76719">
        <ele>867.8</ele>
        <time>2021-05-28T09:25:07.212Z</time>
      </trkpt>
      <trkpt lat="44.18196" lon="5.76727">
        <ele>873.1</ele>
        <time>2021-05-28T09:25:44.295Z</time>
      </trkpt>
      <trkpt lat="44.18194" lon="5.76737">
        <ele>871</ele>
        <time>2021-05-28T09:25:45.073Z</time>
      </trkpt>
      <trkpt lat="44.18179" lon="5.7674">
        <ele>867.7</ele>
        <time>2021-05-28T09:25:46.656Z</time>
      </trkpt>
      <trkpt lat="44.1811" lon="5.76726">
        <ele>854.9</ele>
        <time>2021-05-28T09:25:53.938Z</time>
      </trkpt>
      <trkpt lat="44.18098" lon="5.76716">
        <ele>854.5</ele>
        <time>2021-05-28T09:25:55.818Z</time>
      </trkpt>
      <trkpt lat="44.18074" lon="5.7667">
        <ele>858.2</ele>
        <time>2021-05-28T09:26:19.722Z</time>
      </trkpt>
      <trkpt lat="44.18031" lon="5.76627">
        <ele>849</ele>
        <time>2021-05-28T09:26:25.249Z</time>
      </trkpt>
      <trkpt lat="44.18016" lon="5.76599">
        <ele>849.4</ele>
        <time>2021-05-28T09:26:32.463Z</time>
      </trkpt>
      <trkpt lat="44.17977" lon="5.76561">
        <ele>843.8</ele>
        <time>2021-05-28T09:26:37.432Z</time>
      </trkpt>
      <trkpt lat="44.17933" lon="5.76539">
        <ele>829.3</ele>
        <time>2021-05-28T09:26:42.314Z</time>
      </trkpt>
      <trkpt lat="44.1791" lon="5.76488">
        <ele>825.5</ele>
        <time>2021-05-28T09:26:46.827Z</time>
      </trkpt>
      <trkpt lat="44.17916" lon="5.76478">
        <ele>828.1</ele>
        <time>2021-05-28T09:26:55.690Z</time>
      </trkpt>
      <trkpt lat="44.17906" lon="5.76458">
        <ele>825.2</ele>
        <time>2021-05-28T09:26:57.516Z</time>
      </trkpt>
      <trkpt lat="44.17904" lon="5.76441">
        <ele>824.9</ele>
        <time>2021-05-28T09:26:59.258Z</time>
      </trkpt>
      <trkpt lat="44.17862" lon="5.7639">
        <ele>802.2</ele>
        <time>2021-05-28T09:27:05.075Z</time>
      </trkpt>
      <trkpt lat="44.17857" lon="5.76363">
        <ele>797.3</ele>
        <time>2021-05-28T09:27:07.164Z</time>
      </trkpt>
      <trkpt lat="44.17878" lon="5.76324">
        <ele>804.3</ele>
        <time>2021-05-28T09:27:40.317Z</time>
      </trkpt>
      <trkpt lat="44.17876" lon="5.76291">
        <ele>796.9</ele>
        <time>2021-05-28T09:27:42.797Z</time>
      </trkpt>
      <trkpt lat="44.1788" lon="5.76267">
        <ele>794.6</ele>
        <time>2021-05-28T09:27:44.643Z</time>
      </trkpt>
      <trkpt lat="44.17886" lon="5.76258">
        <ele>796.2</ele>
        <time>2021-05-28T09:27:52.996Z</time>
      </trkpt>
      <trkpt lat="44.17882" lon="5.76238">
        <ele>790.8</ele>
        <time>2021-05-28T09:27:54.552Z</time>
      </trkpt>
      <trkpt lat="44.17883" lon="5.76205">
        <ele>786.8</ele>
        <time>2021-05-28T09:27:57.026Z</time>
      </trkpt>
      <trkpt lat="44.17868" lon="5.76178">
        <ele>774.7</ele>
        <time>2021-05-28T09:27:59.584Z</time>
      </trkpt>
      <trkpt lat="44.17873" lon="5.76162">
        <ele>775.9</ele>
        <time>2021-05-28T09:28:07.274Z</time>
      </trkpt>
      <trkpt lat="44.17854" lon="5.76121">
        <ele>767.9</ele>
        <time>2021-05-28T09:28:10.930Z</time>
      </trkpt>
      <trkpt lat="44.17866" lon="5.76111">
        <ele>773.3</ele>
        <time>2021-05-28T09:28:24.181Z</time>
      </trkpt>
      <trkpt lat="44.17869" lon="5.76096">
        <ele>774.8</ele>
        <time>2021-05-28T09:28:34.767Z</time>
      </trkpt>
      <trkpt lat="44.17796" lon="5.76035">
        <ele>757.1</ele>
        <time>2021-05-28T09:28:43.656Z</time>
      </trkpt>
      <trkpt lat="44.17794" lon="5.76041">
        <ele>756</ele>
        <time>2021-05-28T09:28:44.152Z</time>
      </trkpt>
      <trkpt lat="44.17789" lon="5.76039">
        <ele>754.7</ele>
        <time>2021-05-28T09:28:44.695Z</time>
      </trkpt>
      <trkpt lat="44.17742" lon="5.75918">
        <ele>748.4</ele>
        <time>2021-05-28T09:28:54.345Z</time>
      </trkpt>
      <trkpt lat="44.17739" lon="5.75893">
        <ele>746.1</ele>
        <time>2021-05-28T09:28:56.244Z</time>
      </trkpt>
      <trkpt lat="44.17725" lon="5.75909">
        <ele>742.7</ele>
        <time>2021-05-28T09:28:58.134Z</time>
      </trkpt>
      <trkpt lat="44.17717" lon="5.75907">
        <ele>740.1</ele>
        <time>2021-05-28T09:28:58.983Z</time>
      </trkpt>
      <trkpt lat="44.17668" lon="5.75856">
        <ele>721.8</ele>
        <time>2021-05-28T09:29:05.370Z</time>
      </trkpt>
      <trkpt lat="44.17677" lon="5.75804">
        <ele>717</ele>
        <time>2021-05-28T09:29:09.377Z</time>
      </trkpt>
      <trkpt lat="44.17677" lon="5.75772">
        <ele>710.2</ele>
        <time>2021-05-28T09:29:11.774Z</time>
      </trkpt>
      <trkpt lat="44.17683" lon="5.75755">
        <ele>708.5</ele>
        <time>2021-05-28T09:29:13.193Z</time>
      </trkpt>
      <trkpt lat="44.17687" lon="5.75717">
        <ele>700.9</ele>
        <time>2021-05-28T09:29:16.070Z</time>
      </trkpt>
      <trkpt lat="44.17699" lon="5.75702">
        <ele>701</ele>
        <time>2021-05-28T09:29:20.269Z</time>
      </trkpt>
      <trkpt lat="44.17697" lon="5.75687">
        <ele>696.7</ele>
        <time>2021-05-28T09:29:21.412Z</time>
      </trkpt>
      <trkpt lat="44.1767" lon="5.75667">
        <ele>684</ele>
        <time>2021-05-28T09:29:24.605Z</time>
      </trkpt>
      <trkpt lat="44.17674" lon="5.75657">
        <ele>684.3</ele>
        <time>2021-05-28T09:29:27.638Z</time>
      </trkpt>
      <trkpt lat="44.17665" lon="5.75635">
        <ele>680</ele>
        <time>2021-05-28T09:29:29.536Z</time>
      </trkpt>
      <trkpt lat="44.17667" lon="5.75618">
        <ele>679</ele>
        <time>2021-05-28T09:29:30.826Z</time>
      </trkpt>
      <trkpt lat="44.17659" lon="5.75606">
        <ele>676.5</ele>
        <time>2021-05-28T09:29:32.053Z</time>
      </trkpt>
      <trkpt lat="44.17658" lon="5.75582">
        <ele>674.4</ele>
        <time>2021-05-28T09:29:33.854Z</time>
      </trkpt>
      <trkpt lat="44.17652" lon="5.75566">
        <ele>673.2</ele>
        <time>2021-05-28T09:29:35.207Z</time>
      </trkpt>
      <trkpt lat="44.17611" lon="5.75534">
        <ele>665.8</ele>
        <time>2021-05-28T09:29:40.114Z</time>
      </trkpt>
      <trkpt lat="44.17559" lon="5.75513">
        <ele>658</ele>
        <time>2021-05-28T09:29:45.769Z</time>
      </trkpt>
      <trkpt lat="44.17538" lon="5.75496">
        <ele>655.9</ele>
        <time>2021-05-28T09:29:48.305Z</time>
      </trkpt>
      <trkpt lat="44.1753" lon="5.75481">
        <ele>656.3</ele>
        <time>2021-05-28T09:29:52.839Z</time>
      </trkpt>
      <trkpt lat="44.17526" lon="5.75454">
        <ele>658.1</ele>
        <time>2021-05-28T09:30:04.459Z</time>
      </trkpt>
      <trkpt lat="44.17511" lon="5.75417">
        <ele>658.8</ele>
        <time>2021-05-28T09:30:13.946Z</time>
      </trkpt>
      <trkpt lat="44.17497" lon="5.75403">
        <ele>657.8</ele>
        <time>2021-05-28T09:30:15.710Z</time>
      </trkpt>
      <trkpt lat="44.17458" lon="5.75394">
        <ele>652.1</ele>
        <time>2021-05-28T09:30:19.839Z</time>
      </trkpt>
      <trkpt lat="44.17439" lon="5.75379">
        <ele>649.8</ele>
        <time>2021-05-28T09:30:22.119Z</time>
      </trkpt>
      <trkpt lat="44.17422" lon="5.75347">
        <ele>648.4</ele>
        <time>2021-05-28T09:30:25.274Z</time>
      </trkpt>
      <trkpt lat="44.1741" lon="5.75293">
        <ele>646.2</ele>
        <time>2021-05-28T09:30:29.556Z</time>
      </trkpt>
      <trkpt lat="44.17411" lon="5.75249">
        <ele>645.3</ele>
        <time>2021-05-28T09:30:33.807Z</time>
      </trkpt>
      <trkpt lat="44.17427" lon="5.75212">
        <ele>645.5</ele>
        <time>2021-05-28T09:30:41.901Z</time>
      </trkpt>
      <trkpt lat="44.17428" lon="5.75191">
        <ele>644.4</ele>
        <time>2021-05-28T09:30:43.477Z</time>
      </trkpt>
      <trkpt lat="44.17421" lon="5.75182">
        <ele>643.2</ele>
        <time>2021-05-28T09:30:44.472Z</time>
      </trkpt>
      <trkpt lat="44.17421" lon="5.75182">
        <ele>643.2</ele>
        <time>2021-05-28T09:30:44.472Z</time>
      </trkpt>
      <trkpt lat="44.17366" lon="5.75117">
        <ele>644.5</ele>
        <time>2021-05-28T09:31:05.695Z</time>
      </trkpt>
      <trkpt lat="44.17322" lon="5.75018">
        <ele>650.3</ele>
        <time>2021-05-28T09:31:46.827Z</time>
      </trkpt>
      <trkpt lat="44.17282" lon="5.74954">
        <ele>653.4</ele>
        <time>2021-05-28T09:32:13.148Z</time>
      </trkpt>
      <trkpt lat="44.17267" lon="5.74881">
        <ele>656.2</ele>
        <time>2021-05-28T09:32:36.770Z</time>
      </trkpt>
      <trkpt lat="44.17282" lon="5.74769">
        <ele>662.5</ele>
        <time>2021-05-28T09:33:19.464Z</time>
      </trkpt>
      <trkpt lat="44.1727" lon="5.74679">
        <ele>665.1</ele>
        <time>2021-05-28T09:33:44.783Z</time>
      </trkpt>
      <trkpt lat="44.17218" lon="5.7455">
        <ele>664.5</ele>
        <time>2021-05-28T09:34:08.786Z</time>
      </trkpt>
      <trkpt lat="44.17193" lon="5.74477">
        <ele>666.1</ele>
        <time>2021-05-28T09:34:27.863Z</time>
      </trkpt>
      <trkpt lat="44.17181" lon="5.74409">
        <ele>658.9</ele>
        <time>2021-05-28T09:34:33.110Z</time>
      </trkpt>
      <trkpt lat="44.17138" lon="5.74302">
        <ele>646.5</ele>
        <time>2021-05-28T09:34:42.298Z</time>
      </trkpt>
      <trkpt lat="44.17085" lon="5.74246">
        <ele>637.9</ele>
        <time>2021-05-28T09:34:49.244Z</time>
      </trkpt>
      <trkpt lat="44.17067" lon="5.7422">
        <ele>635.5</ele>
        <time>2021-05-28T09:34:51.951Z</time>
      </trkpt>
      <trkpt lat="44.1711" lon="5.74134">
        <ele>635.4</ele>
        <time>2021-05-28T09:35:10.060Z</time>
      </trkpt>
      <trkpt lat="44.17147" lon="5.74078">
        <ele>638.6</ele>
        <time>2021-05-28T09:35:34.927Z</time>
      </trkpt>
      <trkpt lat="44.17153" lon="5.73997">
        <ele>639.3</ele>
        <time>2021-05-28T09:35:51.051Z</time>
      </trkpt>
      <trkpt lat="44.17165" lon="5.73894">
        <ele>639.3</ele>
        <time>2021-05-28T09:36:09.444Z</time>
      </trkpt>
      <trkpt lat="44.1721" lon="5.73855">
        <ele>646.8</ele>
        <time>2021-05-28T09:36:59.668Z</time>
      </trkpt>
      <trkpt lat="44.17232" lon="5.73802">
        <ele>651.6</ele>
        <time>2021-05-28T09:37:30.529Z</time>
      </trkpt>
      <trkpt lat="44.17258" lon="5.73857">
        <ele>657.1</ele>
        <time>2021-05-28T09:38:06.470Z</time>
      </trkpt>
      <trkpt lat="44.17278" lon="5.73859">
        <ele>663.7</ele>
        <time>2021-05-28T09:38:25.477Z</time>
      </trkpt>
      <trkpt lat="44.17259" lon="5.73825">
        <ele>658.5</ele>
        <time>2021-05-28T09:38:28.706Z</time>
      </trkpt>
      <trkpt lat="44.17286" lon="5.73711">
        <ele>669.2</ele>
        <time>2021-05-28T09:39:40.773Z</time>
      </trkpt>
      <trkpt lat="44.17296" lon="5.73733">
        <ele>674.1</ele>
        <time>2021-05-28T09:39:58.480Z</time>
      </trkpt>
      <trkpt lat="44.17287" lon="5.73767">
        <ele>670.6</ele>
        <time>2021-05-28T09:40:01.195Z</time>
      </trkpt>
      <trkpt lat="44.17295" lon="5.73799">
        <ele>672.5</ele>
        <time>2021-05-28T09:40:14.004Z</time>
      </trkpt>
      <trkpt lat="44.17315" lon="5.73772">
        <ele>681</ele>
        <time>2021-05-28T09:40:40.392Z</time>
      </trkpt>
      <trkpt lat="44.17376" lon="5.73718">
        <ele>703.1</ele>
        <time>2021-05-28T09:41:48.883Z</time>
      </trkpt>
      <trkpt lat="44.17355" lon="5.73817">
        <ele>694.6</ele>
        <time>2021-05-28T09:41:56.617Z</time>
      </trkpt>
      <trkpt lat="44.17392" lon="5.73767">
        <ele>707.9</ele>
        <time>2021-05-28T09:42:45.459Z</time>
      </trkpt>
      <trkpt lat="44.17435" lon="5.73744">
        <ele>720.8</ele>
        <time>2021-05-28T09:43:29.114Z</time>
      </trkpt>
      <trkpt lat="44.17427" lon="5.73673">
        <ele>722</ele>
        <time>2021-05-28T09:43:45.215Z</time>
      </trkpt>
      <trkpt lat="44.17409" lon="5.73623">
        <ele>719</ele>
        <time>2021-05-28T09:43:49.406Z</time>
      </trkpt>
      <trkpt lat="44.17436" lon="5.73535">
        <ele>727.2</ele>
        <time>2021-05-28T09:44:43.536Z</time>
      </trkpt>
      <trkpt lat="44.17479" lon="5.73456">
        <ele>736.6</ele>
        <time>2021-05-28T09:45:49.733Z</time>
      </trkpt>
      <trkpt lat="44.17483" lon="5.73535">
        <ele>743.8</ele>
        <time>2021-05-28T09:46:38.836Z</time>
      </trkpt>
      <trkpt lat="44.17529" lon="5.73638">
        <ele>755.5</ele>
        <time>2021-05-28T09:48:01.325Z</time>
      </trkpt>
      <trkpt lat="44.1759" lon="5.73733">
        <ele>765</ele>
        <time>2021-05-28T09:49:02.065Z</time>
      </trkpt>
      <trkpt lat="44.17615" lon="5.73754">
        <ele>770.3</ele>
        <time>2021-05-28T09:49:29.730Z</time>
      </trkpt>
      <trkpt lat="44.17632" lon="5.73812">
        <ele>767.8</ele>
        <time>2021-05-28T09:49:34.422Z</time>
      </trkpt>
      <trkpt lat="44.17661" lon="5.73739">
        <ele>784.1</ele>
        <time>2021-05-28T09:50:31.153Z</time>
      </trkpt>
      <trkpt lat="44.17655" lon="5.73638">
        <ele>788.4</ele>
        <time>2021-05-28T09:51:04.380Z</time>
      </trkpt>
      <trkpt lat="44.17687" lon="5.73538">
        <ele>796.2</ele>
        <time>2021-05-28T09:51:54.238Z</time>
      </trkpt>
      <trkpt lat="44.17695" lon="5.73589">
        <ele>800.6</ele>
        <time>2021-05-28T09:52:23.091Z</time>
      </trkpt>
      <trkpt lat="44.17721" lon="5.73651">
        <ele>804.9</ele>
        <time>2021-05-28T09:52:51.444Z</time>
      </trkpt>
      <trkpt lat="44.17769" lon="5.73699">
        <ele>812.9</ele>
        <time>2021-05-28T09:53:47.434Z</time>
      </trkpt>
      <trkpt lat="44.17815" lon="5.73769">
        <ele>807.4</ele>
        <time>2021-05-28T09:53:54.546Z</time>
      </trkpt>
      <trkpt lat="44.17812" lon="5.73645">
        <ele>828.1</ele>
        <time>2021-05-28T09:55:18.889Z</time>
      </trkpt>
      <trkpt lat="44.17813" lon="5.73602">
        <ele>829.4</ele>
        <time>2021-05-28T09:55:31.237Z</time>
      </trkpt>
      <trkpt lat="44.17853" lon="5.73527">
        <ele>837</ele>
        <time>2021-05-28T09:56:20.497Z</time>
      </trkpt>
      <trkpt lat="44.17873" lon="5.73593">
        <ele>833.9</ele>
        <time>2021-05-28T09:56:25.661Z</time>
      </trkpt>
      <trkpt lat="44.17898" lon="5.7349">
        <ele>848.6</ele>
        <time>2021-05-28T09:57:39.581Z</time>
      </trkpt>
      <trkpt lat="44.17904" lon="5.73422">
        <ele>860.2</ele>
        <time>2021-05-28T09:58:26.155Z</time>
      </trkpt>
      <trkpt lat="44.17909" lon="5.73375">
        <ele>864.4</ele>
        <time>2021-05-28T09:58:54.313Z</time>
      </trkpt>
      <trkpt lat="44.17941" lon="5.73422">
        <ele>863.3</ele>
        <time>2021-05-28T09:59:00.910Z</time>
      </trkpt>
      <trkpt lat="44.17987" lon="5.73398">
        <ele>867.2</ele>
        <time>2021-05-28T09:59:27.051Z</time>
      </trkpt>
      <trkpt lat="44.18009" lon="5.73377">
        <ele>872</ele>
        <time>2021-05-28T09:59:52.323Z</time>
      </trkpt>
      <trkpt lat="44.18035" lon="5.73323">
        <ele>879.8</ele>
        <time>2021-05-28T10:00:36.537Z</time>
      </trkpt>
      <trkpt lat="44.181" lon="5.73291">
        <ele>881.5</ele>
        <time>2021-05-28T10:00:58.420Z</time>
      </trkpt>
      <trkpt lat="44.1812" lon="5.73166">
        <ele>878.9</ele>
        <time>2021-05-28T10:01:10.811Z</time>
      </trkpt>
      <trkpt lat="44.1814" lon="5.73098">
        <ele>880.9</ele>
        <time>2021-05-28T10:01:30.664Z</time>
      </trkpt>
      <trkpt lat="44.18157" lon="5.73038">
        <ele>885.8</ele>
        <time>2021-05-28T10:02:02.037Z</time>
      </trkpt>
      <trkpt lat="44.18172" lon="5.73012">
        <ele>891.5</ele>
        <time>2021-05-28T10:02:24.720Z</time>
      </trkpt>
      <trkpt lat="44.1817" lon="5.72875">
        <ele>891</ele>
        <time>2021-05-28T10:02:47.123Z</time>
      </trkpt>
      <trkpt lat="44.1817" lon="5.72763">
        <ele>894.8</ele>
        <time>2021-05-28T10:03:21.039Z</time>
      </trkpt>
      <trkpt lat="44.18184" lon="5.72716">
        <ele>896.3</ele>
        <time>2021-05-28T10:03:35.423Z</time>
      </trkpt>
      <trkpt lat="44.18252" lon="5.72673">
        <ele>904.6</ele>
        <time>2021-05-28T10:04:28.962Z</time>
      </trkpt>
      <trkpt lat="44.183" lon="5.72615">
        <ele>909.7</ele>
        <time>2021-05-28T10:05:03.014Z</time>
      </trkpt>
      <trkpt lat="44.1826" lon="5.72568">
        <ele>906.5</ele>
        <time>2021-05-28T10:05:08.236Z</time>
      </trkpt>
      <trkpt lat="44.18223" lon="5.72525">
        <ele>906.8</ele>
        <time>2021-05-28T10:05:20.789Z</time>
      </trkpt>
      <trkpt lat="44.1819" lon="5.72488">
        <ele>904.8</ele>
        <time>2021-05-28T10:05:25.541Z</time>
      </trkpt>
      <trkpt lat="44.18189" lon="5.72413">
        <ele>907.8</ele>
        <time>2021-05-28T10:05:49.564Z</time>
      </trkpt>
      <trkpt lat="44.18212" lon="5.72364">
        <ele>908.3</ele>
        <time>2021-05-28T10:06:01.148Z</time>
      </trkpt>
      <trkpt lat="44.18272" lon="5.7233">
        <ele>916.9</ele>
        <time>2021-05-28T10:07:01.970Z</time>
      </trkpt>
      <trkpt lat="44.1826" lon="5.72405">
        <ele>920</ele>
        <time>2021-05-28T10:07:26.661Z</time>
      </trkpt>
      <trkpt lat="44.18286" lon="5.72458">
        <ele>923.3</ele>
        <time>2021-05-28T10:07:49.722Z</time>
      </trkpt>
      <trkpt lat="44.18307" lon="5.72448">
        <ele>927.7</ele>
        <time>2021-05-28T10:08:10.756Z</time>
      </trkpt>
      <trkpt lat="44.18367" lon="5.72368">
        <ele>939.2</ele>
        <time>2021-05-28T10:09:29.443Z</time>
      </trkpt>
      <trkpt lat="44.18389" lon="5.7236">
        <ele>943.5</ele>
        <time>2021-05-28T10:09:50.993Z</time>
      </trkpt>
      <trkpt lat="44.18424" lon="5.72276">
        <ele>951.7</ele>
        <time>2021-05-28T10:10:44.797Z</time>
      </trkpt>
      <trkpt lat="44.18484" lon="5.72185">
        <ele>963.3</ele>
        <time>2021-05-28T10:12:05.805Z</time>
      </trkpt>
      <trkpt lat="44.18476" lon="5.72083">
        <ele>968.1</ele>
        <time>2021-05-28T10:12:40.929Z</time>
      </trkpt>
      <trkpt lat="44.1847" lon="5.7198">
        <ele>975.2</ele>
        <time>2021-05-28T10:13:26.429Z</time>
      </trkpt>
      <trkpt lat="44.18504" lon="5.71855">
        <ele>992.4</ele>
        <time>2021-05-28T10:14:57.301Z</time>
      </trkpt>
      <trkpt lat="44.18534" lon="5.71727">
        <ele>1013.8</ele>
        <time>2021-05-28T10:16:28.834Z</time>
      </trkpt>
      <trkpt lat="44.18482" lon="5.71559">
        <ele>1022.4</ele>
        <time>2021-05-28T10:17:31.610Z</time>
      </trkpt>
      <trkpt lat="44.18411" lon="5.71422">
        <ele>1030.9</ele>
        <time>2021-05-28T10:18:31.606Z</time>
      </trkpt>
      <trkpt lat="44.18365" lon="5.71345">
        <ele>1042.8</ele>
        <time>2021-05-28T10:19:39.728Z</time>
      </trkpt>
      <trkpt lat="44.18405" lon="5.71302">
        <ele>1051.3</ele>
        <time>2021-05-28T10:20:27.602Z</time>
      </trkpt>
      <trkpt lat="44.18537" lon="5.71349">
        <ele>1069.3</ele>
        <time>2021-05-28T10:22:34.339Z</time>
      </trkpt>
      <trkpt lat="44.18491" lon="5.71285">
        <ele>1067.7</ele>
        <time>2021-05-28T10:22:43.464Z</time>
      </trkpt>
      <trkpt lat="44.18467" lon="5.71255">
        <ele>1069.1</ele>
        <time>2021-05-28T10:22:56.618Z</time>
      </trkpt>
      <trkpt lat="44.18464" lon="5.71186">
        <ele>1081.4</ele>
        <time>2021-05-28T10:23:43.605Z</time>
      </trkpt>
      <trkpt lat="44.18433" lon="5.71083">
        <ele>1090.5</ele>
        <time>2021-05-28T10:24:42.619Z</time>
      </trkpt>
      <trkpt lat="44.18457" lon="5.7101">
        <ele>1089</ele>
        <time>2021-05-28T10:24:50.581Z</time>
      </trkpt>
      <trkpt lat="44.18491" lon="5.70877">
        <ele>1080</ele>
        <time>2021-05-28T10:25:01.156Z</time>
      </trkpt>
      <trkpt lat="44.18516" lon="5.70774">
        <ele>1082.6</ele>
        <time>2021-05-28T10:25:28.745Z</time>
      </trkpt>
      <trkpt lat="44.185" lon="5.70641">
        <ele>1069.6</ele>
        <time>2021-05-28T10:25:38.845Z</time>
      </trkpt>
      <trkpt lat="44.18488" lon="5.70564">
        <ele>1068.1</ele>
        <time>2021-05-28T10:25:46.615Z</time>
      </trkpt>
      <trkpt lat="44.185" lon="5.70461">
        <ele>1069.7</ele>
        <time>2021-05-28T10:26:09.482Z</time>
      </trkpt>
      <trkpt lat="44.18571" lon="5.70401">
        <ele>1067.7</ele>
        <time>2021-05-28T10:26:21.211Z</time>
      </trkpt>
      <trkpt lat="44.18608" lon="5.70349">
        <ele>1062.9</ele>
        <time>2021-05-28T10:26:26.697Z</time>
      </trkpt>
      <trkpt lat="44.18648" lon="5.70289">
        <ele>1067</ele>
        <time>2021-05-28T10:26:55.702Z</time>
      </trkpt>
      <trkpt lat="44.18624" lon="5.70199">
        <ele>1054.3</ele>
        <time>2021-05-28T10:27:02.894Z</time>
      </trkpt>
      <trkpt lat="44.18633" lon="5.70156">
        <ele>1057.9</ele>
        <time>2021-05-28T10:27:26.159Z</time>
      </trkpt>
      <trkpt lat="44.18605" lon="5.70066">
        <ele>1046.8</ele>
        <time>2021-05-28T10:27:33.507Z</time>
      </trkpt>
      <trkpt lat="44.18577" lon="5.69984">
        <ele>1038.4</ele>
        <time>2021-05-28T10:27:40.309Z</time>
      </trkpt>
      <trkpt lat="44.18596" lon="5.69898">
        <ele>1041.2</ele>
        <time>2021-05-28T10:28:06.627Z</time>
      </trkpt>
      <trkpt lat="44.18617" lon="5.69813">
        <ele>1047</ele>
        <time>2021-05-28T10:28:44.157Z</time>
      </trkpt>
      <trkpt lat="44.18611" lon="5.69667">
        <ele>1046.9</ele>
        <time>2021-05-28T10:29:09.556Z</time>
      </trkpt>
      <trkpt lat="44.18614" lon="5.69551">
        <ele>1048.2</ele>
        <time>2021-05-28T10:29:33.426Z</time>
      </trkpt>
      <trkpt lat="44.18634" lon="5.69459">
        <ele>1053.9</ele>
        <time>2021-05-28T10:30:11.121Z</time>
      </trkpt>
      <trkpt lat="44.18627" lon="5.69432">
        <ele>1048.5</ele>
        <time>2021-05-28T10:30:13.271Z</time>
      </trkpt>
      <trkpt lat="44.18626" lon="5.69405">
        <ele>1046</ele>
        <time>2021-05-28T10:30:15.296Z</time>
      </trkpt>
      <trkpt lat="44.18636" lon="5.69351">
        <ele>1045</ele>
        <time>2021-05-28T10:30:20.889Z</time>
      </trkpt>
      <trkpt lat="44.18636" lon="5.6929">
        <ele>1044.8</ele>
        <time>2021-05-28T10:30:30.934Z</time>
      </trkpt>
      <trkpt lat="44.1863" lon="5.69265">
        <ele>1045.3</ele>
        <time>2021-05-28T10:30:37.065Z</time>
      </trkpt>
      <trkpt lat="44.18613" lon="5.69254">
        <ele>1045.3</ele>
        <time>2021-05-28T10:30:41.671Z</time>
      </trkpt>
      <trkpt lat="44.18588" lon="5.69248">
        <ele>1045.7</ele>
        <time>2021-05-28T10:30:48.957Z</time>
      </trkpt>
      <trkpt lat="44.18554" lon="5.69269">
        <ele>1046.9</ele>
        <time>2021-05-28T10:31:01.930Z</time>
      </trkpt>
      <trkpt lat="44.1854" lon="5.69289">
        <ele>1044.2</ele>
        <time>2021-05-28T10:31:04.023Z</time>
      </trkpt>
      <trkpt lat="44.18496" lon="5.693">
        <ele>1049.3</ele>
        <time>2021-05-28T10:31:37.137Z</time>
      </trkpt>
      <trkpt lat="44.18478" lon="5.69291">
        <ele>1062.1</ele>
        <time>2021-05-28T10:31:55.263Z</time>
      </trkpt>
      <trkpt lat="44.18446" lon="5.69344">
        <ele>1055.7</ele>
        <time>2021-05-28T10:32:00.452Z</time>
      </trkpt>
      <trkpt lat="44.18439" lon="5.69368">
        <ele>1051.9</ele>
        <time>2021-05-28T10:32:02.392Z</time>
      </trkpt>
      <trkpt lat="44.18425" lon="5.69382">
        <ele>1053.6</ele>
        <time>2021-05-28T10:32:13.262Z</time>
      </trkpt>
      <trkpt lat="44.1839" lon="5.69402">
        <ele>1054.1</ele>
        <time>2021-05-28T10:32:23.838Z</time>
      </trkpt>
      <trkpt lat="44.18334" lon="5.69411">
        <ele>1054.5</ele>
        <time>2021-05-28T10:32:38.654Z</time>
      </trkpt>
      <trkpt lat="44.18295" lon="5.69404">
        <ele>1055.8</ele>
        <time>2021-05-28T10:32:52.514Z</time>
      </trkpt>
      <trkpt lat="44.18278" lon="5.69395">
        <ele>1059.3</ele>
        <time>2021-05-28T10:33:09.751Z</time>
      </trkpt>
      <trkpt lat="44.18264" lon="5.69379">
        <ele>1066.2</ele>
        <time>2021-05-28T10:33:26.908Z</time>
      </trkpt>
      <trkpt lat="44.18247" lon="5.6937">
        <ele>1067.6</ele>
        <time>2021-05-28T10:33:36.401Z</time>
      </trkpt>
      <trkpt lat="44.18229" lon="5.69371">
        <ele>1059.1</ele>
        <time>2021-05-28T10:33:38.282Z</time>
      </trkpt>
      <trkpt lat="44.18211" lon="5.69378">
        <ele>1049.4</ele>
        <time>2021-05-28T10:33:40.234Z</time>
      </trkpt>
      <trkpt lat="44.18206" lon="5.69351">
        <ele>1053.4</ele>
        <time>2021-05-28T10:33:59.190Z</time>
      </trkpt>
      <trkpt lat="44.18192" lon="5.69367">
        <ele>1043.3</ele>
        <time>2021-05-28T10:34:01.080Z</time>
      </trkpt>
      <trkpt lat="44.18176" lon="5.69413">
        <ele>1033.7</ele>
        <time>2021-05-28T10:34:04.910Z</time>
      </trkpt>
      <trkpt lat="44.1816" lon="5.69427">
        <ele>1025.8</ele>
        <time>2021-05-28T10:34:06.882Z</time>
      </trkpt>
      <trkpt lat="44.18139" lon="5.69469">
        <ele>1008.9</ele>
        <time>2021-05-28T10:34:10.717Z</time>
      </trkpt>
      <trkpt lat="44.18133" lon="5.69493">
        <ele>1003.9</ele>
        <time>2021-05-28T10:34:12.621Z</time>
      </trkpt>
      <trkpt lat="44.18129" lon="5.69466">
        <ele>1006.1</ele>
        <time>2021-05-28T10:34:26.815Z</time>
      </trkpt>
      <trkpt lat="44.18136" lon="5.69439">
        <ele>1012.2</ele>
        <time>2021-05-28T10:34:46.332Z</time>
      </trkpt>
      <trkpt lat="44.18142" lon="5.69359">
        <ele>1015.1</ele>
        <time>2021-05-28T10:35:11.163Z</time>
      </trkpt>
      <trkpt lat="44.1814" lon="5.69334">
        <ele>1012.2</ele>
        <time>2021-05-28T10:35:13.047Z</time>
      </trkpt>
      <trkpt lat="44.18119" lon="5.69291">
        <ele>998.2</ele>
        <time>2021-05-28T10:35:16.944Z</time>
      </trkpt>
      <trkpt lat="44.1811" lon="5.69238">
        <ele>992.2</ele>
        <time>2021-05-28T10:35:21.024Z</time>
      </trkpt>
      <trkpt lat="44.18106" lon="5.69156">
        <ele>987.2</ele>
        <time>2021-05-28T10:35:27.180Z</time>
      </trkpt>
      <trkpt lat="44.18123" lon="5.69028">
        <ele>995.9</ele>
        <time>2021-05-28T10:36:23.128Z</time>
      </trkpt>
      <trkpt lat="44.18111" lon="5.69009">
        <ele>986.6</ele>
        <time>2021-05-28T10:36:25.025Z</time>
      </trkpt>
      <trkpt lat="44.18104" lon="5.68983">
        <ele>980.4</ele>
        <time>2021-05-28T10:36:27.105Z</time>
      </trkpt>
      <trkpt lat="44.18113" lon="5.6893">
        <ele>983.4</ele>
        <time>2021-05-28T10:36:47.465Z</time>
      </trkpt>
      <trkpt lat="44.1811" lon="5.68875">
        <ele>979.4</ele>
        <time>2021-05-28T10:36:51.596Z</time>
      </trkpt>
      <trkpt lat="44.18102" lon="5.68825">
        <ele>972.8</ele>
        <time>2021-05-28T10:36:55.434Z</time>
      </trkpt>
      <trkpt lat="44.18082" lon="5.68748">
        <ele>957</ele>
        <time>2021-05-28T10:37:01.568Z</time>
      </trkpt>
      <trkpt lat="44.18072" lon="5.68727">
        <ele>949.2</ele>
        <time>2021-05-28T10:37:03.456Z</time>
      </trkpt>
      <trkpt lat="44.18066" lon="5.68643">
        <ele>938.2</ele>
        <time>2021-05-28T10:37:09.779Z</time>
      </trkpt>
      <trkpt lat="44.18068" lon="5.68618">
        <ele>937.2</ele>
        <time>2021-05-28T10:37:11.666Z</time>
      </trkpt>
      <trkpt lat="44.18064" lon="5.68561">
        <ele>929.8</ele>
        <time>2021-05-28T10:37:15.956Z</time>
      </trkpt>
      <trkpt lat="44.18072" lon="5.6851">
        <ele>929.5</ele>
        <time>2021-05-28T10:37:22.405Z</time>
      </trkpt>
      <trkpt lat="44.18058" lon="5.68494">
        <ele>921.8</ele>
        <time>2021-05-28T10:37:24.296Z</time>
      </trkpt>
      <trkpt lat="44.18041" lon="5.68484">
        <ele>913.9</ele>
        <time>2021-05-28T10:37:26.223Z</time>
      </trkpt>
      <trkpt lat="44.18016" lon="5.68445">
        <ele>903.6</ele>
        <time>2021-05-28T10:37:30.141Z</time>
      </trkpt>
      <trkpt lat="44.18006" lon="5.68392">
        <ele>900.1</ele>
        <time>2021-05-28T10:37:34.246Z</time>
      </trkpt>
      <trkpt lat="44.17947" lon="5.68317">
        <ele>875.4</ele>
        <time>2021-05-28T10:37:42.585Z</time>
      </trkpt>
      <trkpt lat="44.17951" lon="5.68287">
        <ele>873.3</ele>
        <time>2021-05-28T10:37:44.870Z</time>
      </trkpt>
      <trkpt lat="44.17971" lon="5.68242">
        <ele>874.9</ele>
        <time>2021-05-28T10:38:00.067Z</time>
      </trkpt>
      <trkpt lat="44.1798" lon="5.68192">
        <ele>872.1</ele>
        <time>2021-05-28T10:38:03.928Z</time>
      </trkpt>
      <trkpt lat="44.17955" lon="5.68152">
        <ele>859.8</ele>
        <time>2021-05-28T10:38:07.902Z</time>
      </trkpt>
      <trkpt lat="44.17949" lon="5.68127">
        <ele>856.6</ele>
        <time>2021-05-28T10:38:09.877Z</time>
      </trkpt>
      <trkpt lat="44.17949" lon="5.68127">
        <ele>856.6</ele>
        <time>2021-05-28T10:38:09.877Z</time>
      </trkpt>
      <trkpt lat="44.17923" lon="5.68163">
        <ele>849.1</ele>
        <time>2021-05-28T10:38:13.704Z</time>
      </trkpt>
      <trkpt lat="44.17876" lon="5.68212">
        <ele>841.9</ele>
        <time>2021-05-28T10:38:19.833Z</time>
      </trkpt>
      <trkpt lat="44.17847" lon="5.68249">
        <ele>834.3</ele>
        <time>2021-05-28T10:38:23.939Z</time>
      </trkpt>
      <trkpt lat="44.17813" lon="5.68208">
        <ele>823.7</ele>
        <time>2021-05-28T10:38:28.634Z</time>
      </trkpt>
      <trkpt lat="44.17805" lon="5.68158">
        <ele>820.3</ele>
        <time>2021-05-28T10:38:32.471Z</time>
      </trkpt>
      <trkpt lat="44.17839" lon="5.68141">
        <ele>827.7</ele>
        <time>2021-05-28T10:39:06.709Z</time>
      </trkpt>
      <trkpt lat="44.17876" lon="5.68126">
        <ele>834.1</ele>
        <time>2021-05-28T10:39:43.233Z</time>
      </trkpt>
      <trkpt lat="44.17882" lon="5.68073">
        <ele>829.9</ele>
        <time>2021-05-28T10:39:47.252Z</time>
      </trkpt>
      <trkpt lat="44.17868" lon="5.68023">
        <ele>821.4</ele>
        <time>2021-05-28T10:39:51.272Z</time>
      </trkpt>
      <trkpt lat="44.17879" lon="5.67987">
        <ele>825.4</ele>
        <time>2021-05-28T10:40:17.874Z</time>
      </trkpt>
      <trkpt lat="44.17867" lon="5.67922">
        <ele>818</ele>
        <time>2021-05-28T10:40:22.901Z</time>
      </trkpt>
      <trkpt lat="44.17867" lon="5.67839">
        <ele>816.8</ele>
        <time>2021-05-28T10:40:31.698Z</time>
      </trkpt>
      <trkpt lat="44.1785" lon="5.67761">
        <ele>811</ele>
        <time>2021-05-28T10:40:37.804Z</time>
      </trkpt>
      <trkpt lat="44.17813" lon="5.67706">
        <ele>800</ele>
        <time>2021-05-28T10:40:43.453Z</time>
      </trkpt>
      <trkpt lat="44.17803" lon="5.67648">
        <ele>795.5</ele>
        <time>2021-05-28T10:40:47.921Z</time>
      </trkpt>
      <trkpt lat="44.1783" lon="5.67553">
        <ele>790.2</ele>
        <time>2021-05-28T10:40:55.576Z</time>
      </trkpt>
      <trkpt lat="44.17847" lon="5.67437">
        <ele>780.6</ele>
        <time>2021-05-28T10:41:04.444Z</time>
      </trkpt>
      <trkpt lat="44.1783" lon="5.67397">
        <ele>770.8</ele>
        <time>2021-05-28T10:41:07.927Z</time>
      </trkpt>
      <trkpt lat="44.17834" lon="5.67339">
        <ele>768.6</ele>
        <time>2021-05-28T10:41:12.401Z</time>
      </trkpt>
      <trkpt lat="44.17823" lon="5.67309">
        <ele>763.8</ele>
        <time>2021-05-28T10:41:14.925Z</time>
      </trkpt>
      <trkpt lat="44.17839" lon="5.67251">
        <ele>764.8</ele>
        <time>2021-05-28T10:41:28.710Z</time>
      </trkpt>
      <trkpt lat="44.1782" lon="5.67204">
        <ele>758.4</ele>
        <time>2021-05-28T10:41:32.752Z</time>
      </trkpt>
      <trkpt lat="44.17834" lon="5.6709">
        <ele>762.2</ele>
        <time>2021-05-28T10:42:07.443Z</time>
      </trkpt>
      <trkpt lat="44.17808" lon="5.66995">
        <ele>752.6</ele>
        <time>2021-05-28T10:42:15.059Z</time>
      </trkpt>
      <trkpt lat="44.17822" lon="5.66942">
        <ele>758.6</ele>
        <time>2021-05-28T10:42:53.455Z</time>
      </trkpt>
      <trkpt lat="44.17794" lon="5.66907">
        <ele>747.8</ele>
        <time>2021-05-28T10:42:57.383Z</time>
      </trkpt>
      <trkpt lat="44.17786" lon="5.66772">
        <ele>739.3</ele>
        <time>2021-05-28T10:43:07.529Z</time>
      </trkpt>
      <trkpt lat="44.178" lon="5.66738">
        <ele>743.5</ele>
        <time>2021-05-28T10:43:34.181Z</time>
      </trkpt>
      <trkpt lat="44.17763" lon="5.66616">
        <ele>734.9</ele>
        <time>2021-05-28T10:43:44.103Z</time>
      </trkpt>
      <trkpt lat="44.1776" lon="5.66568">
        <ele>735</ele>
        <time>2021-05-28T10:43:52.827Z</time>
      </trkpt>
      <trkpt lat="44.17768" lon="5.66489">
        <ele>737.7</ele>
        <time>2021-05-28T10:44:16.969Z</time>
      </trkpt>
      <trkpt lat="44.1779" lon="5.66429">
        <ele>740.9</ele>
        <time>2021-05-28T10:44:40.204Z</time>
      </trkpt>
      <trkpt lat="44.17802" lon="5.66401">
        <ele>743.6</ele>
        <time>2021-05-28T10:44:57.797Z</time>
      </trkpt>
      <trkpt lat="44.17777" lon="5.66367">
        <ele>738.9</ele>
        <time>2021-05-28T10:45:01.445Z</time>
      </trkpt>
      <trkpt lat="44.17779" lon="5.66337">
        <ele>740.4</ele>
        <time>2021-05-28T10:45:12.083Z</time>
      </trkpt>
      <trkpt lat="44.17779" lon="5.66272">
        <ele>745.5</ele>
        <time>2021-05-28T10:45:44.879Z</time>
      </trkpt>
      <trkpt lat="44.17777" lon="5.66208">
        <ele>751.1</ele>
        <time>2021-05-28T10:46:22.201Z</time>
      </trkpt>
      <trkpt lat="44.1775" lon="5.66186">
        <ele>746.5</ele>
        <time>2021-05-28T10:46:25.467Z</time>
      </trkpt>
      <trkpt lat="44.17723" lon="5.66135">
        <ele>746.5</ele>
        <time>2021-05-28T10:46:36.640Z</time>
      </trkpt>
      <trkpt lat="44.17699" lon="5.66053">
        <ele>746.9</ele>
        <time>2021-05-28T10:46:53.204Z</time>
      </trkpt>
      <trkpt lat="44.17686" lon="5.65976">
        <ele>748.9</ele>
        <time>2021-05-28T10:47:13.795Z</time>
      </trkpt>
      <trkpt lat="44.17656" lon="5.65916">
        <ele>744</ele>
        <time>2021-05-28T10:47:19.274Z</time>
      </trkpt>
      <trkpt lat="44.17614" lon="5.65856">
        <ele>739.7</ele>
        <time>2021-05-28T10:47:25.555Z</time>
      </trkpt>
      <trkpt lat="44.17616" lon="5.65757">
        <ele>747.5</ele>
        <time>2021-05-28T10:48:15.747Z</time>
      </trkpt>
      <trkpt lat="44.1761" lon="5.65652">
        <ele>748.1</ele>
        <time>2021-05-28T10:48:35.768Z</time>
      </trkpt>
      <trkpt lat="44.17583" lon="5.65485">
        <ele>746</ele>
        <time>2021-05-28T10:48:54.585Z</time>
      </trkpt>
      <trkpt lat="44.17585" lon="5.65431">
        <ele>746.5</ele>
        <time>2021-05-28T10:49:05.391Z</time>
      </trkpt>
      <trkpt lat="44.17577" lon="5.65376">
        <ele>744.6</ele>
        <time>2021-05-28T10:49:09.909Z</time>
      </trkpt>
      <trkpt lat="44.17588" lon="5.65286">
        <ele>747.5</ele>
        <time>2021-05-28T10:49:36.984Z</time>
      </trkpt>
      <trkpt lat="44.17592" lon="5.65207">
        <ele>747.2</ele>
        <time>2021-05-28T10:49:49.897Z</time>
      </trkpt>
      <trkpt lat="44.17611" lon="5.65157">
        <ele>751.5</ele>
        <time>2021-05-28T10:50:17.430Z</time>
      </trkpt>
      <trkpt lat="44.17603" lon="5.65093">
        <ele>748</ele>
        <time>2021-05-28T10:50:22.297Z</time>
      </trkpt>
      <trkpt lat="44.17583" lon="5.65029">
        <ele>741.3</ele>
        <time>2021-05-28T10:50:27.526Z</time>
      </trkpt>
      <trkpt lat="44.17609" lon="5.64949">
        <ele>743.3</ele>
        <time>2021-05-28T10:50:49.355Z</time>
      </trkpt>
      <trkpt lat="44.17626" lon="5.649">
        <ele>744</ele>
        <time>2021-05-28T10:51:00.834Z</time>
      </trkpt>
      <trkpt lat="44.17617" lon="5.64816">
        <ele>739.6</ele>
        <time>2021-05-28T10:51:07.196Z</time>
      </trkpt>
      <trkpt lat="44.17625" lon="5.64709">
        <ele>742</ele>
        <time>2021-05-28T10:51:33.712Z</time>
      </trkpt>
      <trkpt lat="44.17592" lon="5.64576">
        <ele>737.8</ele>
        <time>2021-05-28T10:51:45.634Z</time>
      </trkpt>
      <trkpt lat="44.17565" lon="5.64507">
        <ele>736.4</ele>
        <time>2021-05-28T10:51:53.532Z</time>
      </trkpt>
      <trkpt lat="44.17557" lon="5.64385">
        <ele>738.2</ele>
        <time>2021-05-28T10:52:20.112Z</time>
      </trkpt>
      <trkpt lat="44.17546" lon="5.64252">
        <ele>737.6</ele>
        <time>2021-05-28T10:52:41.647Z</time>
      </trkpt>
      <trkpt lat="44.17534" lon="5.64117">
        <ele>738</ele>
        <time>2021-05-28T10:53:06.559Z</time>
      </trkpt>
      <trkpt lat="44.17534" lon="5.64052">
        <ele>739.7</ele>
        <time>2021-05-28T10:53:23.761Z</time>
      </trkpt>
      <trkpt lat="44.17546" lon="5.63921">
        <ele>747</ele>
        <time>2021-05-28T10:54:13.238Z</time>
      </trkpt>
      <trkpt lat="44.17562" lon="5.63846">
        <ele>749.5</ele>
        <time>2021-05-28T10:54:36.521Z</time>
      </trkpt>
      <trkpt lat="44.17589" lon="5.63814">
        <ele>748.8</ele>
        <time>2021-05-28T10:54:41.782Z</time>
      </trkpt>
      <trkpt lat="44.17616" lon="5.63752">
        <ele>750.6</ele>
        <time>2021-05-28T10:55:00.498Z</time>
      </trkpt>
      <trkpt lat="44.17654" lon="5.63703">
        <ele>751.6</ele>
        <time>2021-05-28T10:55:15.953Z</time>
      </trkpt>
      <trkpt lat="44.17668" lon="5.63634">
        <ele>751.9</ele>
        <time>2021-05-28T10:55:29.305Z</time>
      </trkpt>
      <trkpt lat="44.17659" lon="5.63542">
        <ele>756.3</ele>
        <time>2021-05-28T10:56:01.288Z</time>
      </trkpt>
      <trkpt lat="44.17643" lon="5.63458">
        <ele>764.6</ele>
        <time>2021-05-28T10:57:00.136Z</time>
      </trkpt>
      <trkpt lat="44.17669" lon="5.63391">
        <ele>759.3</ele>
        <time>2021-05-28T10:57:05.842Z</time>
      </trkpt>
      <trkpt lat="44.17679" lon="5.63325">
        <ele>763.5</ele>
        <time>2021-05-28T10:57:33.240Z</time>
      </trkpt>
      <trkpt lat="44.17734" lon="5.63278">
        <ele>768.1</ele>
        <time>2021-05-28T10:58:05.457Z</time>
      </trkpt>
      <trkpt lat="44.17768" lon="5.63245">
        <ele>771.5</ele>
        <time>2021-05-28T10:58:27.994Z</time>
      </trkpt>
      <trkpt lat="44.17783" lon="5.63318">
        <ele>773.1</ele>
        <time>2021-05-28T10:58:46.305Z</time>
      </trkpt>
      <trkpt lat="44.17833" lon="5.63385">
        <ele>775.7</ele>
        <time>2021-05-28T10:59:12.261Z</time>
      </trkpt>
      <trkpt lat="44.17825" lon="5.63293">
        <ele>780.2</ele>
        <time>2021-05-28T10:59:44.568Z</time>
      </trkpt>
      <trkpt lat="44.1788" lon="5.63291">
        <ele>786.8</ele>
        <time>2021-05-28T11:00:28.219Z</time>
      </trkpt>
      <trkpt lat="44.17933" lon="5.63312">
        <ele>793.9</ele>
        <time>2021-05-28T11:01:17.207Z</time>
      </trkpt>
      <trkpt lat="44.17979" lon="5.63329">
        <ele>800.3</ele>
        <time>2021-05-28T11:02:02.315Z</time>
      </trkpt>
      <trkpt lat="44.18006" lon="5.63338">
        <ele>804.1</ele>
        <time>2021-05-28T11:02:28.629Z</time>
      </trkpt>
      <trkpt lat="44.18046" lon="5.63336">
        <ele>809.4</ele>
        <time>2021-05-28T11:03:06.018Z</time>
      </trkpt>
      <trkpt lat="44.18046" lon="5.63385">
        <ele>814.5</ele>
        <time>2021-05-28T11:03:39.327Z</time>
      </trkpt>
      <trkpt lat="44.18088" lon="5.63409">
        <ele>824.6</ele>
        <time>2021-05-28T11:04:22.351Z</time>
      </trkpt>
      <trkpt lat="44.18116" lon="5.63451">
        <ele>833.7</ele>
        <time>2021-05-28T11:05:01.332Z</time>
      </trkpt>
      <trkpt lat="44.18083" lon="5.63488">
        <ele>834.3</ele>
        <time>2021-05-28T11:05:13.290Z</time>
      </trkpt>
    </trkseg>
  </trk>
  <trk>
    <name><![CDATA[J3 Montagne de Lure]]></name>
    <extensions>
      <line xmlns="http://www.topografix.com/GPX/gpx_style/0/2">
        <color>00ff00</color>
        <width>4</width>
      </line>
    </extensions>
    <trkseg>
      <trkpt lat="44.1805" lon="5.63393">
        <ele>816</ele>
        <time>2021-05-29T06:30:23.000Z</time>
      </trkpt>
      <trkpt lat="44.18" lon="5.63444">
        <ele>811.3</ele>
        <time>2021-05-29T06:30:30.370Z</time>
      </trkpt>
      <trkpt lat="44.17963" lon="5.63487">
        <ele>802.6</ele>
        <time>2021-05-29T06:30:36.100Z</time>
      </trkpt>
      <trkpt lat="44.17926" lon="5.63573">
        <ele>794.7</ele>
        <time>2021-05-29T06:30:44.657Z</time>
      </trkpt>
      <trkpt lat="44.17902" lon="5.63646">
        <ele>787.9</ele>
        <time>2021-05-29T06:30:51.508Z</time>
      </trkpt>
      <trkpt lat="44.17883" lon="5.63749">
        <ele>781.6</ele>
        <time>2021-05-29T06:31:00.582Z</time>
      </trkpt>
      <trkpt lat="44.17834" lon="5.63796">
        <ele>772.7</ele>
        <time>2021-05-29T06:31:07.658Z</time>
      </trkpt>
      <trkpt lat="44.17754" lon="5.63826">
        <ele>759.6</ele>
        <time>2021-05-29T06:31:17.514Z</time>
      </trkpt>
      <trkpt lat="44.17683" lon="5.63852">
        <ele>751.9</ele>
        <time>2021-05-29T06:31:26.247Z</time>
      </trkpt>
      <trkpt lat="44.17622" lon="5.63865">
        <ele>748.5</ele>
        <time>2021-05-29T06:31:33.619Z</time>
      </trkpt>
      <trkpt lat="44.17585" lon="5.63856">
        <ele>747.5</ele>
        <time>2021-05-29T06:31:39.496Z</time>
      </trkpt>
      <trkpt lat="44.17526" lon="5.63874">
        <ele>750.8</ele>
        <time>2021-05-29T06:32:13.355Z</time>
      </trkpt>
      <trkpt lat="44.17483" lon="5.63899">
        <ele>750</ele>
        <time>2021-05-29T06:32:21.481Z</time>
      </trkpt>
      <trkpt lat="44.17459" lon="5.63925">
        <ele>746.7</ele>
        <time>2021-05-29T06:32:25.097Z</time>
      </trkpt>
      <trkpt lat="44.17406" lon="5.63916">
        <ele>745.2</ele>
        <time>2021-05-29T06:32:33.320Z</time>
      </trkpt>
      <trkpt lat="44.17332" lon="5.63942">
        <ele>738.1</ele>
        <time>2021-05-29T06:32:42.399Z</time>
      </trkpt>
      <trkpt lat="44.17286" lon="5.63947">
        <ele>738.5</ele>
        <time>2021-05-29T06:32:57.980Z</time>
      </trkpt>
      <trkpt lat="44.17215" lon="5.63942">
        <ele>741.1</ele>
        <time>2021-05-29T06:33:31.213Z</time>
      </trkpt>
      <trkpt lat="44.17166" lon="5.63998">
        <ele>742.2</ele>
        <time>2021-05-29T06:33:54.634Z</time>
      </trkpt>
      <trkpt lat="44.17117" lon="5.6405">
        <ele>747.6</ele>
        <time>2021-05-29T06:34:39.085Z</time>
      </trkpt>
      <trkpt lat="44.17071" lon="5.64105">
        <ele>750.5</ele>
        <time>2021-05-29T06:35:11.570Z</time>
      </trkpt>
      <trkpt lat="44.17046" lon="5.64161">
        <ele>751.7</ele>
        <time>2021-05-29T06:35:30.729Z</time>
      </trkpt>
      <trkpt lat="44.17" lon="5.64225">
        <ele>750.6</ele>
        <time>2021-05-29T06:35:42.098Z</time>
      </trkpt>
      <trkpt lat="44.16938" lon="5.64234">
        <ele>754.9</ele>
        <time>2021-05-29T06:36:20.795Z</time>
      </trkpt>
      <trkpt lat="44.16849" lon="5.64247">
        <ele>755.6</ele>
        <time>2021-05-29T06:36:50.761Z</time>
      </trkpt>
      <trkpt lat="44.16797" lon="5.64251">
        <ele>758.5</ele>
        <time>2021-05-29T06:37:20.165Z</time>
      </trkpt>
      <trkpt lat="44.16738" lon="5.64277">
        <ele>769.9</ele>
        <time>2021-05-29T06:38:34.361Z</time>
      </trkpt>
      <trkpt lat="44.16677" lon="5.64264">
        <ele>783.4</ele>
        <time>2021-05-29T06:39:48.355Z</time>
      </trkpt>
      <trkpt lat="44.16615" lon="5.6423">
        <ele>798</ele>
        <time>2021-05-29T06:41:08.244Z</time>
      </trkpt>
      <trkpt lat="44.16544" lon="5.64204">
        <ele>800.7</ele>
        <time>2021-05-29T06:41:42.659Z</time>
      </trkpt>
      <trkpt lat="44.16471" lon="5.64195">
        <ele>797.1</ele>
        <time>2021-05-29T06:41:51.871Z</time>
      </trkpt>
      <trkpt lat="44.164" lon="5.64238">
        <ele>801</ele>
        <time>2021-05-29T06:42:34.055Z</time>
      </trkpt>
      <trkpt lat="44.1635" lon="5.64307">
        <ele>809.4</ele>
        <time>2021-05-29T06:43:44.186Z</time>
      </trkpt>
      <trkpt lat="44.16292" lon="5.64367">
        <ele>813.7</ele>
        <time>2021-05-29T06:44:26.062Z</time>
      </trkpt>
      <trkpt lat="44.16369" lon="5.64376">
        <ele>820.9</ele>
        <time>2021-05-29T06:45:24.637Z</time>
      </trkpt>
      <trkpt lat="44.1636" lon="5.64436">
        <ele>824.1</ele>
        <time>2021-05-29T06:45:52.731Z</time>
      </trkpt>
      <trkpt lat="44.16344" lon="5.64513">
        <ele>820.3</ele>
        <time>2021-05-29T06:45:59.027Z</time>
      </trkpt>
      <trkpt lat="44.16335" lon="5.64586">
        <ele>815.9</ele>
        <time>2021-05-29T06:46:05.348Z</time>
      </trkpt>
      <trkpt lat="44.16338" lon="5.64659">
        <ele>810.5</ele>
        <time>2021-05-29T06:46:11.588Z</time>
      </trkpt>
      <trkpt lat="44.1632" lon="5.64715">
        <ele>807</ele>
        <time>2021-05-29T06:46:16.825Z</time>
      </trkpt>
      <trkpt lat="44.16277" lon="5.64723">
        <ele>809.8</ele>
        <time>2021-05-29T06:46:42.890Z</time>
      </trkpt>
      <trkpt lat="44.16273" lon="5.64783">
        <ele>809.4</ele>
        <time>2021-05-29T06:46:51.231Z</time>
      </trkpt>
      <trkpt lat="44.16283" lon="5.64805">
        <ele>809.5</ele>
        <time>2021-05-29T06:46:57.339Z</time>
      </trkpt>
      <trkpt lat="44.16233" lon="5.64874">
        <ele>811.5</ele>
        <time>2021-05-29T06:47:26.911Z</time>
      </trkpt>
      <trkpt lat="44.162" lon="5.64946">
        <ele>813.9</ele>
        <time>2021-05-29T06:47:56.621Z</time>
      </trkpt>
      <trkpt lat="44.16163" lon="5.65015">
        <ele>811</ele>
        <time>2021-05-29T06:48:04.542Z</time>
      </trkpt>
      <trkpt lat="44.16138" lon="5.65071">
        <ele>816.6</ele>
        <time>2021-05-29T06:48:51.124Z</time>
      </trkpt>
      <trkpt lat="44.16107" lon="5.65157">
        <ele>821.5</ele>
        <time>2021-05-29T06:49:34.633Z</time>
      </trkpt>
      <trkpt lat="44.16086" lon="5.65221">
        <ele>819.5</ele>
        <time>2021-05-29T06:49:41.554Z</time>
      </trkpt>
      <trkpt lat="44.16076" lon="5.65316">
        <ele>820.6</ele>
        <time>2021-05-29T06:50:06.637Z</time>
      </trkpt>
      <trkpt lat="44.16093" lon="5.65436">
        <ele>825.1</ele>
        <time>2021-05-29T06:50:54.740Z</time>
      </trkpt>
      <trkpt lat="44.16093" lon="5.65436">
        <ele>825.1</ele>
        <time>2021-05-29T06:50:54.740Z</time>
      </trkpt>
      <trkpt lat="44.16107" lon="5.65525">
        <ele>834.2</ele>
        <time>2021-05-29T06:52:13.117Z</time>
      </trkpt>
      <trkpt lat="44.16136" lon="5.65665">
        <ele>837.8</ele>
        <time>2021-05-29T06:53:00.589Z</time>
      </trkpt>
      <trkpt lat="44.16111" lon="5.65744">
        <ele>836.5</ele>
        <time>2021-05-29T06:53:10.915Z</time>
      </trkpt>
      <trkpt lat="44.161" lon="5.65869">
        <ele>837</ele>
        <time>2021-05-29T06:53:40.501Z</time>
      </trkpt>
      <trkpt lat="44.16053" lon="5.65942">
        <ele>838.9</ele>
        <time>2021-05-29T06:54:09.564Z</time>
      </trkpt>
      <trkpt lat="44.16032" lon="5.66">
        <ele>844.2</ele>
        <time>2021-05-29T06:54:53.056Z</time>
      </trkpt>
      <trkpt lat="44.16053" lon="5.66151">
        <ele>846.2</ele>
        <time>2021-05-29T06:55:34.187Z</time>
      </trkpt>
      <trkpt lat="44.1605" lon="5.66245">
        <ele>851.2</ele>
        <time>2021-05-29T06:56:17.751Z</time>
      </trkpt>
      <trkpt lat="44.16067" lon="5.66339">
        <ele>848.3</ele>
        <time>2021-05-29T06:56:27.099Z</time>
      </trkpt>
      <trkpt lat="44.1606" lon="5.66448">
        <ele>850.6</ele>
        <time>2021-05-29T06:57:00.457Z</time>
      </trkpt>
      <trkpt lat="44.16057" lon="5.66621">
        <ele>857.8</ele>
        <time>2021-05-29T06:58:11.671Z</time>
      </trkpt>
      <trkpt lat="44.16046" lon="5.6672">
        <ele>857.4</ele>
        <time>2021-05-29T06:58:32.257Z</time>
      </trkpt>
      <trkpt lat="44.1606" lon="5.66809">
        <ele>864.3</ele>
        <time>2021-05-29T06:59:28.128Z</time>
      </trkpt>
      <trkpt lat="44.16129" lon="5.66944">
        <ele>877.3</ele>
        <time>2021-05-29T07:01:13.867Z</time>
      </trkpt>
      <trkpt lat="44.1615" lon="5.67028">
        <ele>876.8</ele>
        <time>2021-05-29T07:01:26.419Z</time>
      </trkpt>
      <trkpt lat="44.16165" lon="5.67075">
        <ele>876.7</ele>
        <time>2021-05-29T07:01:37.434Z</time>
      </trkpt>
      <trkpt lat="44.16154" lon="5.67174">
        <ele>885</ele>
        <time>2021-05-29T07:02:45.862Z</time>
      </trkpt>
      <trkpt lat="44.16157" lon="5.67325">
        <ele>891.8</ele>
        <time>2021-05-29T07:03:50.138Z</time>
      </trkpt>
      <trkpt lat="44.1615" lon="5.6744">
        <ele>899.3</ele>
        <time>2021-05-29T07:04:51.446Z</time>
      </trkpt>
      <trkpt lat="44.16114" lon="5.67597">
        <ele>909.7</ele>
        <time>2021-05-29T07:06:16.996Z</time>
      </trkpt>
      <trkpt lat="44.16071" lon="5.67717">
        <ele>910.5</ele>
        <time>2021-05-29T07:06:49.376Z</time>
      </trkpt>
      <trkpt lat="44.16067" lon="5.67731">
        <ele>911.2</ele>
        <time>2021-05-29T07:06:55.881Z</time>
      </trkpt>
      <trkpt lat="44.16078" lon="5.67841">
        <ele>917.9</ele>
        <time>2021-05-29T07:07:51.648Z</time>
      </trkpt>
      <trkpt lat="44.15992" lon="5.68044">
        <ele>929.4</ele>
        <time>2021-05-29T07:09:35.872Z</time>
      </trkpt>
      <trkpt lat="44.15992" lon="5.68138">
        <ele>936.5</ele>
        <time>2021-05-29T07:10:33.349Z</time>
      </trkpt>
      <trkpt lat="44.15917" lon="5.68238">
        <ele>942.2</ele>
        <time>2021-05-29T07:11:31.644Z</time>
      </trkpt>
      <trkpt lat="44.15924" lon="5.68274">
        <ele>943.8</ele>
        <time>2021-05-29T07:11:47.187Z</time>
      </trkpt>
      <trkpt lat="44.15881" lon="5.68457">
        <ele>957.8</ele>
        <time>2021-05-29T07:13:40.348Z</time>
      </trkpt>
      <trkpt lat="44.1582" lon="5.68525">
        <ele>958.9</ele>
        <time>2021-05-29T07:14:08.226Z</time>
      </trkpt>
      <trkpt lat="44.15827" lon="5.68598">
        <ele>960.7</ele>
        <time>2021-05-29T07:14:32.102Z</time>
      </trkpt>
      <trkpt lat="44.1578" lon="5.6866">
        <ele>963.4</ele>
        <time>2021-05-29T07:15:04.663Z</time>
      </trkpt>
      <trkpt lat="44.15766" lon="5.68786">
        <ele>973.7</ele>
        <time>2021-05-29T07:16:28.964Z</time>
      </trkpt>
      <trkpt lat="44.15726" lon="5.68885">
        <ele>968.6</ele>
        <time>2021-05-29T07:16:38.133Z</time>
      </trkpt>
      <trkpt lat="44.15751" lon="5.68968">
        <ele>971.8</ele>
        <time>2021-05-29T07:17:13.135Z</time>
      </trkpt>
      <trkpt lat="44.15748" lon="5.69068">
        <ele>965.6</ele>
        <time>2021-05-29T07:17:21.678Z</time>
      </trkpt>
      <trkpt lat="44.15687" lon="5.69179">
        <ele>949.9</ele>
        <time>2021-05-29T07:17:33.612Z</time>
      </trkpt>
      <trkpt lat="44.1564" lon="5.69367">
        <ele>943.3</ele>
        <time>2021-05-29T07:17:52.036Z</time>
      </trkpt>
      <trkpt lat="44.1564" lon="5.69523">
        <ele>936.6</ele>
        <time>2021-05-29T07:18:04.897Z</time>
      </trkpt>
      <trkpt lat="44.15726" lon="5.69654">
        <ele>933.1</ele>
        <time>2021-05-29T07:18:24.649Z</time>
      </trkpt>
      <trkpt lat="44.15784" lon="5.69706">
        <ele>924.4</ele>
        <time>2021-05-29T07:18:32.853Z</time>
      </trkpt>
      <trkpt lat="44.15827" lon="5.69758">
        <ele>900.7</ele>
        <time>2021-05-29T07:18:39.625Z</time>
      </trkpt>
      <trkpt lat="44.15909" lon="5.69847">
        <ele>867.2</ele>
        <time>2021-05-29T07:18:51.989Z</time>
      </trkpt>
      <trkpt lat="44.16028" lon="5.69868">
        <ele>855.2</ele>
        <time>2021-05-29T07:19:06.260Z</time>
      </trkpt>
      <trkpt lat="44.16064" lon="5.69904">
        <ele>837.6</ele>
        <time>2021-05-29T07:19:11.531Z</time>
      </trkpt>
      <trkpt lat="44.16143" lon="5.69894">
        <ele>834.7</ele>
        <time>2021-05-29T07:19:22.732Z</time>
      </trkpt>
      <trkpt lat="44.16247" lon="5.69936">
        <ele>810.4</ele>
        <time>2021-05-29T07:19:35.614Z</time>
      </trkpt>
      <trkpt lat="44.16337" lon="5.69967">
        <ele>793.7</ele>
        <time>2021-05-29T07:19:46.643Z</time>
      </trkpt>
      <trkpt lat="44.1644" lon="5.6997">
        <ele>776</ele>
        <time>2021-05-29T07:19:58.899Z</time>
      </trkpt>
      <trkpt lat="44.16515" lon="5.6989">
        <ele>769.6</ele>
        <time>2021-05-29T07:20:10.134Z</time>
      </trkpt>
      <trkpt lat="44.16585" lon="5.69946">
        <ele>753.2</ele>
        <time>2021-05-29T07:20:19.736Z</time>
      </trkpt>
      <trkpt lat="44.16653" lon="5.69946">
        <ele>743.8</ele>
        <time>2021-05-29T07:20:27.826Z</time>
      </trkpt>
      <trkpt lat="44.16711" lon="5.69931">
        <ele>736.6</ele>
        <time>2021-05-29T07:20:34.844Z</time>
      </trkpt>
      <trkpt lat="44.16768" lon="5.69936">
        <ele>727.8</ele>
        <time>2021-05-29T07:20:41.638Z</time>
      </trkpt>
      <trkpt lat="44.16801" lon="5.69967">
        <ele>721.3</ele>
        <time>2021-05-29T07:20:46.373Z</time>
      </trkpt>
      <trkpt lat="44.16811" lon="5.70035">
        <ele>716.5</ele>
        <time>2021-05-29T07:20:52.296Z</time>
      </trkpt>
      <trkpt lat="44.16813" lon="5.70052">
        <ele>715.2</ele>
        <time>2021-05-29T07:20:53.766Z</time>
      </trkpt>
      <trkpt lat="44.16813" lon="5.70052">
        <ele>715.2</ele>
        <time>2021-05-29T07:20:53.766Z</time>
      </trkpt>
      <trkpt lat="44.16727" lon="5.7013">
        <ele>718.4</ele>
        <time>2021-05-29T07:21:38.418Z</time>
      </trkpt>
      <trkpt lat="44.16641" lon="5.70198">
        <ele>724.3</ele>
        <time>2021-05-29T07:22:35.799Z</time>
      </trkpt>
      <trkpt lat="44.1658" lon="5.70297">
        <ele>730.6</ele>
        <time>2021-05-29T07:23:33.191Z</time>
      </trkpt>
      <trkpt lat="44.16476" lon="5.70334">
        <ele>731.5</ele>
        <time>2021-05-29T07:24:09.334Z</time>
      </trkpt>
      <trkpt lat="44.16364" lon="5.7036">
        <ele>726.3</ele>
        <time>2021-05-29T07:24:24.034Z</time>
      </trkpt>
      <trkpt lat="44.16278" lon="5.70386">
        <ele>724.7</ele>
        <time>2021-05-29T07:24:39.197Z</time>
      </trkpt>
      <trkpt lat="44.16206" lon="5.70381">
        <ele>725.9</ele>
        <time>2021-05-29T07:25:05.639Z</time>
      </trkpt>
      <trkpt lat="44.16098" lon="5.70459">
        <ele>725.6</ele>
        <time>2021-05-29T07:25:42.075Z</time>
      </trkpt>
      <trkpt lat="44.16001" lon="5.7049">
        <ele>730.7</ele>
        <time>2021-05-29T07:26:36.616Z</time>
      </trkpt>
      <trkpt lat="44.15915" lon="5.70496">
        <ele>735.3</ele>
        <time>2021-05-29T07:27:24.496Z</time>
      </trkpt>
      <trkpt lat="44.15789" lon="5.70438">
        <ele>745.2</ele>
        <time>2021-05-29T07:28:50.491Z</time>
      </trkpt>
      <trkpt lat="44.15685" lon="5.70443">
        <ele>744.6</ele>
        <time>2021-05-29T07:29:20.215Z</time>
      </trkpt>
      <trkpt lat="44.15613" lon="5.70376">
        <ele>752</ele>
        <time>2021-05-29T07:30:21.526Z</time>
      </trkpt>
      <trkpt lat="44.15549" lon="5.70355">
        <ele>754.7</ele>
        <time>2021-05-29T07:30:54.290Z</time>
      </trkpt>
      <trkpt lat="44.1552" lon="5.70313">
        <ele>756.9</ele>
        <time>2021-05-29T07:31:17.417Z</time>
      </trkpt>
      <trkpt lat="44.1547" lon="5.7031">
        <ele>758</ele>
        <time>2021-05-29T07:31:36.897Z</time>
      </trkpt>
      <trkpt lat="44.15445" lon="5.70346">
        <ele>758.1</ele>
        <time>2021-05-29T07:31:48.364Z</time>
      </trkpt>
      <trkpt lat="44.15427" lon="5.70389">
        <ele>759.8</ele>
        <time>2021-05-29T07:32:07.479Z</time>
      </trkpt>
      <trkpt lat="44.15336" lon="5.70475">
        <ele>779</ele>
        <time>2021-05-29T07:34:19.314Z</time>
      </trkpt>
      <trkpt lat="44.15328" lon="5.70577">
        <ele>788.2</ele>
        <time>2021-05-29T07:35:37.965Z</time>
      </trkpt>
      <trkpt lat="44.15255" lon="5.70613">
        <ele>810.7</ele>
        <time>2021-05-29T07:37:10.816Z</time>
      </trkpt>
      <trkpt lat="44.15223" lon="5.70719">
        <ele>828.8</ele>
        <time>2021-05-29T07:38:49.755Z</time>
      </trkpt>
      <trkpt lat="44.15148" lon="5.70754">
        <ele>830.2</ele>
        <time>2021-05-29T07:39:19.100Z</time>
      </trkpt>
      <trkpt lat="44.15106" lon="5.70752">
        <ele>836.4</ele>
        <time>2021-05-29T07:40:09.491Z</time>
      </trkpt>
      <trkpt lat="44.15079" lon="5.70769">
        <ele>843.3</ele>
        <time>2021-05-29T07:40:45.017Z</time>
      </trkpt>
      <trkpt lat="44.1509" lon="5.70854">
        <ele>849.1</ele>
        <time>2021-05-29T07:41:32.172Z</time>
      </trkpt>
      <trkpt lat="44.15071" lon="5.70897">
        <ele>857.1</ele>
        <time>2021-05-29T07:42:15.619Z</time>
      </trkpt>
      <trkpt lat="44.15024" lon="5.70908">
        <ele>859.4</ele>
        <time>2021-05-29T07:42:41.233Z</time>
      </trkpt>
      <trkpt lat="44.14909" lon="5.70945">
        <ele>870.5</ele>
        <time>2021-05-29T07:44:11.417Z</time>
      </trkpt>
      <trkpt lat="44.14772" lon="5.71185">
        <ele>898.9</ele>
        <time>2021-05-29T07:48:19.586Z</time>
      </trkpt>
      <trkpt lat="44.14783" lon="5.71267">
        <ele>910.4</ele>
        <time>2021-05-29T07:49:31.361Z</time>
      </trkpt>
      <trkpt lat="44.14716" lon="5.71391">
        <ele>921.3</ele>
        <time>2021-05-29T07:50:59.567Z</time>
      </trkpt>
      <trkpt lat="44.14732" lon="5.71434">
        <ele>920.7</ele>
        <time>2021-05-29T07:51:05.623Z</time>
      </trkpt>
      <trkpt lat="44.14737" lon="5.71488">
        <ele>923.5</ele>
        <time>2021-05-29T07:51:30.374Z</time>
      </trkpt>
      <trkpt lat="44.14761" lon="5.71402">
        <ele>917.4</ele>
        <time>2021-05-29T07:51:38.251Z</time>
      </trkpt>
      <trkpt lat="44.1477" lon="5.71674">
        <ele>948.3</ele>
        <time>2021-05-29T07:55:32.528Z</time>
      </trkpt>
      <trkpt lat="44.14933" lon="5.71965">
        <ele>971.7</ele>
        <time>2021-05-29T07:58:44.821Z</time>
      </trkpt>
      <trkpt lat="44.14916" lon="5.7211">
        <ele>974.6</ele>
        <time>2021-05-29T07:59:28.633Z</time>
      </trkpt>
      <trkpt lat="44.14824" lon="5.72279">
        <ele>984.2</ele>
        <time>2021-05-29T08:00:59.122Z</time>
      </trkpt>
      <trkpt lat="44.1477" lon="5.72417">
        <ele>1001.7</ele>
        <time>2021-05-29T08:03:14.364Z</time>
      </trkpt>
      <trkpt lat="44.14717" lon="5.72404">
        <ele>1001.8</ele>
        <time>2021-05-29T08:03:31.384Z</time>
      </trkpt>
      <trkpt lat="44.1453" lon="5.72655">
        <ele>1035.7</ele>
        <time>2021-05-29T08:08:30.329Z</time>
      </trkpt>
      <trkpt lat="44.14458" lon="5.72661">
        <ele>1033.2</ele>
        <time>2021-05-29T08:08:40.708Z</time>
      </trkpt>
      <trkpt lat="44.14479" lon="5.72741">
        <ele>1029.4</ele>
        <time>2021-05-29T08:08:47.605Z</time>
      </trkpt>
      <trkpt lat="44.14474" lon="5.72967">
        <ele>1012.8</ele>
        <time>2021-05-29T08:09:06.908Z</time>
      </trkpt>
      <trkpt lat="44.14512" lon="5.73107">
        <ele>1002.4</ele>
        <time>2021-05-29T08:09:19.686Z</time>
      </trkpt>
      <trkpt lat="44.14438" lon="5.73043">
        <ele>991.3</ele>
        <time>2021-05-29T08:09:30.047Z</time>
      </trkpt>
      <trkpt lat="44.14392" lon="5.72969">
        <ele>994</ele>
        <time>2021-05-29T08:10:03.753Z</time>
      </trkpt>
      <trkpt lat="44.1432" lon="5.7303">
        <ele>980.1</ele>
        <time>2021-05-29T08:10:13.777Z</time>
      </trkpt>
      <trkpt lat="44.14285" lon="5.73086">
        <ele>975.8</ele>
        <time>2021-05-29T08:10:20.117Z</time>
      </trkpt>
      <trkpt lat="44.14304" lon="5.73125">
        <ele>970.4</ele>
        <time>2021-05-29T08:10:24.142Z</time>
      </trkpt>
      <trkpt lat="44.14241" lon="5.73206">
        <ele>971.2</ele>
        <time>2021-05-29T08:10:53.280Z</time>
      </trkpt>
      <trkpt lat="44.14316" lon="5.73355">
        <ele>974.3</ele>
        <time>2021-05-29T08:11:45.161Z</time>
      </trkpt>
      <trkpt lat="44.14294" lon="5.73472">
        <ele>982.9</ele>
        <time>2021-05-29T08:12:54.708Z</time>
      </trkpt>
      <trkpt lat="44.14226" lon="5.73569">
        <ele>980</ele>
        <time>2021-05-29T08:13:09.426Z</time>
      </trkpt>
      <trkpt lat="44.1421" lon="5.7371">
        <ele>984.8</ele>
        <time>2021-05-29T08:14:03.987Z</time>
      </trkpt>
      <trkpt lat="44.14241" lon="5.73814">
        <ele>984</ele>
        <time>2021-05-29T08:14:19.446Z</time>
      </trkpt>
      <trkpt lat="44.14222" lon="5.73911">
        <ele>981.6</ele>
        <time>2021-05-29T08:14:29.977Z</time>
      </trkpt>
      <trkpt lat="44.14304" lon="5.73928">
        <ele>976.6</ele>
        <time>2021-05-29T08:14:39.469Z</time>
      </trkpt>
      <trkpt lat="44.14359" lon="5.73969">
        <ele>976</ele>
        <time>2021-05-29T08:14:51.446Z</time>
      </trkpt>
      <trkpt lat="44.14385" lon="5.74041">
        <ele>979.3</ele>
        <time>2021-05-29T08:15:24.410Z</time>
      </trkpt>
      <trkpt lat="44.14355" lon="5.74119">
        <ele>984.9</ele>
        <time>2021-05-29T08:16:10.447Z</time>
      </trkpt>
      <trkpt lat="44.14371" lon="5.74367">
        <ele>1003</ele>
        <time>2021-05-29T08:18:36.748Z</time>
      </trkpt>
      <trkpt lat="44.14352" lon="5.74459">
        <ele>1008.8</ele>
        <time>2021-05-29T08:19:24.968Z</time>
      </trkpt>
      <trkpt lat="44.14369" lon="5.74536">
        <ele>1011.9</ele>
        <time>2021-05-29T08:19:57.157Z</time>
      </trkpt>
      <trkpt lat="44.14372" lon="5.74662">
        <ele>1012.1</ele>
        <time>2021-05-29T08:20:25.862Z</time>
      </trkpt>
      <trkpt lat="44.14364" lon="5.74725">
        <ele>1015.1</ele>
        <time>2021-05-29T08:20:53.608Z</time>
      </trkpt>
      <trkpt lat="44.14446" lon="5.74961">
        <ele>1020.1</ele>
        <time>2021-05-29T08:22:10.920Z</time>
      </trkpt>
      <trkpt lat="44.14436" lon="5.7505">
        <ele>1022.9</ele>
        <time>2021-05-29T08:22:44.232Z</time>
      </trkpt>
      <trkpt lat="44.14463" lon="5.75113">
        <ele>1023.4</ele>
        <time>2021-05-29T08:23:02.162Z</time>
      </trkpt>
      <trkpt lat="44.1449" lon="5.75234">
        <ele>1028.4</ele>
        <time>2021-05-29T08:23:53.258Z</time>
      </trkpt>
      <trkpt lat="44.1448" lon="5.75354">
        <ele>1037</ele>
        <time>2021-05-29T08:25:02.801Z</time>
      </trkpt>
      <trkpt lat="44.14402" lon="5.75388">
        <ele>1038.2</ele>
        <time>2021-05-29T08:25:32.156Z</time>
      </trkpt>
      <trkpt lat="44.14241" lon="5.75401">
        <ele>1052.7</ele>
        <time>2021-05-29T08:27:30.861Z</time>
      </trkpt>
      <trkpt lat="44.14207" lon="5.75468">
        <ele>1059.1</ele>
        <time>2021-05-29T08:28:22.867Z</time>
      </trkpt>
      <trkpt lat="44.14137" lon="5.75719">
        <ele>1051.7</ele>
        <time>2021-05-29T08:28:49.699Z</time>
      </trkpt>
      <trkpt lat="44.14045" lon="5.75961">
        <ele>1044.7</ele>
        <time>2021-05-29T08:29:17.710Z</time>
      </trkpt>
      <trkpt lat="44.13927" lon="5.76177">
        <ele>1034.1</ele>
        <time>2021-05-29T08:29:41.117Z</time>
      </trkpt>
      <trkpt lat="44.13905" lon="5.76362">
        <ele>1026.9</ele>
        <time>2021-05-29T08:29:57.409Z</time>
      </trkpt>
      <trkpt lat="44.1384" lon="5.76578">
        <ele>1018</ele>
        <time>2021-05-29T08:30:17.855Z</time>
      </trkpt>
      <trkpt lat="44.13847" lon="5.76824">
        <ele>1027.2</ele>
        <time>2021-05-29T08:31:55.217Z</time>
      </trkpt>
      <trkpt lat="44.13827" lon="5.76922">
        <ele>1012.5</ele>
        <time>2021-05-29T08:32:03.916Z</time>
      </trkpt>
      <trkpt lat="44.13831" lon="5.77013">
        <ele>1006.7</ele>
        <time>2021-05-29T08:32:11.700Z</time>
      </trkpt>
      <trkpt lat="44.13776" lon="5.77194">
        <ele>979.5</ele>
        <time>2021-05-29T08:32:28.482Z</time>
      </trkpt>
      <trkpt lat="44.13714" lon="5.77274">
        <ele>952.1</ele>
        <time>2021-05-29T08:32:38.535Z</time>
      </trkpt>
      <trkpt lat="44.13707" lon="5.77234">
        <ele>954.8</ele>
        <time>2021-05-29T08:33:00.571Z</time>
      </trkpt>
      <trkpt lat="44.13687" lon="5.77298">
        <ele>942.1</ele>
        <time>2021-05-29T08:33:06.531Z</time>
      </trkpt>
      <trkpt lat="44.13652" lon="5.77265">
        <ele>934.4</ele>
        <time>2021-05-29T08:33:11.558Z</time>
      </trkpt>
      <trkpt lat="44.13611" lon="5.77467">
        <ele>889.9</ele>
        <time>2021-05-29T08:33:29.482Z</time>
      </trkpt>
      <trkpt lat="44.13583" lon="5.77509">
        <ele>878.3</ele>
        <time>2021-05-29T08:33:34.376Z</time>
      </trkpt>
      <trkpt lat="44.13606" lon="5.77592">
        <ele>874.1</ele>
        <time>2021-05-29T08:33:41.383Z</time>
      </trkpt>
      <trkpt lat="44.13546" lon="5.77631">
        <ele>884.5</ele>
        <time>2021-05-29T08:35:00.771Z</time>
      </trkpt>
      <trkpt lat="44.13552" lon="5.7757">
        <ele>890.7</ele>
        <time>2021-05-29T08:35:53.757Z</time>
      </trkpt>
      <trkpt lat="44.13522" lon="5.77537">
        <ele>904.6</ele>
        <time>2021-05-29T08:36:39.589Z</time>
      </trkpt>
      <trkpt lat="44.13349" lon="5.77664">
        <ele>927.2</ele>
        <time>2021-05-29T08:39:45.957Z</time>
      </trkpt>
      <trkpt lat="44.13349" lon="5.77712">
        <ele>926</ele>
        <time>2021-05-29T08:39:50.906Z</time>
      </trkpt>
      <trkpt lat="44.133" lon="5.77775">
        <ele>940.8</ele>
        <time>2021-05-29T08:41:10.855Z</time>
      </trkpt>
      <trkpt lat="44.13295" lon="5.77886">
        <ele>940.8</ele>
        <time>2021-05-29T08:41:35.670Z</time>
      </trkpt>
      <trkpt lat="44.13325" lon="5.77992">
        <ele>937.5</ele>
        <time>2021-05-29T08:41:46.804Z</time>
      </trkpt>
      <trkpt lat="44.13297" lon="5.78029">
        <ele>950.6</ele>
        <time>2021-05-29T08:42:33.077Z</time>
      </trkpt>
      <trkpt lat="44.13319" lon="5.78129">
        <ele>953</ele>
        <time>2021-05-29T08:43:06.078Z</time>
      </trkpt>
      <trkpt lat="44.13388" lon="5.78162">
        <ele>954.7</ele>
        <time>2021-05-29T08:43:34.911Z</time>
      </trkpt>
      <trkpt lat="44.13405" lon="5.78268">
        <ele>964.1</ele>
        <time>2021-05-29T08:44:53.743Z</time>
      </trkpt>
      <trkpt lat="44.13388" lon="5.78384">
        <ele>979.6</ele>
        <time>2021-05-29T08:46:35.632Z</time>
      </trkpt>
      <trkpt lat="44.13408" lon="5.78422">
        <ele>976.4</ele>
        <time>2021-05-29T08:46:39.656Z</time>
      </trkpt>
      <trkpt lat="44.13356" lon="5.78559">
        <ele>998.4</ele>
        <time>2021-05-29T08:48:53.031Z</time>
      </trkpt>
      <trkpt lat="44.1332" lon="5.78582">
        <ele>1008.1</ele>
        <time>2021-05-29T08:49:40.519Z</time>
      </trkpt>
      <trkpt lat="44.13336" lon="5.78564">
        <ele>1002.2</ele>
        <time>2021-05-29T08:49:42.966Z</time>
      </trkpt>
      <trkpt lat="44.13302" lon="5.78539">
        <ele>1010</ele>
        <time>2021-05-29T08:50:29.064Z</time>
      </trkpt>
      <trkpt lat="44.13273" lon="5.78499">
        <ele>1014.7</ele>
        <time>2021-05-29T08:51:07.779Z</time>
      </trkpt>
      <trkpt lat="44.132" lon="5.78473">
        <ele>1027.3</ele>
        <time>2021-05-29T08:52:38.126Z</time>
      </trkpt>
      <trkpt lat="44.13219" lon="5.78539">
        <ele>1032.3</ele>
        <time>2021-05-29T08:53:18.585Z</time>
      </trkpt>
      <trkpt lat="44.13202" lon="5.78604">
        <ele>1051.3</ele>
        <time>2021-05-29T08:54:18.124Z</time>
      </trkpt>
      <trkpt lat="44.13267" lon="5.7865">
        <ele>1044.2</ele>
        <time>2021-05-29T08:54:26.797Z</time>
      </trkpt>
      <trkpt lat="44.13303" lon="5.78721">
        <ele>1050</ele>
        <time>2021-05-29T08:55:13.999Z</time>
      </trkpt>
      <trkpt lat="44.13324" lon="5.78808">
        <ele>1063.7</ele>
        <time>2021-05-29T08:56:32.993Z</time>
      </trkpt>
      <trkpt lat="44.13365" lon="5.78863">
        <ele>1061.3</ele>
        <time>2021-05-29T08:56:40.610Z</time>
      </trkpt>
      <trkpt lat="44.1338" lon="5.78918">
        <ele>1071.3</ele>
        <time>2021-05-29T08:57:31.246Z</time>
      </trkpt>
      <trkpt lat="44.13413" lon="5.78932">
        <ele>1064.6</ele>
        <time>2021-05-29T08:57:35.350Z</time>
      </trkpt>
      <trkpt lat="44.1347" lon="5.79025">
        <ele>1073.1</ele>
        <time>2021-05-29T08:58:44.188Z</time>
      </trkpt>
      <trkpt lat="44.13503" lon="5.79237">
        <ele>1098.7</ele>
        <time>2021-05-29T09:01:50.874Z</time>
      </trkpt>
      <trkpt lat="44.13584" lon="5.79331">
        <ele>1097.8</ele>
        <time>2021-05-29T09:02:11.412Z</time>
      </trkpt>
      <trkpt lat="44.13568" lon="5.79509">
        <ele>1118</ele>
        <time>2021-05-29T09:04:45.791Z</time>
      </trkpt>
      <trkpt lat="44.13687" lon="5.7959">
        <ele>1092.9</ele>
        <time>2021-05-29T09:05:01.547Z</time>
      </trkpt>
      <trkpt lat="44.13668" lon="5.79771">
        <ele>1091.1</ele>
        <time>2021-05-29T09:05:25.449Z</time>
      </trkpt>
      <trkpt lat="44.13635" lon="5.79828">
        <ele>1097.6</ele>
        <time>2021-05-29T09:06:20.678Z</time>
      </trkpt>
      <trkpt lat="44.13655" lon="5.79916">
        <ele>1077.3</ele>
        <time>2021-05-29T09:06:28.559Z</time>
      </trkpt>
      <trkpt lat="44.1364" lon="5.80003">
        <ele>1076.4</ele>
        <time>2021-05-29T09:06:40.205Z</time>
      </trkpt>
      <trkpt lat="44.13553" lon="5.80008">
        <ele>1096.7</ele>
        <time>2021-05-29T09:08:24.614Z</time>
      </trkpt>
      <trkpt lat="44.13603" lon="5.80131">
        <ele>1086.7</ele>
        <time>2021-05-29T09:08:36.684Z</time>
      </trkpt>
      <trkpt lat="44.13607" lon="5.80216">
        <ele>1087.5</ele>
        <time>2021-05-29T09:08:58.277Z</time>
      </trkpt>
      <trkpt lat="44.13581" lon="5.80273">
        <ele>1091.9</ele>
        <time>2021-05-29T09:09:34.231Z</time>
      </trkpt>
      <trkpt lat="44.13557" lon="5.80709">
        <ele>1100.1</ele>
        <time>2021-05-29T09:11:42.490Z</time>
      </trkpt>
      <trkpt lat="44.13498" lon="5.80774">
        <ele>1105.8</ele>
        <time>2021-05-29T09:12:31.686Z</time>
      </trkpt>
      <trkpt lat="44.13583" lon="5.80974">
        <ele>1106.1</ele>
        <time>2021-05-29T09:13:24.414Z</time>
      </trkpt>
      <trkpt lat="44.13338" lon="5.81473">
        <ele>1126.9</ele>
        <time>2021-05-29T09:17:17.135Z</time>
      </trkpt>
      <trkpt lat="44.13214" lon="5.81483">
        <ele>1146.1</ele>
        <time>2021-05-29T09:19:46.070Z</time>
      </trkpt>
      <trkpt lat="44.13111" lon="5.81772">
        <ele>1158.2</ele>
        <time>2021-05-29T09:21:53.841Z</time>
      </trkpt>
      <trkpt lat="44.13083" lon="5.81908">
        <ele>1159.1</ele>
        <time>2021-05-29T09:22:28.199Z</time>
      </trkpt>
      <trkpt lat="44.13044" lon="5.81924">
        <ele>1169.7</ele>
        <time>2021-05-29T09:23:16.949Z</time>
      </trkpt>
      <trkpt lat="44.13068" lon="5.8185">
        <ele>1171.4</ele>
        <time>2021-05-29T09:23:41.673Z</time>
      </trkpt>
      <trkpt lat="44.1305" lon="5.81718">
        <ele>1188.4</ele>
        <time>2021-05-29T09:25:37.311Z</time>
      </trkpt>
      <trkpt lat="44.13077" lon="5.81605">
        <ele>1186.1</ele>
        <time>2021-05-29T09:25:50.646Z</time>
      </trkpt>
      <trkpt lat="44.13067" lon="5.81412">
        <ele>1211.4</ele>
        <time>2021-05-29T09:28:37.183Z</time>
      </trkpt>
      <trkpt lat="44.13132" lon="5.81291">
        <ele>1208.6</ele>
        <time>2021-05-29T09:28:54.309Z</time>
      </trkpt>
      <trkpt lat="44.13139" lon="5.81207">
        <ele>1207.9</ele>
        <time>2021-05-29T09:29:05.673Z</time>
      </trkpt>
      <trkpt lat="44.13094" lon="5.81325">
        <ele>1216.8</ele>
        <time>2021-05-29T09:30:18.123Z</time>
      </trkpt>
      <trkpt lat="44.13035" lon="5.8137">
        <ele>1238.3</ele>
        <time>2021-05-29T09:31:38.776Z</time>
      </trkpt>
      <trkpt lat="44.13011" lon="5.8154">
        <ele>1225.9</ele>
        <time>2021-05-29T09:31:53.570Z</time>
      </trkpt>
      <trkpt lat="44.12933" lon="5.81753">
        <ele>1238.2</ele>
        <time>2021-05-29T09:33:42.300Z</time>
      </trkpt>
      <trkpt lat="44.12873" lon="5.81867">
        <ele>1243.1</ele>
        <time>2021-05-29T09:34:36.845Z</time>
      </trkpt>
      <trkpt lat="44.12826" lon="5.81909">
        <ele>1256.4</ele>
        <time>2021-05-29T09:35:43.799Z</time>
      </trkpt>
      <trkpt lat="44.12761" lon="5.82134">
        <ele>1251.6</ele>
        <time>2021-05-29T09:36:10.763Z</time>
      </trkpt>
      <trkpt lat="44.12693" lon="5.82142">
        <ele>1272.8</ele>
        <time>2021-05-29T09:37:32.591Z</time>
      </trkpt>
      <trkpt lat="44.12664" lon="5.82219">
        <ele>1264.8</ele>
        <time>2021-05-29T09:37:40.016Z</time>
      </trkpt>
      <trkpt lat="44.12532" lon="5.82339">
        <ele>1285.4</ele>
        <time>2021-05-29T09:40:41.818Z</time>
      </trkpt>
      <trkpt lat="44.1248" lon="5.82443">
        <ele>1289.5</ele>
        <time>2021-05-29T09:41:29.723Z</time>
      </trkpt>
      <trkpt lat="44.12476" lon="5.82516">
        <ele>1286.1</ele>
        <time>2021-05-29T09:41:35.538Z</time>
      </trkpt>
      <trkpt lat="44.12322" lon="5.82788">
        <ele>1304.1</ele>
        <time>2021-05-29T09:44:13.944Z</time>
      </trkpt>
      <trkpt lat="44.12115" lon="5.82997">
        <ele>1324.5</ele>
        <time>2021-05-29T09:47:06.624Z</time>
      </trkpt>
      <trkpt lat="44.11987" lon="5.83175">
        <ele>1335.3</ele>
        <time>2021-05-29T09:48:51.621Z</time>
      </trkpt>
      <trkpt lat="44.12055" lon="5.8298">
        <ele>1350</ele>
        <time>2021-05-29T09:50:50.986Z</time>
      </trkpt>
      <trkpt lat="44.12137" lon="5.82879">
        <ele>1351.3</ele>
        <time>2021-05-29T09:51:29.167Z</time>
      </trkpt>
      <trkpt lat="44.12239" lon="5.82672">
        <ele>1368.4</ele>
        <time>2021-05-29T09:53:47.945Z</time>
      </trkpt>
      <trkpt lat="44.12309" lon="5.82454">
        <ele>1377.1</ele>
        <time>2021-05-29T09:55:21.592Z</time>
      </trkpt>
      <trkpt lat="44.12293" lon="5.82396">
        <ele>1394.4</ele>
        <time>2021-05-29T09:56:15.075Z</time>
      </trkpt>
      <trkpt lat="44.12468" lon="5.81933">
        <ele>1421</ele>
        <time>2021-05-29T10:00:11.500Z</time>
      </trkpt>
      <trkpt lat="44.12535" lon="5.81826">
        <ele>1419.5</ele>
        <time>2021-05-29T10:00:29.823Z</time>
      </trkpt>
      <trkpt lat="44.12621" lon="5.81429">
        <ele>1453.4</ele>
        <time>2021-05-29T10:05:08.121Z</time>
      </trkpt>
      <trkpt lat="44.12693" lon="5.81246">
        <ele>1461.6</ele>
        <time>2021-05-29T10:06:32.158Z</time>
      </trkpt>
      <trkpt lat="44.12666" lon="5.81239">
        <ele>1478.2</ele>
        <time>2021-05-29T10:07:05.089Z</time>
      </trkpt>
      <trkpt lat="44.12595" lon="5.81404">
        <ele>1474</ele>
        <time>2021-05-29T10:07:25.841Z</time>
      </trkpt>
      <trkpt lat="44.12457" lon="5.81729">
        <ele>1483.8</ele>
        <time>2021-05-29T10:09:31.827Z</time>
      </trkpt>
      <trkpt lat="44.12218" lon="5.82043">
        <ele>1522.1</ele>
        <time>2021-05-29T10:14:48.600Z</time>
      </trkpt>
      <trkpt lat="44.12052" lon="5.82384">
        <ele>1532.8</ele>
        <time>2021-05-29T10:17:06.116Z</time>
      </trkpt>
      <trkpt lat="44.11765" lon="5.8277">
        <ele>1572.2</ele>
        <time>2021-05-29T10:22:24.784Z</time>
      </trkpt>
      <trkpt lat="44.11559" lon="5.83186">
        <ele>1585.5</ele>
        <time>2021-05-29T10:25:14.590Z</time>
      </trkpt>
      <trkpt lat="44.11555" lon="5.83295">
        <ele>1577.2</ele>
        <time>2021-05-29T10:25:23.912Z</time>
      </trkpt>
      <trkpt lat="44.11529" lon="5.83331">
        <ele>1581.1</ele>
        <time>2021-05-29T10:25:55.515Z</time>
      </trkpt>
      <trkpt lat="44.11492" lon="5.83053">
        <ele>1601.8</ele>
        <time>2021-05-29T10:28:42.838Z</time>
      </trkpt>
      <trkpt lat="44.11552" lon="5.8286">
        <ele>1609.1</ele>
        <time>2021-05-29T10:30:04.036Z</time>
      </trkpt>
      <trkpt lat="44.11727" lon="5.82589">
        <ele>1621.2</ele>
        <time>2021-05-29T10:32:22.861Z</time>
      </trkpt>
      <trkpt lat="44.11746" lon="5.82412">
        <ele>1628.4</ele>
        <time>2021-05-29T10:33:35.579Z</time>
      </trkpt>
      <trkpt lat="44.11829" lon="5.82219">
        <ele>1647.1</ele>
        <time>2021-05-29T10:36:09.876Z</time>
      </trkpt>
      <trkpt lat="44.11846" lon="5.82085">
        <ele>1650.7</ele>
        <time>2021-05-29T10:36:55.719Z</time>
      </trkpt>
      <trkpt lat="44.11782" lon="5.81782">
        <ele>1660.9</ele>
        <time>2021-05-29T10:38:55.052Z</time>
      </trkpt>
      <trkpt lat="44.11771" lon="5.81614">
        <ele>1667</ele>
        <time>2021-05-29T10:40:01.044Z</time>
      </trkpt>
      <trkpt lat="44.11771" lon="5.81614">
        <ele>1667</ele>
        <time>2021-05-29T10:40:01.044Z</time>
      </trkpt>
      <trkpt lat="44.11775" lon="5.81563">
        <ele>1665.1</ele>
        <time>2021-05-29T10:40:05.576Z</time>
      </trkpt>
      <trkpt lat="44.11823" lon="5.81569">
        <ele>1669.8</ele>
        <time>2021-05-29T10:40:43.619Z</time>
      </trkpt>
      <trkpt lat="44.11871" lon="5.81591">
        <ele>1677.2</ele>
        <time>2021-05-29T10:41:44.210Z</time>
      </trkpt>
      <trkpt lat="44.11889" lon="5.8164">
        <ele>1682.1</ele>
        <time>2021-05-29T10:42:25.909Z</time>
      </trkpt>
      <trkpt lat="44.11912" lon="5.81698">
        <ele>1686.5</ele>
        <time>2021-05-29T10:43:01.745Z</time>
      </trkpt>
      <trkpt lat="44.1194" lon="5.81762">
        <ele>1695.3</ele>
        <time>2021-05-29T10:44:06.261Z</time>
      </trkpt>
      <trkpt lat="44.11944" lon="5.81825">
        <ele>1700.4</ele>
        <time>2021-05-29T10:44:47.977Z</time>
      </trkpt>
      <trkpt lat="44.11948" lon="5.81913">
        <ele>1696.2</ele>
        <time>2021-05-29T10:44:54.892Z</time>
      </trkpt>
      <trkpt lat="44.12006" lon="5.8185">
        <ele>1698.3</ele>
        <time>2021-05-29T10:45:25.854Z</time>
      </trkpt>
      <trkpt lat="44.12031" lon="5.81758">
        <ele>1698.2</ele>
        <time>2021-05-29T10:45:47.342Z</time>
      </trkpt>
      <trkpt lat="44.12066" lon="5.81649">
        <ele>1710.4</ele>
        <time>2021-05-29T10:47:30.127Z</time>
      </trkpt>
      <trkpt lat="44.121" lon="5.81552">
        <ele>1720.1</ele>
        <time>2021-05-29T10:48:53.137Z</time>
      </trkpt>
      <trkpt lat="44.12126" lon="5.81466">
        <ele>1727</ele>
        <time>2021-05-29T10:49:48.925Z</time>
      </trkpt>
      <trkpt lat="44.12168" lon="5.81396">
        <ele>1732</ele>
        <time>2021-05-29T10:50:31.952Z</time>
      </trkpt>
      <trkpt lat="44.122" lon="5.81308">
        <ele>1723.1</ele>
        <time>2021-05-29T10:50:40.377Z</time>
      </trkpt>
      <trkpt lat="44.12248" lon="5.81202">
        <ele>1726.8</ele>
        <time>2021-05-29T10:51:25.248Z</time>
      </trkpt>
      <trkpt lat="44.12293" lon="5.8111">
        <ele>1730.3</ele>
        <time>2021-05-29T10:52:06.735Z</time>
      </trkpt>
      <trkpt lat="44.12317" lon="5.81001">
        <ele>1748.6</ele>
        <time>2021-05-29T10:53:44.872Z</time>
      </trkpt>
      <trkpt lat="44.12322" lon="5.80908">
        <ele>1759.5</ele>
        <time>2021-05-29T10:55:05.146Z</time>
      </trkpt>
      <trkpt lat="44.12317" lon="5.80829">
        <ele>1762.5</ele>
        <time>2021-05-29T10:55:36.649Z</time>
      </trkpt>
      <trkpt lat="44.1234" lon="5.80705">
        <ele>1773.7</ele>
        <time>2021-05-29T10:57:11.047Z</time>
      </trkpt>
      <trkpt lat="44.12339" lon="5.80634">
        <ele>1776.9</ele>
        <time>2021-05-29T10:57:41.288Z</time>
      </trkpt>
      <trkpt lat="44.12308" lon="5.80539">
        <ele>1781.6</ele>
        <time>2021-05-29T10:58:25.717Z</time>
      </trkpt>
      <trkpt lat="44.12274" lon="5.80439">
        <ele>1795.1</ele>
        <time>2021-05-29T11:00:00.960Z</time>
      </trkpt>
      <trkpt lat="44.12274" lon="5.8034">
        <ele>1805.6</ele>
        <time>2021-05-29T11:01:26.175Z</time>
      </trkpt>
      <trkpt lat="44.1228" lon="5.80282">
        <ele>1808.7</ele>
        <time>2021-05-29T11:01:53.244Z</time>
      </trkpt>
      <trkpt lat="44.12254" lon="5.80248">
        <ele>1816.8</ele>
        <time>2021-05-29T11:02:36.004Z</time>
      </trkpt>
      <trkpt lat="44.12308" lon="5.80175">
        <ele>1801.4</ele>
        <time>2021-05-29T11:02:44.956Z</time>
      </trkpt>
      <trkpt lat="44.12337" lon="5.80082">
        <ele>1795.1</ele>
        <time>2021-05-29T11:02:53.615Z</time>
      </trkpt>
      <trkpt lat="44.12362" lon="5.79981">
        <ele>1785.8</ele>
        <time>2021-05-29T11:03:02.739Z</time>
      </trkpt>
      <trkpt lat="44.12363" lon="5.79896">
        <ele>1790.2</ele>
        <time>2021-05-29T11:03:41.528Z</time>
      </trkpt>
      <trkpt lat="44.12345" lon="5.79823">
        <ele>1797.8</ele>
        <time>2021-05-29T11:04:47.967Z</time>
      </trkpt>
      <trkpt lat="44.12342" lon="5.79752">
        <ele>1796</ele>
        <time>2021-05-29T11:04:55.270Z</time>
      </trkpt>
      <trkpt lat="44.12371" lon="5.79666">
        <ele>1778.1</ele>
        <time>2021-05-29T11:05:03.384Z</time>
      </trkpt>
      <trkpt lat="44.1239" lon="5.79604">
        <ele>1768.2</ele>
        <time>2021-05-29T11:05:09.141Z</time>
      </trkpt>
      <trkpt lat="44.12376" lon="5.79533">
        <ele>1761.5</ele>
        <time>2021-05-29T11:05:15.429Z</time>
      </trkpt>
      <trkpt lat="44.12363" lon="5.79486">
        <ele>1757.4</ele>
        <time>2021-05-29T11:05:19.731Z</time>
      </trkpt>
      <trkpt lat="44.12376" lon="5.79383">
        <ele>1736.9</ele>
        <time>2021-05-29T11:05:28.662Z</time>
      </trkpt>
      <trkpt lat="44.12377" lon="5.79295">
        <ele>1719.2</ele>
        <time>2021-05-29T11:05:36.178Z</time>
      </trkpt>
      <trkpt lat="44.12377" lon="5.79215">
        <ele>1702.9</ele>
        <time>2021-05-29T11:05:43.010Z</time>
      </trkpt>
      <trkpt lat="44.12371" lon="5.79147">
        <ele>1695.2</ele>
        <time>2021-05-29T11:05:48.861Z</time>
      </trkpt>
      <trkpt lat="44.1236" lon="5.791">
        <ele>1696</ele>
        <time>2021-05-29T11:06:02.763Z</time>
      </trkpt>
      <trkpt lat="44.12337" lon="5.79031">
        <ele>1709.4</ele>
        <time>2021-05-29T11:07:08.246Z</time>
      </trkpt>
      <trkpt lat="44.12305" lon="5.78932">
        <ele>1723.5</ele>
        <time>2021-05-29T11:08:41.701Z</time>
      </trkpt>
      <trkpt lat="44.12282" lon="5.78879">
        <ele>1726.9</ele>
        <time>2021-05-29T11:09:10.940Z</time>
      </trkpt>
      <trkpt lat="44.12262" lon="5.78829">
        <ele>1729.3</ele>
        <time>2021-05-29T11:09:34.578Z</time>
      </trkpt>
      <trkpt lat="44.12245" lon="5.78771">
        <ele>1723.7</ele>
        <time>2021-05-29T11:09:39.928Z</time>
      </trkpt>
      <trkpt lat="44.12229" lon="5.78679">
        <ele>1715.1</ele>
        <time>2021-05-29T11:09:48.012Z</time>
      </trkpt>
      <trkpt lat="44.12222" lon="5.7864">
        <ele>1714.5</ele>
        <time>2021-05-29T11:09:52.834Z</time>
      </trkpt>
      <trkpt lat="44.12171" lon="5.78615">
        <ele>1714</ele>
        <time>2021-05-29T11:10:03.267Z</time>
      </trkpt>
      <trkpt lat="44.12125" lon="5.78608">
        <ele>1707.5</ele>
        <time>2021-05-29T11:10:08.772Z</time>
      </trkpt>
      <trkpt lat="44.12078" lon="5.78606">
        <ele>1700.3</ele>
        <time>2021-05-29T11:10:14.366Z</time>
      </trkpt>
      <trkpt lat="44.12015" lon="5.78649">
        <ele>1693.5</ele>
        <time>2021-05-29T11:10:22.713Z</time>
      </trkpt>
      <trkpt lat="44.11981" lon="5.78688">
        <ele>1691.8</ele>
        <time>2021-05-29T11:10:28.810Z</time>
      </trkpt>
      <trkpt lat="44.11925" lon="5.78703">
        <ele>1694.3</ele>
        <time>2021-05-29T11:10:58.433Z</time>
      </trkpt>
      <trkpt lat="44.11848" lon="5.78731">
        <ele>1696.5</ele>
        <time>2021-05-29T11:11:31.562Z</time>
      </trkpt>
      <trkpt lat="44.11782" lon="5.78749">
        <ele>1698.8</ele>
        <time>2021-05-29T11:12:02.006Z</time>
      </trkpt>
      <trkpt lat="44.11742" lon="5.78766">
        <ele>1696.4</ele>
        <time>2021-05-29T11:12:06.908Z</time>
      </trkpt>
      <trkpt lat="44.1171" lon="5.78751">
        <ele>1693.2</ele>
        <time>2021-05-29T11:12:10.925Z</time>
      </trkpt>
      <trkpt lat="44.11669" lon="5.78756">
        <ele>1687.2</ele>
        <time>2021-05-29T11:12:15.821Z</time>
      </trkpt>
      <trkpt lat="44.11633" lon="5.7875">
        <ele>1679.3</ele>
        <time>2021-05-29T11:12:20.135Z</time>
      </trkpt>
      <trkpt lat="44.11604" lon="5.78761">
        <ele>1673.2</ele>
        <time>2021-05-29T11:12:23.711Z</time>
      </trkpt>
      <trkpt lat="44.11596" lon="5.78788">
        <ele>1672.8</ele>
        <time>2021-05-29T11:12:27.286Z</time>
      </trkpt>
      <trkpt lat="44.11624" lon="5.78836">
        <ele>1678.8</ele>
        <time>2021-05-29T11:13:20.527Z</time>
      </trkpt>
      <trkpt lat="44.11658" lon="5.78851">
        <ele>1680.6</ele>
        <time>2021-05-29T11:13:39.974Z</time>
      </trkpt>
      <trkpt lat="44.11652" lon="5.78872">
        <ele>1675</ele>
        <time>2021-05-29T11:13:41.904Z</time>
      </trkpt>
      <trkpt lat="44.1162" lon="5.78859">
        <ele>1673.8</ele>
        <time>2021-05-29T11:13:46.637Z</time>
      </trkpt>
      <trkpt lat="44.11589" lon="5.78865">
        <ele>1668.8</ele>
        <time>2021-05-29T11:13:50.361Z</time>
      </trkpt>
      <trkpt lat="44.11542" lon="5.78911">
        <ele>1661.9</ele>
        <time>2021-05-29T11:13:57.195Z</time>
      </trkpt>
      <trkpt lat="44.11532" lon="5.78953">
        <ele>1653.7</ele>
        <time>2021-05-29T11:14:00.974Z</time>
      </trkpt>
      <trkpt lat="44.11522" lon="5.78965">
        <ele>1652.3</ele>
        <time>2021-05-29T11:14:02.545Z</time>
      </trkpt>
      <trkpt lat="44.11462" lon="5.7908">
        <ele>1634.7</ele>
        <time>2021-05-29T11:14:14.687Z</time>
      </trkpt>
      <trkpt lat="44.11435" lon="5.7914">
        <ele>1625.8</ele>
        <time>2021-05-29T11:14:20.735Z</time>
      </trkpt>
      <trkpt lat="44.11409" lon="5.79167">
        <ele>1623</ele>
        <time>2021-05-29T11:14:24.593Z</time>
      </trkpt>
      <trkpt lat="44.11401" lon="5.79185">
        <ele>1618.4</ele>
        <time>2021-05-29T11:14:26.402Z</time>
      </trkpt>
      <trkpt lat="44.11379" lon="5.79198">
        <ele>1614</ele>
        <time>2021-05-29T11:14:29.245Z</time>
      </trkpt>
      <trkpt lat="44.1137" lon="5.79199">
        <ele>1613.2</ele>
        <time>2021-05-29T11:14:30.319Z</time>
      </trkpt>
      <trkpt lat="44.11341" lon="5.79216">
        <ele>1609</ele>
        <time>2021-05-29T11:14:34.062Z</time>
      </trkpt>
      <trkpt lat="44.11333" lon="5.79241">
        <ele>1605.9</ele>
        <time>2021-05-29T11:14:36.400Z</time>
      </trkpt>
      <trkpt lat="44.11285" lon="5.79274">
        <ele>1593.1</ele>
        <time>2021-05-29T11:14:42.768Z</time>
      </trkpt>
      <trkpt lat="44.11243" lon="5.79327">
        <ele>1577.1</ele>
        <time>2021-05-29T11:14:49.511Z</time>
      </trkpt>
      <trkpt lat="44.11195" lon="5.7935">
        <ele>1570.1</ele>
        <time>2021-05-29T11:14:55.550Z</time>
      </trkpt>
      <trkpt lat="44.11136" lon="5.79327">
        <ele>1574</ele>
        <time>2021-05-29T11:15:32.126Z</time>
      </trkpt>
      <trkpt lat="44.11128" lon="5.79329">
        <ele>1574</ele>
        <time>2021-05-29T11:15:34.653Z</time>
      </trkpt>
      <trkpt lat="44.11123" lon="5.79337">
        <ele>1573.3</ele>
        <time>2021-05-29T11:15:35.559Z</time>
      </trkpt>
      <trkpt lat="44.11124" lon="5.79324">
        <ele>1573.8</ele>
        <time>2021-05-29T11:15:40.773Z</time>
      </trkpt>
      <trkpt lat="44.11126" lon="5.79332">
        <ele>1574</ele>
        <time>2021-05-29T11:15:43.479Z</time>
      </trkpt>
      <trkpt lat="44.11121" lon="5.79351">
        <ele>1570.7</ele>
        <time>2021-05-29T11:15:45.207Z</time>
      </trkpt>
      <trkpt lat="44.11094" lon="5.79394">
        <ele>1564.5</ele>
        <time>2021-05-29T11:15:50.086Z</time>
      </trkpt>
      <trkpt lat="44.11084" lon="5.79402">
        <ele>1564.1</ele>
        <time>2021-05-29T11:15:51.745Z</time>
      </trkpt>
      <trkpt lat="44.11059" lon="5.79436">
        <ele>1557.8</ele>
        <time>2021-05-29T11:15:55.902Z</time>
      </trkpt>
      <trkpt lat="44.11003" lon="5.79494">
        <ele>1546.3</ele>
        <time>2021-05-29T11:16:04.205Z</time>
      </trkpt>
      <trkpt lat="44.1099" lon="5.79503">
        <ele>1544.7</ele>
        <time>2021-05-29T11:16:05.932Z</time>
      </trkpt>
      <trkpt lat="44.10935" lon="5.7951">
        <ele>1546.9</ele>
        <time>2021-05-29T11:16:32.965Z</time>
      </trkpt>
      <trkpt lat="44.10862" lon="5.79536">
        <ele>1538.1</ele>
        <time>2021-05-29T11:16:41.929Z</time>
      </trkpt>
      <trkpt lat="44.10838" lon="5.79553">
        <ele>1533.3</ele>
        <time>2021-05-29T11:16:45.132Z</time>
      </trkpt>
      <trkpt lat="44.10817" lon="5.79574">
        <ele>1527.5</ele>
        <time>2021-05-29T11:16:48.208Z</time>
      </trkpt>
      <trkpt lat="44.10804" lon="5.79594">
        <ele>1521.8</ele>
        <time>2021-05-29T11:16:50.512Z</time>
      </trkpt>
      <trkpt lat="44.10767" lon="5.79633">
        <ele>1509.5</ele>
        <time>2021-05-29T11:16:56.033Z</time>
      </trkpt>
      <trkpt lat="44.1075" lon="5.7966">
        <ele>1501.9</ele>
        <time>2021-05-29T11:16:59.100Z</time>
      </trkpt>
      <trkpt lat="44.10754" lon="5.79668">
        <ele>1499.4</ele>
        <time>2021-05-29T11:16:59.933Z</time>
      </trkpt>
      <trkpt lat="44.10754" lon="5.79677">
        <ele>1496.2</ele>
        <time>2021-05-29T11:17:00.702Z</time>
      </trkpt>
      <trkpt lat="44.10728" lon="5.79703">
        <ele>1488.6</ele>
        <time>2021-05-29T11:17:04.510Z</time>
      </trkpt>
      <trkpt lat="44.10648" lon="5.79722">
        <ele>1485.5</ele>
        <time>2021-05-29T11:17:15.788Z</time>
      </trkpt>
      <trkpt lat="44.10583" lon="5.79724">
        <ele>1483.2</ele>
        <time>2021-05-29T11:17:25.077Z</time>
      </trkpt>
      <trkpt lat="44.10517" lon="5.79714">
        <ele>1480.8</ele>
        <time>2021-05-29T11:17:34.490Z</time>
      </trkpt>
      <trkpt lat="44.10465" lon="5.79701">
        <ele>1480.2</ele>
        <time>2021-05-29T11:17:44.404Z</time>
      </trkpt>
      <trkpt lat="44.10449" lon="5.79702">
        <ele>1478.7</ele>
        <time>2021-05-29T11:17:46.310Z</time>
      </trkpt>
      <trkpt lat="44.10428" lon="5.79694">
        <ele>1478.7</ele>
        <time>2021-05-29T11:17:53.078Z</time>
      </trkpt>
      <trkpt lat="44.10395" lon="5.797">
        <ele>1474.4</ele>
        <time>2021-05-29T11:17:57.037Z</time>
      </trkpt>
      <trkpt lat="44.1037" lon="5.79716">
        <ele>1469.9</ele>
        <time>2021-05-29T11:18:00.311Z</time>
      </trkpt>
      <trkpt lat="44.10331" lon="5.79721">
        <ele>1466.5</ele>
        <time>2021-05-29T11:18:04.970Z</time>
      </trkpt>
      <trkpt lat="44.10333" lon="5.79722">
        <ele>1466.6</ele>
        <time>2021-05-29T11:18:06.103Z</time>
      </trkpt>
      <trkpt lat="44.10326" lon="5.79731">
        <ele>1465.3</ele>
        <time>2021-05-29T11:18:07.237Z</time>
      </trkpt>
      <trkpt lat="44.10331" lon="5.79724">
        <ele>1466.3</ele>
        <time>2021-05-29T11:18:15.738Z</time>
      </trkpt>
      <trkpt lat="44.10332" lon="5.79727">
        <ele>1466.2</ele>
        <time>2021-05-29T11:18:16.056Z</time>
      </trkpt>
      <trkpt lat="44.10296" lon="5.79757">
        <ele>1459.2</ele>
        <time>2021-05-29T11:18:21.047Z</time>
      </trkpt>
      <trkpt lat="44.10276" lon="5.79764">
        <ele>1455.6</ele>
        <time>2021-05-29T11:18:23.501Z</time>
      </trkpt>
      <trkpt lat="44.10269" lon="5.79782">
        <ele>1450.4</ele>
        <time>2021-05-29T11:18:25.249Z</time>
      </trkpt>
      <trkpt lat="44.10232" lon="5.7982">
        <ele>1439.2</ele>
        <time>2021-05-29T11:18:30.719Z</time>
      </trkpt>
      <trkpt lat="44.10219" lon="5.79825">
        <ele>1436.9</ele>
        <time>2021-05-29T11:18:32.323Z</time>
      </trkpt>
      <trkpt lat="44.1022" lon="5.79829">
        <ele>1436.3</ele>
        <time>2021-05-29T11:18:32.685Z</time>
      </trkpt>
      <trkpt lat="44.1022" lon="5.79826">
        <ele>1436.8</ele>
        <time>2021-05-29T11:18:35.268Z</time>
      </trkpt>
      <trkpt lat="44.10149" lon="5.79848">
        <ele>1425.6</ele>
        <time>2021-05-29T11:18:43.922Z</time>
      </trkpt>
      <trkpt lat="44.10127" lon="5.79882">
        <ele>1417.1</ele>
        <time>2021-05-29T11:18:47.832Z</time>
      </trkpt>
      <trkpt lat="44.10124" lon="5.79897">
        <ele>1414.4</ele>
        <time>2021-05-29T11:18:49.162Z</time>
      </trkpt>
      <trkpt lat="44.10093" lon="5.79924">
        <ele>1408.9</ele>
        <time>2021-05-29T11:18:53.512Z</time>
      </trkpt>
      <trkpt lat="44.10075" lon="5.79961">
        <ele>1398.7</ele>
        <time>2021-05-29T11:18:57.330Z</time>
      </trkpt>
      <trkpt lat="44.10061" lon="5.79973">
        <ele>1395</ele>
        <time>2021-05-29T11:18:59.286Z</time>
      </trkpt>
      <trkpt lat="44.10025" lon="5.79978">
        <ele>1392.4</ele>
        <time>2021-05-29T11:19:03.590Z</time>
      </trkpt>
      <trkpt lat="44.09999" lon="5.79975">
        <ele>1391.5</ele>
        <time>2021-05-29T11:19:07.350Z</time>
      </trkpt>
      <trkpt lat="44.09988" lon="5.7998">
        <ele>1389.3</ele>
        <time>2021-05-29T11:19:08.727Z</time>
      </trkpt>
      <trkpt lat="44.09973" lon="5.79999">
        <ele>1384.9</ele>
        <time>2021-05-29T11:19:11.139Z</time>
      </trkpt>
      <trkpt lat="44.09968" lon="5.79988">
        <ele>1385.2</ele>
        <time>2021-05-29T11:19:15.255Z</time>
      </trkpt>
      <trkpt lat="44.09974" lon="5.79987">
        <ele>1386.3</ele>
        <time>2021-05-29T11:19:22.501Z</time>
      </trkpt>
      <trkpt lat="44.09966" lon="5.79985">
        <ele>1385.2</ele>
        <time>2021-05-29T11:19:23.468Z</time>
      </trkpt>
      <trkpt lat="44.09938" lon="5.79963">
        <ele>1383</ele>
        <time>2021-05-29T11:19:27.293Z</time>
      </trkpt>
      <trkpt lat="44.09931" lon="5.79966">
        <ele>1381.6</ele>
        <time>2021-05-29T11:19:28.164Z</time>
      </trkpt>
      <trkpt lat="44.09925" lon="5.79984">
        <ele>1378.9</ele>
        <time>2021-05-29T11:19:29.860Z</time>
      </trkpt>
      <trkpt lat="44.09913" lon="5.79989">
        <ele>1376.7</ele>
        <time>2021-05-29T11:19:31.350Z</time>
      </trkpt>
      <trkpt lat="44.09886" lon="5.80039">
        <ele>1365.6</ele>
        <time>2021-05-29T11:19:36.695Z</time>
      </trkpt>
      <trkpt lat="44.09867" lon="5.80052">
        <ele>1361.1</ele>
        <time>2021-05-29T11:19:39.213Z</time>
      </trkpt>
      <trkpt lat="44.0981" lon="5.80065">
        <ele>1353.9</ele>
        <time>2021-05-29T11:19:46.085Z</time>
      </trkpt>
      <trkpt lat="44.0977" lon="5.80066">
        <ele>1351.8</ele>
        <time>2021-05-29T11:19:50.970Z</time>
      </trkpt>
      <trkpt lat="44.09711" lon="5.80079">
        <ele>1345.3</ele>
        <time>2021-05-29T11:19:58.076Z</time>
      </trkpt>
      <trkpt lat="44.09681" lon="5.80073">
        <ele>1343.3</ele>
        <time>2021-05-29T11:20:01.396Z</time>
      </trkpt>
      <trkpt lat="44.09656" lon="5.80043">
        <ele>1343.1</ele>
        <time>2021-05-29T11:20:10.784Z</time>
      </trkpt>
      <trkpt lat="44.09635" lon="5.80049">
        <ele>1339.2</ele>
        <time>2021-05-29T11:20:13.335Z</time>
      </trkpt>
      <trkpt lat="44.09618" lon="5.80069">
        <ele>1335.7</ele>
        <time>2021-05-29T11:20:15.983Z</time>
      </trkpt>
      <trkpt lat="44.09592" lon="5.80079">
        <ele>1332.1</ele>
        <time>2021-05-29T11:20:19.192Z</time>
      </trkpt>
      <trkpt lat="44.09568" lon="5.80114">
        <ele>1323</ele>
        <time>2021-05-29T11:20:23.326Z</time>
      </trkpt>
      <trkpt lat="44.09543" lon="5.80106">
        <ele>1320.2</ele>
        <time>2021-05-29T11:20:26.378Z</time>
      </trkpt>
      <trkpt lat="44.09517" lon="5.80119">
        <ele>1314</ele>
        <time>2021-05-29T11:20:29.664Z</time>
      </trkpt>
      <trkpt lat="44.0949" lon="5.80112">
        <ele>1310.6</ele>
        <time>2021-05-29T11:20:32.932Z</time>
      </trkpt>
      <trkpt lat="44.09478" lon="5.80118">
        <ele>1308</ele>
        <time>2021-05-29T11:20:34.449Z</time>
      </trkpt>
      <trkpt lat="44.09449" lon="5.80154">
        <ele>1300.1</ele>
        <time>2021-05-29T11:20:39.071Z</time>
      </trkpt>
      <trkpt lat="44.09387" lon="5.80201">
        <ele>1281.3</ele>
        <time>2021-05-29T11:20:47.469Z</time>
      </trkpt>
      <trkpt lat="44.09347" lon="5.80222">
        <ele>1273.9</ele>
        <time>2021-05-29T11:20:52.555Z</time>
      </trkpt>
      <trkpt lat="44.09308" lon="5.80224">
        <ele>1270.8</ele>
        <time>2021-05-29T11:20:57.198Z</time>
      </trkpt>
      <trkpt lat="44.09288" lon="5.80181">
        <ele>1272.5</ele>
        <time>2021-05-29T11:21:16.713Z</time>
      </trkpt>
      <trkpt lat="44.09281" lon="5.80157">
        <ele>1271.7</ele>
        <time>2021-05-29T11:21:19.184Z</time>
      </trkpt>
      <trkpt lat="44.09275" lon="5.80169">
        <ele>1270.6</ele>
        <time>2021-05-29T11:21:20.433Z</time>
      </trkpt>
      <trkpt lat="44.09272" lon="5.80165">
        <ele>1269.9</ele>
        <time>2021-05-29T11:21:20.927Z</time>
      </trkpt>
      <trkpt lat="44.09258" lon="5.80164">
        <ele>1266.7</ele>
        <time>2021-05-29T11:21:22.595Z</time>
      </trkpt>
      <trkpt lat="44.09258" lon="5.80145">
        <ele>1265.7</ele>
        <time>2021-05-29T11:21:24.218Z</time>
      </trkpt>
      <trkpt lat="44.09254" lon="5.80132">
        <ele>1264</ele>
        <time>2021-05-29T11:21:25.427Z</time>
      </trkpt>
      <trkpt lat="44.09237" lon="5.80139">
        <ele>1259.9</ele>
        <time>2021-05-29T11:21:27.536Z</time>
      </trkpt>
      <trkpt lat="44.09231" lon="5.80121">
        <ele>1257.1</ele>
        <time>2021-05-29T11:21:29.231Z</time>
      </trkpt>
      <trkpt lat="44.09232" lon="5.801">
        <ele>1256.1</ele>
        <time>2021-05-29T11:21:30.885Z</time>
      </trkpt>
      <trkpt lat="44.09228" lon="5.80084">
        <ele>1254</ele>
        <time>2021-05-29T11:21:32.333Z</time>
      </trkpt>
      <trkpt lat="44.09202" lon="5.80034">
        <ele>1247.7</ele>
        <time>2021-05-29T11:21:37.607Z</time>
      </trkpt>
      <trkpt lat="44.0917" lon="5.80016">
        <ele>1239.5</ele>
        <time>2021-05-29T11:21:41.713Z</time>
      </trkpt>
      <trkpt lat="44.09155" lon="5.79995">
        <ele>1236.5</ele>
        <time>2021-05-29T11:21:44.244Z</time>
      </trkpt>
      <trkpt lat="44.09132" lon="5.79973">
        <ele>1231.4</ele>
        <time>2021-05-29T11:21:47.564Z</time>
      </trkpt>
      <trkpt lat="44.0911" lon="5.79966">
        <ele>1226.5</ele>
        <time>2021-05-29T11:21:50.248Z</time>
      </trkpt>
      <trkpt lat="44.09089" lon="5.79988">
        <ele>1222.1</ele>
        <time>2021-05-29T11:21:53.375Z</time>
      </trkpt>
      <trkpt lat="44.09077" lon="5.80041">
        <ele>1218.8</ele>
        <time>2021-05-29T11:21:58.123Z</time>
      </trkpt>
      <trkpt lat="44.09076" lon="5.80067">
        <ele>1218.2</ele>
        <time>2021-05-29T11:22:00.886Z</time>
      </trkpt>
      <trkpt lat="44.09046" lon="5.80126">
        <ele>1212.6</ele>
        <time>2021-05-29T11:22:07.063Z</time>
      </trkpt>
      <trkpt lat="44.09025" lon="5.80138">
        <ele>1208.6</ele>
        <time>2021-05-29T11:22:09.763Z</time>
      </trkpt>
      <trkpt lat="44.08984" lon="5.80139">
        <ele>1199.2</ele>
        <time>2021-05-29T11:22:14.642Z</time>
      </trkpt>
      <trkpt lat="44.08976" lon="5.80124">
        <ele>1195.8</ele>
        <time>2021-05-29T11:22:16.238Z</time>
      </trkpt>
      <trkpt lat="44.08972" lon="5.80105">
        <ele>1192.9</ele>
        <time>2021-05-29T11:22:17.930Z</time>
      </trkpt>
      <trkpt lat="44.08962" lon="5.80101">
        <ele>1190.1</ele>
        <time>2021-05-29T11:22:19.168Z</time>
      </trkpt>
      <trkpt lat="44.08936" lon="5.80102">
        <ele>1184.3</ele>
        <time>2021-05-29T11:22:22.262Z</time>
      </trkpt>
      <trkpt lat="44.08923" lon="5.80089">
        <ele>1180</ele>
        <time>2021-05-29T11:22:24.166Z</time>
      </trkpt>
      <trkpt lat="44.089" lon="5.80092">
        <ele>1175.4</ele>
        <time>2021-05-29T11:22:26.915Z</time>
      </trkpt>
      <trkpt lat="44.08879" lon="5.8011">
        <ele>1172.4</ele>
        <time>2021-05-29T11:22:29.848Z</time>
      </trkpt>
      <trkpt lat="44.08871" lon="5.80125">
        <ele>1171.9</ele>
        <time>2021-05-29T11:22:31.730Z</time>
      </trkpt>
      <trkpt lat="44.08872" lon="5.80164">
        <ele>1175.1</ele>
        <time>2021-05-29T11:22:58.019Z</time>
      </trkpt>
      <trkpt lat="44.08865" lon="5.80179">
        <ele>1174.2</ele>
        <time>2021-05-29T11:22:59.547Z</time>
      </trkpt>
      <trkpt lat="44.08836" lon="5.80204">
        <ele>1168</ele>
        <time>2021-05-29T11:23:03.605Z</time>
      </trkpt>
      <trkpt lat="44.08818" lon="5.80192">
        <ele>1163.3</ele>
        <time>2021-05-29T11:23:05.979Z</time>
      </trkpt>
      <trkpt lat="44.0881" lon="5.80222">
        <ele>1162.8</ele>
        <time>2021-05-29T11:23:09.778Z</time>
      </trkpt>
      <trkpt lat="44.08796" lon="5.80225">
        <ele>1159.8</ele>
        <time>2021-05-29T11:23:11.463Z</time>
      </trkpt>
      <trkpt lat="44.08786" lon="5.80233">
        <ele>1157.9</ele>
        <time>2021-05-29T11:23:12.835Z</time>
      </trkpt>
      <trkpt lat="44.08768" lon="5.80259">
        <ele>1155.5</ele>
        <time>2021-05-29T11:23:15.921Z</time>
      </trkpt>
      <trkpt lat="44.08753" lon="5.8027">
        <ele>1152.9</ele>
        <time>2021-05-29T11:23:17.938Z</time>
      </trkpt>
      <trkpt lat="44.08732" lon="5.80308">
        <ele>1151</ele>
        <time>2021-05-29T11:23:22.049Z</time>
      </trkpt>
      <trkpt lat="44.08724" lon="5.80315">
        <ele>1150</ele>
        <time>2021-05-29T11:23:23.173Z</time>
      </trkpt>
      <trkpt lat="44.08715" lon="5.80307">
        <ele>1147.7</ele>
        <time>2021-05-29T11:23:24.444Z</time>
      </trkpt>
      <trkpt lat="44.08709" lon="5.80292">
        <ele>1145.4</ele>
        <time>2021-05-29T11:23:25.911Z</time>
      </trkpt>
      <trkpt lat="44.08701" lon="5.80228">
        <ele>1138.5</ele>
        <time>2021-05-29T11:23:31.462Z</time>
      </trkpt>
      <trkpt lat="44.08704" lon="5.80188">
        <ele>1135.7</ele>
        <time>2021-05-29T11:23:34.899Z</time>
      </trkpt>
      <trkpt lat="44.08712" lon="5.80141">
        <ele>1133.8</ele>
        <time>2021-05-29T11:23:39.055Z</time>
      </trkpt>
      <trkpt lat="44.08779" lon="5.79956">
        <ele>1135.1</ele>
        <time>2021-05-29T11:24:29.342Z</time>
      </trkpt>
      <trkpt lat="44.08745" lon="5.79905">
        <ele>1126.6</ele>
        <time>2021-05-29T11:24:35.288Z</time>
      </trkpt>
      <trkpt lat="44.08727" lon="5.799">
        <ele>1128.1</ele>
        <time>2021-05-29T11:24:47.883Z</time>
      </trkpt>
      <trkpt lat="44.08692" lon="5.79907">
        <ele>1128.4</ele>
        <time>2021-05-29T11:24:59.801Z</time>
      </trkpt>
      <trkpt lat="44.08682" lon="5.79917">
        <ele>1126.6</ele>
        <time>2021-05-29T11:25:01.266Z</time>
      </trkpt>
      <trkpt lat="44.08619" lon="5.79942">
        <ele>1125.5</ele>
        <time>2021-05-29T11:25:12.745Z</time>
      </trkpt>
      <trkpt lat="44.08601" lon="5.79956">
        <ele>1124.1</ele>
        <time>2021-05-29T11:25:15.198Z</time>
      </trkpt>
      <trkpt lat="44.08587" lon="5.79956">
        <ele>1124.7</ele>
        <time>2021-05-29T11:25:22.363Z</time>
      </trkpt>
      <trkpt lat="44.08541" lon="5.79915">
        <ele>1125.1</ele>
        <time>2021-05-29T11:25:40.564Z</time>
      </trkpt>
      <trkpt lat="44.08483" lon="5.7988">
        <ele>1120.5</ele>
        <time>2021-05-29T11:25:48.085Z</time>
      </trkpt>
      <trkpt lat="44.08428" lon="5.79854">
        <ele>1114.4</ele>
        <time>2021-05-29T11:25:54.995Z</time>
      </trkpt>
      <trkpt lat="44.08412" lon="5.79852">
        <ele>1112.4</ele>
        <time>2021-05-29T11:25:56.906Z</time>
      </trkpt>
      <trkpt lat="44.08388" lon="5.7986">
        <ele>1109.4</ele>
        <time>2021-05-29T11:25:59.842Z</time>
      </trkpt>
      <trkpt lat="44.08383" lon="5.7987">
        <ele>1107.8</ele>
        <time>2021-05-29T11:26:00.883Z</time>
      </trkpt>
      <trkpt lat="44.08386" lon="5.79872">
        <ele>1107.8</ele>
        <time>2021-05-29T11:26:01.917Z</time>
      </trkpt>
      <trkpt lat="44.08358" lon="5.79903">
        <ele>1101.7</ele>
        <time>2021-05-29T11:26:06.173Z</time>
      </trkpt>
      <trkpt lat="44.0835" lon="5.7992">
        <ele>1099.2</ele>
        <time>2021-05-29T11:26:07.910Z</time>
      </trkpt>
      <trkpt lat="44.08355" lon="5.79956">
        <ele>1097.7</ele>
        <time>2021-05-29T11:26:11.009Z</time>
      </trkpt>
      <trkpt lat="44.08354" lon="5.79983">
        <ele>1096.2</ele>
        <time>2021-05-29T11:26:13.319Z</time>
      </trkpt>
      <trkpt lat="44.08293" lon="5.80016">
        <ele>1086.7</ele>
        <time>2021-05-29T11:26:21.105Z</time>
      </trkpt>
      <trkpt lat="44.08258" lon="5.79984">
        <ele>1082.9</ele>
        <time>2021-05-29T11:26:26.087Z</time>
      </trkpt>
      <trkpt lat="44.08195" lon="5.79962">
        <ele>1076.4</ele>
        <time>2021-05-29T11:26:33.814Z</time>
      </trkpt>
      <trkpt lat="44.08149" lon="5.79953">
        <ele>1072.2</ele>
        <time>2021-05-29T11:26:39.340Z</time>
      </trkpt>
      <trkpt lat="44.08131" lon="5.79942">
        <ele>1072.4</ele>
        <time>2021-05-29T11:26:46.079Z</time>
      </trkpt>
      <trkpt lat="44.08063" lon="5.79885">
        <ele>1076.1</ele>
        <time>2021-05-29T11:27:28.290Z</time>
      </trkpt>
      <trkpt lat="44.08027" lon="5.79869">
        <ele>1076.8</ele>
        <time>2021-05-29T11:27:42.439Z</time>
      </trkpt>
      <trkpt lat="44.07968" lon="5.7986">
        <ele>1075.3</ele>
        <time>2021-05-29T11:27:51.865Z</time>
      </trkpt>
      <trkpt lat="44.07905" lon="5.79868">
        <ele>1070.2</ele>
        <time>2021-05-29T11:27:59.391Z</time>
      </trkpt>
      <trkpt lat="44.07884" lon="5.79866">
        <ele>1069.9</ele>
        <time>2021-05-29T11:28:03.197Z</time>
      </trkpt>
      <trkpt lat="44.0783" lon="5.79878">
        <ele>1066.3</ele>
        <time>2021-05-29T11:28:09.195Z</time>
      </trkpt>
      <trkpt lat="44.07806" lon="5.79865">
        <ele>1065.5</ele>
        <time>2021-05-29T11:28:13.039Z</time>
      </trkpt>
      <trkpt lat="44.07807" lon="5.79868">
        <ele>1065.3</ele>
        <time>2021-05-29T11:28:13.322Z</time>
      </trkpt>
      <trkpt lat="44.078" lon="5.79866">
        <ele>1064.7</ele>
        <time>2021-05-29T11:28:14.172Z</time>
      </trkpt>
      <trkpt lat="44.07794" lon="5.79849">
        <ele>1065.3</ele>
        <time>2021-05-29T11:28:21.268Z</time>
      </trkpt>
      <trkpt lat="44.07812" lon="5.79795">
        <ele>1065.6</ele>
        <time>2021-05-29T11:28:35.476Z</time>
      </trkpt>
      <trkpt lat="44.07793" lon="5.79767">
        <ele>1058.7</ele>
        <time>2021-05-29T11:28:38.768Z</time>
      </trkpt>
      <trkpt lat="44.07802" lon="5.79704">
        <ele>1052.5</ele>
        <time>2021-05-29T11:28:44.257Z</time>
      </trkpt>
      <trkpt lat="44.07784" lon="5.79707">
        <ele>1048.4</ele>
        <time>2021-05-29T11:28:46.414Z</time>
      </trkpt>
      <trkpt lat="44.07773" lon="5.797">
        <ele>1044.5</ele>
        <time>2021-05-29T11:28:47.853Z</time>
      </trkpt>
      <trkpt lat="44.07778" lon="5.79678">
        <ele>1042.4</ele>
        <time>2021-05-29T11:28:49.825Z</time>
      </trkpt>
      <trkpt lat="44.07766" lon="5.7965">
        <ele>1035.4</ele>
        <time>2021-05-29T11:28:52.612Z</time>
      </trkpt>
      <trkpt lat="44.07767" lon="5.79604">
        <ele>1030</ele>
        <time>2021-05-29T11:28:56.545Z</time>
      </trkpt>
      <trkpt lat="44.07757" lon="5.79575">
        <ele>1025.1</ele>
        <time>2021-05-29T11:28:59.294Z</time>
      </trkpt>
      <trkpt lat="44.07725" lon="5.79597">
        <ele>1022.4</ele>
        <time>2021-05-29T11:29:03.540Z</time>
      </trkpt>
      <trkpt lat="44.07719" lon="5.79586">
        <ele>1021.3</ele>
        <time>2021-05-29T11:29:04.721Z</time>
      </trkpt>
      <trkpt lat="44.0771" lon="5.79593">
        <ele>1020.9</ele>
        <time>2021-05-29T11:29:06.145Z</time>
      </trkpt>
      <trkpt lat="44.07703" lon="5.7959">
        <ele>1020.3</ele>
        <time>2021-05-29T11:29:07.017Z</time>
      </trkpt>
      <trkpt lat="44.07668" lon="5.79601">
        <ele>1017.1</ele>
        <time>2021-05-29T11:29:11.285Z</time>
      </trkpt>
      <trkpt lat="44.07611" lon="5.79631">
        <ele>1016.6</ele>
        <time>2021-05-29T11:29:23.212Z</time>
      </trkpt>
      <trkpt lat="44.07593" lon="5.79633">
        <ele>1016.7</ele>
        <time>2021-05-29T11:29:29.125Z</time>
      </trkpt>
      <trkpt lat="44.07564" lon="5.7965">
        <ele>1013.9</ele>
        <time>2021-05-29T11:29:32.869Z</time>
      </trkpt>
      <trkpt lat="44.0754" lon="5.79672">
        <ele>1010.2</ele>
        <time>2021-05-29T11:29:36.287Z</time>
      </trkpt>
      <trkpt lat="44.07502" lon="5.79697">
        <ele>1005.5</ele>
        <time>2021-05-29T11:29:41.288Z</time>
      </trkpt>
      <trkpt lat="44.07471" lon="5.79709">
        <ele>1002.9</ele>
        <time>2021-05-29T11:29:45.116Z</time>
      </trkpt>
      <trkpt lat="44.07422" lon="5.79716">
        <ele>1001.3</ele>
        <time>2021-05-29T11:29:52.362Z</time>
      </trkpt>
      <trkpt lat="44.07373" lon="5.79703">
        <ele>999.5</ele>
        <time>2021-05-29T11:29:59.438Z</time>
      </trkpt>
      <trkpt lat="44.0733" lon="5.79705">
        <ele>994.4</ele>
        <time>2021-05-29T11:30:04.557Z</time>
      </trkpt>
      <trkpt lat="44.07327" lon="5.79712">
        <ele>992.8</ele>
        <time>2021-05-29T11:30:05.254Z</time>
      </trkpt>
      <trkpt lat="44.0731" lon="5.79723">
        <ele>988.2</ele>
        <time>2021-05-29T11:30:07.484Z</time>
      </trkpt>
      <trkpt lat="44.07299" lon="5.79725">
        <ele>986</ele>
        <time>2021-05-29T11:30:08.804Z</time>
      </trkpt>
      <trkpt lat="44.07281" lon="5.79721">
        <ele>983.5</ele>
        <time>2021-05-29T11:30:10.972Z</time>
      </trkpt>
      <trkpt lat="44.07256" lon="5.79724">
        <ele>978.8</ele>
        <time>2021-05-29T11:30:13.958Z</time>
      </trkpt>
      <trkpt lat="44.07237" lon="5.79721">
        <ele>976.6</ele>
        <time>2021-05-29T11:30:16.232Z</time>
      </trkpt>
      <trkpt lat="44.07219" lon="5.79725">
        <ele>973.8</ele>
        <time>2021-05-29T11:30:18.401Z</time>
      </trkpt>
      <trkpt lat="44.07161" lon="5.79694">
        <ele>970.5</ele>
        <time>2021-05-29T11:30:25.947Z</time>
      </trkpt>
      <trkpt lat="44.07138" lon="5.79694">
        <ele>966.7</ele>
        <time>2021-05-29T11:30:28.684Z</time>
      </trkpt>
      <trkpt lat="44.07118" lon="5.79683">
        <ele>964.5</ele>
        <time>2021-05-29T11:30:31.242Z</time>
      </trkpt>
      <trkpt lat="44.07058" lon="5.79631">
        <ele>954.6</ele>
        <time>2021-05-29T11:30:39.651Z</time>
      </trkpt>
      <trkpt lat="44.07051" lon="5.79605">
        <ele>952.9</ele>
        <time>2021-05-29T11:30:42.024Z</time>
      </trkpt>
      <trkpt lat="44.07049" lon="5.79545">
        <ele>952.2</ele>
        <time>2021-05-29T11:30:49.639Z</time>
      </trkpt>
      <trkpt lat="44.07019" lon="5.79541">
        <ele>945.3</ele>
        <time>2021-05-29T11:30:53.225Z</time>
      </trkpt>
      <trkpt lat="44.07012" lon="5.79546">
        <ele>943.7</ele>
        <time>2021-05-29T11:30:54.161Z</time>
      </trkpt>
      <trkpt lat="44.07004" lon="5.79545">
        <ele>941.8</ele>
        <time>2021-05-29T11:30:55.116Z</time>
      </trkpt>
      <trkpt lat="44.06967" lon="5.79559">
        <ele>934.4</ele>
        <time>2021-05-29T11:30:59.678Z</time>
      </trkpt>
      <trkpt lat="44.06952" lon="5.79556">
        <ele>931.8</ele>
        <time>2021-05-29T11:31:01.481Z</time>
      </trkpt>
      <trkpt lat="44.06923" lon="5.79534">
        <ele>928.2</ele>
        <time>2021-05-29T11:31:05.410Z</time>
      </trkpt>
      <trkpt lat="44.06892" lon="5.79526">
        <ele>923.7</ele>
        <time>2021-05-29T11:31:09.161Z</time>
      </trkpt>
      <trkpt lat="44.06857" lon="5.79527">
        <ele>917.7</ele>
        <time>2021-05-29T11:31:13.326Z</time>
      </trkpt>
      <trkpt lat="44.06832" lon="5.79521">
        <ele>914.3</ele>
        <time>2021-05-29T11:31:16.344Z</time>
      </trkpt>
      <trkpt lat="44.0682" lon="5.79513">
        <ele>913.3</ele>
        <time>2021-05-29T11:31:17.927Z</time>
      </trkpt>
      <trkpt lat="44.0678" lon="5.79514">
        <ele>906.7</ele>
        <time>2021-05-29T11:31:22.686Z</time>
      </trkpt>
      <trkpt lat="44.06772" lon="5.79492">
        <ele>907.3</ele>
        <time>2021-05-29T11:31:30.671Z</time>
      </trkpt>
      <trkpt lat="44.06745" lon="5.7946">
        <ele>905.6</ele>
        <time>2021-05-29T11:31:35.175Z</time>
      </trkpt>
      <trkpt lat="44.06732" lon="5.79432">
        <ele>906.2</ele>
        <time>2021-05-29T11:31:44.839Z</time>
      </trkpt>
      <trkpt lat="44.06719" lon="5.79414">
        <ele>906.2</ele>
        <time>2021-05-29T11:31:50.540Z</time>
      </trkpt>
      <trkpt lat="44.0667" lon="5.79381">
        <ele>903.7</ele>
        <time>2021-05-29T11:31:57.579Z</time>
      </trkpt>
      <trkpt lat="44.06596" lon="5.79376">
        <ele>895</ele>
        <time>2021-05-29T11:32:06.393Z</time>
      </trkpt>
      <trkpt lat="44.06578" lon="5.79369">
        <ele>893.5</ele>
        <time>2021-05-29T11:32:08.617Z</time>
      </trkpt>
      <trkpt lat="44.06572" lon="5.79372">
        <ele>892.3</ele>
        <time>2021-05-29T11:32:09.375Z</time>
      </trkpt>
      <trkpt lat="44.06504" lon="5.7934">
        <ele>887.5</ele>
        <time>2021-05-29T11:32:17.915Z</time>
      </trkpt>
      <trkpt lat="44.06493" lon="5.79327">
        <ele>888.3</ele>
        <time>2021-05-29T11:32:26.049Z</time>
      </trkpt>
      <trkpt lat="44.06483" lon="5.79329">
        <ele>887.2</ele>
        <time>2021-05-29T11:32:27.251Z</time>
      </trkpt>
      <trkpt lat="44.06438" lon="5.79318">
        <ele>884.7</ele>
        <time>2021-05-29T11:32:32.727Z</time>
      </trkpt>
      <trkpt lat="44.06424" lon="5.79306">
        <ele>885</ele>
        <time>2021-05-29T11:32:38.864Z</time>
      </trkpt>
      <trkpt lat="44.06385" lon="5.79307">
        <ele>882.5</ele>
        <time>2021-05-29T11:32:43.200Z</time>
      </trkpt>
      <trkpt lat="44.06371" lon="5.79299">
        <ele>882.7</ele>
        <time>2021-05-29T11:32:48.552Z</time>
      </trkpt>
      <trkpt lat="44.06346" lon="5.79305">
        <ele>880.7</ele>
        <time>2021-05-29T11:32:51.570Z</time>
      </trkpt>
      <trkpt lat="44.06305" lon="5.79299">
        <ele>879.5</ele>
        <time>2021-05-29T11:32:57.852Z</time>
      </trkpt>
      <trkpt lat="44.06287" lon="5.7929">
        <ele>879.7</ele>
        <time>2021-05-29T11:33:04.427Z</time>
      </trkpt>
      <trkpt lat="44.06256" lon="5.79295">
        <ele>877.9</ele>
        <time>2021-05-29T11:33:08.077Z</time>
      </trkpt>
      <trkpt lat="44.06223" lon="5.79294">
        <ele>875</ele>
        <time>2021-05-29T11:33:12.004Z</time>
      </trkpt>
      <trkpt lat="44.06172" lon="5.79247">
        <ele>873.8</ele>
        <time>2021-05-29T11:33:22.366Z</time>
      </trkpt>
      <trkpt lat="44.06159" lon="5.79242">
        <ele>873</ele>
        <time>2021-05-29T11:33:23.923Z</time>
      </trkpt>
      <trkpt lat="44.06138" lon="5.79247">
        <ele>871.5</ele>
        <time>2021-05-29T11:33:26.457Z</time>
      </trkpt>
      <trkpt lat="44.06125" lon="5.79263">
        <ele>869.3</ele>
        <time>2021-05-29T11:33:28.522Z</time>
      </trkpt>
      <trkpt lat="44.06114" lon="5.79291">
        <ele>866.1</ele>
        <time>2021-05-29T11:33:31.250Z</time>
      </trkpt>
      <trkpt lat="44.06118" lon="5.79293">
        <ele>866.2</ele>
        <time>2021-05-29T11:33:32.934Z</time>
      </trkpt>
      <trkpt lat="44.06111" lon="5.79306">
        <ele>864.5</ele>
        <time>2021-05-29T11:33:34.323Z</time>
      </trkpt>
      <trkpt lat="44.06096" lon="5.79311">
        <ele>863</ele>
        <time>2021-05-29T11:33:36.158Z</time>
      </trkpt>
      <trkpt lat="44.06079" lon="5.79305">
        <ele>862.3</ele>
        <time>2021-05-29T11:33:38.556Z</time>
      </trkpt>
      <trkpt lat="44.05967" lon="5.79212">
        <ele>856.4</ele>
        <time>2021-05-29T11:33:55.527Z</time>
      </trkpt>
      <trkpt lat="44.05901" lon="5.79104">
        <ele>856.3</ele>
        <time>2021-05-29T11:34:26.729Z</time>
      </trkpt>
      <trkpt lat="44.0588" lon="5.79063">
        <ele>856.3</ele>
        <time>2021-05-29T11:34:37.977Z</time>
      </trkpt>
      <trkpt lat="44.05849" lon="5.79024">
        <ele>854</ele>
        <time>2021-05-29T11:34:42.972Z</time>
      </trkpt>
      <trkpt lat="44.05823" lon="5.78979">
        <ele>851.4</ele>
        <time>2021-05-29T11:34:47.636Z</time>
      </trkpt>
      <trkpt lat="44.05802" lon="5.78934">
        <ele>848.7</ele>
        <time>2021-05-29T11:34:52.224Z</time>
      </trkpt>
      <trkpt lat="44.05786" lon="5.78912">
        <ele>846.9</ele>
        <time>2021-05-29T11:34:54.900Z</time>
      </trkpt>
      <trkpt lat="44.05699" lon="5.78833">
        <ele>836.9</ele>
        <time>2021-05-29T11:35:07.259Z</time>
      </trkpt>
      <trkpt lat="44.0568" lon="5.78793">
        <ele>832.8</ele>
        <time>2021-05-29T11:35:11.358Z</time>
      </trkpt>
      <trkpt lat="44.05679" lon="5.78741">
        <ele>830.8</ele>
        <time>2021-05-29T11:35:15.884Z</time>
      </trkpt>
      <trkpt lat="44.05666" lon="5.78705">
        <ele>829.5</ele>
        <time>2021-05-29T11:35:19.663Z</time>
      </trkpt>
      <trkpt lat="44.05664" lon="5.7868">
        <ele>829.5</ele>
        <time>2021-05-29T11:35:25.283Z</time>
      </trkpt>
      <trkpt lat="44.05648" lon="5.78623">
        <ele>826.3</ele>
        <time>2021-05-29T11:35:30.515Z</time>
      </trkpt>
      <trkpt lat="44.05646" lon="5.78587">
        <ele>825.1</ele>
        <time>2021-05-29T11:35:33.861Z</time>
      </trkpt>
      <trkpt lat="44.0563" lon="5.78556">
        <ele>821.7</ele>
        <time>2021-05-29T11:35:37.124Z</time>
      </trkpt>
      <trkpt lat="44.05621" lon="5.7851">
        <ele>818.8</ele>
        <time>2021-05-29T11:35:41.200Z</time>
      </trkpt>
      <trkpt lat="44.05623" lon="5.78484">
        <ele>818.1</ele>
        <time>2021-05-29T11:35:43.836Z</time>
      </trkpt>
      <trkpt lat="44.05615" lon="5.78473">
        <ele>816.7</ele>
        <time>2021-05-29T11:35:45.174Z</time>
      </trkpt>
      <trkpt lat="44.0555" lon="5.78432">
        <ele>807.3</ele>
        <time>2021-05-29T11:35:53.664Z</time>
      </trkpt>
      <trkpt lat="44.05548" lon="5.78423">
        <ele>806.9</ele>
        <time>2021-05-29T11:35:54.447Z</time>
      </trkpt>
      <trkpt lat="44.05565" lon="5.78344">
        <ele>804.4</ele>
        <time>2021-05-29T11:36:02.378Z</time>
      </trkpt>
      <trkpt lat="44.05559" lon="5.78307">
        <ele>802.9</ele>
        <time>2021-05-29T11:36:05.636Z</time>
      </trkpt>
      <trkpt lat="44.05547" lon="5.78267">
        <ele>801.5</ele>
        <time>2021-05-29T11:36:09.700Z</time>
      </trkpt>
      <trkpt lat="44.05489" lon="5.78222">
        <ele>797.4</ele>
        <time>2021-05-29T11:36:17.219Z</time>
      </trkpt>
      <trkpt lat="44.05473" lon="5.78201">
        <ele>796.6</ele>
        <time>2021-05-29T11:36:20.330Z</time>
      </trkpt>
      <trkpt lat="44.05403" lon="5.78142">
        <ele>789.7</ele>
        <time>2021-05-29T11:36:30.067Z</time>
      </trkpt>
      <trkpt lat="44.05376" lon="5.78107">
        <ele>786.8</ele>
        <time>2021-05-29T11:36:34.457Z</time>
      </trkpt>
      <trkpt lat="44.05313" lon="5.78054">
        <ele>780.8</ele>
        <time>2021-05-29T11:36:43.215Z</time>
      </trkpt>
      <trkpt lat="44.0529" lon="5.7802">
        <ele>779.2</ele>
        <time>2021-05-29T11:36:47.488Z</time>
      </trkpt>
      <trkpt lat="44.05269" lon="5.78005">
        <ele>777.1</ele>
        <time>2021-05-29T11:36:50.296Z</time>
      </trkpt>
      <trkpt lat="44.05251" lon="5.77984">
        <ele>775.9</ele>
        <time>2021-05-29T11:36:53.199Z</time>
      </trkpt>
      <trkpt lat="44.05198" lon="5.77955">
        <ele>771.1</ele>
        <time>2021-05-29T11:36:59.974Z</time>
      </trkpt>
      <trkpt lat="44.05117" lon="5.77888">
        <ele>759.7</ele>
        <time>2021-05-29T11:37:11.185Z</time>
      </trkpt>
      <trkpt lat="44.05092" lon="5.77875">
        <ele>755.7</ele>
        <time>2021-05-29T11:37:14.360Z</time>
      </trkpt>
      <trkpt lat="44.05059" lon="5.77876">
        <ele>750.8</ele>
        <time>2021-05-29T11:37:18.287Z</time>
      </trkpt>
      <trkpt lat="44.05045" lon="5.77897">
        <ele>749.8</ele>
        <time>2021-05-29T11:37:20.887Z</time>
      </trkpt>
      <trkpt lat="44.0504" lon="5.77927">
        <ele>750.3</ele>
        <time>2021-05-29T11:37:29.563Z</time>
      </trkpt>
      <trkpt lat="44.05041" lon="5.77956">
        <ele>750.7</ele>
        <time>2021-05-29T11:37:37.432Z</time>
      </trkpt>
      <trkpt lat="44.05038" lon="5.77953">
        <ele>750.3</ele>
        <time>2021-05-29T11:37:37.871Z</time>
      </trkpt>
      <trkpt lat="44.05037" lon="5.77936">
        <ele>750</ele>
        <time>2021-05-29T11:37:39.836Z</time>
      </trkpt>
      <trkpt lat="44.05014" lon="5.77921">
        <ele>746.9</ele>
        <time>2021-05-29T11:37:42.858Z</time>
      </trkpt>
      <trkpt lat="44.05001" lon="5.77954">
        <ele>746</ele>
        <time>2021-05-29T11:37:46.804Z</time>
      </trkpt>
      <trkpt lat="44.04972" lon="5.78003">
        <ele>741.9</ele>
        <time>2021-05-29T11:37:52.232Z</time>
      </trkpt>
      <trkpt lat="44.04928" lon="5.77985">
        <ele>733.4</ele>
        <time>2021-05-29T11:37:57.688Z</time>
      </trkpt>
      <trkpt lat="44.04913" lon="5.77931">
        <ele>728.2</ele>
        <time>2021-05-29T11:38:02.638Z</time>
      </trkpt>
      <trkpt lat="44.04897" lon="5.77942">
        <ele>726.5</ele>
        <time>2021-05-29T11:38:04.762Z</time>
      </trkpt>
      <trkpt lat="44.04893" lon="5.77961">
        <ele>726.9</ele>
        <time>2021-05-29T11:38:10.719Z</time>
      </trkpt>
      <trkpt lat="44.04882" lon="5.7811">
        <ele>725.9</ele>
        <time>2021-05-29T11:38:31.482Z</time>
      </trkpt>
      <trkpt lat="44.04883" lon="5.78133">
        <ele>725.8</ele>
        <time>2021-05-29T11:38:36.195Z</time>
      </trkpt>
      <trkpt lat="44.04873" lon="5.78156">
        <ele>724.4</ele>
        <time>2021-05-29T11:38:38.493Z</time>
      </trkpt>
      <trkpt lat="44.04857" lon="5.78156">
        <ele>722.7</ele>
        <time>2021-05-29T11:38:40.397Z</time>
      </trkpt>
      <trkpt lat="44.04706" lon="5.78092">
        <ele>709.8</ele>
        <time>2021-05-29T11:38:59.176Z</time>
      </trkpt>
      <trkpt lat="44.04675" lon="5.78074">
        <ele>706.5</ele>
        <time>2021-05-29T11:39:03.173Z</time>
      </trkpt>
      <trkpt lat="44.04655" lon="5.78057">
        <ele>704.1</ele>
        <time>2021-05-29T11:39:05.961Z</time>
      </trkpt>
      <trkpt lat="44.04608" lon="5.78032">
        <ele>699.2</ele>
        <time>2021-05-29T11:39:11.947Z</time>
      </trkpt>
      <trkpt lat="44.04586" lon="5.78016">
        <ele>696.8</ele>
        <time>2021-05-29T11:39:14.900Z</time>
      </trkpt>
      <trkpt lat="44.04544" lon="5.77985">
        <ele>693.4</ele>
        <time>2021-05-29T11:39:20.557Z</time>
      </trkpt>
      <trkpt lat="44.04533" lon="5.77841">
        <ele>687.2</ele>
        <time>2021-05-29T11:39:32.547Z</time>
      </trkpt>
      <trkpt lat="44.04521" lon="5.77704">
        <ele>687.5</ele>
        <time>2021-05-29T11:40:04.265Z</time>
      </trkpt>
      <trkpt lat="44.04505" lon="5.77608">
        <ele>686.5</ele>
        <time>2021-05-29T11:40:17.095Z</time>
      </trkpt>
      <trkpt lat="44.04455" lon="5.77519">
        <ele>681.1</ele>
        <time>2021-05-29T11:40:25.955Z</time>
      </trkpt>
      <trkpt lat="44.04417" lon="5.77426">
        <ele>679.7</ele>
        <time>2021-05-29T11:40:39.201Z</time>
      </trkpt>
      <trkpt lat="44.04379" lon="5.77368">
        <ele>677.9</ele>
        <time>2021-05-29T11:40:47.548Z</time>
      </trkpt>
    </trkseg>
  </trk>
  <trk>
    <name><![CDATA[J4 Black Aubignosc]]></name>
    <extensions>
      <line xmlns="http://www.topografix.com/GPX/gpx_style/0/2">
        <color>ff00ff</color>
        <width>4</width>
      </line>
    </extensions>
    <trkseg>
      <trkpt lat="44.04543" lon="5.78018">
        <ele>688.5</ele>
        <time>2021-05-30T06:30:33.000Z</time>
      </trkpt>
      <trkpt lat="44.04543" lon="5.78392">
        <ele>689.8</ele>
        <time>2021-05-30T06:32:12.296Z</time>
      </trkpt>
      <trkpt lat="44.04581" lon="5.78848">
        <ele>700.1</ele>
        <time>2021-05-30T06:34:55.414Z</time>
      </trkpt>
      <trkpt lat="44.04527" lon="5.79094">
        <ele>698.7</ele>
        <time>2021-05-30T06:35:34.664Z</time>
      </trkpt>
      <trkpt lat="44.04608" lon="5.79416">
        <ele>699.1</ele>
        <time>2021-05-30T06:37:02.539Z</time>
      </trkpt>
      <trkpt lat="44.04597" lon="5.79565">
        <ele>698.4</ele>
        <time>2021-05-30T06:37:37.101Z</time>
      </trkpt>
      <trkpt lat="44.0464" lon="5.79841">
        <ele>690.3</ele>
        <time>2021-05-30T06:38:06.947Z</time>
      </trkpt>
      <trkpt lat="44.0471" lon="5.8023">
        <ele>692.6</ele>
        <time>2021-05-30T06:39:56.718Z</time>
      </trkpt>
      <trkpt lat="44.0478" lon="5.8035">
        <ele>693.6</ele>
        <time>2021-05-30T06:40:39.454Z</time>
      </trkpt>
      <trkpt lat="44.04806" lon="5.80544">
        <ele>687.7</ele>
        <time>2021-05-30T06:40:59.980Z</time>
      </trkpt>
      <trkpt lat="44.04951" lon="5.80648">
        <ele>693</ele>
        <time>2021-05-30T06:42:21.964Z</time>
      </trkpt>
      <trkpt lat="44.05257" lon="5.80843">
        <ele>700.9</ele>
        <time>2021-05-30T06:44:53.315Z</time>
      </trkpt>
      <trkpt lat="44.05392" lon="5.81044">
        <ele>701.5</ele>
        <time>2021-05-30T06:46:05.106Z</time>
      </trkpt>
      <trkpt lat="44.05499" lon="5.81201">
        <ele>699.3</ele>
        <time>2021-05-30T06:46:35.385Z</time>
      </trkpt>
      <trkpt lat="44.0559" lon="5.81381">
        <ele>694.9</ele>
        <time>2021-05-30T06:47:01.659Z</time>
      </trkpt>
      <trkpt lat="44.05746" lon="5.81515">
        <ele>696.1</ele>
        <time>2021-05-30T06:48:10.502Z</time>
      </trkpt>
      <trkpt lat="44.05827" lon="5.81799">
        <ele>699.3</ele>
        <time>2021-05-30T06:49:39.956Z</time>
      </trkpt>
      <trkpt lat="44.05961" lon="5.82158">
        <ele>706.6</ele>
        <time>2021-05-30T06:51:53.233Z</time>
      </trkpt>
      <trkpt lat="44.06009" lon="5.82262">
        <ele>707.4</ele>
        <time>2021-05-30T06:52:27.407Z</time>
      </trkpt>
      <trkpt lat="44.06036" lon="5.82412">
        <ele>699.6</ele>
        <time>2021-05-30T06:52:41.624Z</time>
      </trkpt>
      <trkpt lat="44.0609" lon="5.82726">
        <ele>703.4</ele>
        <time>2021-05-30T06:54:17.982Z</time>
      </trkpt>
      <trkpt lat="44.06186" lon="5.83114">
        <ele>704.2</ele>
        <time>2021-05-30T06:56:04.728Z</time>
      </trkpt>
      <trkpt lat="44.0624" lon="5.8345">
        <ele>702.7</ele>
        <time>2021-05-30T06:57:24.642Z</time>
      </trkpt>
      <trkpt lat="44.06305" lon="5.83697">
        <ele>706.5</ele>
        <time>2021-05-30T06:58:46.426Z</time>
      </trkpt>
      <trkpt lat="44.06325" lon="5.83965">
        <ele>705.6</ele>
        <time>2021-05-30T06:59:50.229Z</time>
      </trkpt>
      <trkpt lat="44.06351" lon="5.84234">
        <ele>711.2</ele>
        <time>2021-05-30T07:01:23.646Z</time>
      </trkpt>
      <trkpt lat="44.06366" lon="5.8437">
        <ele>714</ele>
        <time>2021-05-30T07:02:10.773Z</time>
      </trkpt>
      <trkpt lat="44.06389" lon="5.84526">
        <ele>715.6</ele>
        <time>2021-05-30T07:02:57.101Z</time>
      </trkpt>
      <trkpt lat="44.06412" lon="5.84642">
        <ele>717.3</ele>
        <time>2021-05-30T07:03:34.329Z</time>
      </trkpt>
      <trkpt lat="44.0644" lon="5.84722">
        <ele>719.8</ele>
        <time>2021-05-30T07:04:09.494Z</time>
      </trkpt>
      <trkpt lat="44.06481" lon="5.8483">
        <ele>721.7</ele>
        <time>2021-05-30T07:04:48.140Z</time>
      </trkpt>
      <trkpt lat="44.06484" lon="5.84934">
        <ele>720.2</ele>
        <time>2021-05-30T07:05:01.695Z</time>
      </trkpt>
      <trkpt lat="44.06527" lon="5.85091">
        <ele>724.6</ele>
        <time>2021-05-30T07:06:05.669Z</time>
      </trkpt>
      <trkpt lat="44.06665" lon="5.85339">
        <ele>732.5</ele>
        <time>2021-05-30T07:08:02.855Z</time>
      </trkpt>
      <trkpt lat="44.06694" lon="5.85563">
        <ele>724.3</ele>
        <time>2021-05-30T07:08:24.768Z</time>
      </trkpt>
      <trkpt lat="44.0672" lon="5.85647">
        <ele>721.8</ele>
        <time>2021-05-30T07:08:34.605Z</time>
      </trkpt>
      <trkpt lat="44.0672" lon="5.85847">
        <ele>722.4</ele>
        <time>2021-05-30T07:09:27.351Z</time>
      </trkpt>
      <trkpt lat="44.06737" lon="5.86004">
        <ele>724.9</ele>
        <time>2021-05-30T07:10:17.736Z</time>
      </trkpt>
      <trkpt lat="44.06717" lon="5.86128">
        <ele>724.2</ele>
        <time>2021-05-30T07:10:37.097Z</time>
      </trkpt>
      <trkpt lat="44.06717" lon="5.86332">
        <ele>721.4</ele>
        <time>2021-05-30T07:11:03.962Z</time>
      </trkpt>
      <trkpt lat="44.06728" lon="5.86444">
        <ele>719.9</ele>
        <time>2021-05-30T07:11:18.962Z</time>
      </trkpt>
      <trkpt lat="44.06717" lon="5.86588">
        <ele>717</ele>
        <time>2021-05-30T07:11:36.237Z</time>
      </trkpt>
      <trkpt lat="44.0674" lon="5.86712">
        <ele>720.2</ele>
        <time>2021-05-30T07:12:23.904Z</time>
      </trkpt>
      <trkpt lat="44.06737" lon="5.86832">
        <ele>721.6</ele>
        <time>2021-05-30T07:12:59.676Z</time>
      </trkpt>
      <trkpt lat="44.06748" lon="5.87009">
        <ele>721.9</ele>
        <time>2021-05-30T07:13:45.730Z</time>
      </trkpt>
      <trkpt lat="44.0676" lon="5.87101">
        <ele>724.2</ele>
        <time>2021-05-30T07:14:20.281Z</time>
      </trkpt>
      <trkpt lat="44.06714" lon="5.87253">
        <ele>722.7</ele>
        <time>2021-05-30T07:14:43.798Z</time>
      </trkpt>
      <trkpt lat="44.06688" lon="5.87377">
        <ele>719.3</ele>
        <time>2021-05-30T07:14:57.882Z</time>
      </trkpt>
      <trkpt lat="44.06685" lon="5.87509">
        <ele>718.9</ele>
        <time>2021-05-30T07:15:29.348Z</time>
      </trkpt>
      <trkpt lat="44.06731" lon="5.87613">
        <ele>717.1</ele>
        <time>2021-05-30T07:15:45.166Z</time>
      </trkpt>
      <trkpt lat="44.06711" lon="5.87713">
        <ele>712</ele>
        <time>2021-05-30T07:15:54.709Z</time>
      </trkpt>
      <trkpt lat="44.06706" lon="5.87785">
        <ele>714.2</ele>
        <time>2021-05-30T07:16:24.674Z</time>
      </trkpt>
      <trkpt lat="44.06729" lon="5.87853">
        <ele>720.4</ele>
        <time>2021-05-30T07:17:22.608Z</time>
      </trkpt>
      <trkpt lat="44.06793" lon="5.87913">
        <ele>730</ele>
        <time>2021-05-30T07:18:55.551Z</time>
      </trkpt>
      <trkpt lat="44.06732" lon="5.88006">
        <ele>727.3</ele>
        <time>2021-05-30T07:19:10.262Z</time>
      </trkpt>
      <trkpt lat="44.06793" lon="5.88082">
        <ele>736.5</ele>
        <time>2021-05-30T07:20:35.721Z</time>
      </trkpt>
      <trkpt lat="44.06741" lon="5.88146">
        <ele>738</ele>
        <time>2021-05-30T07:21:06.272Z</time>
      </trkpt>
      <trkpt lat="44.06724" lon="5.88206">
        <ele>741.2</ele>
        <time>2021-05-30T07:21:38.957Z</time>
      </trkpt>
      <trkpt lat="44.06724" lon="5.8831">
        <ele>744.6</ele>
        <time>2021-05-30T07:22:23.760Z</time>
      </trkpt>
      <trkpt lat="44.06712" lon="5.88398">
        <ele>741.6</ele>
        <time>2021-05-30T07:22:32.656Z</time>
      </trkpt>
      <trkpt lat="44.06686" lon="5.88622">
        <ele>724.3</ele>
        <time>2021-05-30T07:22:53.515Z</time>
      </trkpt>
      <trkpt lat="44.0666" lon="5.88774">
        <ele>716.4</ele>
        <time>2021-05-30T07:23:07.879Z</time>
      </trkpt>
      <trkpt lat="44.06657" lon="5.89003">
        <ele>714.1</ele>
        <time>2021-05-30T07:23:39.993Z</time>
      </trkpt>
      <trkpt lat="44.06652" lon="5.89267">
        <ele>705.9</ele>
        <time>2021-05-30T07:24:07.043Z</time>
      </trkpt>
      <trkpt lat="44.06646" lon="5.89431">
        <ele>700.4</ele>
        <time>2021-05-30T07:24:23.351Z</time>
      </trkpt>
      <trkpt lat="44.06623" lon="5.89619">
        <ele>698.3</ele>
        <time>2021-05-30T07:24:49.643Z</time>
      </trkpt>
      <trkpt lat="44.06626" lon="5.89735">
        <ele>699.1</ele>
        <time>2021-05-30T07:25:21.921Z</time>
      </trkpt>
      <trkpt lat="44.06637" lon="5.89766">
        <ele>700</ele>
        <time>2021-05-30T07:25:35.046Z</time>
      </trkpt>
      <trkpt lat="44.06621" lon="5.89799">
        <ele>695.3</ele>
        <time>2021-05-30T07:25:38.706Z</time>
      </trkpt>
      <trkpt lat="44.06633" lon="5.89831">
        <ele>695.5</ele>
        <time>2021-05-30T07:25:48.557Z</time>
      </trkpt>
      <trkpt lat="44.06626" lon="5.89862">
        <ele>691.8</ele>
        <time>2021-05-30T07:25:51.545Z</time>
      </trkpt>
      <trkpt lat="44.06641" lon="5.89881">
        <ele>692.1</ele>
        <time>2021-05-30T07:25:59.827Z</time>
      </trkpt>
      <trkpt lat="44.06714" lon="5.89907">
        <ele>694.6</ele>
        <time>2021-05-30T07:26:38.039Z</time>
      </trkpt>
      <trkpt lat="44.06795" lon="5.8997">
        <ele>690</ele>
        <time>2021-05-30T07:26:50.533Z</time>
      </trkpt>
      <trkpt lat="44.06806" lon="5.90034">
        <ele>685.7</ele>
        <time>2021-05-30T07:26:56.583Z</time>
      </trkpt>
      <trkpt lat="44.06845" lon="5.90116">
        <ele>684.7</ele>
        <time>2021-05-30T07:27:10.340Z</time>
      </trkpt>
      <trkpt lat="44.06866" lon="5.90116">
        <ele>684.9</ele>
        <time>2021-05-30T07:27:18.462Z</time>
      </trkpt>
      <trkpt lat="44.06866" lon="5.90116">
        <ele>684.9</ele>
        <time>2021-05-30T07:27:18.462Z</time>
      </trkpt>
      <trkpt lat="44.0689" lon="5.90118">
        <ele>685.1</ele>
        <time>2021-05-30T07:27:27.649Z</time>
      </trkpt>
      <trkpt lat="44.06942" lon="5.90112">
        <ele>685.8</ele>
        <time>2021-05-30T07:27:48.649Z</time>
      </trkpt>
      <trkpt lat="44.07002" lon="5.90109">
        <ele>686.6</ele>
        <time>2021-05-30T07:28:12.789Z</time>
      </trkpt>
      <trkpt lat="44.07047" lon="5.90117">
        <ele>685.3</ele>
        <time>2021-05-30T07:28:20.258Z</time>
      </trkpt>
      <trkpt lat="44.0709" lon="5.90132">
        <ele>683.8</ele>
        <time>2021-05-30T07:28:27.175Z</time>
      </trkpt>
      <trkpt lat="44.07145" lon="5.90155">
        <ele>682.3</ele>
        <time>2021-05-30T07:28:36.892Z</time>
      </trkpt>
      <trkpt lat="44.07219" lon="5.90181">
        <ele>679.4</ele>
        <time>2021-05-30T07:28:48.321Z</time>
      </trkpt>
      <trkpt lat="44.073" lon="5.90244">
        <ele>677.3</ele>
        <time>2021-05-30T07:29:04.645Z</time>
      </trkpt>
      <trkpt lat="44.07329" lon="5.90264">
        <ele>678.2</ele>
        <time>2021-05-30T07:29:19.975Z</time>
      </trkpt>
      <trkpt lat="44.074" lon="5.9032">
        <ele>681</ele>
        <time>2021-05-30T07:30:01.985Z</time>
      </trkpt>
      <trkpt lat="44.07406" lon="5.90332">
        <ele>681.4</ele>
        <time>2021-05-30T07:30:07.679Z</time>
      </trkpt>
      <trkpt lat="44.07439" lon="5.90374">
        <ele>685.4</ele>
        <time>2021-05-30T07:30:44.903Z</time>
      </trkpt>
      <trkpt lat="44.07487" lon="5.90442">
        <ele>685.9</ele>
        <time>2021-05-30T07:31:10.812Z</time>
      </trkpt>
      <trkpt lat="44.07513" lon="5.90484">
        <ele>688.5</ele>
        <time>2021-05-30T07:31:38.132Z</time>
      </trkpt>
      <trkpt lat="44.07534" lon="5.90529">
        <ele>692.9</ele>
        <time>2021-05-30T07:32:19.174Z</time>
      </trkpt>
      <trkpt lat="44.0755" lon="5.90572">
        <ele>696.6</ele>
        <time>2021-05-30T07:32:53.218Z</time>
      </trkpt>
      <trkpt lat="44.07563" lon="5.90623">
        <ele>698</ele>
        <time>2021-05-30T07:33:13.697Z</time>
      </trkpt>
      <trkpt lat="44.07568" lon="5.90663">
        <ele>699.8</ele>
        <time>2021-05-30T07:33:33.198Z</time>
      </trkpt>
      <trkpt lat="44.07562" lon="5.90779">
        <ele>697.8</ele>
        <time>2021-05-30T07:33:47.682Z</time>
      </trkpt>
      <trkpt lat="44.07552" lon="5.9081">
        <ele>698.5</ele>
        <time>2021-05-30T07:33:59.369Z</time>
      </trkpt>
      <trkpt lat="44.07534" lon="5.9085">
        <ele>701.7</ele>
        <time>2021-05-30T07:34:28.878Z</time>
      </trkpt>
      <trkpt lat="44.07512" lon="5.9091">
        <ele>701.9</ele>
        <time>2021-05-30T07:34:46.634Z</time>
      </trkpt>
      <trkpt lat="44.07503" lon="5.90951">
        <ele>699.4</ele>
        <time>2021-05-30T07:34:50.575Z</time>
      </trkpt>
      <trkpt lat="44.07497" lon="5.90988">
        <ele>696</ele>
        <time>2021-05-30T07:34:54.061Z</time>
      </trkpt>
      <trkpt lat="44.07492" lon="5.91003">
        <ele>695.4</ele>
        <time>2021-05-30T07:34:55.648Z</time>
      </trkpt>
      <trkpt lat="44.07523" lon="5.9102">
        <ele>680.6</ele>
        <time>2021-05-30T07:34:59.911Z</time>
      </trkpt>
      <trkpt lat="44.07531" lon="5.91029">
        <ele>676.3</ele>
        <time>2021-05-30T07:35:01.227Z</time>
      </trkpt>
      <trkpt lat="44.07541" lon="5.91046">
        <ele>670.4</ele>
        <time>2021-05-30T07:35:03.246Z</time>
      </trkpt>
      <trkpt lat="44.07555" lon="5.91089">
        <ele>660.8</ele>
        <time>2021-05-30T07:35:07.586Z</time>
      </trkpt>
      <trkpt lat="44.0756" lon="5.9112">
        <ele>657.2</ele>
        <time>2021-05-30T07:35:10.506Z</time>
      </trkpt>
      <trkpt lat="44.07566" lon="5.91181">
        <ele>651.4</ele>
        <time>2021-05-30T07:35:16.165Z</time>
      </trkpt>
      <trkpt lat="44.07565" lon="5.91211">
        <ele>650.2</ele>
        <time>2021-05-30T07:35:18.925Z</time>
      </trkpt>
      <trkpt lat="44.0757" lon="5.91237">
        <ele>647.2</ele>
        <time>2021-05-30T07:35:21.399Z</time>
      </trkpt>
      <trkpt lat="44.07581" lon="5.91254">
        <ele>642.6</ele>
        <time>2021-05-30T07:35:23.502Z</time>
      </trkpt>
      <trkpt lat="44.07588" lon="5.91306">
        <ele>639.9</ele>
        <time>2021-05-30T07:35:28.365Z</time>
      </trkpt>
      <trkpt lat="44.07594" lon="5.91327">
        <ele>639.6</ele>
        <time>2021-05-30T07:35:31.363Z</time>
      </trkpt>
      <trkpt lat="44.07595" lon="5.91343">
        <ele>639.3</ele>
        <time>2021-05-30T07:35:33.318Z</time>
      </trkpt>
      <trkpt lat="44.07606" lon="5.91415">
        <ele>639.2</ele>
        <time>2021-05-30T07:35:51.460Z</time>
      </trkpt>
      <trkpt lat="44.07624" lon="5.91582">
        <ele>632.5</ele>
        <time>2021-05-30T07:36:07.029Z</time>
      </trkpt>
      <trkpt lat="44.07623" lon="5.91641">
        <ele>631.9</ele>
        <time>2021-05-30T07:36:15.285Z</time>
      </trkpt>
      <trkpt lat="44.07614" lon="5.91687">
        <ele>629.7</ele>
        <time>2021-05-30T07:36:19.375Z</time>
      </trkpt>
      <trkpt lat="44.07577" lon="5.91838">
        <ele>618.1</ele>
        <time>2021-05-30T07:36:34.039Z</time>
      </trkpt>
      <trkpt lat="44.07571" lon="5.91878">
        <ele>619</ele>
        <time>2021-05-30T07:36:48.448Z</time>
      </trkpt>
      <trkpt lat="44.07572" lon="5.91908">
        <ele>619.9</ele>
        <time>2021-05-30T07:37:00.774Z</time>
      </trkpt>
      <trkpt lat="44.07582" lon="5.91926">
        <ele>623</ele>
        <time>2021-05-30T07:37:23.032Z</time>
      </trkpt>
      <trkpt lat="44.07598" lon="5.91943">
        <ele>629.8</ele>
        <time>2021-05-30T07:37:50.439Z</time>
      </trkpt>
      <trkpt lat="44.07629" lon="5.91965">
        <ele>640.2</ele>
        <time>2021-05-30T07:38:37.818Z</time>
      </trkpt>
      <trkpt lat="44.07652" lon="5.91973">
        <ele>646.4</ele>
        <time>2021-05-30T07:39:10.097Z</time>
      </trkpt>
      <trkpt lat="44.07659" lon="5.91984">
        <ele>648.2</ele>
        <time>2021-05-30T07:39:24.471Z</time>
      </trkpt>
      <trkpt lat="44.07654" lon="5.91994">
        <ele>647.3</ele>
        <time>2021-05-30T07:39:25.591Z</time>
      </trkpt>
      <trkpt lat="44.0762" lon="5.92028">
        <ele>646.3</ele>
        <time>2021-05-30T07:39:32.853Z</time>
      </trkpt>
      <trkpt lat="44.07559" lon="5.92096">
        <ele>643.3</ele>
        <time>2021-05-30T07:39:44.511Z</time>
      </trkpt>
      <trkpt lat="44.07549" lon="5.92111">
        <ele>641.5</ele>
        <time>2021-05-30T07:39:46.392Z</time>
      </trkpt>
      <trkpt lat="44.0754" lon="5.92129">
        <ele>640.4</ele>
        <time>2021-05-30T07:39:48.408Z</time>
      </trkpt>
      <trkpt lat="44.07537" lon="5.92148">
        <ele>641.3</ele>
        <time>2021-05-30T07:39:57.933Z</time>
      </trkpt>
      <trkpt lat="44.07536" lon="5.92171">
        <ele>643.3</ele>
        <time>2021-05-30T07:40:16.996Z</time>
      </trkpt>
      <trkpt lat="44.07542" lon="5.9221">
        <ele>648.5</ele>
        <time>2021-05-30T07:40:56.011Z</time>
      </trkpt>
      <trkpt lat="44.0755" lon="5.9224">
        <ele>652.6</ele>
        <time>2021-05-30T07:41:27.314Z</time>
      </trkpt>
      <trkpt lat="44.07564" lon="5.92269">
        <ele>657.8</ele>
        <time>2021-05-30T07:42:01.491Z</time>
      </trkpt>
      <trkpt lat="44.07585" lon="5.923">
        <ele>663.9</ele>
        <time>2021-05-30T07:42:43.170Z</time>
      </trkpt>
      <trkpt lat="44.07625" lon="5.9235">
        <ele>671.5</ele>
        <time>2021-05-30T07:43:56.371Z</time>
      </trkpt>
      <trkpt lat="44.07664" lon="5.9241">
        <ele>676.7</ele>
        <time>2021-05-30T07:44:44.761Z</time>
      </trkpt>
      <trkpt lat="44.07698" lon="5.92456">
        <ele>678.2</ele>
        <time>2021-05-30T07:45:08.328Z</time>
      </trkpt>
      <trkpt lat="44.07733" lon="5.92479">
        <ele>679.6</ele>
        <time>2021-05-30T07:45:28.760Z</time>
      </trkpt>
      <trkpt lat="44.07766" lon="5.92497">
        <ele>680.5</ele>
        <time>2021-05-30T07:45:45.064Z</time>
      </trkpt>
      <trkpt lat="44.07814" lon="5.92533">
        <ele>680.7</ele>
        <time>2021-05-30T07:46:04.980Z</time>
      </trkpt>
      <trkpt lat="44.07835" lon="5.92558">
        <ele>680.7</ele>
        <time>2021-05-30T07:46:14.735Z</time>
      </trkpt>
      <trkpt lat="44.07857" lon="5.9259">
        <ele>680.8</ele>
        <time>2021-05-30T07:46:26.300Z</time>
      </trkpt>
      <trkpt lat="44.07886" lon="5.92641">
        <ele>681.6</ele>
        <time>2021-05-30T07:46:45.862Z</time>
      </trkpt>
      <trkpt lat="44.07903" lon="5.92666">
        <ele>682.3</ele>
        <time>2021-05-30T07:46:57.648Z</time>
      </trkpt>
      <trkpt lat="44.07946" lon="5.92713">
        <ele>681.8</ele>
        <time>2021-05-30T07:47:09.009Z</time>
      </trkpt>
      <trkpt lat="44.07956" lon="5.92729">
        <ele>681.3</ele>
        <time>2021-05-30T07:47:11.411Z</time>
      </trkpt>
      <trkpt lat="44.07955" lon="5.92746">
        <ele>680.7</ele>
        <time>2021-05-30T07:47:13.069Z</time>
      </trkpt>
      <trkpt lat="44.07961" lon="5.92764">
        <ele>680</ele>
        <time>2021-05-30T07:47:14.997Z</time>
      </trkpt>
      <trkpt lat="44.07986" lon="5.92796">
        <ele>678.5</ele>
        <time>2021-05-30T07:47:19.796Z</time>
      </trkpt>
      <trkpt lat="44.0801" lon="5.92822">
        <ele>677.2</ele>
        <time>2021-05-30T07:47:24.150Z</time>
      </trkpt>
      <trkpt lat="44.0802" lon="5.92837">
        <ele>676.2</ele>
        <time>2021-05-30T07:47:26.030Z</time>
      </trkpt>
      <trkpt lat="44.08044" lon="5.92894">
        <ele>671.2</ele>
        <time>2021-05-30T07:47:32.103Z</time>
      </trkpt>
      <trkpt lat="44.08065" lon="5.92925">
        <ele>668.5</ele>
        <time>2021-05-30T07:47:36.019Z</time>
      </trkpt>
      <trkpt lat="44.08096" lon="5.92965">
        <ele>665.3</ele>
        <time>2021-05-30T07:47:41.427Z</time>
      </trkpt>
      <trkpt lat="44.08109" lon="5.92989">
        <ele>663.6</ele>
        <time>2021-05-30T07:47:44.189Z</time>
      </trkpt>
      <trkpt lat="44.08116" lon="5.9301">
        <ele>662</ele>
        <time>2021-05-30T07:47:46.317Z</time>
      </trkpt>
      <trkpt lat="44.08125" lon="5.93029">
        <ele>660.9</ele>
        <time>2021-05-30T07:47:48.409Z</time>
      </trkpt>
      <trkpt lat="44.08131" lon="5.93049">
        <ele>659.7</ele>
        <time>2021-05-30T07:47:50.401Z</time>
      </trkpt>
      <trkpt lat="44.08148" lon="5.93071">
        <ele>658.9</ele>
        <time>2021-05-30T07:47:54.000Z</time>
      </trkpt>
      <trkpt lat="44.08162" lon="5.93074">
        <ele>659.3</ele>
        <time>2021-05-30T07:48:00.745Z</time>
      </trkpt>
      <trkpt lat="44.08192" lon="5.93071">
        <ele>660.4</ele>
        <time>2021-05-30T07:48:16.711Z</time>
      </trkpt>
      <trkpt lat="44.08204" lon="5.93081">
        <ele>660</ele>
        <time>2021-05-30T07:48:19.015Z</time>
      </trkpt>
      <trkpt lat="44.08199" lon="5.93094">
        <ele>659.1</ele>
        <time>2021-05-30T07:48:20.370Z</time>
      </trkpt>
      <trkpt lat="44.08185" lon="5.93119">
        <ele>657.3</ele>
        <time>2021-05-30T07:48:23.283Z</time>
      </trkpt>
      <trkpt lat="44.08181" lon="5.93143">
        <ele>655.8</ele>
        <time>2021-05-30T07:48:25.547Z</time>
      </trkpt>
      <trkpt lat="44.08158" lon="5.93235">
        <ele>650.3</ele>
        <time>2021-05-30T07:48:34.500Z</time>
      </trkpt>
      <trkpt lat="44.08147" lon="5.93265">
        <ele>649.1</ele>
        <time>2021-05-30T07:48:37.758Z</time>
      </trkpt>
      <trkpt lat="44.08137" lon="5.93275">
        <ele>648.8</ele>
        <time>2021-05-30T07:48:39.882Z</time>
      </trkpt>
      <trkpt lat="44.08129" lon="5.93292">
        <ele>648.6</ele>
        <time>2021-05-30T07:48:42.741Z</time>
      </trkpt>
      <trkpt lat="44.08134" lon="5.93303">
        <ele>648.9</ele>
        <time>2021-05-30T07:48:47.415Z</time>
      </trkpt>
      <trkpt lat="44.08164" lon="5.93315">
        <ele>649.9</ele>
        <time>2021-05-30T07:49:03.010Z</time>
      </trkpt>
      <trkpt lat="44.08176" lon="5.93338">
        <ele>650.3</ele>
        <time>2021-05-30T07:49:11.795Z</time>
      </trkpt>
      <trkpt lat="44.08187" lon="5.93343">
        <ele>650.6</ele>
        <time>2021-05-30T07:49:17.152Z</time>
      </trkpt>
      <trkpt lat="44.08225" lon="5.93333">
        <ele>652.8</ele>
        <time>2021-05-30T07:49:42.151Z</time>
      </trkpt>
      <trkpt lat="44.0824" lon="5.93336">
        <ele>653.4</ele>
        <time>2021-05-30T07:49:50.544Z</time>
      </trkpt>
      <trkpt lat="44.08253" lon="5.93331">
        <ele>654.2</ele>
        <time>2021-05-30T07:49:59.410Z</time>
      </trkpt>
      <trkpt lat="44.08262" lon="5.93322">
        <ele>654.8</ele>
        <time>2021-05-30T07:50:06.441Z</time>
      </trkpt>
      <trkpt lat="44.08273" lon="5.93317">
        <ele>655.6</ele>
        <time>2021-05-30T07:50:14.608Z</time>
      </trkpt>
      <trkpt lat="44.08301" lon="5.93318">
        <ele>657.3</ele>
        <time>2021-05-30T07:50:33.199Z</time>
      </trkpt>
      <trkpt lat="44.08332" lon="5.93332">
        <ele>658</ele>
        <time>2021-05-30T07:50:47.521Z</time>
      </trkpt>
      <trkpt lat="44.0836" lon="5.93354">
        <ele>660</ele>
        <time>2021-05-30T07:51:09.092Z</time>
      </trkpt>
      <trkpt lat="44.08377" lon="5.93358">
        <ele>661.6</ele>
        <time>2021-05-30T07:51:23.882Z</time>
      </trkpt>
      <trkpt lat="44.08395" lon="5.93355">
        <ele>663.5</ele>
        <time>2021-05-30T07:51:41.341Z</time>
      </trkpt>
      <trkpt lat="44.08408" lon="5.93358">
        <ele>664.8</ele>
        <time>2021-05-30T07:51:53.281Z</time>
      </trkpt>
      <trkpt lat="44.08428" lon="5.9337">
        <ele>666.5</ele>
        <time>2021-05-30T07:52:09.752Z</time>
      </trkpt>
      <trkpt lat="44.08451" lon="5.93377">
        <ele>668.3</ele>
        <time>2021-05-30T07:52:27.331Z</time>
      </trkpt>
      <trkpt lat="44.08471" lon="5.9338">
        <ele>669.8</ele>
        <time>2021-05-30T07:52:42.130Z</time>
      </trkpt>
      <trkpt lat="44.08541" lon="5.934">
        <ele>673.2</ele>
        <time>2021-05-30T07:53:25.549Z</time>
      </trkpt>
      <trkpt lat="44.08632" lon="5.93419">
        <ele>676</ele>
        <time>2021-05-30T07:54:10.584Z</time>
      </trkpt>
      <trkpt lat="44.08647" lon="5.93418">
        <ele>676.8</ele>
        <time>2021-05-30T07:54:20.057Z</time>
      </trkpt>
      <trkpt lat="44.08683" lon="5.93405">
        <ele>679.2</ele>
        <time>2021-05-30T07:54:45.429Z</time>
      </trkpt>
      <trkpt lat="44.08729" lon="5.93378">
        <ele>682.4</ele>
        <time>2021-05-30T07:55:19.379Z</time>
      </trkpt>
      <trkpt lat="44.08757" lon="5.93358">
        <ele>684.7</ele>
        <time>2021-05-30T07:55:42.266Z</time>
      </trkpt>
      <trkpt lat="44.08806" lon="5.93328">
        <ele>686</ele>
        <time>2021-05-30T07:56:06.568Z</time>
      </trkpt>
      <trkpt lat="44.08838" lon="5.93302">
        <ele>687.9</ele>
        <time>2021-05-30T07:56:29.631Z</time>
      </trkpt>
      <trkpt lat="44.08857" lon="5.93301">
        <ele>687</ele>
        <time>2021-05-30T07:56:32.242Z</time>
      </trkpt>
      <trkpt lat="44.08959" lon="5.93269">
        <ele>683.8</ele>
        <time>2021-05-30T07:56:49.106Z</time>
      </trkpt>
      <trkpt lat="44.08983" lon="5.93245">
        <ele>683.8</ele>
        <time>2021-05-30T07:56:59.537Z</time>
      </trkpt>
      <trkpt lat="44.09008" lon="5.93229">
        <ele>684</ele>
        <time>2021-05-30T07:57:09.943Z</time>
      </trkpt>
      <trkpt lat="44.09057" lon="5.93219">
        <ele>683.1</ele>
        <time>2021-05-30T07:57:19.121Z</time>
      </trkpt>
      <trkpt lat="44.09078" lon="5.93223">
        <ele>682.2</ele>
        <time>2021-05-30T07:57:22.164Z</time>
      </trkpt>
      <trkpt lat="44.09095" lon="5.93229">
        <ele>682.2</ele>
        <time>2021-05-30T07:57:28.354Z</time>
      </trkpt>
      <trkpt lat="44.09106" lon="5.93245">
        <ele>682</ele>
        <time>2021-05-30T07:57:31.515Z</time>
      </trkpt>
      <trkpt lat="44.09128" lon="5.93267">
        <ele>681.8</ele>
        <time>2021-05-30T07:57:37.280Z</time>
      </trkpt>
      <trkpt lat="44.09134" lon="5.93276">
        <ele>681.4</ele>
        <time>2021-05-30T07:57:38.513Z</time>
      </trkpt>
      <trkpt lat="44.09156" lon="5.93329">
        <ele>678.4</ele>
        <time>2021-05-30T07:57:44.138Z</time>
      </trkpt>
      <trkpt lat="44.09188" lon="5.93375">
        <ele>674.4</ele>
        <time>2021-05-30T07:57:50.023Z</time>
      </trkpt>
      <trkpt lat="44.09217" lon="5.93387">
        <ele>673.7</ele>
        <time>2021-05-30T07:57:55.314Z</time>
      </trkpt>
      <trkpt lat="44.09221" lon="5.9341">
        <ele>671.3</ele>
        <time>2021-05-30T07:57:57.489Z</time>
      </trkpt>
      <trkpt lat="44.09228" lon="5.93434">
        <ele>669.5</ele>
        <time>2021-05-30T07:57:59.869Z</time>
      </trkpt>
      <trkpt lat="44.09238" lon="5.93487">
        <ele>666.3</ele>
        <time>2021-05-30T07:58:04.905Z</time>
      </trkpt>
      <trkpt lat="44.0924" lon="5.93507">
        <ele>665.4</ele>
        <time>2021-05-30T07:58:06.666Z</time>
      </trkpt>
      <trkpt lat="44.09251" lon="5.93529">
        <ele>665.3</ele>
        <time>2021-05-30T07:58:12.961Z</time>
      </trkpt>
      <trkpt lat="44.09266" lon="5.93545">
        <ele>665.3</ele>
        <time>2021-05-30T07:58:19.632Z</time>
      </trkpt>
      <trkpt lat="44.0928" lon="5.93567">
        <ele>664.9</ele>
        <time>2021-05-30T07:58:23.508Z</time>
      </trkpt>
      <trkpt lat="44.09293" lon="5.93576">
        <ele>664.8</ele>
        <time>2021-05-30T07:58:28.144Z</time>
      </trkpt>
      <trkpt lat="44.09305" lon="5.93597">
        <ele>664.1</ele>
        <time>2021-05-30T07:58:31.078Z</time>
      </trkpt>
      <trkpt lat="44.09314" lon="5.93623">
        <ele>663</ele>
        <time>2021-05-30T07:58:33.787Z</time>
      </trkpt>
      <trkpt lat="44.09316" lon="5.93652">
        <ele>661.7</ele>
        <time>2021-05-30T07:58:36.326Z</time>
      </trkpt>
      <trkpt lat="44.09316" lon="5.93727">
        <ele>658.4</ele>
        <time>2021-05-30T07:58:42.909Z</time>
      </trkpt>
      <trkpt lat="44.09312" lon="5.93748">
        <ele>657.3</ele>
        <time>2021-05-30T07:58:44.906Z</time>
      </trkpt>
      <trkpt lat="44.09316" lon="5.93765">
        <ele>656.1</ele>
        <time>2021-05-30T07:58:46.550Z</time>
      </trkpt>
      <trkpt lat="44.09327" lon="5.93785">
        <ele>655.1</ele>
        <time>2021-05-30T07:58:48.871Z</time>
      </trkpt>
      <trkpt lat="44.09329" lon="5.93805">
        <ele>653.7</ele>
        <time>2021-05-30T07:58:50.726Z</time>
      </trkpt>
      <trkpt lat="44.09329" lon="5.93894">
        <ele>645.7</ele>
        <time>2021-05-30T07:58:58.904Z</time>
      </trkpt>
      <trkpt lat="44.09318" lon="5.93937">
        <ele>640.2</ele>
        <time>2021-05-30T07:59:03.098Z</time>
      </trkpt>
      <trkpt lat="44.09301" lon="5.93978">
        <ele>634.5</ele>
        <time>2021-05-30T07:59:07.449Z</time>
      </trkpt>
      <trkpt lat="44.09276" lon="5.94017">
        <ele>628.3</ele>
        <time>2021-05-30T07:59:12.252Z</time>
      </trkpt>
      <trkpt lat="44.09249" lon="5.94041">
        <ele>623.5</ele>
        <time>2021-05-30T07:59:16.350Z</time>
      </trkpt>
      <trkpt lat="44.09239" lon="5.94067">
        <ele>620.4</ele>
        <time>2021-05-30T07:59:19.061Z</time>
      </trkpt>
      <trkpt lat="44.09239" lon="5.94102">
        <ele>617.8</ele>
        <time>2021-05-30T07:59:22.277Z</time>
      </trkpt>
      <trkpt lat="44.09247" lon="5.94148">
        <ele>615.8</ele>
        <time>2021-05-30T07:59:26.512Z</time>
      </trkpt>
      <trkpt lat="44.09258" lon="5.94171">
        <ele>615.1</ele>
        <time>2021-05-30T07:59:29.565Z</time>
      </trkpt>
      <trkpt lat="44.09274" lon="5.94187">
        <ele>614.9</ele>
        <time>2021-05-30T07:59:33.604Z</time>
      </trkpt>
      <trkpt lat="44.09287" lon="5.94212">
        <ele>614.2</ele>
        <time>2021-05-30T07:59:37.143Z</time>
      </trkpt>
      <trkpt lat="44.09287" lon="5.94278">
        <ele>612.9</ele>
        <time>2021-05-30T07:59:45.051Z</time>
      </trkpt>
      <trkpt lat="44.09285" lon="5.94301">
        <ele>613.2</ele>
        <time>2021-05-30T07:59:52.087Z</time>
      </trkpt>
      <trkpt lat="44.0928" lon="5.9431">
        <ele>613.3</ele>
        <time>2021-05-30T07:59:55.336Z</time>
      </trkpt>
      <trkpt lat="44.09277" lon="5.94326">
        <ele>613.5</ele>
        <time>2021-05-30T08:00:00.293Z</time>
      </trkpt>
      <trkpt lat="44.0928" lon="5.94346">
        <ele>613.4</ele>
        <time>2021-05-30T08:00:04.983Z</time>
      </trkpt>
      <trkpt lat="44.0928" lon="5.94346">
        <ele>613.4</ele>
        <time>2021-05-30T08:00:04.983Z</time>
      </trkpt>
      <trkpt lat="44.09331" lon="5.94363">
        <ele>614.6</ele>
        <time>2021-05-30T08:00:28.404Z</time>
      </trkpt>
      <trkpt lat="44.09396" lon="5.94393">
        <ele>615.2</ele>
        <time>2021-05-30T08:00:54.687Z</time>
      </trkpt>
      <trkpt lat="44.09455" lon="5.94402">
        <ele>614.4</ele>
        <time>2021-05-30T08:01:06.342Z</time>
      </trkpt>
      <trkpt lat="44.09516" lon="5.94402">
        <ele>612.5</ele>
        <time>2021-05-30T08:01:16.126Z</time>
      </trkpt>
      <trkpt lat="44.0959" lon="5.94384">
        <ele>608.2</ele>
        <time>2021-05-30T08:01:25.608Z</time>
      </trkpt>
      <trkpt lat="44.09652" lon="5.9441">
        <ele>604</ele>
        <time>2021-05-30T08:01:33.302Z</time>
      </trkpt>
      <trkpt lat="44.09704" lon="5.94419">
        <ele>599.7</ele>
        <time>2021-05-30T08:01:40.006Z</time>
      </trkpt>
      <trkpt lat="44.0976" lon="5.9441">
        <ele>596.1</ele>
        <time>2021-05-30T08:01:46.757Z</time>
      </trkpt>
      <trkpt lat="44.09834" lon="5.94453">
        <ele>591.7</ele>
        <time>2021-05-30T08:01:57.078Z</time>
      </trkpt>
      <trkpt lat="44.09923" lon="5.94522">
        <ele>590.7</ele>
        <time>2021-05-30T08:02:18.057Z</time>
      </trkpt>
      <trkpt lat="44.09979" lon="5.94573">
        <ele>587.7</ele>
        <time>2021-05-30T08:02:27.454Z</time>
      </trkpt>
      <trkpt lat="44.1004" lon="5.94603">
        <ele>586.9</ele>
        <time>2021-05-30T08:02:40.340Z</time>
      </trkpt>
      <trkpt lat="44.10086" lon="5.94629">
        <ele>586.3</ele>
        <time>2021-05-30T08:02:50.265Z</time>
      </trkpt>
      <trkpt lat="44.10065" lon="5.94715">
        <ele>580.9</ele>
        <time>2021-05-30T08:02:58.611Z</time>
      </trkpt>
      <trkpt lat="44.10009" lon="5.94792">
        <ele>575</ele>
        <time>2021-05-30T08:03:08.679Z</time>
      </trkpt>
      <trkpt lat="44.0996" lon="5.94874">
        <ele>569.1</ele>
        <time>2021-05-30T08:03:18.481Z</time>
      </trkpt>
      <trkpt lat="44.0992" lon="5.94981">
        <ele>567.1</ele>
        <time>2021-05-30T08:03:33.642Z</time>
      </trkpt>
      <trkpt lat="44.09877" lon="5.95093">
        <ele>568</ele>
        <time>2021-05-30T08:04:09.037Z</time>
      </trkpt>
      <trkpt lat="44.09834" lon="5.95217">
        <ele>569.3</ele>
        <time>2021-05-30T08:04:48.724Z</time>
      </trkpt>
      <trkpt lat="44.09812" lon="5.95359">
        <ele>574.2</ele>
        <time>2021-05-30T08:05:51.863Z</time>
      </trkpt>
      <trkpt lat="44.09797" lon="5.95449">
        <ele>576.4</ele>
        <time>2021-05-30T08:06:25.502Z</time>
      </trkpt>
      <trkpt lat="44.09821" lon="5.95552">
        <ele>581.7</ele>
        <time>2021-05-30T08:07:19.983Z</time>
      </trkpt>
      <trkpt lat="44.09794" lon="5.95659">
        <ele>585.3</ele>
        <time>2021-05-30T08:08:08.293Z</time>
      </trkpt>
      <trkpt lat="44.09763" lon="5.95758">
        <ele>588.7</ele>
        <time>2021-05-30T08:08:54.043Z</time>
      </trkpt>
      <trkpt lat="44.09747" lon="5.95818">
        <ele>599.4</ele>
        <time>2021-05-30T08:09:56.627Z</time>
      </trkpt>
      <trkpt lat="44.09676" lon="5.95856">
        <ele>601.1</ele>
        <time>2021-05-30T08:10:30.390Z</time>
      </trkpt>
      <trkpt lat="44.09593" lon="5.95895">
        <ele>595.8</ele>
        <time>2021-05-30T08:10:41.160Z</time>
      </trkpt>
      <trkpt lat="44.09525" lon="5.95959">
        <ele>598</ele>
        <time>2021-05-30T08:11:19.562Z</time>
      </trkpt>
      <trkpt lat="44.09485" lon="5.96032">
        <ele>605.9</ele>
        <time>2021-05-30T08:12:34.568Z</time>
      </trkpt>
      <trkpt lat="44.09473" lon="5.96114">
        <ele>624.2</ele>
        <time>2021-05-30T08:13:56.402Z</time>
      </trkpt>
      <trkpt lat="44.09488" lon="5.96165">
        <ele>639.3</ele>
        <time>2021-05-30T08:14:50.294Z</time>
      </trkpt>
      <trkpt lat="44.09525" lon="5.96101">
        <ele>627.2</ele>
        <time>2021-05-30T08:14:57.844Z</time>
      </trkpt>
      <trkpt lat="44.0955" lon="5.96067">
        <ele>624.6</ele>
        <time>2021-05-30T08:15:02.315Z</time>
      </trkpt>
      <trkpt lat="44.09606" lon="5.96015">
        <ele>626.7</ele>
        <time>2021-05-30T08:15:35.583Z</time>
      </trkpt>
      <trkpt lat="44.09636" lon="5.95994">
        <ele>630.6</ele>
        <time>2021-05-30T08:16:12.163Z</time>
      </trkpt>
      <trkpt lat="44.0972" lon="5.95977">
        <ele>639.8</ele>
        <time>2021-05-30T08:17:37.017Z</time>
      </trkpt>
      <trkpt lat="44.09772" lon="5.95955">
        <ele>640.6</ele>
        <time>2021-05-30T08:17:59.192Z</time>
      </trkpt>
      <trkpt lat="44.0984" lon="5.95938">
        <ele>645.3</ele>
        <time>2021-05-30T08:18:47.549Z</time>
      </trkpt>
      <trkpt lat="44.09892" lon="5.95908">
        <ele>645.6</ele>
        <time>2021-05-30T08:19:08.438Z</time>
      </trkpt>
      <trkpt lat="44.09945" lon="5.95882">
        <ele>648.5</ele>
        <time>2021-05-30T08:19:43.492Z</time>
      </trkpt>
      <trkpt lat="44.09988" lon="5.95848">
        <ele>652.7</ele>
        <time>2021-05-30T08:20:23.075Z</time>
      </trkpt>
      <trkpt lat="44.10025" lon="5.95805">
        <ele>660.3</ele>
        <time>2021-05-30T08:21:28.694Z</time>
      </trkpt>
      <trkpt lat="44.1004" lon="5.95749">
        <ele>665.2</ele>
        <time>2021-05-30T08:22:14.403Z</time>
      </trkpt>
      <trkpt lat="44.10043" lon="5.95698">
        <ele>667.7</ele>
        <time>2021-05-30T08:22:40.124Z</time>
      </trkpt>
      <trkpt lat="44.10028" lon="5.9565">
        <ele>660.9</ele>
        <time>2021-05-30T08:22:44.934Z</time>
      </trkpt>
      <trkpt lat="44.10056" lon="5.95595">
        <ele>661.1</ele>
        <time>2021-05-30T08:23:02.697Z</time>
      </trkpt>
      <trkpt lat="44.10114" lon="5.95556">
        <ele>669</ele>
        <time>2021-05-30T08:24:18.574Z</time>
      </trkpt>
      <trkpt lat="44.1016" lon="5.95509">
        <ele>668.2</ele>
        <time>2021-05-30T08:24:29.701Z</time>
      </trkpt>
      <trkpt lat="44.10167" lon="5.95543">
        <ele>678.4</ele>
        <time>2021-05-30T08:25:04.284Z</time>
      </trkpt>
      <trkpt lat="44.10203" lon="5.9553">
        <ele>680.5</ele>
        <time>2021-05-30T08:25:28.255Z</time>
      </trkpt>
      <trkpt lat="44.10231" lon="5.9553">
        <ele>684.6</ele>
        <time>2021-05-30T08:26:06.380Z</time>
      </trkpt>
      <trkpt lat="44.10216" lon="5.95582">
        <ele>689</ele>
        <time>2021-05-30T08:26:47.020Z</time>
      </trkpt>
      <trkpt lat="44.10213" lon="5.95633">
        <ele>687.1</ele>
        <time>2021-05-30T08:26:51.878Z</time>
      </trkpt>
      <trkpt lat="44.10225" lon="5.95689">
        <ele>683.3</ele>
        <time>2021-05-30T08:26:57.247Z</time>
      </trkpt>
      <trkpt lat="44.1025" lon="5.95728">
        <ele>678.8</ele>
        <time>2021-05-30T08:27:02.050Z</time>
      </trkpt>
      <trkpt lat="44.10277" lon="5.95736">
        <ele>676.2</ele>
        <time>2021-05-30T08:27:05.582Z</time>
      </trkpt>
      <trkpt lat="44.1025" lon="5.95762">
        <ele>676.3</ele>
        <time>2021-05-30T08:27:17.502Z</time>
      </trkpt>
      <trkpt lat="44.10234" lon="5.95814">
        <ele>673.8</ele>
        <time>2021-05-30T08:27:22.456Z</time>
      </trkpt>
      <trkpt lat="44.1024" lon="5.95861">
        <ele>670.6</ele>
        <time>2021-05-30T08:27:26.842Z</time>
      </trkpt>
      <trkpt lat="44.10281" lon="5.95904">
        <ele>665.8</ele>
        <time>2021-05-30T08:27:33.409Z</time>
      </trkpt>
      <trkpt lat="44.10299" lon="5.95912">
        <ele>664.3</ele>
        <time>2021-05-30T08:27:35.826Z</time>
      </trkpt>
      <trkpt lat="44.1025" lon="5.95947">
        <ele>662.6</ele>
        <time>2021-05-30T08:27:44.684Z</time>
      </trkpt>
      <trkpt lat="44.10305" lon="5.95951">
        <ele>658.5</ele>
        <time>2021-05-30T08:27:51.730Z</time>
      </trkpt>
      <trkpt lat="44.10234" lon="5.96024">
        <ele>654.1</ele>
        <time>2021-05-30T08:28:03.585Z</time>
      </trkpt>
      <trkpt lat="44.10318" lon="5.95989">
        <ele>651.8</ele>
        <time>2021-05-30T08:28:18.403Z</time>
      </trkpt>
      <trkpt lat="44.1041" lon="5.95959">
        <ele>644.8</ele>
        <time>2021-05-30T08:28:30.492Z</time>
      </trkpt>
      <trkpt lat="44.10472" lon="5.95934">
        <ele>638.7</ele>
        <time>2021-05-30T08:28:38.750Z</time>
      </trkpt>
      <trkpt lat="44.10521" lon="5.95925">
        <ele>633.4</ele>
        <time>2021-05-30T08:28:45.074Z</time>
      </trkpt>
      <trkpt lat="44.10555" lon="5.95947">
        <ele>631</ele>
        <time>2021-05-30T08:28:49.558Z</time>
      </trkpt>
      <trkpt lat="44.10558" lon="5.95985">
        <ele>630.9</ele>
        <time>2021-05-30T08:28:58.736Z</time>
      </trkpt>
      <trkpt lat="44.10604" lon="5.95985">
        <ele>626.5</ele>
        <time>2021-05-30T08:29:04.621Z</time>
      </trkpt>
      <trkpt lat="44.10638" lon="5.95955">
        <ele>621.7</ele>
        <time>2021-05-30T08:29:09.771Z</time>
      </trkpt>
      <trkpt lat="44.1069" lon="5.95951">
        <ele>611.8</ele>
        <time>2021-05-30T08:29:16.434Z</time>
      </trkpt>
      <trkpt lat="44.10761" lon="5.95917">
        <ele>597.9</ele>
        <time>2021-05-30T08:29:26.039Z</time>
      </trkpt>
      <trkpt lat="44.10804" lon="5.95942">
        <ele>595.9</ele>
        <time>2021-05-30T08:29:32.700Z</time>
      </trkpt>
      <trkpt lat="44.10832" lon="5.96015">
        <ele>591</ele>
        <time>2021-05-30T08:29:40.303Z</time>
      </trkpt>
      <trkpt lat="44.10869" lon="5.96084">
        <ele>591.1</ele>
        <time>2021-05-30T08:30:02.459Z</time>
      </trkpt>
      <trkpt lat="44.10872" lon="5.96041">
        <ele>595.6</ele>
        <time>2021-05-30T08:30:44.696Z</time>
      </trkpt>
      <trkpt lat="44.10946" lon="5.96015">
        <ele>610.8</ele>
        <time>2021-05-30T08:32:28.610Z</time>
      </trkpt>
      <trkpt lat="44.11005" lon="5.96037">
        <ele>615.2</ele>
        <time>2021-05-30T08:33:12.673Z</time>
      </trkpt>
      <trkpt lat="44.11054" lon="5.96041">
        <ele>613.3</ele>
        <time>2021-05-30T08:33:19.973Z</time>
      </trkpt>
      <trkpt lat="44.11085" lon="5.96101">
        <ele>601.5</ele>
        <time>2021-05-30T08:33:26.764Z</time>
      </trkpt>
      <trkpt lat="44.11137" lon="5.96135">
        <ele>599.3</ele>
        <time>2021-05-30T08:33:35.341Z</time>
      </trkpt>
      <trkpt lat="44.1123" lon="5.96183">
        <ele>592.8</ele>
        <time>2021-05-30T08:33:47.066Z</time>
      </trkpt>
      <trkpt lat="44.11257" lon="5.96234">
        <ele>586.8</ele>
        <time>2021-05-30T08:33:52.886Z</time>
      </trkpt>
      <trkpt lat="44.11276" lon="5.96264">
        <ele>584</ele>
        <time>2021-05-30T08:33:56.561Z</time>
      </trkpt>
      <trkpt lat="44.11344" lon="5.96286">
        <ele>584</ele>
        <time>2021-05-30T08:34:21.205Z</time>
      </trkpt>
      <trkpt lat="44.11399" lon="5.96273">
        <ele>577.2</ele>
        <time>2021-05-30T08:34:28.342Z</time>
      </trkpt>
      <trkpt lat="44.11448" lon="5.96277">
        <ele>570.9</ele>
        <time>2021-05-30T08:34:34.622Z</time>
      </trkpt>
      <trkpt lat="44.11492" lon="5.96251">
        <ele>567.7</ele>
        <time>2021-05-30T08:34:40.737Z</time>
      </trkpt>
      <trkpt lat="44.11504" lon="5.96213">
        <ele>568.1</ele>
        <time>2021-05-30T08:34:52.733Z</time>
      </trkpt>
      <trkpt lat="44.11527" lon="5.9618">
        <ele>570.2</ele>
        <time>2021-05-30T08:35:15.108Z</time>
      </trkpt>
      <trkpt lat="44.11555" lon="5.96182">
        <ele>571.8</ele>
        <time>2021-05-30T08:35:33.254Z</time>
      </trkpt>
      <trkpt lat="44.11582" lon="5.96164">
        <ele>573.4</ele>
        <time>2021-05-30T08:35:52.157Z</time>
      </trkpt>
      <trkpt lat="44.11587" lon="5.96133">
        <ele>567.5</ele>
        <time>2021-05-30T08:35:55.076Z</time>
      </trkpt>
      <trkpt lat="44.11614" lon="5.96104">
        <ele>565.7</ele>
        <time>2021-05-30T08:35:59.542Z</time>
      </trkpt>
      <trkpt lat="44.11638" lon="5.96091">
        <ele>567.7</ele>
        <time>2021-05-30T08:36:18.956Z</time>
      </trkpt>
      <trkpt lat="44.11669" lon="5.96092">
        <ele>573.1</ele>
        <time>2021-05-30T08:37:01.176Z</time>
      </trkpt>
      <trkpt lat="44.11699" lon="5.96065">
        <ele>574.3</ele>
        <time>2021-05-30T08:37:19.390Z</time>
      </trkpt>
      <trkpt lat="44.11736" lon="5.96083">
        <ele>586.9</ele>
        <time>2021-05-30T08:38:12.753Z</time>
      </trkpt>
      <trkpt lat="44.11782" lon="5.96103">
        <ele>587.3</ele>
        <time>2021-05-30T08:38:31.164Z</time>
      </trkpt>
      <trkpt lat="44.11823" lon="5.96088">
        <ele>585.5</ele>
        <time>2021-05-30T08:38:37.248Z</time>
      </trkpt>
      <trkpt lat="44.11862" lon="5.96096">
        <ele>583.6</ele>
        <time>2021-05-30T08:38:42.621Z</time>
      </trkpt>
      <trkpt lat="44.11901" lon="5.96129">
        <ele>583.3</ele>
        <time>2021-05-30T08:38:57.255Z</time>
      </trkpt>
      <trkpt lat="44.11916" lon="5.9615">
        <ele>584.2</ele>
        <time>2021-05-30T08:39:09.514Z</time>
      </trkpt>
      <trkpt lat="44.11973" lon="5.96144">
        <ele>588.2</ele>
        <time>2021-05-30T08:39:50.111Z</time>
      </trkpt>
      <trkpt lat="44.11996" lon="5.96172">
        <ele>595.7</ele>
        <time>2021-05-30T08:40:31.702Z</time>
      </trkpt>
      <trkpt lat="44.11998" lon="5.96187">
        <ele>596.7</ele>
        <time>2021-05-30T08:40:40.971Z</time>
      </trkpt>
      <trkpt lat="44.11989" lon="5.96227">
        <ele>596.7</ele>
        <time>2021-05-30T08:40:51.594Z</time>
      </trkpt>
      <trkpt lat="44.11979" lon="5.9625">
        <ele>595.2</ele>
        <time>2021-05-30T08:40:54.064Z</time>
      </trkpt>
      <trkpt lat="44.11978" lon="5.96267">
        <ele>595.7</ele>
        <time>2021-05-30T08:41:00.969Z</time>
      </trkpt>
      <trkpt lat="44.11998" lon="5.96321">
        <ele>601.4</ele>
        <time>2021-05-30T08:41:58.082Z</time>
      </trkpt>
      <trkpt lat="44.11999" lon="5.96347">
        <ele>600.9</ele>
        <time>2021-05-30T08:42:01.223Z</time>
      </trkpt>
      <trkpt lat="44.11983" lon="5.96362">
        <ele>598.1</ele>
        <time>2021-05-30T08:42:03.691Z</time>
      </trkpt>
      <trkpt lat="44.12002" lon="5.96439">
        <ele>591.9</ele>
        <time>2021-05-30T08:42:11.169Z</time>
      </trkpt>
      <trkpt lat="44.11988" lon="5.96475">
        <ele>586.9</ele>
        <time>2021-05-30T08:42:14.929Z</time>
      </trkpt>
      <trkpt lat="44.11973" lon="5.96489">
        <ele>585.8</ele>
        <time>2021-05-30T08:42:17.142Z</time>
      </trkpt>
      <trkpt lat="44.11953" lon="5.96496">
        <ele>586.4</ele>
        <time>2021-05-30T08:42:27.067Z</time>
      </trkpt>
      <trkpt lat="44.11955" lon="5.96512">
        <ele>584.4</ele>
        <time>2021-05-30T08:42:28.558Z</time>
      </trkpt>
      <trkpt lat="44.11943" lon="5.96531">
        <ele>583.3</ele>
        <time>2021-05-30T08:42:30.791Z</time>
      </trkpt>
      <trkpt lat="44.11904" lon="5.96551">
        <ele>584.1</ele>
        <time>2021-05-30T08:42:48.602Z</time>
      </trkpt>
      <trkpt lat="44.11904" lon="5.96576">
        <ele>581.6</ele>
        <time>2021-05-30T08:42:50.898Z</time>
      </trkpt>
      <trkpt lat="44.11898" lon="5.96589">
        <ele>580.6</ele>
        <time>2021-05-30T08:42:52.318Z</time>
      </trkpt>
      <trkpt lat="44.11899" lon="5.96603">
        <ele>578.6</ele>
        <time>2021-05-30T08:42:53.610Z</time>
      </trkpt>
      <trkpt lat="44.11911" lon="5.96608">
        <ele>576.9</ele>
        <time>2021-05-30T08:42:55.213Z</time>
      </trkpt>
      <trkpt lat="44.11923" lon="5.96623">
        <ele>573.8</ele>
        <time>2021-05-30T08:42:57.275Z</time>
      </trkpt>
      <trkpt lat="44.1195" lon="5.96683">
        <ele>563.6</ele>
        <time>2021-05-30T08:43:03.779Z</time>
      </trkpt>
      <trkpt lat="44.11942" lon="5.967">
        <ele>561</ele>
        <time>2021-05-30T08:43:05.646Z</time>
      </trkpt>
      <trkpt lat="44.1192" lon="5.96717">
        <ele>558.8</ele>
        <time>2021-05-30T08:43:08.865Z</time>
      </trkpt>
      <trkpt lat="44.11943" lon="5.96745">
        <ele>553.2</ele>
        <time>2021-05-30T08:43:12.773Z</time>
      </trkpt>
      <trkpt lat="44.11963" lon="5.96733">
        <ele>554.7</ele>
        <time>2021-05-30T08:43:28.112Z</time>
      </trkpt>
      <trkpt lat="44.11983" lon="5.96737">
        <ele>553.5</ele>
        <time>2021-05-30T08:43:30.619Z</time>
      </trkpt>
      <trkpt lat="44.11967" lon="5.96787">
        <ele>547</ele>
        <time>2021-05-30T08:43:35.647Z</time>
      </trkpt>
      <trkpt lat="44.11976" lon="5.96814">
        <ele>543</ele>
        <time>2021-05-30T08:43:38.381Z</time>
      </trkpt>
      <trkpt lat="44.12005" lon="5.96861">
        <ele>534.8</ele>
        <time>2021-05-30T08:43:44.073Z</time>
      </trkpt>
      <trkpt lat="44.12024" lon="5.96923">
        <ele>525.8</ele>
        <time>2021-05-30T08:43:50.265Z</time>
      </trkpt>
      <trkpt lat="44.1203" lon="5.96929">
        <ele>525.1</ele>
        <time>2021-05-30T08:43:51.210Z</time>
      </trkpt>
      <trkpt lat="44.12035" lon="5.96993">
        <ele>518.8</ele>
        <time>2021-05-30T08:43:57.123Z</time>
      </trkpt>
      <trkpt lat="44.12017" lon="5.97032">
        <ele>515.8</ele>
        <time>2021-05-30T08:44:01.381Z</time>
      </trkpt>
      <trkpt lat="44.12038" lon="5.97046">
        <ele>514</ele>
        <time>2021-05-30T08:44:04.360Z</time>
      </trkpt>
      <trkpt lat="44.12044" lon="5.97071">
        <ele>511.5</ele>
        <time>2021-05-30T08:44:06.781Z</time>
      </trkpt>
      <trkpt lat="44.12078" lon="5.97073">
        <ele>510.2</ele>
        <time>2021-05-30T08:44:11.867Z</time>
      </trkpt>
      <trkpt lat="44.12118" lon="5.97096">
        <ele>507.6</ele>
        <time>2021-05-30T08:44:17.205Z</time>
      </trkpt>
      <trkpt lat="44.12124" lon="5.97073">
        <ele>508.7</ele>
        <time>2021-05-30T08:44:29.025Z</time>
      </trkpt>
      <trkpt lat="44.12222" lon="5.96999">
        <ele>514.1</ele>
        <time>2021-05-30T08:45:37.136Z</time>
      </trkpt>
      <trkpt lat="44.12282" lon="5.96976">
        <ele>519.4</ele>
        <time>2021-05-30T08:46:27.049Z</time>
      </trkpt>
      <trkpt lat="44.12295" lon="5.96957">
        <ele>521.2</ele>
        <time>2021-05-30T08:46:43.624Z</time>
      </trkpt>
      <trkpt lat="44.1235" lon="5.9693">
        <ele>525.9</ele>
        <time>2021-05-30T08:47:28.644Z</time>
      </trkpt>
      <trkpt lat="44.1236" lon="5.96917">
        <ele>527.5</ele>
        <time>2021-05-30T08:47:43.689Z</time>
      </trkpt>
      <trkpt lat="44.12383" lon="5.96912">
        <ele>530.2</ele>
        <time>2021-05-30T08:48:09.002Z</time>
      </trkpt>
      <trkpt lat="44.12416" lon="5.96945">
        <ele>530.6</ele>
        <time>2021-05-30T08:48:24.763Z</time>
      </trkpt>
      <trkpt lat="44.12417" lon="5.96975">
        <ele>528.1</ele>
        <time>2021-05-30T08:48:27.521Z</time>
      </trkpt>
      <trkpt lat="44.12409" lon="5.97016">
        <ele>526.4</ele>
        <time>2021-05-30T08:48:31.419Z</time>
      </trkpt>
      <trkpt lat="44.12403" lon="5.97022">
        <ele>526.2</ele>
        <time>2021-05-30T08:48:32.656Z</time>
      </trkpt>
      <trkpt lat="44.12388" lon="5.97016">
        <ele>524.7</ele>
        <time>2021-05-30T08:48:34.652Z</time>
      </trkpt>
      <trkpt lat="44.12386" lon="5.97021">
        <ele>524.7</ele>
        <time>2021-05-30T08:48:36.103Z</time>
      </trkpt>
      <trkpt lat="44.12443" lon="5.97025">
        <ele>528.6</ele>
        <time>2021-05-30T08:49:16.140Z</time>
      </trkpt>
      <trkpt lat="44.12438" lon="5.97041">
        <ele>529.1</ele>
        <time>2021-05-30T08:49:23.111Z</time>
      </trkpt>
      <trkpt lat="44.12421" lon="5.97037">
        <ele>528.4</ele>
        <time>2021-05-30T08:49:25.629Z</time>
      </trkpt>
      <trkpt lat="44.12394" lon="5.97047">
        <ele>526.2</ele>
        <time>2021-05-30T08:49:29.203Z</time>
      </trkpt>
      <trkpt lat="44.12359" lon="5.97045">
        <ele>522.3</ele>
        <time>2021-05-30T08:49:33.685Z</time>
      </trkpt>
      <trkpt lat="44.12297" lon="5.97065">
        <ele>516.1</ele>
        <time>2021-05-30T08:49:41.827Z</time>
      </trkpt>
      <trkpt lat="44.12291" lon="5.97061">
        <ele>515.9</ele>
        <time>2021-05-30T08:49:42.906Z</time>
      </trkpt>
      <trkpt lat="44.12269" lon="5.97067">
        <ele>514.1</ele>
        <time>2021-05-30T08:49:45.774Z</time>
      </trkpt>
      <trkpt lat="44.12266" lon="5.97078">
        <ele>513.4</ele>
        <time>2021-05-30T08:49:46.855Z</time>
      </trkpt>
      <trkpt lat="44.12254" lon="5.97083">
        <ele>512.3</ele>
        <time>2021-05-30T08:49:48.457Z</time>
      </trkpt>
      <trkpt lat="44.12251" lon="5.97095">
        <ele>511.9</ele>
        <time>2021-05-30T08:49:49.750Z</time>
      </trkpt>
      <trkpt lat="44.12237" lon="5.97104">
        <ele>510.9</ele>
        <time>2021-05-30T08:49:51.582Z</time>
      </trkpt>
      <trkpt lat="44.12226" lon="5.9713">
        <ele>509.8</ele>
        <time>2021-05-30T08:49:54.469Z</time>
      </trkpt>
      <trkpt lat="44.12211" lon="5.9714">
        <ele>508.7</ele>
        <time>2021-05-30T08:49:56.426Z</time>
      </trkpt>
      <trkpt lat="44.12208" lon="5.97151">
        <ele>508.3</ele>
        <time>2021-05-30T08:49:57.586Z</time>
      </trkpt>
      <trkpt lat="44.12189" lon="5.97163">
        <ele>506.7</ele>
        <time>2021-05-30T08:50:00.255Z</time>
      </trkpt>
      <trkpt lat="44.12172" lon="5.97193">
        <ele>505.4</ele>
        <time>2021-05-30T08:50:04.021Z</time>
      </trkpt>
      <trkpt lat="44.12152" lon="5.97216">
        <ele>504.2</ele>
        <time>2021-05-30T08:50:07.617Z</time>
      </trkpt>
      <trkpt lat="44.12134" lon="5.97227">
        <ele>502.9</ele>
        <time>2021-05-30T08:50:09.930Z</time>
      </trkpt>
      <trkpt lat="44.12113" lon="5.97261">
        <ele>500.1</ele>
        <time>2021-05-30T08:50:14.050Z</time>
      </trkpt>
      <trkpt lat="44.1211" lon="5.97279">
        <ele>499.1</ele>
        <time>2021-05-30T08:50:15.747Z</time>
      </trkpt>
      <trkpt lat="44.1212" lon="5.97318">
        <ele>498.5</ele>
        <time>2021-05-30T08:50:21.127Z</time>
      </trkpt>
      <trkpt lat="44.1211" lon="5.97346">
        <ele>496.3</ele>
        <time>2021-05-30T08:50:23.999Z</time>
      </trkpt>
      <trkpt lat="44.12053" lon="5.97399">
        <ele>491.9</ele>
        <time>2021-05-30T08:50:32.184Z</time>
      </trkpt>
      <trkpt lat="44.12049" lon="5.97413">
        <ele>491.5</ele>
        <time>2021-05-30T08:50:33.820Z</time>
      </trkpt>
      <trkpt lat="44.12029" lon="5.97425">
        <ele>491.3</ele>
        <time>2021-05-30T08:50:38.343Z</time>
      </trkpt>
      <trkpt lat="44.12015" lon="5.97453">
        <ele>490.6</ele>
        <time>2021-05-30T08:50:42.380Z</time>
      </trkpt>
      <trkpt lat="44.12012" lon="5.97485">
        <ele>489.7</ele>
        <time>2021-05-30T08:50:45.821Z</time>
      </trkpt>
      <trkpt lat="44.12004" lon="5.97496">
        <ele>489.9</ele>
        <time>2021-05-30T08:50:50.561Z</time>
      </trkpt>
      <trkpt lat="44.11986" lon="5.97556">
        <ele>483.8</ele>
        <time>2021-05-30T08:50:56.534Z</time>
      </trkpt>
      <trkpt lat="44.11948" lon="5.97599">
        <ele>481.8</ele>
        <time>2021-05-30T08:51:03.668Z</time>
      </trkpt>
      <trkpt lat="44.11949" lon="5.97634">
        <ele>482.2</ele>
        <time>2021-05-30T08:51:14.059Z</time>
      </trkpt>
      <trkpt lat="44.1194" lon="5.97661">
        <ele>483.4</ele>
        <time>2021-05-30T08:51:27.804Z</time>
      </trkpt>
      <trkpt lat="44.11922" lon="5.97673">
        <ele>486.7</ele>
        <time>2021-05-30T08:51:54.975Z</time>
      </trkpt>
      <trkpt lat="44.11904" lon="5.97662">
        <ele>487.9</ele>
        <time>2021-05-30T08:52:08.054Z</time>
      </trkpt>
      <trkpt lat="44.11884" lon="5.97672">
        <ele>492.6</ele>
        <time>2021-05-30T08:52:36.987Z</time>
      </trkpt>
      <trkpt lat="44.11871" lon="5.97671">
        <ele>494.5</ele>
        <time>2021-05-30T08:52:54.715Z</time>
      </trkpt>
      <trkpt lat="44.11852" lon="5.97643">
        <ele>495.9</ele>
        <time>2021-05-30T08:53:11.857Z</time>
      </trkpt>
      <trkpt lat="44.11842" lon="5.97601">
        <ele>496.1</ele>
        <time>2021-05-30T08:53:23.757Z</time>
      </trkpt>
      <trkpt lat="44.11847" lon="5.97571">
        <ele>494.5</ele>
        <time>2021-05-30T08:53:26.586Z</time>
      </trkpt>
      <trkpt lat="44.11839" lon="5.97539">
        <ele>495.6</ele>
        <time>2021-05-30T08:53:41.145Z</time>
      </trkpt>
      <trkpt lat="44.11807" lon="5.97472">
        <ele>498.3</ele>
        <time>2021-05-30T08:54:16.058Z</time>
      </trkpt>
      <trkpt lat="44.11811" lon="5.9746">
        <ele>496.7</ele>
        <time>2021-05-30T08:54:17.273Z</time>
      </trkpt>
      <trkpt lat="44.11807" lon="5.97429">
        <ele>495</ele>
        <time>2021-05-30T08:54:20.166Z</time>
      </trkpt>
      <trkpt lat="44.11799" lon="5.97422">
        <ele>495.8</ele>
        <time>2021-05-30T08:54:27.712Z</time>
      </trkpt>
      <trkpt lat="44.11771" lon="5.97433">
        <ele>501</ele>
        <time>2021-05-30T08:55:07.324Z</time>
      </trkpt>
      <trkpt lat="44.11768" lon="5.97428">
        <ele>501.1</ele>
        <time>2021-05-30T08:55:09.377Z</time>
      </trkpt>
      <trkpt lat="44.11774" lon="5.97426">
        <ele>500</ele>
        <time>2021-05-30T08:55:10.166Z</time>
      </trkpt>
      <trkpt lat="44.11759" lon="5.97427">
        <ele>502.5</ele>
        <time>2021-05-30T08:55:30.614Z</time>
      </trkpt>
      <trkpt lat="44.11728" lon="5.97385">
        <ele>503.7</ele>
        <time>2021-05-30T08:55:51.082Z</time>
      </trkpt>
      <trkpt lat="44.11728" lon="5.97377">
        <ele>503</ele>
        <time>2021-05-30T08:55:51.817Z</time>
      </trkpt>
      <trkpt lat="44.11718" lon="5.9737">
        <ele>503.5</ele>
        <time>2021-05-30T08:55:58.492Z</time>
      </trkpt>
      <trkpt lat="44.1169" lon="5.97369">
        <ele>506.3</ele>
        <time>2021-05-30T08:56:24.196Z</time>
      </trkpt>
      <trkpt lat="44.11671" lon="5.97378">
        <ele>509.4</ele>
        <time>2021-05-30T08:56:51.521Z</time>
      </trkpt>
      <trkpt lat="44.11644" lon="5.97377">
        <ele>512.3</ele>
        <time>2021-05-30T08:57:18.234Z</time>
      </trkpt>
      <trkpt lat="44.11611" lon="5.97385">
        <ele>516.6</ele>
        <time>2021-05-30T08:58:00.733Z</time>
      </trkpt>
      <trkpt lat="44.11598" lon="5.97367">
        <ele>516.8</ele>
        <time>2021-05-30T08:58:07.922Z</time>
      </trkpt>
      <trkpt lat="44.1158" lon="5.97363">
        <ele>518.7</ele>
        <time>2021-05-30T08:58:25.376Z</time>
      </trkpt>
      <trkpt lat="44.11568" lon="5.97374">
        <ele>520.2</ele>
        <time>2021-05-30T08:58:39.156Z</time>
      </trkpt>
      <trkpt lat="44.11568" lon="5.97385">
        <ele>520.7</ele>
        <time>2021-05-30T08:58:44.497Z</time>
      </trkpt>
      <trkpt lat="44.1155" lon="5.97403">
        <ele>522.6</ele>
        <time>2021-05-30T08:59:02.357Z</time>
      </trkpt>
      <trkpt lat="44.1152" lon="5.97405">
        <ele>524.7</ele>
        <time>2021-05-30T08:59:23.679Z</time>
      </trkpt>
      <trkpt lat="44.11502" lon="5.97416">
        <ele>525.9</ele>
        <time>2021-05-30T08:59:36.758Z</time>
      </trkpt>
      <trkpt lat="44.11453" lon="5.97401">
        <ele>531.9</ele>
        <time>2021-05-30T09:00:33.682Z</time>
      </trkpt>
      <trkpt lat="44.11383" lon="5.97417">
        <ele>541.9</ele>
        <time>2021-05-30T09:02:10.269Z</time>
      </trkpt>
      <trkpt lat="44.11338" lon="5.97385">
        <ele>545.4</ele>
        <time>2021-05-30T09:02:45.963Z</time>
      </trkpt>
      <trkpt lat="44.11328" lon="5.97385">
        <ele>546.5</ele>
        <time>2021-05-30T09:02:56.134Z</time>
      </trkpt>
      <trkpt lat="44.11306" lon="5.97356">
        <ele>545.9</ele>
        <time>2021-05-30T09:03:01.639Z</time>
      </trkpt>
      <trkpt lat="44.11272" lon="5.97345">
        <ele>548.1</ele>
        <time>2021-05-30T09:03:25.195Z</time>
      </trkpt>
      <trkpt lat="44.11241" lon="5.97351">
        <ele>551.6</ele>
        <time>2021-05-30T09:03:57.669Z</time>
      </trkpt>
      <trkpt lat="44.11196" lon="5.97339">
        <ele>554.1</ele>
        <time>2021-05-30T09:04:26.822Z</time>
      </trkpt>
      <trkpt lat="44.11178" lon="5.97341">
        <ele>555.7</ele>
        <time>2021-05-30T09:04:41.742Z</time>
      </trkpt>
      <trkpt lat="44.1115" lon="5.97329">
        <ele>557.5</ele>
        <time>2021-05-30T09:05:01.290Z</time>
      </trkpt>
      <trkpt lat="44.1112" lon="5.97327">
        <ele>560.3</ele>
        <time>2021-05-30T09:05:27.154Z</time>
      </trkpt>
      <trkpt lat="44.11098" lon="5.97333">
        <ele>562.6</ele>
        <time>2021-05-30T09:05:48.268Z</time>
      </trkpt>
      <trkpt lat="44.11109" lon="5.97304">
        <ele>560.3</ele>
        <time>2021-05-30T09:05:51.281Z</time>
      </trkpt>
      <trkpt lat="44.11096" lon="5.97289">
        <ele>560.5</ele>
        <time>2021-05-30T09:05:57.965Z</time>
      </trkpt>
      <trkpt lat="44.111" lon="5.97262">
        <ele>559</ele>
        <time>2021-05-30T09:06:00.498Z</time>
      </trkpt>
      <trkpt lat="44.11111" lon="5.97237">
        <ele>557.4</ele>
        <time>2021-05-30T09:06:03.191Z</time>
      </trkpt>
      <trkpt lat="44.11113" lon="5.97187">
        <ele>555.2</ele>
        <time>2021-05-30T09:06:07.588Z</time>
      </trkpt>
      <trkpt lat="44.11123" lon="5.97179">
        <ele>554.6</ele>
        <time>2021-05-30T09:06:09.109Z</time>
      </trkpt>
      <trkpt lat="44.11127" lon="5.97165">
        <ele>553.8</ele>
        <time>2021-05-30T09:06:10.493Z</time>
      </trkpt>
      <trkpt lat="44.11124" lon="5.97116">
        <ele>548.9</ele>
        <time>2021-05-30T09:06:15.010Z</time>
      </trkpt>
      <trkpt lat="44.11114" lon="5.97112">
        <ele>548.9</ele>
        <time>2021-05-30T09:06:18.683Z</time>
      </trkpt>
      <trkpt lat="44.11107" lon="5.97117">
        <ele>549.8</ele>
        <time>2021-05-30T09:06:27.084Z</time>
      </trkpt>
      <trkpt lat="44.11068" lon="5.97106">
        <ele>551.2</ele>
        <time>2021-05-30T09:06:47.810Z</time>
      </trkpt>
      <trkpt lat="44.11059" lon="5.97111">
        <ele>552.4</ele>
        <time>2021-05-30T09:06:59.397Z</time>
      </trkpt>
      <trkpt lat="44.11042" lon="5.9708">
        <ele>551.6</ele>
        <time>2021-05-30T09:07:04.013Z</time>
      </trkpt>
      <trkpt lat="44.11025" lon="5.97069">
        <ele>553.4</ele>
        <time>2021-05-30T09:07:20.579Z</time>
      </trkpt>
      <trkpt lat="44.10976" lon="5.97075">
        <ele>560.2</ele>
        <time>2021-05-30T09:08:27.554Z</time>
      </trkpt>
      <trkpt lat="44.10984" lon="5.97045">
        <ele>559.7</ele>
        <time>2021-05-30T09:08:31.637Z</time>
      </trkpt>
      <trkpt lat="44.10983" lon="5.97026">
        <ele>560.5</ele>
        <time>2021-05-30T09:08:40.577Z</time>
      </trkpt>
      <trkpt lat="44.10967" lon="5.96997">
        <ele>563.8</ele>
        <time>2021-05-30T09:09:12.724Z</time>
      </trkpt>
      <trkpt lat="44.10922" lon="5.96983">
        <ele>570.1</ele>
        <time>2021-05-30T09:10:15.505Z</time>
      </trkpt>
      <trkpt lat="44.1088" lon="5.96961">
        <ele>574.7</ele>
        <time>2021-05-30T09:10:57.732Z</time>
      </trkpt>
      <trkpt lat="44.10822" lon="5.9695">
        <ele>580.8</ele>
        <time>2021-05-30T09:11:53.766Z</time>
      </trkpt>
      <trkpt lat="44.10771" lon="5.96975">
        <ele>584.2</ele>
        <time>2021-05-30T09:12:30.216Z</time>
      </trkpt>
      <trkpt lat="44.10728" lon="5.96985">
        <ele>588.3</ele>
        <time>2021-05-30T09:13:08.041Z</time>
      </trkpt>
      <trkpt lat="44.10666" lon="5.96979">
        <ele>596.6</ele>
        <time>2021-05-30T09:14:32.663Z</time>
      </trkpt>
      <trkpt lat="44.10622" lon="5.96989">
        <ele>602.1</ele>
        <time>2021-05-30T09:15:25.656Z</time>
      </trkpt>
      <trkpt lat="44.10613" lon="5.96982">
        <ele>603.4</ele>
        <time>2021-05-30T09:15:38.349Z</time>
      </trkpt>
      <trkpt lat="44.10598" lon="5.96983">
        <ele>605.3</ele>
        <time>2021-05-30T09:15:56.939Z</time>
      </trkpt>
      <trkpt lat="44.10548" lon="5.96968">
        <ele>612.7</ele>
        <time>2021-05-30T09:17:06.580Z</time>
      </trkpt>
      <trkpt lat="44.10533" lon="5.96955">
        <ele>615.1</ele>
        <time>2021-05-30T09:17:30.636Z</time>
      </trkpt>
      <trkpt lat="44.10487" lon="5.96948">
        <ele>622.5</ele>
        <time>2021-05-30T09:18:33.642Z</time>
      </trkpt>
      <trkpt lat="44.1047" lon="5.96938">
        <ele>625.2</ele>
        <time>2021-05-30T09:18:58.769Z</time>
      </trkpt>
      <trkpt lat="44.10461" lon="5.96921">
        <ele>625.9</ele>
        <time>2021-05-30T09:19:07.900Z</time>
      </trkpt>
      <trkpt lat="44.10435" lon="5.96902">
        <ele>628.6</ele>
        <time>2021-05-30T09:19:32.895Z</time>
      </trkpt>
      <trkpt lat="44.10389" lon="5.9688">
        <ele>635</ele>
        <time>2021-05-30T09:20:37.397Z</time>
      </trkpt>
      <trkpt lat="44.10363" lon="5.96876">
        <ele>639.8</ele>
        <time>2021-05-30T09:21:13.013Z</time>
      </trkpt>
      <trkpt lat="44.10359" lon="5.96864">
        <ele>640.3</ele>
        <time>2021-05-30T09:21:18.980Z</time>
      </trkpt>
      <trkpt lat="44.10372" lon="5.96842">
        <ele>636.9</ele>
        <time>2021-05-30T09:21:21.598Z</time>
      </trkpt>
      <trkpt lat="44.10349" lon="5.96834">
        <ele>641.6</ele>
        <time>2021-05-30T09:21:53.876Z</time>
      </trkpt>
      <trkpt lat="44.1033" lon="5.96811">
        <ele>645.1</ele>
        <time>2021-05-30T09:22:28.154Z</time>
      </trkpt>
      <trkpt lat="44.10318" lon="5.96808">
        <ele>649.2</ele>
        <time>2021-05-30T09:22:44.755Z</time>
      </trkpt>
      <trkpt lat="44.10176" lon="5.96656">
        <ele>653</ele>
        <time>2021-05-30T09:24:03.230Z</time>
      </trkpt>
      <trkpt lat="44.10153" lon="5.96666">
        <ele>654.6</ele>
        <time>2021-05-30T09:24:19.893Z</time>
      </trkpt>
      <trkpt lat="44.1015" lon="5.96657">
        <ele>654.2</ele>
        <time>2021-05-30T09:24:20.801Z</time>
      </trkpt>
      <trkpt lat="44.10115" lon="5.96666">
        <ele>656.4</ele>
        <time>2021-05-30T09:24:44.613Z</time>
      </trkpt>
      <trkpt lat="44.10088" lon="5.96642">
        <ele>656.6</ele>
        <time>2021-05-30T09:24:56.606Z</time>
      </trkpt>
      <trkpt lat="44.10077" lon="5.96645">
        <ele>656.9</ele>
        <time>2021-05-30T09:25:01.848Z</time>
      </trkpt>
      <trkpt lat="44.1006" lon="5.96665">
        <ele>657.6</ele>
        <time>2021-05-30T09:25:12.883Z</time>
      </trkpt>
      <trkpt lat="44.10044" lon="5.96655">
        <ele>656.9</ele>
        <time>2021-05-30T09:25:15.462Z</time>
      </trkpt>
      <trkpt lat="44.10017" lon="5.9659">
        <ele>652.8</ele>
        <time>2021-05-30T09:25:22.361Z</time>
      </trkpt>
      <trkpt lat="44.09988" lon="5.96548">
        <ele>648.8</ele>
        <time>2021-05-30T09:25:27.714Z</time>
      </trkpt>
      <trkpt lat="44.09943" lon="5.96585">
        <ele>648</ele>
        <time>2021-05-30T09:25:37.743Z</time>
      </trkpt>
      <trkpt lat="44.09893" lon="5.96609">
        <ele>646.3</ele>
        <time>2021-05-30T09:25:46.139Z</time>
      </trkpt>
      <trkpt lat="44.09867" lon="5.96648">
        <ele>646.8</ele>
        <time>2021-05-30T09:26:01.466Z</time>
      </trkpt>
      <trkpt lat="44.09859" lon="5.9669">
        <ele>648.6</ele>
        <time>2021-05-30T09:26:21.748Z</time>
      </trkpt>
      <trkpt lat="44.09866" lon="5.96719">
        <ele>651.1</ele>
        <time>2021-05-30T09:26:45.047Z</time>
      </trkpt>
      <trkpt lat="44.0986" lon="5.96729">
        <ele>651.2</ele>
        <time>2021-05-30T09:26:48.709Z</time>
      </trkpt>
      <trkpt lat="44.09844" lon="5.96738">
        <ele>650.3</ele>
        <time>2021-05-30T09:26:50.982Z</time>
      </trkpt>
      <trkpt lat="44.09814" lon="5.9673">
        <ele>647.8</ele>
        <time>2021-05-30T09:26:54.890Z</time>
      </trkpt>
      <trkpt lat="44.09803" lon="5.96716">
        <ele>646.4</ele>
        <time>2021-05-30T09:26:56.796Z</time>
      </trkpt>
      <trkpt lat="44.09796" lon="5.96722">
        <ele>646.4</ele>
        <time>2021-05-30T09:26:59.698Z</time>
      </trkpt>
      <trkpt lat="44.09797" lon="5.96727">
        <ele>646.8</ele>
        <time>2021-05-30T09:27:03.382Z</time>
      </trkpt>
      <trkpt lat="44.09754" lon="5.96732">
        <ele>644.9</ele>
        <time>2021-05-30T09:27:09.487Z</time>
      </trkpt>
      <trkpt lat="44.09733" lon="5.96756">
        <ele>645.1</ele>
        <time>2021-05-30T09:27:19.771Z</time>
      </trkpt>
      <trkpt lat="44.09729" lon="5.96768">
        <ele>645.9</ele>
        <time>2021-05-30T09:27:27.329Z</time>
      </trkpt>
      <trkpt lat="44.09706" lon="5.96793">
        <ele>646.2</ele>
        <time>2021-05-30T09:27:38.700Z</time>
      </trkpt>
      <trkpt lat="44.09703" lon="5.96813">
        <ele>647.7</ele>
        <time>2021-05-30T09:27:52.468Z</time>
      </trkpt>
      <trkpt lat="44.09693" lon="5.96821">
        <ele>647.4</ele>
        <time>2021-05-30T09:27:54.422Z</time>
      </trkpt>
      <trkpt lat="44.09664" lon="5.96826">
        <ele>645</ele>
        <time>2021-05-30T09:27:58.161Z</time>
      </trkpt>
      <trkpt lat="44.09639" lon="5.96865">
        <ele>644.4</ele>
        <time>2021-05-30T09:28:05.306Z</time>
      </trkpt>
      <trkpt lat="44.09628" lon="5.96862">
        <ele>642.1</ele>
        <time>2021-05-30T09:28:06.740Z</time>
      </trkpt>
      <trkpt lat="44.09606" lon="5.96838">
        <ele>636.2</ele>
        <time>2021-05-30T09:28:10.316Z</time>
      </trkpt>
      <trkpt lat="44.09591" lon="5.96841">
        <ele>633.9</ele>
        <time>2021-05-30T09:28:12.255Z</time>
      </trkpt>
      <trkpt lat="44.09579" lon="5.96855">
        <ele>633.1</ele>
        <time>2021-05-30T09:28:14.335Z</time>
      </trkpt>
      <trkpt lat="44.0954" lon="5.96863">
        <ele>630</ele>
        <time>2021-05-30T09:28:19.379Z</time>
      </trkpt>
      <trkpt lat="44.09527" lon="5.9688">
        <ele>630</ele>
        <time>2021-05-30T09:28:25.674Z</time>
      </trkpt>
      <trkpt lat="44.09503" lon="5.96881">
        <ele>627.7</ele>
        <time>2021-05-30T09:28:28.746Z</time>
      </trkpt>
      <trkpt lat="44.09488" lon="5.96873">
        <ele>625.7</ele>
        <time>2021-05-30T09:28:30.801Z</time>
      </trkpt>
      <trkpt lat="44.09459" lon="5.96883">
        <ele>623.5</ele>
        <time>2021-05-30T09:28:34.624Z</time>
      </trkpt>
      <trkpt lat="44.09442" lon="5.96897">
        <ele>622.6</ele>
        <time>2021-05-30T09:28:37.379Z</time>
      </trkpt>
      <trkpt lat="44.09446" lon="5.96909">
        <ele>623.7</ele>
        <time>2021-05-30T09:28:47.685Z</time>
      </trkpt>
      <trkpt lat="44.09446" lon="5.96939">
        <ele>622.9</ele>
        <time>2021-05-30T09:28:50.939Z</time>
      </trkpt>
      <trkpt lat="44.09439" lon="5.96966">
        <ele>620.5</ele>
        <time>2021-05-30T09:28:53.577Z</time>
      </trkpt>
      <trkpt lat="44.09422" lon="5.96984">
        <ele>616.9</ele>
        <time>2021-05-30T09:28:56.309Z</time>
      </trkpt>
      <trkpt lat="44.09425" lon="5.96999">
        <ele>616.4</ele>
        <time>2021-05-30T09:28:57.882Z</time>
      </trkpt>
      <trkpt lat="44.0942" lon="5.97012">
        <ele>616.2</ele>
        <time>2021-05-30T09:28:59.828Z</time>
      </trkpt>
      <trkpt lat="44.09397" lon="5.9703">
        <ele>614.5</ele>
        <time>2021-05-30T09:29:02.973Z</time>
      </trkpt>
      <trkpt lat="44.09396" lon="5.97057">
        <ele>615.8</ele>
        <time>2021-05-30T09:29:16.456Z</time>
      </trkpt>
      <trkpt lat="44.09357" lon="5.97117">
        <ele>615.7</ele>
        <time>2021-05-30T09:29:36.446Z</time>
      </trkpt>
      <trkpt lat="44.09331" lon="5.97169">
        <ele>620.5</ele>
        <time>2021-05-30T09:30:20.577Z</time>
      </trkpt>
      <trkpt lat="44.09326" lon="5.97171">
        <ele>621</ele>
        <time>2021-05-30T09:30:25.178Z</time>
      </trkpt>
      <trkpt lat="44.09323" lon="5.97156">
        <ele>618.7</ele>
        <time>2021-05-30T09:30:26.609Z</time>
      </trkpt>
      <trkpt lat="44.09299" lon="5.97157">
        <ele>618.9</ele>
        <time>2021-05-30T09:30:35.785Z</time>
      </trkpt>
      <trkpt lat="44.09296" lon="5.97176">
        <ele>622.5</ele>
        <time>2021-05-30T09:30:54.809Z</time>
      </trkpt>
      <trkpt lat="44.09254" lon="5.97215">
        <ele>631.9</ele>
        <time>2021-05-30T09:32:03.546Z</time>
      </trkpt>
      <trkpt lat="44.09292" lon="5.9723">
        <ele>634.2</ele>
        <time>2021-05-30T09:32:29.316Z</time>
      </trkpt>
      <trkpt lat="44.09325" lon="5.97253">
        <ele>637.9</ele>
        <time>2021-05-30T09:33:03.280Z</time>
      </trkpt>
      <trkpt lat="44.09322" lon="5.97262">
        <ele>639.7</ele>
        <time>2021-05-30T09:33:12.983Z</time>
      </trkpt>
      <trkpt lat="44.09293" lon="5.97257">
        <ele>639.7</ele>
        <time>2021-05-30T09:33:23.298Z</time>
      </trkpt>
      <trkpt lat="44.09286" lon="5.97261">
        <ele>640.6</ele>
        <time>2021-05-30T09:33:31.816Z</time>
      </trkpt>
      <trkpt lat="44.09265" lon="5.97253">
        <ele>639.9</ele>
        <time>2021-05-30T09:33:35.272Z</time>
      </trkpt>
      <trkpt lat="44.09257" lon="5.97257">
        <ele>640.9</ele>
        <time>2021-05-30T09:33:44.696Z</time>
      </trkpt>
      <trkpt lat="44.09277" lon="5.9729">
        <ele>645.7</ele>
        <time>2021-05-30T09:34:26.921Z</time>
      </trkpt>
      <trkpt lat="44.0931" lon="5.9732">
        <ele>650.6</ele>
        <time>2021-05-30T09:35:14.343Z</time>
      </trkpt>
      <trkpt lat="44.09317" lon="5.97347">
        <ele>652.7</ele>
        <time>2021-05-30T09:35:33.618Z</time>
      </trkpt>
      <trkpt lat="44.09396" lon="5.97354">
        <ele>653.9</ele>
        <time>2021-05-30T09:36:06.068Z</time>
      </trkpt>
      <trkpt lat="44.09407" lon="5.97364">
        <ele>654.2</ele>
        <time>2021-05-30T09:36:11.932Z</time>
      </trkpt>
      <trkpt lat="44.0944" lon="5.9735">
        <ele>655.3</ele>
        <time>2021-05-30T09:36:29.134Z</time>
      </trkpt>
      <trkpt lat="44.09455" lon="5.97331">
        <ele>655.4</ele>
        <time>2021-05-30T09:36:36.631Z</time>
      </trkpt>
      <trkpt lat="44.09494" lon="5.97303">
        <ele>651.9</ele>
        <time>2021-05-30T09:36:42.245Z</time>
      </trkpt>
      <trkpt lat="44.09518" lon="5.97322">
        <ele>658.2</ele>
        <time>2021-05-30T09:37:19.836Z</time>
      </trkpt>
      <trkpt lat="44.09561" lon="5.97341">
        <ele>664.8</ele>
        <time>2021-05-30T09:38:21.261Z</time>
      </trkpt>
      <trkpt lat="44.09581" lon="5.97366">
        <ele>664.7</ele>
        <time>2021-05-30T09:38:30.237Z</time>
      </trkpt>
      <trkpt lat="44.09583" lon="5.97379">
        <ele>663.6</ele>
        <time>2021-05-30T09:38:31.459Z</time>
      </trkpt>
      <trkpt lat="44.09522" lon="5.97524">
        <ele>644.5</ele>
        <time>2021-05-30T09:38:46.900Z</time>
      </trkpt>
      <trkpt lat="44.09516" lon="5.97529">
        <ele>643.8</ele>
        <time>2021-05-30T09:38:47.794Z</time>
      </trkpt>
      <trkpt lat="44.09495" lon="5.9759">
        <ele>634.8</ele>
        <time>2021-05-30T09:38:54.010Z</time>
      </trkpt>
      <trkpt lat="44.09464" lon="5.97636">
        <ele>627.2</ele>
        <time>2021-05-30T09:38:59.806Z</time>
      </trkpt>
      <trkpt lat="44.09435" lon="5.97664">
        <ele>622.6</ele>
        <time>2021-05-30T09:39:04.321Z</time>
      </trkpt>
      <trkpt lat="44.09404" lon="5.97679">
        <ele>619.9</ele>
        <time>2021-05-30T09:39:08.520Z</time>
      </trkpt>
      <trkpt lat="44.09389" lon="5.977">
        <ele>616</ele>
        <time>2021-05-30T09:39:11.242Z</time>
      </trkpt>
      <trkpt lat="44.09376" lon="5.97696">
        <ele>616.6</ele>
        <time>2021-05-30T09:39:19.202Z</time>
      </trkpt>
      <trkpt lat="44.09359" lon="5.97705">
        <ele>614.6</ele>
        <time>2021-05-30T09:39:21.529Z</time>
      </trkpt>
      <trkpt lat="44.09336" lon="5.97687">
        <ele>617.9</ele>
        <time>2021-05-30T09:39:53.581Z</time>
      </trkpt>
      <trkpt lat="44.09336" lon="5.97655">
        <ele>624</ele>
        <time>2021-05-30T09:40:24.874Z</time>
      </trkpt>
      <trkpt lat="44.09331" lon="5.97652">
        <ele>624.4</ele>
        <time>2021-05-30T09:40:28.845Z</time>
      </trkpt>
      <trkpt lat="44.09306" lon="5.97661">
        <ele>622.9</ele>
        <time>2021-05-30T09:40:32.082Z</time>
      </trkpt>
      <trkpt lat="44.09288" lon="5.97651">
        <ele>624.2</ele>
        <time>2021-05-30T09:40:45.552Z</time>
      </trkpt>
      <trkpt lat="44.09273" lon="5.97662">
        <ele>622.6</ele>
        <time>2021-05-30T09:40:47.721Z</time>
      </trkpt>
      <trkpt lat="44.0924" lon="5.97642">
        <ele>624.1</ele>
        <time>2021-05-30T09:41:08.271Z</time>
      </trkpt>
      <trkpt lat="44.09221" lon="5.97646">
        <ele>622</ele>
        <time>2021-05-30T09:41:10.729Z</time>
      </trkpt>
      <trkpt lat="44.09209" lon="5.97641">
        <ele>621.5</ele>
        <time>2021-05-30T09:41:12.571Z</time>
      </trkpt>
      <trkpt lat="44.09183" lon="5.97643">
        <ele>619</ele>
        <time>2021-05-30T09:41:15.902Z</time>
      </trkpt>
      <trkpt lat="44.09169" lon="5.97631">
        <ele>619.1</ele>
        <time>2021-05-30T09:41:22.048Z</time>
      </trkpt>
      <trkpt lat="44.09171" lon="5.97606">
        <ele>622</ele>
        <time>2021-05-30T09:41:46.648Z</time>
      </trkpt>
      <trkpt lat="44.09179" lon="5.97593">
        <ele>624.1</ele>
        <time>2021-05-30T09:42:03.389Z</time>
      </trkpt>
      <trkpt lat="44.09169" lon="5.97574">
        <ele>625.7</ele>
        <time>2021-05-30T09:42:18.140Z</time>
      </trkpt>
      <trkpt lat="44.09138" lon="5.97554">
        <ele>627.7</ele>
        <time>2021-05-30T09:42:40.478Z</time>
      </trkpt>
      <trkpt lat="44.09097" lon="5.97564">
        <ele>624.7</ele>
        <time>2021-05-30T09:42:45.804Z</time>
      </trkpt>
      <trkpt lat="44.09077" lon="5.97559">
        <ele>624.7</ele>
        <time>2021-05-30T09:42:52.977Z</time>
      </trkpt>
      <trkpt lat="44.09048" lon="5.97537">
        <ele>626.9</ele>
        <time>2021-05-30T09:43:15.852Z</time>
      </trkpt>
      <trkpt lat="44.09008" lon="5.9753">
        <ele>626</ele>
        <time>2021-05-30T09:43:22.969Z</time>
      </trkpt>
      <trkpt lat="44.08997" lon="5.97522">
        <ele>627.1</ele>
        <time>2021-05-30T09:43:33.226Z</time>
      </trkpt>
      <trkpt lat="44.08964" lon="5.97542">
        <ele>624.3</ele>
        <time>2021-05-30T09:43:37.831Z</time>
      </trkpt>
      <trkpt lat="44.08964" lon="5.97554">
        <ele>622</ele>
        <time>2021-05-30T09:43:38.933Z</time>
      </trkpt>
      <trkpt lat="44.08951" lon="5.97555">
        <ele>622.1</ele>
        <time>2021-05-30T09:43:43.877Z</time>
      </trkpt>
      <trkpt lat="44.0894" lon="5.97571">
        <ele>619.2</ele>
        <time>2021-05-30T09:43:45.913Z</time>
      </trkpt>
      <trkpt lat="44.08927" lon="5.97573">
        <ele>619</ele>
        <time>2021-05-30T09:43:48.423Z</time>
      </trkpt>
      <trkpt lat="44.08809" lon="5.97633">
        <ele>615.5</ele>
        <time>2021-05-30T09:44:09.282Z</time>
      </trkpt>
      <trkpt lat="44.08784" lon="5.97663">
        <ele>611.7</ele>
        <time>2021-05-30T09:44:13.505Z</time>
      </trkpt>
      <trkpt lat="44.08776" lon="5.977">
        <ele>606.1</ele>
        <time>2021-05-30T09:44:17.056Z</time>
      </trkpt>
      <trkpt lat="44.08795" lon="5.97744">
        <ele>600.6</ele>
        <time>2021-05-30T09:44:21.774Z</time>
      </trkpt>
      <trkpt lat="44.08792" lon="5.97757">
        <ele>598.3</ele>
        <time>2021-05-30T09:44:23.029Z</time>
      </trkpt>
      <trkpt lat="44.08721" lon="5.97786">
        <ele>588.1</ele>
        <time>2021-05-30T09:44:32.495Z</time>
      </trkpt>
      <trkpt lat="44.08707" lon="5.97786">
        <ele>587</ele>
        <time>2021-05-30T09:44:34.287Z</time>
      </trkpt>
      <trkpt lat="44.08671" lon="5.97809">
        <ele>582.7</ele>
        <time>2021-05-30T09:44:39.354Z</time>
      </trkpt>
      <trkpt lat="44.08657" lon="5.97842">
        <ele>580.6</ele>
        <time>2021-05-30T09:44:42.876Z</time>
      </trkpt>
      <trkpt lat="44.08649" lon="5.97849">
        <ele>580.2</ele>
        <time>2021-05-30T09:44:44.234Z</time>
      </trkpt>
      <trkpt lat="44.08626" lon="5.9785">
        <ele>579.1</ele>
        <time>2021-05-30T09:44:47.381Z</time>
      </trkpt>
      <trkpt lat="44.08624" lon="5.97837">
        <ele>578.6</ele>
        <time>2021-05-30T09:44:48.637Z</time>
      </trkpt>
      <trkpt lat="44.08625" lon="5.97853">
        <ele>579.1</ele>
        <time>2021-05-30T09:44:55.390Z</time>
      </trkpt>
      <trkpt lat="44.08614" lon="5.97855">
        <ele>578.6</ele>
        <time>2021-05-30T09:44:56.945Z</time>
      </trkpt>
      <trkpt lat="44.08621" lon="5.97855">
        <ele>578.9</ele>
        <time>2021-05-30T09:45:01.013Z</time>
      </trkpt>
      <trkpt lat="44.08622" lon="5.97839">
        <ele>578.5</ele>
        <time>2021-05-30T09:45:02.798Z</time>
      </trkpt>
      <trkpt lat="44.08611" lon="5.97809">
        <ele>578.3</ele>
        <time>2021-05-30T09:45:07.886Z</time>
      </trkpt>
      <trkpt lat="44.08588" lon="5.97768">
        <ele>577.2</ele>
        <time>2021-05-30T09:45:13.987Z</time>
      </trkpt>
      <trkpt lat="44.08563" lon="5.97708">
        <ele>578.7</ele>
        <time>2021-05-30T09:45:38.272Z</time>
      </trkpt>
      <trkpt lat="44.08523" lon="5.97635">
        <ele>577.4</ele>
        <time>2021-05-30T09:45:50.273Z</time>
      </trkpt>
      <trkpt lat="44.08511" lon="5.97592">
        <ele>577.8</ele>
        <time>2021-05-30T09:46:03.425Z</time>
      </trkpt>
      <trkpt lat="44.08518" lon="5.97531">
        <ele>580.6</ele>
        <time>2021-05-30T09:46:33.386Z</time>
      </trkpt>
      <trkpt lat="44.08562" lon="5.97409">
        <ele>577.3</ele>
        <time>2021-05-30T09:46:48.714Z</time>
      </trkpt>
      <trkpt lat="44.08575" lon="5.97385">
        <ele>578.9</ele>
        <time>2021-05-30T09:47:04.541Z</time>
      </trkpt>
      <trkpt lat="44.08572" lon="5.97343">
        <ele>577.4</ele>
        <time>2021-05-30T09:47:08.627Z</time>
      </trkpt>
      <trkpt lat="44.08561" lon="5.97288">
        <ele>573.5</ele>
        <time>2021-05-30T09:47:13.874Z</time>
      </trkpt>
      <trkpt lat="44.08554" lon="5.97306">
        <ele>573.4</ele>
        <time>2021-05-30T09:47:18.574Z</time>
      </trkpt>
      <trkpt lat="44.08511" lon="5.97315">
        <ele>567.6</ele>
        <time>2021-05-30T09:47:24.137Z</time>
      </trkpt>
      <trkpt lat="44.08491" lon="5.97295">
        <ele>564.7</ele>
        <time>2021-05-30T09:47:27.288Z</time>
      </trkpt>
      <trkpt lat="44.08476" lon="5.97299">
        <ele>562.5</ele>
        <time>2021-05-30T09:47:29.242Z</time>
      </trkpt>
      <trkpt lat="44.08454" lon="5.97275">
        <ele>558.8</ele>
        <time>2021-05-30T09:47:32.818Z</time>
      </trkpt>
      <trkpt lat="44.0845" lon="5.97261">
        <ele>557.8</ele>
        <time>2021-05-30T09:47:34.202Z</time>
      </trkpt>
      <trkpt lat="44.08422" lon="5.97234">
        <ele>552.6</ele>
        <time>2021-05-30T09:47:38.560Z</time>
      </trkpt>
      <trkpt lat="44.08398" lon="5.97243">
        <ele>548.3</ele>
        <time>2021-05-30T09:47:41.740Z</time>
      </trkpt>
      <trkpt lat="44.08361" lon="5.97244">
        <ele>541.1</ele>
        <time>2021-05-30T09:47:46.475Z</time>
      </trkpt>
      <trkpt lat="44.08343" lon="5.97255">
        <ele>537.7</ele>
        <time>2021-05-30T09:47:48.990Z</time>
      </trkpt>
      <trkpt lat="44.08329" lon="5.97251">
        <ele>534.8</ele>
        <time>2021-05-30T09:47:50.819Z</time>
      </trkpt>
      <trkpt lat="44.08322" lon="5.97263">
        <ele>536.3</ele>
        <time>2021-05-30T09:48:05.938Z</time>
      </trkpt>
      <trkpt lat="44.0832" lon="5.97295">
        <ele>541.8</ele>
        <time>2021-05-30T09:48:37.355Z</time>
      </trkpt>
      <trkpt lat="44.08312" lon="5.97309">
        <ele>543.8</ele>
        <time>2021-05-30T09:48:54.852Z</time>
      </trkpt>
      <trkpt lat="44.08294" lon="5.97316">
        <ele>544.3</ele>
        <time>2021-05-30T09:49:03.591Z</time>
      </trkpt>
      <trkpt lat="44.08282" lon="5.97333">
        <ele>547.1</ele>
        <time>2021-05-30T09:49:26.902Z</time>
      </trkpt>
      <trkpt lat="44.08263" lon="5.97337">
        <ele>547.4</ele>
        <time>2021-05-30T09:49:34.817Z</time>
      </trkpt>
      <trkpt lat="44.08234" lon="5.97331">
        <ele>543.2</ele>
        <time>2021-05-30T09:49:38.568Z</time>
      </trkpt>
      <trkpt lat="44.08221" lon="5.97337">
        <ele>542.8</ele>
        <time>2021-05-30T09:49:40.810Z</time>
      </trkpt>
      <trkpt lat="44.08148" lon="5.97341">
        <ele>533.7</ele>
        <time>2021-05-30T09:49:50.157Z</time>
      </trkpt>
      <trkpt lat="44.08126" lon="5.97352">
        <ele>533.7</ele>
        <time>2021-05-30T09:49:58.409Z</time>
      </trkpt>
      <trkpt lat="44.08107" lon="5.97352">
        <ele>531.4</ele>
        <time>2021-05-30T09:50:00.840Z</time>
      </trkpt>
      <trkpt lat="44.08071" lon="5.97369">
        <ele>531</ele>
        <time>2021-05-30T09:50:08.596Z</time>
      </trkpt>
      <trkpt lat="44.08057" lon="5.97399">
        <ele>535.3</ele>
        <time>2021-05-30T09:50:43.588Z</time>
      </trkpt>
      <trkpt lat="44.08018" lon="5.97405">
        <ele>532.9</ele>
        <time>2021-05-30T09:50:48.387Z</time>
      </trkpt>
      <trkpt lat="44.08014" lon="5.97398">
        <ele>531.5</ele>
        <time>2021-05-30T09:50:49.209Z</time>
      </trkpt>
      <trkpt lat="44.07997" lon="5.97407">
        <ele>531</ele>
        <time>2021-05-30T09:50:52.241Z</time>
      </trkpt>
      <trkpt lat="44.07994" lon="5.97424">
        <ele>532.7</ele>
        <time>2021-05-30T09:51:09.363Z</time>
      </trkpt>
      <trkpt lat="44.07987" lon="5.97426">
        <ele>531.6</ele>
        <time>2021-05-30T09:51:10.278Z</time>
      </trkpt>
      <trkpt lat="44.07969" lon="5.97417">
        <ele>526.7</ele>
        <time>2021-05-30T09:51:12.725Z</time>
      </trkpt>
      <trkpt lat="44.07904" lon="5.97431">
        <ele>515.4</ele>
        <time>2021-05-30T09:51:21.140Z</time>
      </trkpt>
      <trkpt lat="44.07843" lon="5.97464">
        <ele>506.9</ele>
        <time>2021-05-30T09:51:29.513Z</time>
      </trkpt>
      <trkpt lat="44.07835" lon="5.97462">
        <ele>505.1</ele>
        <time>2021-05-30T09:51:30.553Z</time>
      </trkpt>
      <trkpt lat="44.0782" lon="5.97474">
        <ele>505.9</ele>
        <time>2021-05-30T09:51:40.975Z</time>
      </trkpt>
      <trkpt lat="44.07809" lon="5.97495">
        <ele>508.5</ele>
        <time>2021-05-30T09:52:06.397Z</time>
      </trkpt>
      <trkpt lat="44.07796" lon="5.97571">
        <ele>520.7</ele>
        <time>2021-05-30T09:53:22.815Z</time>
      </trkpt>
      <trkpt lat="44.07804" lon="5.97585">
        <ele>521.8</ele>
        <time>2021-05-30T09:53:33.160Z</time>
      </trkpt>
      <trkpt lat="44.07909" lon="5.97633">
        <ele>523.6</ele>
        <time>2021-05-30T09:54:19.014Z</time>
      </trkpt>
      <trkpt lat="44.07999" lon="5.97638">
        <ele>531.7</ele>
        <time>2021-05-30T09:55:34.309Z</time>
      </trkpt>
      <trkpt lat="44.08063" lon="5.97618">
        <ele>540.5</ele>
        <time>2021-05-30T09:57:03.619Z</time>
      </trkpt>
      <trkpt lat="44.08084" lon="5.97618">
        <ele>542.8</ele>
        <time>2021-05-30T09:57:24.869Z</time>
      </trkpt>
      <trkpt lat="44.0815" lon="5.97652">
        <ele>540.9</ele>
        <time>2021-05-30T09:57:36.664Z</time>
      </trkpt>
      <trkpt lat="44.08236" lon="5.97679">
        <ele>548</ele>
        <time>2021-05-30T09:58:44.691Z</time>
      </trkpt>
      <trkpt lat="44.0824" lon="5.97688">
        <ele>548.2</ele>
        <time>2021-05-30T09:58:48.226Z</time>
      </trkpt>
      <trkpt lat="44.08238" lon="5.9773">
        <ele>546.8</ele>
        <time>2021-05-30T09:58:52.417Z</time>
      </trkpt>
      <trkpt lat="44.08247" lon="5.9775">
        <ele>546.8</ele>
        <time>2021-05-30T09:58:58.402Z</time>
      </trkpt>
      <trkpt lat="44.08299" lon="5.97771">
        <ele>553.7</ele>
        <time>2021-05-30T10:00:06.244Z</time>
      </trkpt>
      <trkpt lat="44.0832" lon="5.97793">
        <ele>557.8</ele>
        <time>2021-05-30T10:00:42.030Z</time>
      </trkpt>
      <trkpt lat="44.08358" lon="5.9782">
        <ele>562.1</ele>
        <time>2021-05-30T10:01:21.498Z</time>
      </trkpt>
      <trkpt lat="44.08499" lon="5.97877">
        <ele>575.2</ele>
        <time>2021-05-30T10:03:23.471Z</time>
      </trkpt>
      <trkpt lat="44.08589" lon="5.97895">
        <ele>579.1</ele>
        <time>2021-05-30T10:04:16.338Z</time>
      </trkpt>
      <trkpt lat="44.08592" lon="5.979">
        <ele>579.5</ele>
        <time>2021-05-30T10:04:20.102Z</time>
      </trkpt>
      <trkpt lat="44.08588" lon="5.97911">
        <ele>579.9</ele>
        <time>2021-05-30T10:04:25.400Z</time>
      </trkpt>
      <trkpt lat="44.08549" lon="5.97932">
        <ele>581.5</ele>
        <time>2021-05-30T10:04:48.127Z</time>
      </trkpt>
      <trkpt lat="44.08512" lon="5.97925">
        <ele>580.3</ele>
        <time>2021-05-30T10:04:54.054Z</time>
      </trkpt>
      <trkpt lat="44.08472" lon="5.97933">
        <ele>581.5</ele>
        <time>2021-05-30T10:05:13.649Z</time>
      </trkpt>
      <trkpt lat="44.08447" lon="5.9793">
        <ele>581.1</ele>
        <time>2021-05-30T10:05:18.428Z</time>
      </trkpt>
      <trkpt lat="44.08424" lon="5.9794">
        <ele>582.9</ele>
        <time>2021-05-30T10:05:36.173Z</time>
      </trkpt>
      <trkpt lat="44.08377" lon="5.97935">
        <ele>581</ele>
        <time>2021-05-30T10:05:43.077Z</time>
      </trkpt>
      <trkpt lat="44.0835" lon="5.97941">
        <ele>581.3</ele>
        <time>2021-05-30T10:05:53.807Z</time>
      </trkpt>
      <trkpt lat="44.08354" lon="5.97958">
        <ele>584.1</ele>
        <time>2021-05-30T10:06:11.303Z</time>
      </trkpt>
      <trkpt lat="44.08385" lon="5.97981">
        <ele>588.8</ele>
        <time>2021-05-30T10:06:59.133Z</time>
      </trkpt>
      <trkpt lat="44.08358" lon="5.97991">
        <ele>589.5</ele>
        <time>2021-05-30T10:07:11.933Z</time>
      </trkpt>
      <trkpt lat="44.08337" lon="5.98007">
        <ele>590.7</ele>
        <time>2021-05-30T10:07:26.722Z</time>
      </trkpt>
      <trkpt lat="44.08293" lon="5.9801">
        <ele>588.9</ele>
        <time>2021-05-30T10:07:33.141Z</time>
      </trkpt>
      <trkpt lat="44.0827" lon="5.98033">
        <ele>588</ele>
        <time>2021-05-30T10:07:37.653Z</time>
      </trkpt>
      <trkpt lat="44.08242" lon="5.98044">
        <ele>585.7</ele>
        <time>2021-05-30T10:07:41.376Z</time>
      </trkpt>
      <trkpt lat="44.08238" lon="5.98053">
        <ele>585.1</ele>
        <time>2021-05-30T10:07:42.348Z</time>
      </trkpt>
      <trkpt lat="44.08234" lon="5.98052">
        <ele>584.6</ele>
        <time>2021-05-30T10:07:42.868Z</time>
      </trkpt>
      <trkpt lat="44.08235" lon="5.98046">
        <ele>584.9</ele>
        <time>2021-05-30T10:07:45.960Z</time>
      </trkpt>
      <trkpt lat="44.08289" lon="5.98068">
        <ele>590.3</ele>
        <time>2021-05-30T10:08:35.661Z</time>
      </trkpt>
      <trkpt lat="44.08311" lon="5.98064">
        <ele>592.4</ele>
        <time>2021-05-30T10:08:55.019Z</time>
      </trkpt>
      <trkpt lat="44.08374" lon="5.98084">
        <ele>599.8</ele>
        <time>2021-05-30T10:10:04.113Z</time>
      </trkpt>
      <trkpt lat="44.08387" lon="5.98078">
        <ele>600.6</ele>
        <time>2021-05-30T10:10:13.060Z</time>
      </trkpt>
      <trkpt lat="44.0851" lon="5.98115">
        <ele>602.4</ele>
        <time>2021-05-30T10:11:04.180Z</time>
      </trkpt>
      <trkpt lat="44.08519" lon="5.98111">
        <ele>603.1</ele>
        <time>2021-05-30T10:11:11.104Z</time>
      </trkpt>
      <trkpt lat="44.08542" lon="5.98123">
        <ele>603.2</ele>
        <time>2021-05-30T10:11:20.111Z</time>
      </trkpt>
      <trkpt lat="44.08549" lon="5.98133">
        <ele>602.8</ele>
        <time>2021-05-30T10:11:21.586Z</time>
      </trkpt>
      <trkpt lat="44.08564" lon="5.98133">
        <ele>603.6</ele>
        <time>2021-05-30T10:11:31.051Z</time>
      </trkpt>
      <trkpt lat="44.08575" lon="5.98142">
        <ele>603.7</ele>
        <time>2021-05-30T10:11:35.903Z</time>
      </trkpt>
      <trkpt lat="44.08593" lon="5.98175">
        <ele>601.3</ele>
        <time>2021-05-30T10:11:39.711Z</time>
      </trkpt>
      <trkpt lat="44.0866" lon="5.98209">
        <ele>595.7</ele>
        <time>2021-05-30T10:11:48.835Z</time>
      </trkpt>
      <trkpt lat="44.08681" lon="5.98212">
        <ele>595.2</ele>
        <time>2021-05-30T10:11:52.505Z</time>
      </trkpt>
      <trkpt lat="44.08731" lon="5.98253">
        <ele>589.6</ele>
        <time>2021-05-30T10:11:59.929Z</time>
      </trkpt>
      <trkpt lat="44.08751" lon="5.98258">
        <ele>589.1</ele>
        <time>2021-05-30T10:12:03.425Z</time>
      </trkpt>
      <trkpt lat="44.08762" lon="5.98228">
        <ele>591.9</ele>
        <time>2021-05-30T10:12:29.656Z</time>
      </trkpt>
      <trkpt lat="44.08757" lon="5.9825">
        <ele>590.4</ele>
        <time>2021-05-30T10:12:31.777Z</time>
      </trkpt>
      <trkpt lat="44.08825" lon="5.98326">
        <ele>571.5</ele>
        <time>2021-05-30T10:12:42.933Z</time>
      </trkpt>
      <trkpt lat="44.08832" lon="5.98426">
        <ele>548.5</ele>
        <time>2021-05-30T10:12:52.167Z</time>
      </trkpt>
      <trkpt lat="44.08844" lon="5.98424">
        <ele>548</ele>
        <time>2021-05-30T10:12:53.919Z</time>
      </trkpt>
      <trkpt lat="44.08858" lon="5.98386">
        <ele>554.7</ele>
        <time>2021-05-30T10:13:35.686Z</time>
      </trkpt>
      <trkpt lat="44.08879" lon="5.98374">
        <ele>555</ele>
        <time>2021-05-30T10:13:44.803Z</time>
      </trkpt>
      <trkpt lat="44.08895" lon="5.98348">
        <ele>558.3</ele>
        <time>2021-05-30T10:14:18.287Z</time>
      </trkpt>
      <trkpt lat="44.08901" lon="5.98394">
        <ele>548.7</ele>
        <time>2021-05-30T10:14:22.583Z</time>
      </trkpt>
      <trkpt lat="44.08895" lon="5.98426">
        <ele>544</ele>
        <time>2021-05-30T10:14:25.622Z</time>
      </trkpt>
      <trkpt lat="44.08895" lon="5.9846">
        <ele>541</ele>
        <time>2021-05-30T10:14:28.747Z</time>
      </trkpt>
      <trkpt lat="44.08873" lon="5.98497">
        <ele>537.3</ele>
        <time>2021-05-30T10:14:33.161Z</time>
      </trkpt>
      <trkpt lat="44.08863" lon="5.9853">
        <ele>537.5</ele>
        <time>2021-05-30T10:14:42.938Z</time>
      </trkpt>
      <trkpt lat="44.0884" lon="5.98565">
        <ele>535.3</ele>
        <time>2021-05-30T10:14:46.996Z</time>
      </trkpt>
      <trkpt lat="44.08802" lon="5.98661">
        <ele>534.4</ele>
        <time>2021-05-30T10:15:02.870Z</time>
      </trkpt>
      <trkpt lat="44.08811" lon="5.98679">
        <ele>534.7</ele>
        <time>2021-05-30T10:15:09.606Z</time>
      </trkpt>
      <trkpt lat="44.08924" lon="5.98757">
        <ele>540.4</ele>
        <time>2021-05-30T10:16:25.080Z</time>
      </trkpt>
      <trkpt lat="44.09025" lon="5.98877">
        <ele>535.8</ele>
        <time>2021-05-30T10:16:45.630Z</time>
      </trkpt>
      <trkpt lat="44.09122" lon="5.98925">
        <ele>535</ele>
        <time>2021-05-30T10:17:07.425Z</time>
      </trkpt>
      <trkpt lat="44.09173" lon="5.98937">
        <ele>536.1</ele>
        <time>2021-05-30T10:17:30.101Z</time>
      </trkpt>
      <trkpt lat="44.09189" lon="5.98932">
        <ele>537.4</ele>
        <time>2021-05-30T10:17:42.625Z</time>
      </trkpt>
      <trkpt lat="44.0923" lon="5.98904">
        <ele>543.2</ele>
        <time>2021-05-30T10:18:39.520Z</time>
      </trkpt>
      <trkpt lat="44.09249" lon="5.98898">
        <ele>545.1</ele>
        <time>2021-05-30T10:18:56.983Z</time>
      </trkpt>
      <trkpt lat="44.09271" lon="5.98904">
        <ele>543.5</ele>
        <time>2021-05-30T10:18:59.851Z</time>
      </trkpt>
      <trkpt lat="44.09277" lon="5.98895">
        <ele>544.8</ele>
        <time>2021-05-30T10:19:11.860Z</time>
      </trkpt>
      <trkpt lat="44.09291" lon="5.98787">
        <ele>560.4</ele>
        <time>2021-05-30T10:20:59.181Z</time>
      </trkpt>
      <trkpt lat="44.09322" lon="5.98736">
        <ele>565.4</ele>
        <time>2021-05-30T10:21:45.110Z</time>
      </trkpt>
      <trkpt lat="44.09328" lon="5.98709">
        <ele>569.5</ele>
        <time>2021-05-30T10:22:12.748Z</time>
      </trkpt>
      <trkpt lat="44.09355" lon="5.98647">
        <ele>574.9</ele>
        <time>2021-05-30T10:23:02.339Z</time>
      </trkpt>
      <trkpt lat="44.09365" lon="5.98635">
        <ele>574.7</ele>
        <time>2021-05-30T10:23:04.877Z</time>
      </trkpt>
      <trkpt lat="44.09413" lon="5.9853">
        <ele>579.7</ele>
        <time>2021-05-30T10:24:02.286Z</time>
      </trkpt>
      <trkpt lat="44.09418" lon="5.98476">
        <ele>585.8</ele>
        <time>2021-05-30T10:24:55.529Z</time>
      </trkpt>
      <trkpt lat="44.0941" lon="5.98388">
        <ele>591.2</ele>
        <time>2021-05-30T10:25:46.450Z</time>
      </trkpt>
      <trkpt lat="44.09415" lon="5.98383">
        <ele>590.4</ele>
        <time>2021-05-30T10:25:47.238Z</time>
      </trkpt>
      <trkpt lat="44.09437" lon="5.98398">
        <ele>587.6</ele>
        <time>2021-05-30T10:25:50.372Z</time>
      </trkpt>
      <trkpt lat="44.09443" lon="5.9841">
        <ele>586.8</ele>
        <time>2021-05-30T10:25:51.716Z</time>
      </trkpt>
      <trkpt lat="44.09447" lon="5.98464">
        <ele>582.7</ele>
        <time>2021-05-30T10:25:56.704Z</time>
      </trkpt>
      <trkpt lat="44.09453" lon="5.98479">
        <ele>580.7</ele>
        <time>2021-05-30T10:25:58.281Z</time>
      </trkpt>
      <trkpt lat="44.0947" lon="5.98447">
        <ele>580.6</ele>
        <time>2021-05-30T10:26:07.859Z</time>
      </trkpt>
      <trkpt lat="44.09481" lon="5.98413">
        <ele>581</ele>
        <time>2021-05-30T10:26:18.812Z</time>
      </trkpt>
      <trkpt lat="44.09496" lon="5.98402">
        <ele>578.9</ele>
        <time>2021-05-30T10:26:20.981Z</time>
      </trkpt>
      <trkpt lat="44.09505" lon="5.98384">
        <ele>578.8</ele>
        <time>2021-05-30T10:26:26.048Z</time>
      </trkpt>
      <trkpt lat="44.09531" lon="5.98389">
        <ele>579</ele>
        <time>2021-05-30T10:26:36.009Z</time>
      </trkpt>
      <trkpt lat="44.09521" lon="5.98385">
        <ele>579</ele>
        <time>2021-05-30T10:26:39.681Z</time>
      </trkpt>
      <trkpt lat="44.09523" lon="5.98368">
        <ele>579.4</ele>
        <time>2021-05-30T10:26:45.886Z</time>
      </trkpt>
      <trkpt lat="44.09549" lon="5.98347">
        <ele>580.3</ele>
        <time>2021-05-30T10:27:00.507Z</time>
      </trkpt>
      <trkpt lat="44.09581" lon="5.98335">
        <ele>580.9</ele>
        <time>2021-05-30T10:27:14.531Z</time>
      </trkpt>
      <trkpt lat="44.0961" lon="5.98344">
        <ele>581.9</ele>
        <time>2021-05-30T10:27:29.694Z</time>
      </trkpt>
      <trkpt lat="44.09636" lon="5.98332">
        <ele>583.6</ele>
        <time>2021-05-30T10:27:48.052Z</time>
      </trkpt>
      <trkpt lat="44.09653" lon="5.98348">
        <ele>583.6</ele>
        <time>2021-05-30T10:27:55.296Z</time>
      </trkpt>
      <trkpt lat="44.09663" lon="5.98349">
        <ele>583.9</ele>
        <time>2021-05-30T10:28:00.171Z</time>
      </trkpt>
      <trkpt lat="44.09669" lon="5.98343">
        <ele>584.4</ele>
        <time>2021-05-30T10:28:05.328Z</time>
      </trkpt>
      <trkpt lat="44.09674" lon="5.98347">
        <ele>584.2</ele>
        <time>2021-05-30T10:28:06.220Z</time>
      </trkpt>
      <trkpt lat="44.09698" lon="5.98341">
        <ele>584.8</ele>
        <time>2021-05-30T10:28:17.333Z</time>
      </trkpt>
      <trkpt lat="44.09725" lon="5.98306">
        <ele>587.9</ele>
        <time>2021-05-30T10:28:46.637Z</time>
      </trkpt>
      <trkpt lat="44.09757" lon="5.98312">
        <ele>588.3</ele>
        <time>2021-05-30T10:28:59.494Z</time>
      </trkpt>
      <trkpt lat="44.09766" lon="5.98303">
        <ele>589.6</ele>
        <time>2021-05-30T10:29:11.732Z</time>
      </trkpt>
      <trkpt lat="44.09779" lon="5.98306">
        <ele>589.8</ele>
        <time>2021-05-30T10:29:17.135Z</time>
      </trkpt>
      <trkpt lat="44.09803" lon="5.98299">
        <ele>591.5</ele>
        <time>2021-05-30T10:29:34.465Z</time>
      </trkpt>
      <trkpt lat="44.09816" lon="5.98313">
        <ele>590.5</ele>
        <time>2021-05-30T10:29:36.480Z</time>
      </trkpt>
      <trkpt lat="44.09834" lon="5.98315">
        <ele>591</ele>
        <time>2021-05-30T10:29:45.021Z</time>
      </trkpt>
      <trkpt lat="44.09841" lon="5.98334">
        <ele>589.2</ele>
        <time>2021-05-30T10:29:46.983Z</time>
      </trkpt>
      <trkpt lat="44.09849" lon="5.98338">
        <ele>589.3</ele>
        <time>2021-05-30T10:29:50.346Z</time>
      </trkpt>
      <trkpt lat="44.09878" lon="5.98334">
        <ele>590.6</ele>
        <time>2021-05-30T10:30:07.720Z</time>
      </trkpt>
      <trkpt lat="44.09889" lon="5.98323">
        <ele>591.9</ele>
        <time>2021-05-30T10:30:19.685Z</time>
      </trkpt>
      <trkpt lat="44.09888" lon="5.98329">
        <ele>591.3</ele>
        <time>2021-05-30T10:30:20.250Z</time>
      </trkpt>
      <trkpt lat="44.10031" lon="5.98284">
        <ele>602.5</ele>
        <time>2021-05-30T10:32:09.666Z</time>
      </trkpt>
      <trkpt lat="44.10061" lon="5.98294">
        <ele>603.5</ele>
        <time>2021-05-30T10:32:25.154Z</time>
      </trkpt>
      <trkpt lat="44.1012" lon="5.9827">
        <ele>607.7</ele>
        <time>2021-05-30T10:33:08.272Z</time>
      </trkpt>
      <trkpt lat="44.10148" lon="5.98207">
        <ele>614.6</ele>
        <time>2021-05-30T10:34:16.995Z</time>
      </trkpt>
      <trkpt lat="44.10174" lon="5.98184">
        <ele>618.1</ele>
        <time>2021-05-30T10:34:49.601Z</time>
      </trkpt>
      <trkpt lat="44.10189" lon="5.9818">
        <ele>618.8</ele>
        <time>2021-05-30T10:34:58.777Z</time>
      </trkpt>
      <trkpt lat="44.10203" lon="5.98163">
        <ele>620.8</ele>
        <time>2021-05-30T10:35:17.206Z</time>
      </trkpt>
      <trkpt lat="44.10214" lon="5.98159">
        <ele>621.3</ele>
        <time>2021-05-30T10:35:23.927Z</time>
      </trkpt>
      <trkpt lat="44.10224" lon="5.98215">
        <ele>616.1</ele>
        <time>2021-05-30T10:35:29.229Z</time>
      </trkpt>
      <trkpt lat="44.10245" lon="5.98256">
        <ele>613.7</ele>
        <time>2021-05-30T10:35:33.477Z</time>
      </trkpt>
      <trkpt lat="44.10265" lon="5.98279">
        <ele>615.2</ele>
        <time>2021-05-30T10:35:50.353Z</time>
      </trkpt>
      <trkpt lat="44.10271" lon="5.98297">
        <ele>615.6</ele>
        <time>2021-05-30T10:35:57.125Z</time>
      </trkpt>
      <trkpt lat="44.10259" lon="5.98314">
        <ele>614.2</ele>
        <time>2021-05-30T10:35:59.315Z</time>
      </trkpt>
      <trkpt lat="44.10247" lon="5.98316">
        <ele>612.9</ele>
        <time>2021-05-30T10:36:00.861Z</time>
      </trkpt>
      <trkpt lat="44.10239" lon="5.9831">
        <ele>612.3</ele>
        <time>2021-05-30T10:36:01.931Z</time>
      </trkpt>
      <trkpt lat="44.10215" lon="5.98317">
        <ele>609.8</ele>
        <time>2021-05-30T10:36:05.068Z</time>
      </trkpt>
      <trkpt lat="44.10192" lon="5.98316">
        <ele>607.7</ele>
        <time>2021-05-30T10:36:08.012Z</time>
      </trkpt>
      <trkpt lat="44.10172" lon="5.98331">
        <ele>604.7</ele>
        <time>2021-05-30T10:36:10.919Z</time>
      </trkpt>
      <trkpt lat="44.10171" lon="5.98352">
        <ele>604.3</ele>
        <time>2021-05-30T10:36:13.466Z</time>
      </trkpt>
      <trkpt lat="44.10182" lon="5.98368">
        <ele>605.5</ele>
        <time>2021-05-30T10:36:25.249Z</time>
      </trkpt>
      <trkpt lat="44.10178" lon="5.98419">
        <ele>605</ele>
        <time>2021-05-30T10:36:32.475Z</time>
      </trkpt>
      <trkpt lat="44.10156" lon="5.98414">
        <ele>602</ele>
        <time>2021-05-30T10:36:35.327Z</time>
      </trkpt>
      <trkpt lat="44.10138" lon="5.98429">
        <ele>601.3</ele>
        <time>2021-05-30T10:36:38.615Z</time>
      </trkpt>
      <trkpt lat="44.10127" lon="5.98431">
        <ele>600.3</ele>
        <time>2021-05-30T10:36:40.034Z</time>
      </trkpt>
      <trkpt lat="44.10123" lon="5.98423">
        <ele>599.3</ele>
        <time>2021-05-30T10:36:40.930Z</time>
      </trkpt>
      <trkpt lat="44.10094" lon="5.98428">
        <ele>596.8</ele>
        <time>2021-05-30T10:36:44.669Z</time>
      </trkpt>
      <trkpt lat="44.10068" lon="5.98421">
        <ele>594.5</ele>
        <time>2021-05-30T10:36:48.057Z</time>
      </trkpt>
      <trkpt lat="44.10026" lon="5.98439">
        <ele>592.7</ele>
        <time>2021-05-30T10:36:54.454Z</time>
      </trkpt>
      <trkpt lat="44.10003" lon="5.98463">
        <ele>591.2</ele>
        <time>2021-05-30T10:36:58.238Z</time>
      </trkpt>
      <trkpt lat="44.09983" lon="5.98469">
        <ele>589.8</ele>
        <time>2021-05-30T10:37:00.855Z</time>
      </trkpt>
      <trkpt lat="44.09977" lon="5.9846">
        <ele>589.5</ele>
        <time>2021-05-30T10:37:02.229Z</time>
      </trkpt>
      <trkpt lat="44.09943" lon="5.9848">
        <ele>586.7</ele>
        <time>2021-05-30T10:37:06.951Z</time>
      </trkpt>
      <trkpt lat="44.09907" lon="5.98464">
        <ele>584.9</ele>
        <time>2021-05-30T10:37:12.127Z</time>
      </trkpt>
      <trkpt lat="44.09893" lon="5.98471">
        <ele>584</ele>
        <time>2021-05-30T10:37:13.956Z</time>
      </trkpt>
      <trkpt lat="44.09874" lon="5.98508">
        <ele>582.7</ele>
        <time>2021-05-30T10:37:18.763Z</time>
      </trkpt>
      <trkpt lat="44.09872" lon="5.98524">
        <ele>584.1</ele>
        <time>2021-05-30T10:37:32.068Z</time>
      </trkpt>
      <trkpt lat="44.09854" lon="5.98521">
        <ele>582.8</ele>
        <time>2021-05-30T10:37:34.387Z</time>
      </trkpt>
      <trkpt lat="44.09841" lon="5.98526">
        <ele>582.4</ele>
        <time>2021-05-30T10:37:36.584Z</time>
      </trkpt>
      <trkpt lat="44.09832" lon="5.9852">
        <ele>581.3</ele>
        <time>2021-05-30T10:37:37.861Z</time>
      </trkpt>
      <trkpt lat="44.09798" lon="5.98534">
        <ele>578.7</ele>
        <time>2021-05-30T10:37:42.397Z</time>
      </trkpt>
      <trkpt lat="44.09766" lon="5.9851">
        <ele>574.1</ele>
        <time>2021-05-30T10:37:47.047Z</time>
      </trkpt>
      <trkpt lat="44.09748" lon="5.9851">
        <ele>572.5</ele>
        <time>2021-05-30T10:37:49.350Z</time>
      </trkpt>
      <trkpt lat="44.09689" lon="5.98532">
        <ele>573.2</ele>
        <time>2021-05-30T10:38:13.440Z</time>
      </trkpt>
      <trkpt lat="44.09672" lon="5.98546">
        <ele>572.4</ele>
        <time>2021-05-30T10:38:16.327Z</time>
      </trkpt>
      <trkpt lat="44.09627" lon="5.98559">
        <ele>574</ele>
        <time>2021-05-30T10:38:40.147Z</time>
      </trkpt>
      <trkpt lat="44.09592" lon="5.98619">
        <ele>572.5</ele>
        <time>2021-05-30T10:38:49.448Z</time>
      </trkpt>
      <trkpt lat="44.09532" lon="5.98686">
        <ele>567.1</ele>
        <time>2021-05-30T10:38:59.288Z</time>
      </trkpt>
      <trkpt lat="44.09491" lon="5.98801">
        <ele>557.4</ele>
        <time>2021-05-30T10:39:11.086Z</time>
      </trkpt>
      <trkpt lat="44.09442" lon="5.98855">
        <ele>551.8</ele>
        <time>2021-05-30T10:39:19.081Z</time>
      </trkpt>
      <trkpt lat="44.0942" lon="5.9887">
        <ele>550</ele>
        <time>2021-05-30T10:39:22.215Z</time>
      </trkpt>
      <trkpt lat="44.09371" lon="5.9892">
        <ele>543.1</ele>
        <time>2021-05-30T10:39:29.987Z</time>
      </trkpt>
      <trkpt lat="44.09311" lon="5.98947">
        <ele>538.6</ele>
        <time>2021-05-30T10:39:38.055Z</time>
      </trkpt>
      <trkpt lat="44.09279" lon="5.98949">
        <ele>538.5</ele>
        <time>2021-05-30T10:39:48.846Z</time>
      </trkpt>
      <trkpt lat="44.09273" lon="5.98958">
        <ele>537.7</ele>
        <time>2021-05-30T10:39:49.974Z</time>
      </trkpt>
      <trkpt lat="44.09265" lon="5.99002">
        <ele>533.5</ele>
        <time>2021-05-30T10:39:54.145Z</time>
      </trkpt>
      <trkpt lat="44.09262" lon="5.99228">
        <ele>535.6</ele>
        <time>2021-05-30T10:40:59.156Z</time>
      </trkpt>
      <trkpt lat="44.09266" lon="5.99275">
        <ele>539.1</ele>
        <time>2021-05-30T10:41:31.289Z</time>
      </trkpt>
      <trkpt lat="44.09262" lon="5.99283">
        <ele>539.9</ele>
        <time>2021-05-30T10:41:38.754Z</time>
      </trkpt>
      <trkpt lat="44.09234" lon="5.99291">
        <ele>541.2</ele>
        <time>2021-05-30T10:41:55.890Z</time>
      </trkpt>
      <trkpt lat="44.09181" lon="5.9925">
        <ele>537</ele>
        <time>2021-05-30T10:42:03.647Z</time>
      </trkpt>
      <trkpt lat="44.09127" lon="5.99232">
        <ele>532.9</ele>
        <time>2021-05-30T10:42:10.751Z</time>
      </trkpt>
      <trkpt lat="44.09025" lon="5.99234">
        <ele>528.6</ele>
        <time>2021-05-30T10:42:25.436Z</time>
      </trkpt>
      <trkpt lat="44.08986" lon="5.99243">
        <ele>528</ele>
        <time>2021-05-30T10:42:33.035Z</time>
      </trkpt>
      <trkpt lat="44.08904" lon="5.99247">
        <ele>527</ele>
        <time>2021-05-30T10:42:49.416Z</time>
      </trkpt>
      <trkpt lat="44.08777" lon="5.99293">
        <ele>528.9</ele>
        <time>2021-05-30T10:43:42.823Z</time>
      </trkpt>
      <trkpt lat="44.08769" lon="5.99291">
        <ele>528.4</ele>
        <time>2021-05-30T10:43:43.814Z</time>
      </trkpt>
      <trkpt lat="44.0877" lon="5.99262">
        <ele>527.2</ele>
        <time>2021-05-30T10:43:46.440Z</time>
      </trkpt>
      <trkpt lat="44.08764" lon="5.9924">
        <ele>525.1</ele>
        <time>2021-05-30T10:43:48.602Z</time>
      </trkpt>
      <trkpt lat="44.08781" lon="5.99223">
        <ele>523.3</ele>
        <time>2021-05-30T10:43:51.280Z</time>
      </trkpt>
      <trkpt lat="44.08787" lon="5.99185">
        <ele>518.3</ele>
        <time>2021-05-30T10:43:54.856Z</time>
      </trkpt>
      <trkpt lat="44.08784" lon="5.99153">
        <ele>514</ele>
        <time>2021-05-30T10:43:57.821Z</time>
      </trkpt>
      <trkpt lat="44.08787" lon="5.99136">
        <ele>512.1</ele>
        <time>2021-05-30T10:43:59.430Z</time>
      </trkpt>
      <trkpt lat="44.088" lon="5.99121">
        <ele>510.9</ele>
        <time>2021-05-30T10:44:01.590Z</time>
      </trkpt>
      <trkpt lat="44.08826" lon="5.9912">
        <ele>512</ele>
        <time>2021-05-30T10:44:16.578Z</time>
      </trkpt>
      <trkpt lat="44.08845" lon="5.9909">
        <ele>509.1</ele>
        <time>2021-05-30T10:44:20.253Z</time>
      </trkpt>
      <trkpt lat="44.08821" lon="5.99067">
        <ele>508.6</ele>
        <time>2021-05-30T10:44:25.719Z</time>
      </trkpt>
      <trkpt lat="44.08801" lon="5.99062">
        <ele>508</ele>
        <time>2021-05-30T10:44:29.034Z</time>
      </trkpt>
      <trkpt lat="44.08795" lon="5.99067">
        <ele>507.3</ele>
        <time>2021-05-30T10:44:29.929Z</time>
      </trkpt>
      <trkpt lat="44.08765" lon="5.99064">
        <ele>506.1</ele>
        <time>2021-05-30T10:44:34.351Z</time>
      </trkpt>
      <trkpt lat="44.08743" lon="5.99072">
        <ele>504.6</ele>
        <time>2021-05-30T10:44:37.030Z</time>
      </trkpt>
      <trkpt lat="44.08685" lon="5.99075">
        <ele>502.3</ele>
        <time>2021-05-30T10:44:45.587Z</time>
      </trkpt>
      <trkpt lat="44.08675" lon="5.99062">
        <ele>502.8</ele>
        <time>2021-05-30T10:44:52.847Z</time>
      </trkpt>
      <trkpt lat="44.08658" lon="5.99059">
        <ele>502.6</ele>
        <time>2021-05-30T10:44:56.291Z</time>
      </trkpt>
      <trkpt lat="44.08652" lon="5.99067">
        <ele>501.9</ele>
        <time>2021-05-30T10:44:57.354Z</time>
      </trkpt>
      <trkpt lat="44.08638" lon="5.9906">
        <ele>502</ele>
        <time>2021-05-30T10:45:02.949Z</time>
      </trkpt>
      <trkpt lat="44.08599" lon="5.99098">
        <ele>501.4</ele>
        <time>2021-05-30T10:45:12.402Z</time>
      </trkpt>
      <trkpt lat="44.08536" lon="5.99109">
        <ele>497.7</ele>
        <time>2021-05-30T10:45:20.350Z</time>
      </trkpt>
      <trkpt lat="44.08491" lon="5.99092">
        <ele>494.1</ele>
        <time>2021-05-30T10:45:26.315Z</time>
      </trkpt>
      <trkpt lat="44.08445" lon="5.99099">
        <ele>493.3</ele>
        <time>2021-05-30T10:45:34.983Z</time>
      </trkpt>
      <trkpt lat="44.08421" lon="5.99082">
        <ele>494.1</ele>
        <time>2021-05-30T10:45:48.042Z</time>
      </trkpt>
      <trkpt lat="44.08401" lon="5.9908">
        <ele>495.4</ele>
        <time>2021-05-30T10:46:01.751Z</time>
      </trkpt>
      <trkpt lat="44.08388" lon="5.9907">
        <ele>497.5</ele>
        <time>2021-05-30T10:46:21.975Z</time>
      </trkpt>
      <trkpt lat="44.08375" lon="5.99048">
        <ele>501.8</ele>
        <time>2021-05-30T10:46:49.837Z</time>
      </trkpt>
      <trkpt lat="44.08358" lon="5.99048">
        <ele>503.4</ele>
        <time>2021-05-30T10:47:04.597Z</time>
      </trkpt>
      <trkpt lat="44.08364" lon="5.99039">
        <ele>504.3</ele>
        <time>2021-05-30T10:47:12.858Z</time>
      </trkpt>
      <trkpt lat="44.08364" lon="5.99019">
        <ele>507.5</ele>
        <time>2021-05-30T10:47:32.419Z</time>
      </trkpt>
      <trkpt lat="44.08346" lon="5.98974">
        <ele>515.9</ele>
        <time>2021-05-30T10:48:22.796Z</time>
      </trkpt>
      <trkpt lat="44.08347" lon="5.98962">
        <ele>517</ele>
        <time>2021-05-30T10:48:33.572Z</time>
      </trkpt>
      <trkpt lat="44.08337" lon="5.98934">
        <ele>521.5</ele>
        <time>2021-05-30T10:49:04.156Z</time>
      </trkpt>
      <trkpt lat="44.08337" lon="5.98919">
        <ele>523.1</ele>
        <time>2021-05-30T10:49:18.827Z</time>
      </trkpt>
      <trkpt lat="44.08312" lon="5.98874">
        <ele>523.6</ele>
        <time>2021-05-30T10:49:35.073Z</time>
      </trkpt>
      <trkpt lat="44.0831" lon="5.98834">
        <ele>521.8</ele>
        <time>2021-05-30T10:49:38.559Z</time>
      </trkpt>
      <trkpt lat="44.08298" lon="5.98826">
        <ele>524</ele>
        <time>2021-05-30T10:49:56.675Z</time>
      </trkpt>
      <trkpt lat="44.08294" lon="5.98812">
        <ele>524.4</ele>
        <time>2021-05-30T10:50:02.451Z</time>
      </trkpt>
      <trkpt lat="44.08302" lon="5.98789">
        <ele>522.7</ele>
        <time>2021-05-30T10:50:04.800Z</time>
      </trkpt>
      <trkpt lat="44.08289" lon="5.9878">
        <ele>524.3</ele>
        <time>2021-05-30T10:50:19.599Z</time>
      </trkpt>
      <trkpt lat="44.08278" lon="5.98762">
        <ele>524.9</ele>
        <time>2021-05-30T10:50:28.460Z</time>
      </trkpt>
      <trkpt lat="44.08284" lon="5.98734">
        <ele>523.9</ele>
        <time>2021-05-30T10:50:31.335Z</time>
      </trkpt>
      <trkpt lat="44.08264" lon="5.98712">
        <ele>525</ele>
        <time>2021-05-30T10:50:46.215Z</time>
      </trkpt>
      <trkpt lat="44.08261" lon="5.98699">
        <ele>524.8</ele>
        <time>2021-05-30T10:50:47.985Z</time>
      </trkpt>
      <trkpt lat="44.08272" lon="5.98681">
        <ele>524.4</ele>
        <time>2021-05-30T10:50:50.941Z</time>
      </trkpt>
      <trkpt lat="44.08269" lon="5.98649">
        <ele>525.2</ele>
        <time>2021-05-30T10:51:02.906Z</time>
      </trkpt>
      <trkpt lat="44.08279" lon="5.98621">
        <ele>526.9</ele>
        <time>2021-05-30T10:51:19.576Z</time>
      </trkpt>
      <trkpt lat="44.08297" lon="5.98625">
        <ele>527.1</ele>
        <time>2021-05-30T10:51:26.730Z</time>
      </trkpt>
      <trkpt lat="44.08299" lon="5.98621">
        <ele>527.4</ele>
        <time>2021-05-30T10:51:29.550Z</time>
      </trkpt>
      <trkpt lat="44.08286" lon="5.98601">
        <ele>528.3</ele>
        <time>2021-05-30T10:51:41.238Z</time>
      </trkpt>
      <trkpt lat="44.08291" lon="5.98589">
        <ele>529.1</ele>
        <time>2021-05-30T10:51:48.911Z</time>
      </trkpt>
      <trkpt lat="44.08287" lon="5.98565">
        <ele>530.4</ele>
        <time>2021-05-30T10:52:01.819Z</time>
      </trkpt>
      <trkpt lat="44.08279" lon="5.9856">
        <ele>530.4</ele>
        <time>2021-05-30T10:52:04.914Z</time>
      </trkpt>
      <trkpt lat="44.08277" lon="5.98569">
        <ele>529.8</ele>
        <time>2021-05-30T10:52:05.780Z</time>
      </trkpt>
      <trkpt lat="44.0826" lon="5.98565">
        <ele>529.5</ele>
        <time>2021-05-30T10:52:09.005Z</time>
      </trkpt>
      <trkpt lat="44.08255" lon="5.98547">
        <ele>530.4</ele>
        <time>2021-05-30T10:52:18.489Z</time>
      </trkpt>
      <trkpt lat="44.08224" lon="5.98541">
        <ele>531.9</ele>
        <time>2021-05-30T10:52:37.549Z</time>
      </trkpt>
      <trkpt lat="44.08214" lon="5.98526">
        <ele>533</ele>
        <time>2021-05-30T10:52:48.386Z</time>
      </trkpt>
      <trkpt lat="44.08215" lon="5.98514">
        <ele>533.4</ele>
        <time>2021-05-30T10:52:53.609Z</time>
      </trkpt>
      <trkpt lat="44.08198" lon="5.98506">
        <ele>534.1</ele>
        <time>2021-05-30T10:53:03.465Z</time>
      </trkpt>
      <trkpt lat="44.08192" lon="5.98482">
        <ele>535.1</ele>
        <time>2021-05-30T10:53:15.097Z</time>
      </trkpt>
      <trkpt lat="44.08186" lon="5.98492">
        <ele>534.8</ele>
        <time>2021-05-30T10:53:16.584Z</time>
      </trkpt>
      <trkpt lat="44.08172" lon="5.98497">
        <ele>535</ele>
        <time>2021-05-30T10:53:22.427Z</time>
      </trkpt>
      <trkpt lat="44.08125" lon="5.98472">
        <ele>537.8</ele>
        <time>2021-05-30T10:53:54.677Z</time>
      </trkpt>
      <trkpt lat="44.08111" lon="5.9847">
        <ele>538.6</ele>
        <time>2021-05-30T10:54:03.772Z</time>
      </trkpt>
      <trkpt lat="44.08089" lon="5.98481">
        <ele>539.7</ele>
        <time>2021-05-30T10:54:17.928Z</time>
      </trkpt>
      <trkpt lat="44.0805" lon="5.9847">
        <ele>544.8</ele>
        <time>2021-05-30T10:55:08.275Z</time>
      </trkpt>
      <trkpt lat="44.08001" lon="5.98474">
        <ele>551.9</ele>
        <time>2021-05-30T10:56:15.107Z</time>
      </trkpt>
      <trkpt lat="44.07997" lon="5.98485">
        <ele>553</ele>
        <time>2021-05-30T10:56:25.746Z</time>
      </trkpt>
      <trkpt lat="44.08005" lon="5.98547">
        <ele>557.2</ele>
        <time>2021-05-30T10:57:04.569Z</time>
      </trkpt>
      <trkpt lat="44.0805" lon="5.98596">
        <ele>553.1</ele>
        <time>2021-05-30T10:57:11.878Z</time>
      </trkpt>
      <trkpt lat="44.08069" lon="5.98593">
        <ele>549.5</ele>
        <time>2021-05-30T10:57:14.324Z</time>
      </trkpt>
      <trkpt lat="44.08082" lon="5.98602">
        <ele>548</ele>
        <time>2021-05-30T10:57:16.182Z</time>
      </trkpt>
      <trkpt lat="44.0812" lon="5.9865">
        <ele>546.2</ele>
        <time>2021-05-30T10:57:24.089Z</time>
      </trkpt>
      <trkpt lat="44.08147" lon="5.9866">
        <ele>542.1</ele>
        <time>2021-05-30T10:57:27.664Z</time>
      </trkpt>
      <trkpt lat="44.0815" lon="5.98674">
        <ele>542.2</ele>
        <time>2021-05-30T10:57:31.723Z</time>
      </trkpt>
      <trkpt lat="44.08166" lon="5.98693">
        <ele>540.4</ele>
        <time>2021-05-30T10:57:34.414Z</time>
      </trkpt>
      <trkpt lat="44.08155" lon="5.98697">
        <ele>542</ele>
        <time>2021-05-30T10:57:49.894Z</time>
      </trkpt>
      <trkpt lat="44.08155" lon="5.98721">
        <ele>542.8</ele>
        <time>2021-05-30T10:58:00.290Z</time>
      </trkpt>
      <trkpt lat="44.0816" lon="5.98728">
        <ele>542.6</ele>
        <time>2021-05-30T10:58:01.463Z</time>
      </trkpt>
      <trkpt lat="44.08158" lon="5.9874">
        <ele>543.2</ele>
        <time>2021-05-30T10:58:07.647Z</time>
      </trkpt>
      <trkpt lat="44.08151" lon="5.98742">
        <ele>543.7</ele>
        <time>2021-05-30T10:58:12.722Z</time>
      </trkpt>
      <trkpt lat="44.08163" lon="5.98788">
        <ele>539.9</ele>
        <time>2021-05-30T10:58:17.219Z</time>
      </trkpt>
      <trkpt lat="44.08151" lon="5.98783">
        <ele>540.6</ele>
        <time>2021-05-30T10:58:25.261Z</time>
      </trkpt>
      <trkpt lat="44.08149" lon="5.98794">
        <ele>539.5</ele>
        <time>2021-05-30T10:58:26.304Z</time>
      </trkpt>
      <trkpt lat="44.08153" lon="5.98802">
        <ele>538.6</ele>
        <time>2021-05-30T10:58:27.200Z</time>
      </trkpt>
      <trkpt lat="44.08145" lon="5.98805">
        <ele>538.3</ele>
        <time>2021-05-30T10:58:28.462Z</time>
      </trkpt>
      <trkpt lat="44.08097" lon="5.98748">
        <ele>547.3</ele>
        <time>2021-05-30T10:59:54.368Z</time>
      </trkpt>
      <trkpt lat="44.0809" lon="5.98723">
        <ele>549.3</ele>
        <time>2021-05-30T11:00:12.735Z</time>
      </trkpt>
      <trkpt lat="44.08065" lon="5.98697">
        <ele>552.6</ele>
        <time>2021-05-30T11:00:43.082Z</time>
      </trkpt>
      <trkpt lat="44.08048" lon="5.98648">
        <ele>556</ele>
        <time>2021-05-30T11:01:14.925Z</time>
      </trkpt>
      <trkpt lat="44.08026" lon="5.98631">
        <ele>558</ele>
        <time>2021-05-30T11:01:34.176Z</time>
      </trkpt>
      <trkpt lat="44.07985" lon="5.98566">
        <ele>561.9</ele>
        <time>2021-05-30T11:02:16.031Z</time>
      </trkpt>
      <trkpt lat="44.07981" lon="5.98548">
        <ele>560.8</ele>
        <time>2021-05-30T11:02:17.763Z</time>
      </trkpt>
      <trkpt lat="44.07976" lon="5.9855">
        <ele>561.6</ele>
        <time>2021-05-30T11:02:24.846Z</time>
      </trkpt>
      <trkpt lat="44.0796" lon="5.98526">
        <ele>562.3</ele>
        <time>2021-05-30T11:02:36.261Z</time>
      </trkpt>
      <trkpt lat="44.07958" lon="5.98506">
        <ele>561.4</ele>
        <time>2021-05-30T11:02:38.023Z</time>
      </trkpt>
      <trkpt lat="44.07939" lon="5.98508">
        <ele>565</ele>
        <time>2021-05-30T11:03:03.967Z</time>
      </trkpt>
      <trkpt lat="44.07926" lon="5.98502">
        <ele>567.3</ele>
        <time>2021-05-30T11:03:22.615Z</time>
      </trkpt>
      <trkpt lat="44.07926" lon="5.98485">
        <ele>565.1</ele>
        <time>2021-05-30T11:03:24.178Z</time>
      </trkpt>
      <trkpt lat="44.07912" lon="5.98464">
        <ele>563.9</ele>
        <time>2021-05-30T11:03:26.753Z</time>
      </trkpt>
      <trkpt lat="44.07922" lon="5.98453">
        <ele>561</ele>
        <time>2021-05-30T11:03:28.384Z</time>
      </trkpt>
      <trkpt lat="44.07909" lon="5.98417">
        <ele>557.1</ele>
        <time>2021-05-30T11:03:32.087Z</time>
      </trkpt>
      <trkpt lat="44.07896" lon="5.98411">
        <ele>558</ele>
        <time>2021-05-30T11:03:41.511Z</time>
      </trkpt>
      <trkpt lat="44.0788" lon="5.98425">
        <ele>562</ele>
        <time>2021-05-30T11:04:07.243Z</time>
      </trkpt>
      <trkpt lat="44.07864" lon="5.98411">
        <ele>562.1</ele>
        <time>2021-05-30T11:04:14.254Z</time>
      </trkpt>
      <trkpt lat="44.07854" lon="5.98387">
        <ele>559.4</ele>
        <time>2021-05-30T11:04:16.804Z</time>
      </trkpt>
      <trkpt lat="44.07825" lon="5.98356">
        <ele>556.4</ele>
        <time>2021-05-30T11:04:21.482Z</time>
      </trkpt>
      <trkpt lat="44.07791" lon="5.98356">
        <ele>557.6</ele>
        <time>2021-05-30T11:04:39.218Z</time>
      </trkpt>
      <trkpt lat="44.0775" lon="5.98333">
        <ele>554.9</ele>
        <time>2021-05-30T11:04:44.628Z</time>
      </trkpt>
      <trkpt lat="44.07747" lon="5.98323">
        <ele>553.1</ele>
        <time>2021-05-30T11:04:45.624Z</time>
      </trkpt>
      <trkpt lat="44.07686" lon="5.98292">
        <ele>548.2</ele>
        <time>2021-05-30T11:04:53.933Z</time>
      </trkpt>
      <trkpt lat="44.07677" lon="5.98293">
        <ele>548.6</ele>
        <time>2021-05-30T11:04:59.296Z</time>
      </trkpt>
      <trkpt lat="44.07653" lon="5.98276">
        <ele>545.8</ele>
        <time>2021-05-30T11:05:02.742Z</time>
      </trkpt>
      <trkpt lat="44.07642" lon="5.98258">
        <ele>542.7</ele>
        <time>2021-05-30T11:05:04.914Z</time>
      </trkpt>
      <trkpt lat="44.07582" lon="5.98241">
        <ele>543.9</ele>
        <time>2021-05-30T11:05:31.258Z</time>
      </trkpt>
      <trkpt lat="44.0754" lon="5.9825">
        <ele>549.1</ele>
        <time>2021-05-30T11:06:21.140Z</time>
      </trkpt>
      <trkpt lat="44.075" lon="5.98222">
        <ele>544.6</ele>
        <time>2021-05-30T11:06:26.868Z</time>
      </trkpt>
      <trkpt lat="44.07452" lon="5.98207">
        <ele>540.7</ele>
        <time>2021-05-30T11:06:33.162Z</time>
      </trkpt>
      <trkpt lat="44.07415" lon="5.98214">
        <ele>541.9</ele>
        <time>2021-05-30T11:06:51.842Z</time>
      </trkpt>
      <trkpt lat="44.07403" lon="5.98209">
        <ele>540.8</ele>
        <time>2021-05-30T11:06:53.445Z</time>
      </trkpt>
      <trkpt lat="44.07372" lon="5.98214">
        <ele>540.7</ele>
        <time>2021-05-30T11:07:03.946Z</time>
      </trkpt>
      <trkpt lat="44.07253" lon="5.98153">
        <ele>534.3</ele>
        <time>2021-05-30T11:07:20.889Z</time>
      </trkpt>
      <trkpt lat="44.07223" lon="5.98132">
        <ele>528</ele>
        <time>2021-05-30T11:07:25.186Z</time>
      </trkpt>
      <trkpt lat="44.07195" lon="5.98125">
        <ele>523.9</ele>
        <time>2021-05-30T11:07:28.825Z</time>
      </trkpt>
      <trkpt lat="44.07186" lon="5.98138">
        <ele>523.8</ele>
        <time>2021-05-30T11:07:31.574Z</time>
      </trkpt>
      <trkpt lat="44.07189" lon="5.98158">
        <ele>525.8</ele>
        <time>2021-05-30T11:07:51.561Z</time>
      </trkpt>
      <trkpt lat="44.07212" lon="5.98178">
        <ele>528.7</ele>
        <time>2021-05-30T11:08:18.260Z</time>
      </trkpt>
      <trkpt lat="44.07273" lon="5.98194">
        <ele>535</ele>
        <time>2021-05-30T11:09:16.084Z</time>
      </trkpt>
      <trkpt lat="44.07318" lon="5.98232">
        <ele>537.9</ele>
        <time>2021-05-30T11:09:49.695Z</time>
      </trkpt>
      <trkpt lat="44.0743" lon="5.9826">
        <ele>550</ele>
        <time>2021-05-30T11:11:41.027Z</time>
      </trkpt>
      <trkpt lat="44.07471" lon="5.98282">
        <ele>555.1</ele>
        <time>2021-05-30T11:12:28.850Z</time>
      </trkpt>
      <trkpt lat="44.07483" lon="5.98297">
        <ele>557.8</ele>
        <time>2021-05-30T11:12:50.811Z</time>
      </trkpt>
      <trkpt lat="44.07538" lon="5.98315">
        <ele>559</ele>
        <time>2021-05-30T11:13:15.573Z</time>
      </trkpt>
      <trkpt lat="44.07551" lon="5.98332">
        <ele>560.7</ele>
        <time>2021-05-30T11:13:31.231Z</time>
      </trkpt>
      <trkpt lat="44.07554" lon="5.98344">
        <ele>560.3</ele>
        <time>2021-05-30T11:13:32.525Z</time>
      </trkpt>
      <trkpt lat="44.07551" lon="5.98377">
        <ele>559.1</ele>
        <time>2021-05-30T11:13:35.725Z</time>
      </trkpt>
      <trkpt lat="44.07536" lon="5.984">
        <ele>558.4</ele>
        <time>2021-05-30T11:13:39.296Z</time>
      </trkpt>
      <trkpt lat="44.07523" lon="5.98435">
        <ele>554</ele>
        <time>2021-05-30T11:13:42.918Z</time>
      </trkpt>
      <trkpt lat="44.07506" lon="5.98447">
        <ele>550.4</ele>
        <time>2021-05-30T11:13:45.356Z</time>
      </trkpt>
      <trkpt lat="44.07482" lon="5.98496">
        <ele>536.4</ele>
        <time>2021-05-30T11:13:50.807Z</time>
      </trkpt>
      <trkpt lat="44.07463" lon="5.9857">
        <ele>519.6</ele>
        <time>2021-05-30T11:13:58.031Z</time>
      </trkpt>
      <trkpt lat="44.07471" lon="5.98648">
        <ele>510.7</ele>
        <time>2021-05-30T11:14:05.273Z</time>
      </trkpt>
      <trkpt lat="44.07503" lon="5.98712">
        <ele>509.2</ele>
        <time>2021-05-30T11:14:14.684Z</time>
      </trkpt>
      <trkpt lat="44.07519" lon="5.98725">
        <ele>511.2</ele>
        <time>2021-05-30T11:14:33.120Z</time>
      </trkpt>
      <trkpt lat="44.07534" lon="5.98748">
        <ele>510.9</ele>
        <time>2021-05-30T11:14:37.505Z</time>
      </trkpt>
      <trkpt lat="44.0754" lon="5.98767">
        <ele>510.1</ele>
        <time>2021-05-30T11:14:39.443Z</time>
      </trkpt>
      <trkpt lat="44.07553" lon="5.98778">
        <ele>511.8</ele>
        <time>2021-05-30T11:14:55.214Z</time>
      </trkpt>
      <trkpt lat="44.07555" lon="5.98804">
        <ele>509</ele>
        <time>2021-05-30T11:14:57.617Z</time>
      </trkpt>
      <trkpt lat="44.07564" lon="5.98807">
        <ele>510.6</ele>
        <time>2021-05-30T11:15:10.218Z</time>
      </trkpt>
      <trkpt lat="44.07582" lon="5.9883">
        <ele>511.2</ele>
        <time>2021-05-30T11:15:21.347Z</time>
      </trkpt>
      <trkpt lat="44.07677" lon="5.98905">
        <ele>516.2</ele>
        <time>2021-05-30T11:16:26.947Z</time>
      </trkpt>
      <trkpt lat="44.07712" lon="5.98917">
        <ele>520.1</ele>
        <time>2021-05-30T11:17:02.908Z</time>
      </trkpt>
      <trkpt lat="44.07738" lon="5.98917">
        <ele>524.8</ele>
        <time>2021-05-30T11:17:38.309Z</time>
      </trkpt>
      <trkpt lat="44.07764" lon="5.98927">
        <ele>526.7</ele>
        <time>2021-05-30T11:17:57.534Z</time>
      </trkpt>
      <trkpt lat="44.07782" lon="5.98949">
        <ele>525</ele>
        <time>2021-05-30T11:18:00.598Z</time>
      </trkpt>
      <trkpt lat="44.07788" lon="5.9895">
        <ele>525.7</ele>
        <time>2021-05-30T11:18:07.158Z</time>
      </trkpt>
      <trkpt lat="44.07793" lon="5.98938">
        <ele>528.5</ele>
        <time>2021-05-30T11:18:20.727Z</time>
      </trkpt>
      <trkpt lat="44.07791" lon="5.98878">
        <ele>541</ele>
        <time>2021-05-30T11:19:19.480Z</time>
      </trkpt>
      <trkpt lat="44.07796" lon="5.98868">
        <ele>543.8</ele>
        <time>2021-05-30T11:19:31.398Z</time>
      </trkpt>
      <trkpt lat="44.07823" lon="5.98883">
        <ele>542.9</ele>
        <time>2021-05-30T11:19:36.069Z</time>
      </trkpt>
      <trkpt lat="44.07818" lon="5.98865">
        <ele>546.3</ele>
        <time>2021-05-30T11:19:54.946Z</time>
      </trkpt>
      <trkpt lat="44.07827" lon="5.98871">
        <ele>545.8</ele>
        <time>2021-05-30T11:19:56.284Z</time>
      </trkpt>
      <trkpt lat="44.07828" lon="5.98861">
        <ele>547.9</ele>
        <time>2021-05-30T11:20:06.160Z</time>
      </trkpt>
      <trkpt lat="44.07814" lon="5.98834">
        <ele>552.7</ele>
        <time>2021-05-30T11:20:38.731Z</time>
      </trkpt>
      <trkpt lat="44.07789" lon="5.98805">
        <ele>557.2</ele>
        <time>2021-05-30T11:21:23.041Z</time>
      </trkpt>
      <trkpt lat="44.07777" lon="5.98714">
        <ele>574.2</ele>
        <time>2021-05-30T11:22:53.540Z</time>
      </trkpt>
      <trkpt lat="44.07762" lon="5.98681">
        <ele>581.9</ele>
        <time>2021-05-30T11:23:31.738Z</time>
      </trkpt>
      <trkpt lat="44.07708" lon="5.98607">
        <ele>580</ele>
        <time>2021-05-30T11:23:44.709Z</time>
      </trkpt>
      <trkpt lat="44.07694" lon="5.98569">
        <ele>579</ele>
        <time>2021-05-30T11:23:49.557Z</time>
      </trkpt>
      <trkpt lat="44.07699" lon="5.98541">
        <ele>576.7</ele>
        <time>2021-05-30T11:23:52.209Z</time>
      </trkpt>
      <trkpt lat="44.07742" lon="5.98534">
        <ele>578.1</ele>
        <time>2021-05-30T11:24:13.924Z</time>
      </trkpt>
      <trkpt lat="44.07763" lon="5.98549">
        <ele>579.3</ele>
        <time>2021-05-30T11:24:28.573Z</time>
      </trkpt>
      <trkpt lat="44.07795" lon="5.98556">
        <ele>576.7</ele>
        <time>2021-05-30T11:24:32.718Z</time>
      </trkpt>
      <trkpt lat="44.07867" lon="5.98618">
        <ele>568.5</ele>
        <time>2021-05-30T11:24:43.550Z</time>
      </trkpt>
      <trkpt lat="44.07885" lon="5.98642">
        <ele>565.3</ele>
        <time>2021-05-30T11:24:46.739Z</time>
      </trkpt>
      <trkpt lat="44.07917" lon="5.98667">
        <ele>559</ele>
        <time>2021-05-30T11:24:51.433Z</time>
      </trkpt>
      <trkpt lat="44.07924" lon="5.98694">
        <ele>556.6</ele>
        <time>2021-05-30T11:24:54.072Z</time>
      </trkpt>
      <trkpt lat="44.07991" lon="5.98748">
        <ele>547</ele>
        <time>2021-05-30T11:25:03.977Z</time>
      </trkpt>
      <trkpt lat="44.08019" lon="5.98781">
        <ele>542.6</ele>
        <time>2021-05-30T11:25:08.671Z</time>
      </trkpt>
      <trkpt lat="44.07981" lon="5.9878">
        <ele>544.9</ele>
        <time>2021-05-30T11:25:33.866Z</time>
      </trkpt>
      <trkpt lat="44.07975" lon="5.98788">
        <ele>545.1</ele>
        <time>2021-05-30T11:25:37.629Z</time>
      </trkpt>
      <trkpt lat="44.07981" lon="5.98814">
        <ele>542.2</ele>
        <time>2021-05-30T11:25:40.139Z</time>
      </trkpt>
      <trkpt lat="44.08015" lon="5.98868">
        <ele>538</ele>
        <time>2021-05-30T11:25:46.738Z</time>
      </trkpt>
      <trkpt lat="44.08036" lon="5.98874">
        <ele>535.9</ele>
        <time>2021-05-30T11:25:49.481Z</time>
      </trkpt>
      <trkpt lat="44.08074" lon="5.98921">
        <ele>529.6</ele>
        <time>2021-05-30T11:25:55.984Z</time>
      </trkpt>
      <trkpt lat="44.08045" lon="5.98931">
        <ele>534.5</ele>
        <time>2021-05-30T11:26:36.664Z</time>
      </trkpt>
      <trkpt lat="44.08042" lon="5.98942">
        <ele>534.7</ele>
        <time>2021-05-30T11:26:40.473Z</time>
      </trkpt>
      <trkpt lat="44.08057" lon="5.98971">
        <ele>531.2</ele>
        <time>2021-05-30T11:26:43.758Z</time>
      </trkpt>
      <trkpt lat="44.08064" lon="5.98998">
        <ele>529.3</ele>
        <time>2021-05-30T11:26:46.396Z</time>
      </trkpt>
      <trkpt lat="44.0808" lon="5.99018">
        <ele>525.2</ele>
        <time>2021-05-30T11:26:49.147Z</time>
      </trkpt>
      <trkpt lat="44.08083" lon="5.99029">
        <ele>524</ele>
        <time>2021-05-30T11:26:50.229Z</time>
      </trkpt>
      <trkpt lat="44.0809" lon="5.99032">
        <ele>522.8</ele>
        <time>2021-05-30T11:26:51.166Z</time>
      </trkpt>
      <trkpt lat="44.081" lon="5.99022">
        <ele>522.1</ele>
        <time>2021-05-30T11:26:52.725Z</time>
      </trkpt>
      <trkpt lat="44.08127" lon="5.99046">
        <ele>516.3</ele>
        <time>2021-05-30T11:26:56.823Z</time>
      </trkpt>
      <trkpt lat="44.08178" lon="5.99131">
        <ele>500.5</ele>
        <time>2021-05-30T11:27:07.002Z</time>
      </trkpt>
      <trkpt lat="44.08195" lon="5.9914">
        <ele>498.3</ele>
        <time>2021-05-30T11:27:09.329Z</time>
      </trkpt>
      <trkpt lat="44.08171" lon="5.99171">
        <ele>496.1</ele>
        <time>2021-05-30T11:27:13.518Z</time>
      </trkpt>
      <trkpt lat="44.0816" lon="5.99175">
        <ele>496.3</ele>
        <time>2021-05-30T11:27:18.302Z</time>
      </trkpt>
      <trkpt lat="44.08152" lon="5.99188">
        <ele>495</ele>
        <time>2021-05-30T11:27:19.875Z</time>
      </trkpt>
      <trkpt lat="44.08078" lon="5.99172">
        <ele>503.4</ele>
        <time>2021-05-30T11:28:37.869Z</time>
      </trkpt>
      <trkpt lat="44.08041" lon="5.99145">
        <ele>511.7</ele>
        <time>2021-05-30T11:29:34.750Z</time>
      </trkpt>
      <trkpt lat="44.07997" lon="5.99141">
        <ele>515.8</ele>
        <time>2021-05-30T11:30:12.637Z</time>
      </trkpt>
      <trkpt lat="44.07955" lon="5.99154">
        <ele>511.8</ele>
        <time>2021-05-30T11:30:18.142Z</time>
      </trkpt>
      <trkpt lat="44.07926" lon="5.99184">
        <ele>505.6</ele>
        <time>2021-05-30T11:30:22.765Z</time>
      </trkpt>
      <trkpt lat="44.07923" lon="5.99194">
        <ele>504</ele>
        <time>2021-05-30T11:30:23.761Z</time>
      </trkpt>
      <trkpt lat="44.07906" lon="5.9921">
        <ele>500</ele>
        <time>2021-05-30T11:30:26.386Z</time>
      </trkpt>
      <trkpt lat="44.07894" lon="5.99209">
        <ele>498.8</ele>
        <time>2021-05-30T11:30:27.924Z</time>
      </trkpt>
      <trkpt lat="44.07891" lon="5.99214">
        <ele>497.8</ele>
        <time>2021-05-30T11:30:28.523Z</time>
      </trkpt>
      <trkpt lat="44.07909" lon="5.9923">
        <ele>497.3</ele>
        <time>2021-05-30T11:30:32.247Z</time>
      </trkpt>
      <trkpt lat="44.07933" lon="5.99271">
        <ele>493.4</ele>
        <time>2021-05-30T11:30:37.108Z</time>
      </trkpt>
      <trkpt lat="44.07942" lon="5.9927">
        <ele>493.7</ele>
        <time>2021-05-30T11:30:41.690Z</time>
      </trkpt>
      <trkpt lat="44.07941" lon="5.99212">
        <ele>501.8</ele>
        <time>2021-05-30T11:31:38.438Z</time>
      </trkpt>
      <trkpt lat="44.07946" lon="5.99189">
        <ele>505.6</ele>
        <time>2021-05-30T11:32:01.942Z</time>
      </trkpt>
      <trkpt lat="44.07973" lon="5.99163">
        <ele>510.7</ele>
        <time>2021-05-30T11:32:46.644Z</time>
      </trkpt>
      <trkpt lat="44.07979" lon="5.99166">
        <ele>510.4</ele>
        <time>2021-05-30T11:32:47.522Z</time>
      </trkpt>
      <trkpt lat="44.07987" lon="5.99183">
        <ele>508</ele>
        <time>2021-05-30T11:32:49.390Z</time>
      </trkpt>
      <trkpt lat="44.07997" lon="5.99169">
        <ele>510.5</ele>
        <time>2021-05-30T11:33:08.701Z</time>
      </trkpt>
      <trkpt lat="44.08001" lon="5.99184">
        <ele>508.2</ele>
        <time>2021-05-30T11:33:10.171Z</time>
      </trkpt>
      <trkpt lat="44.08025" lon="5.99191">
        <ele>504.8</ele>
        <time>2021-05-30T11:33:13.309Z</time>
      </trkpt>
      <trkpt lat="44.08039" lon="5.99214">
        <ele>499.5</ele>
        <time>2021-05-30T11:33:16.079Z</time>
      </trkpt>
      <trkpt lat="44.08068" lon="5.99238">
        <ele>492.1</ele>
        <time>2021-05-30T11:33:20.396Z</time>
      </trkpt>
      <trkpt lat="44.08072" lon="5.99254">
        <ele>488.9</ele>
        <time>2021-05-30T11:33:21.953Z</time>
      </trkpt>
      <trkpt lat="44.08067" lon="5.99265">
        <ele>488.4</ele>
        <time>2021-05-30T11:33:23.171Z</time>
      </trkpt>
      <trkpt lat="44.08058" lon="5.99268">
        <ele>489</ele>
        <time>2021-05-30T11:33:29.498Z</time>
      </trkpt>
      <trkpt lat="44.08044" lon="5.99316">
        <ele>484.9</ele>
        <time>2021-05-30T11:33:34.259Z</time>
      </trkpt>
      <trkpt lat="44.08026" lon="5.99351">
        <ele>481.9</ele>
        <time>2021-05-30T11:33:38.215Z</time>
      </trkpt>
      <trkpt lat="44.08011" lon="5.994">
        <ele>474.8</ele>
        <time>2021-05-30T11:33:43.111Z</time>
      </trkpt>
      <trkpt lat="44.08017" lon="5.99469">
        <ele>471.3</ele>
        <time>2021-05-30T11:33:49.499Z</time>
      </trkpt>
      <trkpt lat="44.08061" lon="5.99541">
        <ele>481.2</ele>
        <time>2021-05-30T11:35:21.959Z</time>
      </trkpt>
      <trkpt lat="44.08066" lon="5.99559">
        <ele>482.8</ele>
        <time>2021-05-30T11:35:36.934Z</time>
      </trkpt>
      <trkpt lat="44.0809" lon="5.99564">
        <ele>486.5</ele>
        <time>2021-05-30T11:36:09.976Z</time>
      </trkpt>
      <trkpt lat="44.08137" lon="5.99613">
        <ele>489.8</ele>
        <time>2021-05-30T11:36:47.755Z</time>
      </trkpt>
      <trkpt lat="44.08157" lon="5.99602">
        <ele>492.3</ele>
        <time>2021-05-30T11:37:11.212Z</time>
      </trkpt>
      <trkpt lat="44.08207" lon="5.99629">
        <ele>496</ele>
        <time>2021-05-30T11:37:49.019Z</time>
      </trkpt>
      <trkpt lat="44.08225" lon="5.99623">
        <ele>499.4</ele>
        <time>2021-05-30T11:38:14.221Z</time>
      </trkpt>
      <trkpt lat="44.08229" lon="5.99671">
        <ele>492.9</ele>
        <time>2021-05-30T11:38:18.662Z</time>
      </trkpt>
      <trkpt lat="44.08254" lon="5.99688">
        <ele>494.7</ele>
        <time>2021-05-30T11:38:37.665Z</time>
      </trkpt>
      <trkpt lat="44.08277" lon="5.99694">
        <ele>497.5</ele>
        <time>2021-05-30T11:39:04.236Z</time>
      </trkpt>
      <trkpt lat="44.08289" lon="5.99704">
        <ele>498.6</ele>
        <time>2021-05-30T11:39:14.863Z</time>
      </trkpt>
      <trkpt lat="44.08334" lon="5.99703">
        <ele>504.4</ele>
        <time>2021-05-30T11:40:12.353Z</time>
      </trkpt>
      <trkpt lat="44.08357" lon="5.99695">
        <ele>508.7</ele>
        <time>2021-05-30T11:40:44.632Z</time>
      </trkpt>
      <trkpt lat="44.08372" lon="5.99706">
        <ele>510.2</ele>
        <time>2021-05-30T11:40:58.624Z</time>
      </trkpt>
      <trkpt lat="44.08383" lon="5.99706">
        <ele>512</ele>
        <time>2021-05-30T11:41:13.602Z</time>
      </trkpt>
      <trkpt lat="44.08415" lon="5.99678">
        <ele>521</ele>
        <time>2021-05-30T11:42:05.064Z</time>
      </trkpt>
      <trkpt lat="44.0844" lon="5.99666">
        <ele>525</ele>
        <time>2021-05-30T11:42:41.070Z</time>
      </trkpt>
      <trkpt lat="44.08446" lon="5.99656">
        <ele>526.4</ele>
        <time>2021-05-30T11:42:53.814Z</time>
      </trkpt>
      <trkpt lat="44.08443" lon="5.99643">
        <ele>527.2</ele>
        <time>2021-05-30T11:43:01.447Z</time>
      </trkpt>
      <trkpt lat="44.08468" lon="5.99621">
        <ele>530.7</ele>
        <time>2021-05-30T11:43:34.505Z</time>
      </trkpt>
      <trkpt lat="44.08496" lon="5.99608">
        <ele>533.3</ele>
        <time>2021-05-30T11:43:58.782Z</time>
      </trkpt>
      <trkpt lat="44.08559" lon="5.99608">
        <ele>538.9</ele>
        <time>2021-05-30T11:44:50.965Z</time>
      </trkpt>
      <trkpt lat="44.08565" lon="5.99571">
        <ele>539.6</ele>
        <time>2021-05-30T11:45:03.543Z</time>
      </trkpt>
      <trkpt lat="44.08572" lon="5.99562">
        <ele>539.6</ele>
        <time>2021-05-30T11:45:06.907Z</time>
      </trkpt>
      <trkpt lat="44.08567" lon="5.99577">
        <ele>540.2</ele>
        <time>2021-05-30T11:45:14.263Z</time>
      </trkpt>
      <trkpt lat="44.08585" lon="5.99587">
        <ele>542</ele>
        <time>2021-05-30T11:45:30.900Z</time>
      </trkpt>
      <trkpt lat="44.08593" lon="5.996">
        <ele>542.4</ele>
        <time>2021-05-30T11:45:37.083Z</time>
      </trkpt>
      <trkpt lat="44.08599" lon="5.996">
        <ele>543</ele>
        <time>2021-05-30T11:45:42.591Z</time>
      </trkpt>
      <trkpt lat="44.08609" lon="5.99582">
        <ele>544.1</ele>
        <time>2021-05-30T11:45:53.969Z</time>
      </trkpt>
      <trkpt lat="44.08652" lon="5.99558">
        <ele>547.2</ele>
        <time>2021-05-30T11:46:26.129Z</time>
      </trkpt>
      <trkpt lat="44.08693" lon="5.99553">
        <ele>552.1</ele>
        <time>2021-05-30T11:47:12.526Z</time>
      </trkpt>
      <trkpt lat="44.08709" lon="5.99562">
        <ele>554.4</ele>
        <time>2021-05-30T11:47:35.971Z</time>
      </trkpt>
      <trkpt lat="44.08737" lon="5.99557">
        <ele>558</ele>
        <time>2021-05-30T11:48:11.385Z</time>
      </trkpt>
      <trkpt lat="44.08747" lon="5.99546">
        <ele>558.8</ele>
        <time>2021-05-30T11:48:19.970Z</time>
      </trkpt>
      <trkpt lat="44.08776" lon="5.99559">
        <ele>562.4</ele>
        <time>2021-05-30T11:48:53.952Z</time>
      </trkpt>
      <trkpt lat="44.08812" lon="5.99549">
        <ele>565</ele>
        <time>2021-05-30T11:49:20.192Z</time>
      </trkpt>
      <trkpt lat="44.08847" lon="5.99557">
        <ele>568.9</ele>
        <time>2021-05-30T11:49:56.250Z</time>
      </trkpt>
      <trkpt lat="44.08908" lon="5.99582">
        <ele>578.8</ele>
        <time>2021-05-30T11:51:22.830Z</time>
      </trkpt>
      <trkpt lat="44.08945" lon="5.99578">
        <ele>579.9</ele>
        <time>2021-05-30T11:51:40.813Z</time>
      </trkpt>
      <trkpt lat="44.08956" lon="5.99569">
        <ele>578.5</ele>
        <time>2021-05-30T11:51:42.446Z</time>
      </trkpt>
      <trkpt lat="44.09005" lon="5.99559">
        <ele>578.6</ele>
        <time>2021-05-30T11:52:00.257Z</time>
      </trkpt>
      <trkpt lat="44.09022" lon="5.99546">
        <ele>577.3</ele>
        <time>2021-05-30T11:52:02.739Z</time>
      </trkpt>
      <trkpt lat="44.09085" lon="5.99548">
        <ele>581.6</ele>
        <time>2021-05-30T11:52:46.914Z</time>
      </trkpt>
      <trkpt lat="44.09163" lon="5.99591">
        <ele>585.3</ele>
        <time>2021-05-30T11:53:36.601Z</time>
      </trkpt>
      <trkpt lat="44.09189" lon="5.99587">
        <ele>582.5</ele>
        <time>2021-05-30T11:53:39.948Z</time>
      </trkpt>
      <trkpt lat="44.09194" lon="5.99591">
        <ele>582.5</ele>
        <time>2021-05-30T11:53:41.983Z</time>
      </trkpt>
      <trkpt lat="44.09213" lon="5.99585">
        <ele>580.2</ele>
        <time>2021-05-30T11:53:44.476Z</time>
      </trkpt>
      <trkpt lat="44.09212" lon="5.99598">
        <ele>581.4</ele>
        <time>2021-05-30T11:53:56.297Z</time>
      </trkpt>
      <trkpt lat="44.09231" lon="5.99637">
        <ele>581.8</ele>
        <time>2021-05-30T11:54:09.696Z</time>
      </trkpt>
      <trkpt lat="44.09251" lon="5.99661">
        <ele>579.6</ele>
        <time>2021-05-30T11:54:13.074Z</time>
      </trkpt>
      <trkpt lat="44.0927" lon="5.99662">
        <ele>575.6</ele>
        <time>2021-05-30T11:54:15.507Z</time>
      </trkpt>
      <trkpt lat="44.09279" lon="5.99694">
        <ele>577.2</ele>
        <time>2021-05-30T11:54:32.381Z</time>
      </trkpt>
      <trkpt lat="44.093" lon="5.99701">
        <ele>572.8</ele>
        <time>2021-05-30T11:54:35.143Z</time>
      </trkpt>
      <trkpt lat="44.09308" lon="5.99728">
        <ele>573.5</ele>
        <time>2021-05-30T11:54:45.808Z</time>
      </trkpt>
      <trkpt lat="44.0932" lon="5.99717">
        <ele>569.2</ele>
        <time>2021-05-30T11:54:47.646Z</time>
      </trkpt>
      <trkpt lat="44.09327" lon="5.99733">
        <ele>568.6</ele>
        <time>2021-05-30T11:54:49.540Z</time>
      </trkpt>
      <trkpt lat="44.09338" lon="5.99736">
        <ele>565.9</ele>
        <time>2021-05-30T11:54:50.974Z</time>
      </trkpt>
      <trkpt lat="44.09352" lon="5.99758">
        <ele>563.9</ele>
        <time>2021-05-30T11:54:53.675Z</time>
      </trkpt>
      <trkpt lat="44.09364" lon="5.9976">
        <ele>560.9</ele>
        <time>2021-05-30T11:54:55.221Z</time>
      </trkpt>
      <trkpt lat="44.09371" lon="5.99772">
        <ele>560.1</ele>
        <time>2021-05-30T11:54:56.642Z</time>
      </trkpt>
      <trkpt lat="44.09373" lon="5.99789">
        <ele>561.1</ele>
        <time>2021-05-30T11:55:06.212Z</time>
      </trkpt>
      <trkpt lat="44.09394" lon="5.99828">
        <ele>558.4</ele>
        <time>2021-05-30T11:55:10.690Z</time>
      </trkpt>
      <trkpt lat="44.09394" lon="5.99852">
        <ele>559.6</ele>
        <time>2021-05-30T11:55:22.899Z</time>
      </trkpt>
      <trkpt lat="44.09402" lon="5.99894">
        <ele>558.8</ele>
        <time>2021-05-30T11:55:28.208Z</time>
      </trkpt>
      <trkpt lat="44.09505" lon="5.99949">
        <ele>522.8</ele>
        <time>2021-05-30T11:55:42.322Z</time>
      </trkpt>
      <trkpt lat="44.09518" lon="5.99946">
        <ele>520.8</ele>
        <time>2021-05-30T11:55:44.008Z</time>
      </trkpt>
      <trkpt lat="44.09523" lon="5.99937">
        <ele>520.5</ele>
        <time>2021-05-30T11:55:45.247Z</time>
      </trkpt>
      <trkpt lat="44.09487" lon="5.99869">
        <ele>532.2</ele>
        <time>2021-05-30T11:57:07.856Z</time>
      </trkpt>
      <trkpt lat="44.09489" lon="5.99835">
        <ele>532.8</ele>
        <time>2021-05-30T11:57:19.006Z</time>
      </trkpt>
      <trkpt lat="44.09495" lon="5.99827">
        <ele>531.4</ele>
        <time>2021-05-30T11:57:20.069Z</time>
      </trkpt>
      <trkpt lat="44.09558" lon="5.99802">
        <ele>522.1</ele>
        <time>2021-05-30T11:57:28.450Z</time>
      </trkpt>
      <trkpt lat="44.09602" lon="5.9976">
        <ele>519.3</ele>
        <time>2021-05-30T11:57:35.456Z</time>
      </trkpt>
      <trkpt lat="44.09682" lon="5.99739">
        <ele>515.4</ele>
        <time>2021-05-30T11:57:46.579Z</time>
      </trkpt>
      <trkpt lat="44.09714" lon="5.9974">
        <ele>512.8</ele>
        <time>2021-05-30T11:57:50.674Z</time>
      </trkpt>
      <trkpt lat="44.09781" lon="5.99708">
        <ele>511.5</ele>
        <time>2021-05-30T11:58:03.773Z</time>
      </trkpt>
      <trkpt lat="44.09881" lon="5.99627">
        <ele>511</ele>
        <time>2021-05-30T11:58:42.075Z</time>
      </trkpt>
      <trkpt lat="44.09896" lon="5.99591">
        <ele>511.3</ele>
        <time>2021-05-30T11:58:53.694Z</time>
      </trkpt>
      <trkpt lat="44.09904" lon="5.99548">
        <ele>510.7</ele>
        <time>2021-05-30T11:58:59.561Z</time>
      </trkpt>
      <trkpt lat="44.0991" lon="5.99539">
        <ele>510.2</ele>
        <time>2021-05-30T11:59:00.679Z</time>
      </trkpt>
      <trkpt lat="44.09997" lon="5.99546">
        <ele>503.5</ele>
        <time>2021-05-30T11:59:11.829Z</time>
      </trkpt>
      <trkpt lat="44.10028" lon="5.99519">
        <ele>504.9</ele>
        <time>2021-05-30T11:59:31.708Z</time>
      </trkpt>
      <trkpt lat="44.10042" lon="5.99492">
        <ele>506.5</ele>
        <time>2021-05-30T11:59:48.308Z</time>
      </trkpt>
      <trkpt lat="44.10048" lon="5.99429">
        <ele>510.3</ele>
        <time>2021-05-30T12:00:24.329Z</time>
      </trkpt>
      <trkpt lat="44.10056" lon="5.99417">
        <ele>511</ele>
        <time>2021-05-30T12:00:32.070Z</time>
      </trkpt>
      <trkpt lat="44.10198" lon="5.9943">
        <ele>510</ele>
        <time>2021-05-30T12:01:17.422Z</time>
      </trkpt>
      <trkpt lat="44.10267" lon="5.99429">
        <ele>510.1</ele>
        <time>2021-05-30T12:01:42.109Z</time>
      </trkpt>
      <trkpt lat="44.10348" lon="5.99419">
        <ele>511.5</ele>
        <time>2021-05-30T12:02:16.189Z</time>
      </trkpt>
      <trkpt lat="44.10473" lon="5.99368">
        <ele>519.2</ele>
        <time>2021-05-30T12:03:41.695Z</time>
      </trkpt>
      <trkpt lat="44.10512" lon="5.99346">
        <ele>521.7</ele>
        <time>2021-05-30T12:04:09.374Z</time>
      </trkpt>
      <trkpt lat="44.10594" lon="5.99286">
        <ele>524.4</ele>
        <time>2021-05-30T12:04:53.983Z</time>
      </trkpt>
      <trkpt lat="44.10768" lon="5.99128">
        <ele>533.6</ele>
        <time>2021-05-30T12:06:57.363Z</time>
      </trkpt>
      <trkpt lat="44.10788" lon="5.99101">
        <ele>534.6</ele>
        <time>2021-05-30T12:07:12.014Z</time>
      </trkpt>
      <trkpt lat="44.10798" lon="5.99078">
        <ele>535.9</ele>
        <time>2021-05-30T12:07:25.457Z</time>
      </trkpt>
      <trkpt lat="44.10796" lon="5.99054">
        <ele>537.9</ele>
        <time>2021-05-30T12:07:44.170Z</time>
      </trkpt>
      <trkpt lat="44.10766" lon="5.99018">
        <ele>545.2</ele>
        <time>2021-05-30T12:08:38.089Z</time>
      </trkpt>
      <trkpt lat="44.10762" lon="5.99005">
        <ele>546.8</ele>
        <time>2021-05-30T12:08:51.917Z</time>
      </trkpt>
      <trkpt lat="44.10741" lon="5.98978">
        <ele>550.4</ele>
        <time>2021-05-30T12:09:27.038Z</time>
      </trkpt>
      <trkpt lat="44.10704" lon="5.98914">
        <ele>556</ele>
        <time>2021-05-30T12:10:18.642Z</time>
      </trkpt>
      <trkpt lat="44.10654" lon="5.9886">
        <ele>559.8</ele>
        <time>2021-05-30T12:11:00.452Z</time>
      </trkpt>
      <trkpt lat="44.10645" lon="5.98841">
        <ele>560</ele>
        <time>2021-05-30T12:11:06.950Z</time>
      </trkpt>
      <trkpt lat="44.10644" lon="5.98811">
        <ele>560.2</ele>
        <time>2021-05-30T12:11:15.269Z</time>
      </trkpt>
      <trkpt lat="44.10648" lon="5.98806">
        <ele>559.6</ele>
        <time>2021-05-30T12:11:15.957Z</time>
      </trkpt>
      <trkpt lat="44.10656" lon="5.98816">
        <ele>557.8</ele>
        <time>2021-05-30T12:11:17.332Z</time>
      </trkpt>
      <trkpt lat="44.10671" lon="5.98815">
        <ele>555.2</ele>
        <time>2021-05-30T12:11:19.254Z</time>
      </trkpt>
      <trkpt lat="44.10677" lon="5.98802">
        <ele>554.9</ele>
        <time>2021-05-30T12:11:21.113Z</time>
      </trkpt>
      <trkpt lat="44.10675" lon="5.98781">
        <ele>556.2</ele>
        <time>2021-05-30T12:11:33.344Z</time>
      </trkpt>
      <trkpt lat="44.10705" lon="5.98709">
        <ele>558.2</ele>
        <time>2021-05-30T12:12:03.769Z</time>
      </trkpt>
      <trkpt lat="44.10749" lon="5.98695">
        <ele>553.1</ele>
        <time>2021-05-30T12:12:09.543Z</time>
      </trkpt>
      <trkpt lat="44.10762" lon="5.98679">
        <ele>554.8</ele>
        <time>2021-05-30T12:12:25.163Z</time>
      </trkpt>
      <trkpt lat="44.10799" lon="5.98661">
        <ele>557</ele>
        <time>2021-05-30T12:12:50.367Z</time>
      </trkpt>
      <trkpt lat="44.10836" lon="5.98632">
        <ele>559.7</ele>
        <time>2021-05-30T12:13:19.136Z</time>
      </trkpt>
      <trkpt lat="44.1084" lon="5.98597">
        <ele>562.2</ele>
        <time>2021-05-30T12:13:42.103Z</time>
      </trkpt>
      <trkpt lat="44.10833" lon="5.98545">
        <ele>565.4</ele>
        <time>2021-05-30T12:14:12.332Z</time>
      </trkpt>
      <trkpt lat="44.10851" lon="5.9852">
        <ele>564.9</ele>
        <time>2021-05-30T12:14:16.961Z</time>
      </trkpt>
      <trkpt lat="44.10866" lon="5.9853">
        <ele>563.3</ele>
        <time>2021-05-30T12:14:19.088Z</time>
      </trkpt>
      <trkpt lat="44.10903" lon="5.98636">
        <ele>553.9</ele>
        <time>2021-05-30T12:14:29.915Z</time>
      </trkpt>
      <trkpt lat="44.10934" lon="5.98683">
        <ele>549.9</ele>
        <time>2021-05-30T12:14:35.778Z</time>
      </trkpt>
      <trkpt lat="44.10947" lon="5.98687">
        <ele>550</ele>
        <time>2021-05-30T12:14:40.825Z</time>
      </trkpt>
      <trkpt lat="44.10988" lon="5.98656">
        <ele>553.7</ele>
        <time>2021-05-30T12:15:16.466Z</time>
      </trkpt>
      <trkpt lat="44.11023" lon="5.98644">
        <ele>555.6</ele>
        <time>2021-05-30T12:15:39.117Z</time>
      </trkpt>
      <trkpt lat="44.11129" lon="5.98644">
        <ele>554.2</ele>
        <time>2021-05-30T12:16:00.004Z</time>
      </trkpt>
      <trkpt lat="44.11206" lon="5.98597">
        <ele>556.3</ele>
        <time>2021-05-30T12:16:38.486Z</time>
      </trkpt>
      <trkpt lat="44.11271" lon="5.9857">
        <ele>555.5</ele>
        <time>2021-05-30T12:16:52.097Z</time>
      </trkpt>
      <trkpt lat="44.11385" lon="5.98564">
        <ele>547.6</ele>
        <time>2021-05-30T12:17:06.693Z</time>
      </trkpt>
      <trkpt lat="44.11406" lon="5.98556">
        <ele>546.9</ele>
        <time>2021-05-30T12:17:10.149Z</time>
      </trkpt>
      <trkpt lat="44.11423" lon="5.98557">
        <ele>545</ele>
        <time>2021-05-30T12:17:12.326Z</time>
      </trkpt>
      <trkpt lat="44.1148" lon="5.98535">
        <ele>541.6</ele>
        <time>2021-05-30T12:17:19.777Z</time>
      </trkpt>
      <trkpt lat="44.11531" lon="5.98505">
        <ele>539.3</ele>
        <time>2021-05-30T12:17:27.792Z</time>
      </trkpt>
      <trkpt lat="44.11537" lon="5.98489">
        <ele>539.5</ele>
        <time>2021-05-30T12:17:33.120Z</time>
      </trkpt>
      <trkpt lat="44.11536" lon="5.98444">
        <ele>542.4</ele>
        <time>2021-05-30T12:18:00.090Z</time>
      </trkpt>
      <trkpt lat="44.11539" lon="5.9844">
        <ele>542.1</ele>
        <time>2021-05-30T12:18:00.621Z</time>
      </trkpt>
      <trkpt lat="44.11576" lon="5.98456">
        <ele>534.5</ele>
        <time>2021-05-30T12:18:05.578Z</time>
      </trkpt>
      <trkpt lat="44.11595" lon="5.98457">
        <ele>531.6</ele>
        <time>2021-05-30T12:18:08.011Z</time>
      </trkpt>
      <trkpt lat="44.11619" lon="5.98442">
        <ele>529.9</ele>
        <time>2021-05-30T12:18:11.142Z</time>
      </trkpt>
      <trkpt lat="44.11664" lon="5.98381">
        <ele>531.5</ele>
        <time>2021-05-30T12:18:40.057Z</time>
      </trkpt>
      <trkpt lat="44.11694" lon="5.9837">
        <ele>529.5</ele>
        <time>2021-05-30T12:18:43.754Z</time>
      </trkpt>
      <trkpt lat="44.11702" lon="5.98348">
        <ele>531.1</ele>
        <time>2021-05-30T12:18:58.613Z</time>
      </trkpt>
      <trkpt lat="44.11698" lon="5.98314">
        <ele>535.2</ele>
        <time>2021-05-30T12:19:32.292Z</time>
      </trkpt>
      <trkpt lat="44.11708" lon="5.98286">
        <ele>536.6</ele>
        <time>2021-05-30T12:19:47.371Z</time>
      </trkpt>
      <trkpt lat="44.11737" lon="5.98237">
        <ele>536.4</ele>
        <time>2021-05-30T12:20:02.451Z</time>
      </trkpt>
      <trkpt lat="44.11793" lon="5.98192">
        <ele>529.4</ele>
        <time>2021-05-30T12:20:10.722Z</time>
      </trkpt>
      <trkpt lat="44.11826" lon="5.98151">
        <ele>524.8</ele>
        <time>2021-05-30T12:20:16.380Z</time>
      </trkpt>
      <trkpt lat="44.11846" lon="5.98144">
        <ele>521.5</ele>
        <time>2021-05-30T12:20:19.018Z</time>
      </trkpt>
      <trkpt lat="44.1186" lon="5.98152">
        <ele>518.8</ele>
        <time>2021-05-30T12:20:20.954Z</time>
      </trkpt>
      <trkpt lat="44.1187" lon="5.9815">
        <ele>517.3</ele>
        <time>2021-05-30T12:20:22.247Z</time>
      </trkpt>
      <trkpt lat="44.11882" lon="5.98132">
        <ele>515.8</ele>
        <time>2021-05-30T12:20:24.503Z</time>
      </trkpt>
      <trkpt lat="44.11893" lon="5.98091">
        <ele>514.3</ele>
        <time>2021-05-30T12:20:28.803Z</time>
      </trkpt>
      <trkpt lat="44.11892" lon="5.98066">
        <ele>514.8</ele>
        <time>2021-05-30T12:20:37.317Z</time>
      </trkpt>
      <trkpt lat="44.11912" lon="5.98035">
        <ele>509.7</ele>
        <time>2021-05-30T12:20:41.146Z</time>
      </trkpt>
      <trkpt lat="44.1191" lon="5.98024">
        <ele>510.1</ele>
        <time>2021-05-30T12:20:46.144Z</time>
      </trkpt>
      <trkpt lat="44.11876" lon="5.97996">
        <ele>520.3</ele>
        <time>2021-05-30T12:21:39.924Z</time>
      </trkpt>
      <trkpt lat="44.11875" lon="5.97987">
        <ele>520.9</ele>
        <time>2021-05-30T12:21:45.480Z</time>
      </trkpt>
      <trkpt lat="44.11867" lon="5.97995">
        <ele>523.1</ele>
        <time>2021-05-30T12:21:58.889Z</time>
      </trkpt>
      <trkpt lat="44.11846" lon="5.97996">
        <ele>529.4</ele>
        <time>2021-05-30T12:22:27.499Z</time>
      </trkpt>
      <trkpt lat="44.11869" lon="5.9799">
        <ele>522.6</ele>
        <time>2021-05-30T12:22:30.493Z</time>
      </trkpt>
      <trkpt lat="44.11868" lon="5.97978">
        <ele>523.3</ele>
        <time>2021-05-30T12:22:37.195Z</time>
      </trkpt>
      <trkpt lat="44.11849" lon="5.97946">
        <ele>530.5</ele>
        <time>2021-05-30T12:23:17.786Z</time>
      </trkpt>
      <trkpt lat="44.11843" lon="5.97953">
        <ele>532.2</ele>
        <time>2021-05-30T12:23:28.443Z</time>
      </trkpt>
      <trkpt lat="44.11835" lon="5.97929">
        <ele>535.9</ele>
        <time>2021-05-30T12:23:54.308Z</time>
      </trkpt>
      <trkpt lat="44.11845" lon="5.97924">
        <ele>532.8</ele>
        <time>2021-05-30T12:23:55.668Z</time>
      </trkpt>
      <trkpt lat="44.11837" lon="5.97883">
        <ele>533.1</ele>
        <time>2021-05-30T12:24:07.501Z</time>
      </trkpt>
      <trkpt lat="44.11841" lon="5.97875">
        <ele>531.4</ele>
        <time>2021-05-30T12:24:08.396Z</time>
      </trkpt>
      <trkpt lat="44.11896" lon="5.97859">
        <ele>516.3</ele>
        <time>2021-05-30T12:24:15.585Z</time>
      </trkpt>
      <trkpt lat="44.11899" lon="5.97908">
        <ele>515</ele>
        <time>2021-05-30T12:24:20.932Z</time>
      </trkpt>
      <trkpt lat="44.11903" lon="5.97913">
        <ele>513.7</ele>
        <time>2021-05-30T12:24:21.620Z</time>
      </trkpt>
      <trkpt lat="44.11915" lon="5.97895">
        <ele>510.3</ele>
        <time>2021-05-30T12:24:23.876Z</time>
      </trkpt>
      <trkpt lat="44.11927" lon="5.97889">
        <ele>507.7</ele>
        <time>2021-05-30T12:24:25.507Z</time>
      </trkpt>
      <trkpt lat="44.11937" lon="5.97905">
        <ele>505.1</ele>
        <time>2021-05-30T12:24:27.456Z</time>
      </trkpt>
      <trkpt lat="44.11948" lon="5.97907">
        <ele>502.7</ele>
        <time>2021-05-30T12:24:28.875Z</time>
      </trkpt>
      <trkpt lat="44.11964" lon="5.97895">
        <ele>499.4</ele>
        <time>2021-05-30T12:24:31.200Z</time>
      </trkpt>
      <trkpt lat="44.11963" lon="5.97881">
        <ele>499.6</ele>
        <time>2021-05-30T12:24:35.555Z</time>
      </trkpt>
      <trkpt lat="44.11974" lon="5.97872">
        <ele>497.1</ele>
        <time>2021-05-30T12:24:37.188Z</time>
      </trkpt>
      <trkpt lat="44.11992" lon="5.97795">
        <ele>488.4</ele>
        <time>2021-05-30T12:24:44.625Z</time>
      </trkpt>
      <trkpt lat="44.12003" lon="5.9779">
        <ele>485.6</ele>
        <time>2021-05-30T12:24:46.106Z</time>
      </trkpt>
      <trkpt lat="44.12016" lon="5.97803">
        <ele>485.3</ele>
        <time>2021-05-30T12:24:49.051Z</time>
      </trkpt>
      <trkpt lat="44.12023" lon="5.97825">
        <ele>485.9</ele>
        <time>2021-05-30T12:24:57.995Z</time>
      </trkpt>
      <trkpt lat="44.12023" lon="5.97873">
        <ele>486.8</ele>
        <time>2021-05-30T12:25:13.984Z</time>
      </trkpt>
      <trkpt lat="44.12014" lon="5.97895">
        <ele>488.8</ele>
        <time>2021-05-30T12:25:32.477Z</time>
      </trkpt>
      <trkpt lat="44.12012" lon="5.97916">
        <ele>489.5</ele>
        <time>2021-05-30T12:25:41.626Z</time>
      </trkpt>
      <trkpt lat="44.12038" lon="5.97945">
        <ele>485.1</ele>
        <time>2021-05-30T12:25:45.888Z</time>
      </trkpt>
      <trkpt lat="44.12042" lon="5.97965">
        <ele>484.9</ele>
        <time>2021-05-30T12:25:48.817Z</time>
      </trkpt>
      <trkpt lat="44.1204" lon="5.97927">
        <ele>484.1</ele>
        <time>2021-05-30T12:25:53.292Z</time>
      </trkpt>
      <trkpt lat="44.12049" lon="5.97914">
        <ele>482</ele>
        <time>2021-05-30T12:25:54.951Z</time>
      </trkpt>
      <trkpt lat="44.12068" lon="5.97941">
        <ele>479</ele>
        <time>2021-05-30T12:25:58.423Z</time>
      </trkpt>
      <trkpt lat="44.12091" lon="5.97952">
        <ele>476.4</ele>
        <time>2021-05-30T12:26:01.534Z</time>
      </trkpt>
      <trkpt lat="44.1211" lon="5.97951">
        <ele>476.8</ele>
        <time>2021-05-30T12:26:09.848Z</time>
      </trkpt>
      <trkpt lat="44.12184" lon="5.97913">
        <ele>484.7</ele>
        <time>2021-05-30T12:27:22.367Z</time>
      </trkpt>
      <trkpt lat="44.12283" lon="5.97896">
        <ele>493.1</ele>
        <time>2021-05-30T12:28:41.726Z</time>
      </trkpt>
      <trkpt lat="44.12309" lon="5.97874">
        <ele>497.3</ele>
        <time>2021-05-30T12:29:23.146Z</time>
      </trkpt>
      <trkpt lat="44.12318" lon="5.97857">
        <ele>500.7</ele>
        <time>2021-05-30T12:29:43.792Z</time>
      </trkpt>
      <trkpt lat="44.12323" lon="5.97792">
        <ele>508.5</ele>
        <time>2021-05-30T12:30:47.687Z</time>
      </trkpt>
      <trkpt lat="44.12336" lon="5.97709">
        <ele>512.8</ele>
        <time>2021-05-30T12:31:31.173Z</time>
      </trkpt>
      <trkpt lat="44.12331" lon="5.97697">
        <ele>512.7</ele>
        <time>2021-05-30T12:31:33.218Z</time>
      </trkpt>
      <trkpt lat="44.12284" lon="5.97659">
        <ele>506.1</ele>
        <time>2021-05-30T12:31:40.171Z</time>
      </trkpt>
      <trkpt lat="44.12273" lon="5.97642">
        <ele>504.9</ele>
        <time>2021-05-30T12:31:42.273Z</time>
      </trkpt>
      <trkpt lat="44.12273" lon="5.97623">
        <ele>505.4</ele>
        <time>2021-05-30T12:31:49.522Z</time>
      </trkpt>
      <trkpt lat="44.12271" lon="5.97646">
        <ele>504.5</ele>
        <time>2021-05-30T12:31:51.676Z</time>
      </trkpt>
      <trkpt lat="44.12276" lon="5.97608">
        <ele>506.2</ele>
        <time>2021-05-30T12:32:10.162Z</time>
      </trkpt>
      <trkpt lat="44.1229" lon="5.97581">
        <ele>509</ele>
        <time>2021-05-30T12:32:36.502Z</time>
      </trkpt>
      <trkpt lat="44.12319" lon="5.97494">
        <ele>523.6</ele>
        <time>2021-05-30T12:34:10.258Z</time>
      </trkpt>
      <trkpt lat="44.12334" lon="5.9741">
        <ele>539.2</ele>
        <time>2021-05-30T12:35:34.862Z</time>
      </trkpt>
      <trkpt lat="44.12359" lon="5.97371">
        <ele>539.2</ele>
        <time>2021-05-30T12:35:48.112Z</time>
      </trkpt>
      <trkpt lat="44.12366" lon="5.97347">
        <ele>540.1</ele>
        <time>2021-05-30T12:35:59.471Z</time>
      </trkpt>
      <trkpt lat="44.12366" lon="5.973">
        <ele>538.4</ele>
        <time>2021-05-30T12:36:03.982Z</time>
      </trkpt>
      <trkpt lat="44.12395" lon="5.97247">
        <ele>538.8</ele>
        <time>2021-05-30T12:36:22.269Z</time>
      </trkpt>
      <trkpt lat="44.12407" lon="5.97208">
        <ele>539.6</ele>
        <time>2021-05-30T12:36:36.428Z</time>
      </trkpt>
      <trkpt lat="44.12407" lon="5.97208">
        <ele>539.6</ele>
        <time>2021-05-30T12:36:36.428Z</time>
      </trkpt>
      <trkpt lat="44.12414" lon="5.97152">
        <ele>538.6</ele>
        <time>2021-05-30T12:36:43.456Z</time>
      </trkpt>
      <trkpt lat="44.1243" lon="5.97077">
        <ele>530.7</ele>
        <time>2021-05-30T12:36:50.642Z</time>
      </trkpt>
      <trkpt lat="44.1243" lon="5.97068">
        <ele>530.2</ele>
        <time>2021-05-30T12:36:51.469Z</time>
      </trkpt>
      <trkpt lat="44.12433" lon="5.97">
        <ele>527</ele>
        <time>2021-05-30T12:36:57.255Z</time>
      </trkpt>
      <trkpt lat="44.12416" lon="5.96945">
        <ele>530.6</ele>
        <time>2021-05-30T12:37:31.320Z</time>
      </trkpt>
      <trkpt lat="44.12383" lon="5.96912">
        <ele>530.2</ele>
        <time>2021-05-30T12:37:39.683Z</time>
      </trkpt>
      <trkpt lat="44.1236" lon="5.96877">
        <ele>531.5</ele>
        <time>2021-05-30T12:37:58.170Z</time>
      </trkpt>
      <trkpt lat="44.12336" lon="5.96864">
        <ele>530.3</ele>
        <time>2021-05-30T12:38:01.729Z</time>
      </trkpt>
      <trkpt lat="44.12294" lon="5.96849">
        <ele>531.2</ele>
        <time>2021-05-30T12:38:20.628Z</time>
      </trkpt>
      <trkpt lat="44.12299" lon="5.96821">
        <ele>534.9</ele>
        <time>2021-05-30T12:38:48.830Z</time>
      </trkpt>
      <trkpt lat="44.12313" lon="5.96789">
        <ele>539.9</ele>
        <time>2021-05-30T12:39:25.458Z</time>
      </trkpt>
      <trkpt lat="44.12316" lon="5.96759">
        <ele>544.6</ele>
        <time>2021-05-30T12:39:55.064Z</time>
      </trkpt>
      <trkpt lat="44.12276" lon="5.96751">
        <ele>545.8</ele>
        <time>2021-05-30T12:40:14.659Z</time>
      </trkpt>
      <trkpt lat="44.1224" lon="5.96742">
        <ele>545.7</ele>
        <time>2021-05-30T12:40:27.051Z</time>
      </trkpt>
      <trkpt lat="44.12202" lon="5.96736">
        <ele>541</ele>
        <time>2021-05-30T12:40:31.944Z</time>
      </trkpt>
      <trkpt lat="44.12155" lon="5.96734">
        <ele>537.8</ele>
        <time>2021-05-30T12:40:37.960Z</time>
      </trkpt>
      <trkpt lat="44.12128" lon="5.96723">
        <ele>541.9</ele>
        <time>2021-05-30T12:41:16.262Z</time>
      </trkpt>
      <trkpt lat="44.12128" lon="5.96682">
        <ele>543.1</ele>
        <time>2021-05-30T12:41:32.845Z</time>
      </trkpt>
      <trkpt lat="44.12131" lon="5.96631">
        <ele>545.8</ele>
        <time>2021-05-30T12:41:59.646Z</time>
      </trkpt>
      <trkpt lat="44.12128" lon="5.9657">
        <ele>551.9</ele>
        <time>2021-05-30T12:42:59.410Z</time>
      </trkpt>
      <trkpt lat="44.12151" lon="5.96513">
        <ele>552.3</ele>
        <time>2021-05-30T12:43:17.383Z</time>
      </trkpt>
      <trkpt lat="44.12188" lon="5.96467">
        <ele>550.7</ele>
        <time>2021-05-30T12:43:25.246Z</time>
      </trkpt>
      <trkpt lat="44.12231" lon="5.96444">
        <ele>549.8</ele>
        <time>2021-05-30T12:43:33.644Z</time>
      </trkpt>
      <trkpt lat="44.12253" lon="5.9642">
        <ele>548.7</ele>
        <time>2021-05-30T12:43:37.774Z</time>
      </trkpt>
      <trkpt lat="44.12285" lon="5.96384">
        <ele>556.2</ele>
        <time>2021-05-30T12:44:33.779Z</time>
      </trkpt>
      <trkpt lat="44.12305" lon="5.96337">
        <ele>560.2</ele>
        <time>2021-05-30T12:45:10.494Z</time>
      </trkpt>
      <trkpt lat="44.12299" lon="5.96272">
        <ele>563.5</ele>
        <time>2021-05-30T12:45:43.948Z</time>
      </trkpt>
      <trkpt lat="44.12248" lon="5.96238">
        <ele>565.5</ele>
        <time>2021-05-30T12:46:13.473Z</time>
      </trkpt>
      <trkpt lat="44.12188" lon="5.96221">
        <ele>566.7</ele>
        <time>2021-05-30T12:46:39.816Z</time>
      </trkpt>
      <trkpt lat="44.12139" lon="5.96195">
        <ele>575.4</ele>
        <time>2021-05-30T12:47:51.210Z</time>
      </trkpt>
      <trkpt lat="44.12072" lon="5.96176">
        <ele>590</ele>
        <time>2021-05-30T12:49:24.308Z</time>
      </trkpt>
      <trkpt lat="44.12017" lon="5.96169">
        <ele>594.7</ele>
        <time>2021-05-30T12:50:08.580Z</time>
      </trkpt>
      <trkpt lat="44.11973" lon="5.96144">
        <ele>588.2</ele>
        <time>2021-05-30T12:50:14.659Z</time>
      </trkpt>
      <trkpt lat="44.11973" lon="5.96144">
        <ele>588.2</ele>
        <time>2021-05-30T12:50:14.659Z</time>
      </trkpt>
      <trkpt lat="44.11916" lon="5.9615">
        <ele>584.2</ele>
        <time>2021-05-30T12:50:21.973Z</time>
      </trkpt>
      <trkpt lat="44.11908" lon="5.96145">
        <ele>583.9</ele>
        <time>2021-05-30T12:50:23.336Z</time>
      </trkpt>
      <trkpt lat="44.11901" lon="5.96129">
        <ele>583.3</ele>
        <time>2021-05-30T12:50:25.229Z</time>
      </trkpt>
      <trkpt lat="44.11862" lon="5.96096">
        <ele>583.6</ele>
        <time>2021-05-30T12:50:42.369Z</time>
      </trkpt>
      <trkpt lat="44.11823" lon="5.96088">
        <ele>585.5</ele>
        <time>2021-05-30T12:51:06.418Z</time>
      </trkpt>
      <trkpt lat="44.11782" lon="5.96103">
        <ele>587.3</ele>
        <time>2021-05-30T12:51:30.907Z</time>
      </trkpt>
      <trkpt lat="44.11761" lon="5.9609">
        <ele>589</ele>
        <time>2021-05-30T12:51:47.735Z</time>
      </trkpt>
      <trkpt lat="44.11703" lon="5.96074">
        <ele>577.4</ele>
        <time>2021-05-30T12:51:55.300Z</time>
      </trkpt>
      <trkpt lat="44.11699" lon="5.96065">
        <ele>574.3</ele>
        <time>2021-05-30T12:51:56.272Z</time>
      </trkpt>
      <trkpt lat="44.11669" lon="5.96092">
        <ele>573.1</ele>
        <time>2021-05-30T12:52:01.859Z</time>
      </trkpt>
      <trkpt lat="44.11638" lon="5.96091">
        <ele>567.7</ele>
        <time>2021-05-30T12:52:05.826Z</time>
      </trkpt>
      <trkpt lat="44.11614" lon="5.96104">
        <ele>565.7</ele>
        <time>2021-05-30T12:52:09.120Z</time>
      </trkpt>
      <trkpt lat="44.11587" lon="5.96133">
        <ele>567.5</ele>
        <time>2021-05-30T12:52:30.558Z</time>
      </trkpt>
      <trkpt lat="44.11582" lon="5.96164">
        <ele>573.4</ele>
        <time>2021-05-30T12:53:01.617Z</time>
      </trkpt>
      <trkpt lat="44.11555" lon="5.96182">
        <ele>571.8</ele>
        <time>2021-05-30T12:53:05.516Z</time>
      </trkpt>
      <trkpt lat="44.11527" lon="5.9618">
        <ele>570.2</ele>
        <time>2021-05-30T12:53:09.060Z</time>
      </trkpt>
      <trkpt lat="44.11561" lon="5.96137">
        <ele>566.7</ele>
        <time>2021-05-30T12:53:14.935Z</time>
      </trkpt>
      <trkpt lat="44.11578" lon="5.96089">
        <ele>557.9</ele>
        <time>2021-05-30T12:53:19.851Z</time>
      </trkpt>
      <trkpt lat="44.11582" lon="5.96056">
        <ele>553</ele>
        <time>2021-05-30T12:53:22.925Z</time>
      </trkpt>
      <trkpt lat="44.11591" lon="5.96035">
        <ele>551.1</ele>
        <time>2021-05-30T12:53:25.172Z</time>
      </trkpt>
      <trkpt lat="44.11644" lon="5.95978">
        <ele>548.3</ele>
        <time>2021-05-30T12:53:34.841Z</time>
      </trkpt>
      <trkpt lat="44.11648" lon="5.9596">
        <ele>546.1</ele>
        <time>2021-05-30T12:53:36.572Z</time>
      </trkpt>
      <trkpt lat="44.11642" lon="5.95955">
        <ele>544.8</ele>
        <time>2021-05-30T12:53:37.467Z</time>
      </trkpt>
      <trkpt lat="44.11595" lon="5.95982">
        <ele>544</ele>
        <time>2021-05-30T12:53:47.172Z</time>
      </trkpt>
      <trkpt lat="44.11587" lon="5.9598">
        <ele>543</ele>
        <time>2021-05-30T12:53:48.212Z</time>
      </trkpt>
      <trkpt lat="44.11587" lon="5.95948">
        <ele>539.1</ele>
        <time>2021-05-30T12:53:51.151Z</time>
      </trkpt>
      <trkpt lat="44.11582" lon="5.95935">
        <ele>537.2</ele>
        <time>2021-05-30T12:53:52.506Z</time>
      </trkpt>
      <trkpt lat="44.11574" lon="5.95866">
        <ele>531.6</ele>
        <time>2021-05-30T12:53:58.926Z</time>
      </trkpt>
      <trkpt lat="44.11598" lon="5.95843">
        <ele>530.3</ele>
        <time>2021-05-30T12:54:03.025Z</time>
      </trkpt>
      <trkpt lat="44.11623" lon="5.95841">
        <ele>531.1</ele>
        <time>2021-05-30T12:54:15.522Z</time>
      </trkpt>
      <trkpt lat="44.11663" lon="5.95852">
        <ele>533.9</ele>
        <time>2021-05-30T12:54:44.197Z</time>
      </trkpt>
      <trkpt lat="44.11689" lon="5.95871">
        <ele>536.4</ele>
        <time>2021-05-30T12:55:07.742Z</time>
      </trkpt>
      <trkpt lat="44.11711" lon="5.95873">
        <ele>537</ele>
        <time>2021-05-30T12:55:18.109Z</time>
      </trkpt>
      <trkpt lat="44.11713" lon="5.95878">
        <ele>537.8</ele>
        <time>2021-05-30T12:55:23.704Z</time>
      </trkpt>
      <trkpt lat="44.11723" lon="5.95877">
        <ele>537.8</ele>
        <time>2021-05-30T12:55:27.243Z</time>
      </trkpt>
      <trkpt lat="44.11732" lon="5.95854">
        <ele>534.4</ele>
        <time>2021-05-30T12:55:29.649Z</time>
      </trkpt>
      <trkpt lat="44.11751" lon="5.95828">
        <ele>530.4</ele>
        <time>2021-05-30T12:55:33.057Z</time>
      </trkpt>
      <trkpt lat="44.11766" lon="5.95826">
        <ele>530.5</ele>
        <time>2021-05-30T12:55:38.720Z</time>
      </trkpt>
      <trkpt lat="44.11774" lon="5.95816">
        <ele>529.6</ele>
        <time>2021-05-30T12:55:40.096Z</time>
      </trkpt>
      <trkpt lat="44.11795" lon="5.95813">
        <ele>529.9</ele>
        <time>2021-05-30T12:55:48.663Z</time>
      </trkpt>
      <trkpt lat="44.11824" lon="5.9582">
        <ele>531.5</ele>
        <time>2021-05-30T12:56:07.364Z</time>
      </trkpt>
      <trkpt lat="44.11854" lon="5.95841">
        <ele>533.9</ele>
        <time>2021-05-30T12:56:31.483Z</time>
      </trkpt>
      <trkpt lat="44.1188" lon="5.95842">
        <ele>533.9</ele>
        <time>2021-05-30T12:56:40.665Z</time>
      </trkpt>
      <trkpt lat="44.11925" lon="5.95866">
        <ele>535.6</ele>
        <time>2021-05-30T12:57:05.796Z</time>
      </trkpt>
      <trkpt lat="44.1193" lon="5.95859">
        <ele>534.5</ele>
        <time>2021-05-30T12:57:06.703Z</time>
      </trkpt>
      <trkpt lat="44.11949" lon="5.95859">
        <ele>533.1</ele>
        <time>2021-05-30T12:57:09.134Z</time>
      </trkpt>
      <trkpt lat="44.11963" lon="5.9585">
        <ele>531</ele>
        <time>2021-05-30T12:57:11.106Z</time>
      </trkpt>
      <trkpt lat="44.11994" lon="5.95861">
        <ele>530.1</ele>
        <time>2021-05-30T12:57:16.403Z</time>
      </trkpt>
      <trkpt lat="44.11999" lon="5.95876">
        <ele>531.7</ele>
        <time>2021-05-30T12:57:32.568Z</time>
      </trkpt>
      <trkpt lat="44.12019" lon="5.95884">
        <ele>531.9</ele>
        <time>2021-05-30T12:57:40.623Z</time>
      </trkpt>
      <trkpt lat="44.12065" lon="5.95871">
        <ele>528.3</ele>
        <time>2021-05-30T12:57:46.628Z</time>
      </trkpt>
      <trkpt lat="44.12095" lon="5.95889">
        <ele>528.8</ele>
        <time>2021-05-30T12:58:00.039Z</time>
      </trkpt>
      <trkpt lat="44.12107" lon="5.95925">
        <ele>531.7</ele>
        <time>2021-05-30T12:58:26.657Z</time>
      </trkpt>
      <trkpt lat="44.12121" lon="5.95933">
        <ele>531.3</ele>
        <time>2021-05-30T12:58:29.208Z</time>
      </trkpt>
      <trkpt lat="44.1212" lon="5.95955">
        <ele>533.9</ele>
        <time>2021-05-30T12:58:50.755Z</time>
      </trkpt>
      <trkpt lat="44.12136" lon="5.95988">
        <ele>536</ele>
        <time>2021-05-30T12:59:11.605Z</time>
      </trkpt>
      <trkpt lat="44.12154" lon="5.96001">
        <ele>535.6</ele>
        <time>2021-05-30T12:59:15.294Z</time>
      </trkpt>
      <trkpt lat="44.1216" lon="5.96014">
        <ele>537.3</ele>
        <time>2021-05-30T12:59:30.401Z</time>
      </trkpt>
      <trkpt lat="44.12181" lon="5.96018">
        <ele>536</ele>
        <time>2021-05-30T12:59:32.989Z</time>
      </trkpt>
      <trkpt lat="44.12208" lon="5.96033">
        <ele>536.5</ele>
        <time>2021-05-30T12:59:45.170Z</time>
      </trkpt>
      <trkpt lat="44.12295" lon="5.96058">
        <ele>531.5</ele>
        <time>2021-05-30T12:59:56.470Z</time>
      </trkpt>
      <trkpt lat="44.12306" lon="5.96044">
        <ele>527.8</ele>
        <time>2021-05-30T12:59:58.377Z</time>
      </trkpt>
      <trkpt lat="44.1231" lon="5.96029">
        <ele>525</ele>
        <time>2021-05-30T12:59:59.846Z</time>
      </trkpt>
      <trkpt lat="44.12328" lon="5.96028">
        <ele>522.7</ele>
        <time>2021-05-30T13:00:02.151Z</time>
      </trkpt>
      <trkpt lat="44.1235" lon="5.96057">
        <ele>525.1</ele>
        <time>2021-05-30T13:00:25.277Z</time>
      </trkpt>
      <trkpt lat="44.12358" lon="5.96092">
        <ele>529.7</ele>
        <time>2021-05-30T13:01:01.178Z</time>
      </trkpt>
      <trkpt lat="44.12374" lon="5.96106">
        <ele>530.8</ele>
        <time>2021-05-30T13:01:13.505Z</time>
      </trkpt>
      <trkpt lat="44.12381" lon="5.96096">
        <ele>528.3</ele>
        <time>2021-05-30T13:01:14.787Z</time>
      </trkpt>
      <trkpt lat="44.1238" lon="5.96075">
        <ele>525.1</ele>
        <time>2021-05-30T13:01:16.720Z</time>
      </trkpt>
      <trkpt lat="44.12394" lon="5.96024">
        <ele>518.4</ele>
        <time>2021-05-30T13:01:21.735Z</time>
      </trkpt>
      <trkpt lat="44.12415" lon="5.96009">
        <ele>515.9</ele>
        <time>2021-05-30T13:01:24.754Z</time>
      </trkpt>
      <trkpt lat="44.12477" lon="5.96005">
        <ele>516.1</ele>
        <time>2021-05-30T13:01:47.330Z</time>
      </trkpt>
      <trkpt lat="44.12504" lon="5.96017">
        <ele>517.1</ele>
        <time>2021-05-30T13:02:02.112Z</time>
      </trkpt>
      <trkpt lat="44.12506" lon="5.96031">
        <ele>518.1</ele>
        <time>2021-05-30T13:02:11.303Z</time>
      </trkpt>
      <trkpt lat="44.12519" lon="5.96032">
        <ele>517.8</ele>
        <time>2021-05-30T13:02:13.583Z</time>
      </trkpt>
      <trkpt lat="44.12545" lon="5.96048">
        <ele>518.9</ele>
        <time>2021-05-30T13:02:29.127Z</time>
      </trkpt>
      <trkpt lat="44.1258" lon="5.96043">
        <ele>517.7</ele>
        <time>2021-05-30T13:02:34.601Z</time>
      </trkpt>
      <trkpt lat="44.12596" lon="5.96057">
        <ele>518.8</ele>
        <time>2021-05-30T13:02:46.928Z</time>
      </trkpt>
      <trkpt lat="44.12618" lon="5.96116">
        <ele>522.8</ele>
        <time>2021-05-30T13:03:24.770Z</time>
      </trkpt>
      <trkpt lat="44.12619" lon="5.96171">
        <ele>526.1</ele>
        <time>2021-05-30T13:03:56.017Z</time>
      </trkpt>
      <trkpt lat="44.12657" lon="5.96169">
        <ele>522.1</ele>
        <time>2021-05-30T13:04:00.883Z</time>
      </trkpt>
      <trkpt lat="44.12654" lon="5.96187">
        <ele>524.2</ele>
        <time>2021-05-30T13:04:18.943Z</time>
      </trkpt>
      <trkpt lat="44.12646" lon="5.96196">
        <ele>526.1</ele>
        <time>2021-05-30T13:04:32.944Z</time>
      </trkpt>
      <trkpt lat="44.12638" lon="5.96232">
        <ele>531.1</ele>
        <time>2021-05-30T13:05:09.776Z</time>
      </trkpt>
      <trkpt lat="44.12639" lon="5.96245">
        <ele>532.4</ele>
        <time>2021-05-30T13:05:22.555Z</time>
      </trkpt>
      <trkpt lat="44.12644" lon="5.96248">
        <ele>531.9</ele>
        <time>2021-05-30T13:05:23.251Z</time>
      </trkpt>
      <trkpt lat="44.12669" lon="5.96232">
        <ele>526.2</ele>
        <time>2021-05-30T13:05:26.771Z</time>
      </trkpt>
      <trkpt lat="44.12674" lon="5.96238">
        <ele>526.2</ele>
        <time>2021-05-30T13:05:29.101Z</time>
      </trkpt>
      <trkpt lat="44.12675" lon="5.96259">
        <ele>529.3</ele>
        <time>2021-05-30T13:05:49.670Z</time>
      </trkpt>
      <trkpt lat="44.12689" lon="5.96262">
        <ele>528.3</ele>
        <time>2021-05-30T13:05:51.482Z</time>
      </trkpt>
      <trkpt lat="44.12719" lon="5.96253">
        <ele>522.4</ele>
        <time>2021-05-30T13:05:55.408Z</time>
      </trkpt>
      <trkpt lat="44.12717" lon="5.96223">
        <ele>520.3</ele>
        <time>2021-05-30T13:05:58.175Z</time>
      </trkpt>
      <trkpt lat="44.12711" lon="5.96209">
        <ele>520</ele>
        <time>2021-05-30T13:06:00.166Z</time>
      </trkpt>
      <trkpt lat="44.12709" lon="5.9622">
        <ele>520.9</ele>
        <time>2021-05-30T13:06:08.495Z</time>
      </trkpt>
      <trkpt lat="44.12722" lon="5.96227">
        <ele>520</ele>
        <time>2021-05-30T13:06:10.155Z</time>
      </trkpt>
      <trkpt lat="44.12723" lon="5.96255">
        <ele>522.4</ele>
        <time>2021-05-30T13:06:32.898Z</time>
      </trkpt>
      <trkpt lat="44.12745" lon="5.96258">
        <ele>520.3</ele>
        <time>2021-05-30T13:06:35.726Z</time>
      </trkpt>
      <trkpt lat="44.12769" lon="5.96245">
        <ele>516.2</ele>
        <time>2021-05-30T13:06:39.020Z</time>
      </trkpt>
      <trkpt lat="44.12791" lon="5.96273">
        <ele>518.3</ele>
        <time>2021-05-30T13:07:00.263Z</time>
      </trkpt>
      <trkpt lat="44.12811" lon="5.96317">
        <ele>522.4</ele>
        <time>2021-05-30T13:07:38.152Z</time>
      </trkpt>
      <trkpt lat="44.12841" lon="5.96322">
        <ele>518.4</ele>
        <time>2021-05-30T13:07:42.018Z</time>
      </trkpt>
      <trkpt lat="44.12846" lon="5.9635">
        <ele>521.6</ele>
        <time>2021-05-30T13:08:10.217Z</time>
      </trkpt>
      <trkpt lat="44.1286" lon="5.96386">
        <ele>524.3</ele>
        <time>2021-05-30T13:08:35.216Z</time>
      </trkpt>
      <trkpt lat="44.12883" lon="5.96421">
        <ele>522.4</ele>
        <time>2021-05-30T13:08:39.567Z</time>
      </trkpt>
      <trkpt lat="44.12888" lon="5.96455">
        <ele>523.6</ele>
        <time>2021-05-30T13:08:54.761Z</time>
      </trkpt>
      <trkpt lat="44.12895" lon="5.96468">
        <ele>522.9</ele>
        <time>2021-05-30T13:08:56.201Z</time>
      </trkpt>
      <trkpt lat="44.12906" lon="5.96525">
        <ele>520.6</ele>
        <time>2021-05-30T13:09:01.681Z</time>
      </trkpt>
      <trkpt lat="44.1292" lon="5.96539">
        <ele>516.7</ele>
        <time>2021-05-30T13:09:03.885Z</time>
      </trkpt>
      <trkpt lat="44.12981" lon="5.96543">
        <ele>507.1</ele>
        <time>2021-05-30T13:09:11.699Z</time>
      </trkpt>
      <trkpt lat="44.13014" lon="5.96539">
        <ele>502.6</ele>
        <time>2021-05-30T13:09:15.937Z</time>
      </trkpt>
      <trkpt lat="44.13042" lon="5.96591">
        <ele>507.7</ele>
        <time>2021-05-30T13:10:03.039Z</time>
      </trkpt>
      <trkpt lat="44.13037" lon="5.96546">
        <ele>502</ele>
        <time>2021-05-30T13:10:07.221Z</time>
      </trkpt>
      <trkpt lat="44.1304" lon="5.96538">
        <ele>500.5</ele>
        <time>2021-05-30T13:10:08.050Z</time>
      </trkpt>
      <trkpt lat="44.13055" lon="5.96532">
        <ele>498.6</ele>
        <time>2021-05-30T13:10:10.046Z</time>
      </trkpt>
      <trkpt lat="44.13069" lon="5.96573">
        <ele>503.7</ele>
        <time>2021-05-30T13:10:54.418Z</time>
      </trkpt>
    </trkseg>
  </trk>
</gpx>